
Distance (Route):
Temperature : 29.9°C
Humidity : 44.4%
Pressure : 0hPa| Receiver | Frames | First received | Last received |
|---|---|---|---|
| IW2NTF | 977 | 2026-09-05 11:02:36 | 2026-09-05 13:15:46 |
| DO3MHA-11 | 342 | 2026-09-05 11:44:48 | 2026-09-05 12:58:48 |
| DB0UT-7 | 118 | 2026-09-05 11:43:47 | 2026-09-05 12:57:40 |
| NBG1-10 | 68 | 2026-09-05 11:59:09 | 2026-09-05 12:55:14 |
| OE5DRO-10 | 46 | 2026-09-05 12:28:03 | 2026-09-05 12:49:19 |
| DB0ND-19 | 8 | 2026-09-05 12:39:07 | 2026-09-05 12:55:09 |
| DK5PH-5 | 8 | 2026-09-05 12:41:17 | 2026-09-05 12:47:32 |
| PG1ADW-2 | 8 | 2026-09-05 12:43:17 | 2026-09-05 12:45:37 |
| S52SK | 1 | 2026-09-05 12:45:20 | 2026-09-05 12:45:20 |
| Receiver | Date | Latitude | Longitude | Direction | Speed | Altitude | Climb | Temperature | Humidity | Pressure | Voltage | Killtimer | Uptime | BKT | XDATA |
|---|---|---|---|---|---|---|---|---|---|---|---|---|---|---|---|
| IW2NTF | 2026-09-05 13:15:46 | 45.14618 | 9.55633 | 86° | 15km/h | 323m | -11.1m/s | 29.9°C | 44.4% | 0hPa | 2.7V | 08:01:23 | 02:42:04 | 00:00:00 | |
| IW2NTF | 2026-09-05 13:15:46 | 45.14619 | 9.55622 | 94° | 16km/h | 346m | -11.2m/s | 29.8°C | 44.4% | 0hPa | 2.7V | 08:01:25 | 02:42:02 | 00:00:00 | |
| IW2NTF | 2026-09-05 13:15:46 | 45.14620 | 9.55612 | 101° | 16km/h | 369m | -12m/s | 29.5°C | 44.3% | 0hPa | 2.7V | 08:01:27 | 02:42:00 | 00:00:00 | |
| IW2NTF | 2026-09-05 13:15:40 | 45.14621 | 9.55601 | 107° | 13km/h | 393m | -11.9m/s | 29.3°C | 45.3% | 0hPa | 2.7V | 08:01:29 | 02:41:58 | 00:00:00 | |
| IW2NTF | 2026-09-05 13:15:40 | 45.14622 | 9.55591 | 96° | 15km/h | 417m | -11.8m/s | 29°C | 45.9% | 0hPa | 2.7V | 08:01:31 | 02:41:56 | 00:00:00 | |
| IW2NTF | 2026-09-05 13:15:40 | 45.14622 | 9.55583 | 104° | 11km/h | 441m | -12.6m/s | 28.8°C | 45.7% | 0hPa | 2.7V | 08:01:33 | 02:41:54 | 00:00:00 | |
| IW2NTF | 2026-09-05 13:15:34 | 45.14624 | 9.55574 | 100° | 13km/h | 464m | -10.1m/s | 28.7°C | 45% | 0hPa | 2.7V | 08:01:35 | 02:41:52 | 00:00:00 | |
| IW2NTF | 2026-09-05 13:15:34 | 45.14626 | 9.55564 | 95° | 15km/h | 484m | -10.7m/s | 28.5°C | 45% | 0hPa | 2.7V | 08:01:37 | 02:41:50 | 00:00:00 | |
| IW2NTF | 2026-09-05 13:15:34 | 45.14627 | 9.55554 | 103° | 15km/h | 507m | -13.5m/s | 28.3°C | 45.7% | 0hPa | 2.7V | 08:01:39 | 02:41:48 | 00:00:00 | |
| IW2NTF | 2026-09-05 13:15:28 | 45.14629 | 9.55544 | 103° | 13km/h | 534m | -13.5m/s | 28.1°C | 44.6% | 0hPa | 2.7V | 08:01:41 | 02:41:46 | 00:00:00 | |
| IW2NTF | 2026-09-05 13:15:28 | 45.14631 | 9.55535 | 110° | 13km/h | 557m | -11.2m/s | 27.9°C | 44.1% | 0hPa | 2.7V | 08:01:43 | 02:41:44 | 00:00:00 | |
| IW2NTF | 2026-09-05 13:15:28 | 45.14632 | 9.55525 | 111° | 15km/h | 581m | -13m/s | 27.7°C | 44.6% | 0hPa | 2.7V | 08:01:45 | 02:41:42 | 00:00:00 | |
| IW2NTF | 2026-09-05 13:15:22 | 45.14634 | 9.55516 | 97° | 11km/h | 606m | -12.9m/s | 27.5°C | 45.1% | 0hPa | 2.7V | 08:01:47 | 02:41:40 | 00:00:00 | |
| IW2NTF | 2026-09-05 13:15:22 | 45.14636 | 9.55507 | 103° | 15km/h | 630m | -11.5m/s | 27.3°C | 45.5% | 0hPa | 2.6V | 08:01:49 | 02:41:38 | 00:00:00 | |
| IW2NTF | 2026-09-05 13:15:22 | 45.14638 | 9.55497 | 106° | 16km/h | 653m | -11.6m/s | 27.2°C | 44.3% | 0hPa | 2.7V | 08:01:51 | 02:41:36 | 00:00:00 | |
| IW2NTF | 2026-09-05 13:15:15 | 45.14641 | 9.55487 | 114° | 16km/h | 677m | -11.8m/s | 27.1°C | 44% | 0hPa | 2.7V | 08:01:53 | 02:41:34 | 00:00:00 | |
| IW2NTF | 2026-09-05 13:15:15 | 45.14643 | 9.55476 | 111° | 15km/h | 700m | -11.9m/s | 26.9°C | 43.4% | 0hPa | 2.7V | 08:01:55 | 02:41:32 | 00:00:00 | |
| IW2NTF | 2026-09-05 13:15:15 | 45.14649 | 9.55454 | 111° | 16km/h | 749m | -12.1m/s | 26.3°C | 46.4% | 0hPa | 2.7V | 08:01:59 | 02:41:28 | 00:00:00 | |
| IW2NTF | 2026-09-05 13:15:09 | 45.14652 | 9.55445 | 119° | 15km/h | 773m | -11.9m/s | 26.3°C | 46.2% | 0hPa | 2.7V | 08:02:01 | 02:41:26 | 00:00:00 | |
| IW2NTF | 2026-09-05 13:15:09 | 45.14655 | 9.55435 | 119° | 13km/h | 796m | -11.7m/s | 26°C | 48.4% | 0hPa | 2.7V | 08:02:03 | 02:41:24 | 00:00:00 | |
| IW2NTF | 2026-09-05 13:15:09 | 45.14659 | 9.55425 | 124° | 16km/h | 818m | -12.3m/s | 25.9°C | 42.9% | 0hPa | 2.7V | 08:02:05 | 02:41:22 | 00:00:00 | |
| IW2NTF | 2026-09-05 13:15:02 | 45.14663 | 9.55415 | 122° | 15km/h | 841m | -9.7m/s | 25.6°C | 49% | 0hPa | 2.6V | 08:02:07 | 02:41:20 | 00:00:00 | |
| IW2NTF | 2026-09-05 13:15:02 | 45.14666 | 9.55406 | 110° | 11km/h | 862m | -9.9m/s | 25.7°C | 41% | 0hPa | 2.7V | 08:02:09 | 02:41:18 | 00:00:00 | |
| IW2NTF | 2026-09-05 13:15:02 | 45.14669 | 9.55398 | 111° | 15km/h | 883m | -9.5m/s | 25.7°C | 39.4% | 0hPa | 2.7V | 08:02:11 | 02:41:16 | 00:00:00 | |
| IW2NTF | 2026-09-05 13:14:56 | 45.14672 | 9.55389 | 121° | 13km/h | 905m | -9.9m/s | 25.3°C | 41.3% | 0hPa | 2.7V | 08:02:13 | 02:41:14 | 00:00:00 | |
| IW2NTF | 2026-09-05 13:14:56 | 45.14676 | 9.55381 | 126° | 15km/h | 924m | -11m/s | 25.4°C | 38.4% | 0hPa | 2.6V | 08:02:15 | 02:41:12 | 00:00:00 | |
| IW2NTF | 2026-09-05 13:14:56 | 45.14679 | 9.55374 | 126° | 13km/h | 948m | -12.9m/s | 26.1°C | 28.4% | 0hPa | 2.7V | 08:02:17 | 02:41:10 | 00:00:00 | |
| IW2NTF | 2026-09-05 13:14:50 | 45.14683 | 9.55367 | 136° | 9km/h | 974m | -13.3m/s | 26.5°C | 22.9% | 0hPa | 2.7V | 08:02:19 | 02:41:08 | 00:00:00 | |
| IW2NTF | 2026-09-05 13:14:50 | 45.14687 | 9.55363 | 135° | 9km/h | 1000m | -12.6m/s | 26.3°C | 23.2% | 0hPa | 2.6V | 08:02:21 | 02:41:06 | 00:00:00 | |
| IW2NTF | 2026-09-05 13:14:50 | 45.14690 | 9.55358 | 128° | 11km/h | 1024m | -11.5m/s | 26.1°C | 23.6% | 0hPa | 2.7V | 08:02:23 | 02:41:04 | 00:00:00 | |
| IW2NTF | 2026-09-05 13:14:43 | 45.14693 | 9.55352 | 118° | 9km/h | 1047m | -11.8m/s | 26°C | 23.9% | 0hPa | 2.7V | 08:02:25 | 02:41:02 | 00:00:00 | |
| IW2NTF | 2026-09-05 13:14:43 | 45.14697 | 9.55347 | 127° | 11km/h | 1069m | -10.5m/s | 25.8°C | 23.6% | 0hPa | 2.6V | 08:02:27 | 02:41:00 | 00:00:00 | |
| IW2NTF | 2026-09-05 13:14:43 | 45.14701 | 9.55342 | 145° | 11km/h | 1089m | -10.2m/s | 25.7°C | 23.5% | 0hPa | 2.7V | 08:02:29 | 02:40:58 | 00:00:00 | |
| IW2NTF | 2026-09-05 13:14:38 | 45.14705 | 9.55338 | 152° | 7km/h | 1111m | -11.5m/s | 25.5°C | 23.7% | 0hPa | 2.7V | 08:02:31 | 02:40:56 | 00:00:00 | |
| IW2NTF | 2026-09-05 13:14:38 | 45.14709 | 9.55334 | 146° | 9km/h | 1134m | -11.9m/s | 25.3°C | 23.7% | 0hPa | 2.6V | 08:02:33 | 02:40:54 | 00:00:00 | |
| IW2NTF | 2026-09-05 13:14:38 | 45.14714 | 9.55331 | 158° | 11km/h | 1157m | -11.4m/s | 25.2°C | 22.5% | 0hPa | 2.7V | 08:02:35 | 02:40:52 | 00:00:00 | |
| IW2NTF | 2026-09-05 13:14:31 | 45.14719 | 9.55327 | 160° | 9km/h | 1180m | -12.2m/s | 25°C | 22.1% | 0hPa | 2.7V | 08:02:37 | 02:40:50 | 00:00:00 | |
| IW2NTF | 2026-09-05 13:14:31 | 45.14724 | 9.55323 | 140° | 11km/h | 1203m | -12.3m/s | 24.8°C | 22.1% | 0hPa | 2.6V | 08:02:39 | 02:40:48 | 00:00:00 | |
| IW2NTF | 2026-09-05 13:14:31 | 45.14729 | 9.55319 | 155° | 15km/h | 1227m | -11.9m/s | 24.7°C | 22.3% | 0hPa | 2.7V | 08:02:41 | 02:40:46 | 00:00:00 | |
| IW2NTF | 2026-09-05 13:14:25 | 45.14736 | 9.55315 | 159° | 16km/h | 1251m | -11.8m/s | 24.5°C | 22.7% | 0hPa | 2.7V | 08:02:43 | 02:40:44 | 00:00:00 | |
| IW2NTF | 2026-09-05 13:14:25 | 45.14743 | 9.55311 | 161° | 16km/h | 1273m | -11.6m/s | 24.3°C | 23% | 0hPa | 2.7V | 08:02:45 | 02:40:42 | 00:00:00 | |
| IW2NTF | 2026-09-05 13:14:25 | 45.14750 | 9.55306 | 163° | 13km/h | 1296m | -11.9m/s | 24.1°C | 23.5% | 0hPa | 2.7V | 08:02:47 | 02:40:40 | 00:00:00 | |
| IW2NTF | 2026-09-05 13:14:19 | 45.14758 | 9.55302 | 160° | 18km/h | 1318m | -11.2m/s | 23.8°C | 23.7% | 0hPa | 2.7V | 08:02:49 | 02:40:38 | 00:00:00 | |
| IW2NTF | 2026-09-05 13:14:19 | 45.14765 | 9.55299 | 153° | 15km/h | 1341m | -13m/s | 23.6°C | 24% | 0hPa | 2.7V | 08:02:51 | 02:40:36 | 00:00:00 | |
| IW2NTF | 2026-09-05 13:14:19 | 45.14772 | 9.55295 | 171° | 16km/h | 1365m | -11m/s | 23.4°C | 24.3% | 0hPa | 2.6V | 08:02:53 | 02:40:34 | 00:00:00 | |
| IW2NTF | 2026-09-05 13:14:13 | 45.14781 | 9.55292 | 161° | 18km/h | 1385m | -10.8m/s | 23.2°C | 24.6% | 0hPa | 2.7V | 08:02:55 | 02:40:32 | 00:00:00 | |
| IW2NTF | 2026-09-05 13:14:13 | 45.14791 | 9.55287 | 157° | 20km/h | 1408m | -12m/s | 23°C | 24.8% | 0hPa | 2.7V | 08:02:57 | 02:40:30 | 00:00:00 | |
| IW2NTF | 2026-09-05 13:14:13 | 45.14800 | 9.55284 | 161° | 20km/h | 1431m | -11.9m/s | 22.8°C | 25.1% | 0hPa | 2.7V | 08:02:59 | 02:40:28 | 00:00:00 | |
| IW2NTF | 2026-09-05 13:14:07 | 45.14811 | 9.55280 | 163° | 20km/h | 1454m | -11.8m/s | 22.6°C | 25.4% | 0hPa | 2.7V | 08:03:01 | 02:40:26 | 00:00:00 | |
| IW2NTF | 2026-09-05 13:14:07 | 45.14822 | 9.55275 | 158° | 22km/h | 1475m | -10.1m/s | 22.4°C | 25.6% | 0hPa | 2.7V | 08:03:03 | 02:40:24 | 00:00:00 | |
| IW2NTF | 2026-09-05 13:14:07 | 45.14832 | 9.55271 | 160° | 22km/h | 1497m | -11.5m/s | 22.2°C | 26% | 0hPa | 2.6V | 08:03:05 | 02:40:22 | 00:00:00 | |
| IW2NTF | 2026-09-05 13:14:01 | 45.14843 | 9.55268 | 162° | 24km/h | 1519m | -11.2m/s | 22°C | 26.3% | 0hPa | 2.7V | 08:03:07 | 02:40:20 | 00:00:00 | |
| IW2NTF | 2026-09-05 13:14:01 | 45.14854 | 9.55263 | 167° | 24km/h | 1540m | -10.4m/s | 21.9°C | 26.8% | 0hPa | 2.7V | 08:03:09 | 02:40:18 | 00:00:00 | |
| IW2NTF | 2026-09-05 13:14:01 | 45.14865 | 9.55258 | 167° | 22km/h | 1562m | -11.8m/s | 21.7°C | 27.1% | 0hPa | 2.7V | 08:03:11 | 02:40:16 | 00:00:00 | |
| IW2NTF | 2026-09-05 13:13:55 | 45.14889 | 9.55248 | 155° | 24km/h | 1606m | -11m/s | 21.4°C | 27.6% | 0hPa | 2.7V | 08:03:15 | 02:40:12 | 00:00:00 | |
| IW2NTF | 2026-09-05 13:13:55 | 45.14900 | 9.55242 | 154° | 24km/h | 1627m | -10.7m/s | 21.3°C | 27.3% | 0hPa | 2.7V | 08:03:17 | 02:40:10 | 00:00:00 | |
| IW2NTF | 2026-09-05 13:13:55 | 45.14922 | 9.55229 | 162° | 22km/h | 1670m | -12.8m/s | 21°C | 27.4% | 0hPa | 2.7V | 08:03:21 | 02:40:06 | 00:00:00 | |
| IW2NTF | 2026-09-05 13:13:46 | 45.14933 | 9.55223 | 150° | 22km/h | 1693m | -12.9m/s | 20.8°C | 27.6% | 0hPa | 2.7V | 08:03:23 | 02:40:04 | 00:00:00 | |
| IW2NTF | 2026-09-05 13:13:46 | 45.14943 | 9.55216 | 147° | 22km/h | 1718m | -12.2m/s | 20.6°C | 27.1% | 0hPa | 2.7V | 08:03:25 | 02:40:02 | 00:00:00 | |
| IW2NTF | 2026-09-05 13:13:46 | 45.14952 | 9.55209 | 152° | 18km/h | 1742m | -12.9m/s | 20.4°C | 27.4% | 0hPa | 2.6V | 08:03:27 | 02:40:00 | 00:00:00 | |
| IW2NTF | 2026-09-05 13:13:39 | 45.14961 | 9.55203 | 155° | 18km/h | 1766m | -12m/s | 20.1°C | 27.6% | 0hPa | 2.7V | 08:03:29 | 02:39:58 | 00:00:00 | |
| IW2NTF | 2026-09-05 13:13:39 | 45.14970 | 9.55197 | 157° | 20km/h | 1790m | -12.5m/s | 19.9°C | 27.9% | 0hPa | 2.7V | 08:03:31 | 02:39:56 | 00:00:00 | |
| IW2NTF | 2026-09-05 13:13:39 | 45.14986 | 9.55186 | 149° | 18km/h | 1839m | -13.5m/s | 19.5°C | 28.3% | 0hPa | 2.7V | 08:03:35 | 02:39:52 | 00:00:00 | |
| IW2NTF | 2026-09-05 13:13:32 | 45.14994 | 9.55180 | 145° | 18km/h | 1865m | -13.7m/s | 19.3°C | 28% | 0hPa | 2.6V | 08:03:37 | 02:39:50 | 00:00:00 | |
| IW2NTF | 2026-09-05 13:13:32 | 45.15001 | 9.55173 | 148° | 18km/h | 1891m | -13.4m/s | 19.1°C | 28.4% | 0hPa | 2.7V | 08:03:39 | 02:39:48 | 00:00:00 | |
| IW2NTF | 2026-09-05 13:13:32 | 45.15009 | 9.55168 | 153° | 18km/h | 1917m | -12.1m/s | 18.8°C | 28.8% | 0hPa | 2.7V | 08:03:41 | 02:39:46 | 00:00:00 | |
| IW2NTF | 2026-09-05 13:13:25 | 45.15016 | 9.55161 | 153° | 15km/h | 1942m | -13.4m/s | 18.6°C | 29.2% | 0hPa | 2.7V | 08:03:43 | 02:39:44 | 00:00:00 | |
| IW2NTF | 2026-09-05 13:13:25 | 45.15023 | 9.55155 | 145° | 16km/h | 1967m | -12.7m/s | 18.3°C | 29.1% | 0hPa | 2.7V | 08:03:45 | 02:39:42 | 00:00:00 | |
| IW2NTF | 2026-09-05 13:13:25 | 45.15030 | 9.55150 | 162° | 16km/h | 1992m | -11.7m/s | 18.1°C | 29.4% | 0hPa | 2.7V | 08:03:47 | 02:39:40 | 00:00:00 | |
| IW2NTF | 2026-09-05 13:13:20 | 45.15051 | 9.55136 | 154° | 13km/h | 2062m | -11.6m/s | 17.4°C | 30.3% | 0hPa | 2.7V | 08:03:53 | 02:39:34 | 00:00:00 | |
| IW2NTF | 2026-09-05 13:13:13 | 45.15068 | 9.55120 | 135° | 13km/h | 2135m | -12.1m/s | 16.8°C | 31% | 0hPa | 2.6V | 08:03:59 | 02:39:28 | 00:00:00 | |
| IW2NTF | 2026-09-05 13:13:08 | 45.15081 | 9.55104 | 148° | 7km/h | 2209m | -11.8m/s | 16.1°C | 31.5% | 0hPa | 2.7V | 08:04:05 | 02:39:22 | 00:00:00 | |
| IW2NTF | 2026-09-05 13:13:02 | 45.15090 | 9.55090 | 116° | 7km/h | 2284m | -13m/s | 15.4°C | 32.8% | 0hPa | 2.7V | 08:04:11 | 02:39:16 | 00:00:00 | |
| IW2NTF | 2026-09-05 13:12:55 | 45.15097 | 9.55074 | 97° | 11km/h | 2357m | -13.6m/s | 14.7°C | 33.6% | 0hPa | 2.7V | 08:04:17 | 02:39:10 | 00:00:00 | |
| IW2NTF | 2026-09-05 13:12:46 | 45.15100 | 9.55059 | 101° | 5km/h | 2432m | -13.1m/s | 14°C | 34.7% | 0hPa | 2.7V | 08:04:23 | 02:39:04 | 00:00:00 | |
| IW2NTF | 2026-09-05 13:12:38 | 45.15103 | 9.55042 | 112° | 9km/h | 2506m | -12.1m/s | 13.4°C | 35.2% | 0hPa | 2.7V | 08:04:29 | 02:38:58 | 00:00:00 | |
| IW2NTF | 2026-09-05 13:12:38 | 45.15107 | 9.55020 | 96° | 15km/h | 2582m | -12m/s | 12.6°C | 36.3% | 0hPa | 2.6V | 08:04:35 | 02:38:52 | 00:00:00 | |
| IW2NTF | 2026-09-05 13:12:32 | 45.15115 | 9.54973 | 100° | 13km/h | 2711m | -13.2m/s | 11.5°C | 36.3% | 0hPa | 2.7V | 08:04:45 | 02:38:42 | 00:00:00 | |
| IW2NTF | 2026-09-05 13:12:27 | 45.15121 | 9.54936 | 104° | 22km/h | 2782m | -12.9m/s | 11.1°C | 34.5% | 0hPa | 2.7V | 08:04:51 | 02:38:36 | 00:00:00 | |
| IW2NTF | 2026-09-05 13:12:15 | 45.15130 | 9.54897 | 109° | 18km/h | 2852m | -12.3m/s | 10.7°C | 32.8% | 0hPa | 2.6V | 08:04:57 | 02:38:30 | 00:00:00 | |
| IW2NTF | 2026-09-05 13:12:05 | 45.15141 | 9.54864 | 115° | 13km/h | 2923m | -11.7m/s | 10.3°C | 33.5% | 0hPa | 2.7V | 08:05:03 | 02:38:24 | 00:00:00 | |
| IW2NTF | 2026-09-05 13:12:05 | 45.15149 | 9.54838 | 103° | 13km/h | 2993m | -12.6m/s | 10.4°C | 28.4% | 0hPa | 2.7V | 08:05:09 | 02:38:18 | 00:00:00 | |
| IW2NTF | 2026-09-05 13:11:59 | 45.15151 | 9.54820 | 96° | 5km/h | 3068m | -12.1m/s | 10.6°C | 21% | 0hPa | 2.7V | 08:05:15 | 02:38:12 | 00:00:00 | |
| IW2NTF | 2026-09-05 13:11:52 | 45.15149 | 9.54808 | 65° | 7km/h | 3144m | -14m/s | 9.9°C | 25.1% | 0hPa | 2.7V | 08:05:21 | 02:38:06 | 00:00:00 | |
| IW2NTF | 2026-09-05 13:11:45 | 45.15147 | 9.54800 | 83° | 4km/h | 3223m | -14.3m/s | 9.3°C | 28.7% | 0hPa | 2.7V | 08:05:27 | 02:38:00 | 00:00:00 | |
| IW2NTF | 2026-09-05 13:11:39 | 45.15152 | 9.54790 | 148° | 5km/h | 3303m | -13.2m/s | 8.6°C | 31.6% | 0hPa | 2.6V | 08:05:33 | 02:37:54 | 00:00:00 | |
| IW2NTF | 2026-09-05 13:11:33 | 45.15165 | 9.54775 | 143° | 13km/h | 3383m | -14.8m/s | 8.2°C | 29.3% | 0hPa | 2.6V | 08:05:39 | 02:37:48 | 00:00:00 | |
| IW2NTF | 2026-09-05 13:11:27 | 45.15181 | 9.54756 | 133° | 13km/h | 3468m | -13.2m/s | 7.5°C | 30.4% | 0hPa | 2.7V | 08:05:45 | 02:37:42 | 00:00:00 | |
| IW2NTF | 2026-09-05 13:11:22 | 45.15195 | 9.54736 | 137° | 15km/h | 3545m | -11.8m/s | 6.8°C | 31.2% | 0hPa | 2.7V | 08:05:51 | 02:37:36 | 00:00:00 | |
| IW2NTF | 2026-09-05 13:11:15 | 45.15208 | 9.54715 | 125° | 9km/h | 3617m | -12.5m/s | 6.5°C | 28% | 0hPa | 2.7V | 08:05:57 | 02:37:30 | 00:00:00 | |
| IW2NTF | 2026-09-05 13:11:09 | 45.15214 | 9.54693 | 81° | 9km/h | 3692m | -12.3m/s | 5.9°C | 25.1% | 0hPa | 2.7V | 08:06:03 | 02:37:24 | 00:00:00 | |
| IW2NTF | 2026-09-05 13:11:03 | 45.15213 | 9.54675 | 74° | 5km/h | 3762m | -13.2m/s | 5.4°C | 22.9% | 0hPa | 2.7V | 08:06:09 | 02:37:18 | 00:00:00 | |
| IW2NTF | 2026-09-05 13:10:58 | 45.15207 | 9.54660 | 59° | 11km/h | 3835m | -12m/s | 5°C | 20.6% | 0hPa | 2.7V | 08:06:15 | 02:37:12 | 00:00:00 | |
| IW2NTF | 2026-09-05 13:10:51 | 45.15199 | 9.54645 | 65° | 7km/h | 3908m | -12.1m/s | 4.8°C | 16.1% | 0hPa | 2.7V | 08:06:21 | 02:37:06 | 00:00:00 | |
| IW2NTF | 2026-09-05 13:10:45 | 45.15194 | 9.54628 | 83° | 7km/h | 3984m | -13.3m/s | 4.5°C | 20.1% | 0hPa | 2.7V | 08:06:27 | 02:37:00 | 00:00:00 | |
| IW2NTF | 2026-09-05 13:10:39 | 45.15192 | 9.54606 | 88° | 9km/h | 4060m | -12.4m/s | 4.2°C | 18.2% | 0hPa | 2.7V | 08:06:33 | 02:36:54 | 00:00:00 | |
| IW2NTF | 2026-09-05 13:10:33 | 45.15196 | 9.54583 | 115° | 13km/h | 4145m | -15.3m/s | 3.5°C | 33.6% | 0hPa | 2.7V | 08:06:39 | 02:36:48 | 00:00:00 | |
| IW2NTF | 2026-09-05 13:10:28 | 45.15206 | 9.54559 | 132° | 13km/h | 4236m | -14.8m/s | 2.7°C | 43.5% | 0hPa | 2.7V | 08:06:45 | 02:36:42 | 00:00:00 | |
| IW2NTF | 2026-09-05 13:10:21 | 45.15220 | 9.54528 | 122° | 18km/h | 4319m | -11.9m/s | 1.9°C | 50.4% | 0hPa | 2.7V | 08:06:51 | 02:36:36 | 00:00:00 | |
| IW2NTF | 2026-09-05 13:10:15 | 45.15239 | 9.54485 | 117° | 27km/h | 4390m | -10.7m/s | 1.5°C | 57.3% | 0hPa | 2.6V | 08:06:57 | 02:36:30 | 00:00:00 | |
| IW2NTF | 2026-09-05 13:10:10 | 45.15260 | 9.54431 | 119° | 35km/h | 4464m | -13.3m/s | 1.3°C | 58.1% | 0hPa | 2.7V | 08:07:03 | 02:36:24 | 00:00:00 | |
| IW2NTF | 2026-09-05 13:10:04 | 45.15285 | 9.54362 | 117° | 38km/h | 4542m | -12.5m/s | 0.7°C | 60.3% | 0hPa | 2.7V | 08:07:09 | 02:36:18 | 00:00:00 | |
| IW2NTF | 2026-09-05 13:09:56 | 45.15323 | 9.54254 | 116° | 49km/h | 4639m | -12.7m/s | 0.2°C | 60.7% | 0hPa | 2.6V | 08:07:17 | 02:36:10 | 00:00:00 | |
| IW2NTF | 2026-09-05 13:09:49 | 45.15362 | 9.54156 | 120° | 53km/h | 4710m | -11.4m/s | 0.6°C | 54.4% | 0hPa | 2.6V | 08:07:23 | 02:36:04 | 00:00:00 | |
| IW2NTF | 2026-09-05 13:09:43 | 45.15405 | 9.54052 | 122° | 57km/h | 4785m | -12m/s | -0.2°C | 56.7% | 0hPa | 2.6V | 08:07:29 | 02:35:58 | 00:00:00 | |
| IW2NTF | 2026-09-05 13:09:37 | 45.15453 | 9.53948 | 124° | 60km/h | 4852m | -11m/s | -0.2°C | 54.3% | 0hPa | 2.6V | 08:07:35 | 02:35:52 | 00:00:00 | |
| IW2NTF | 2026-09-05 13:09:31 | 45.15503 | 9.53843 | 126° | 60km/h | 4919m | -9.1m/s | -0.8°C | 56.4% | 0hPa | 2.7V | 08:07:41 | 02:35:46 | 00:00:00 | |
| IW2NTF | 2026-09-05 13:09:25 | 45.15556 | 9.53738 | 123° | 60km/h | 4987m | -10.9m/s | -1.3°C | 57.8% | 0hPa | 2.6V | 08:07:47 | 02:35:40 | 00:00:00 | |
| IW2NTF | 2026-09-05 13:09:14 | 45.15623 | 9.53600 | 124° | 57km/h | 5076m | -12.5m/s | -2°C | 58.2% | 0hPa | 2.6V | 08:07:55 | 02:35:32 | 00:00:00 | |
| IW2NTF | 2026-09-05 13:09:04 | 45.15700 | 9.53427 | 120° | 57km/h | 5193m | -11.1m/s | -2.8°C | 60% | 0hPa | 2.6V | 08:08:05 | 02:35:22 | 00:00:00 | |
| IW2NTF | 2026-09-05 13:08:53 | 45.15771 | 9.53252 | 116° | 58km/h | 5308m | -12.9m/s | -3.8°C | 64.5% | 0hPa | 2.6V | 08:08:15 | 02:35:12 | 00:00:00 | |
| IW2NTF | 2026-09-05 13:08:48 | 45.15829 | 9.53067 | 110° | 55km/h | 5406m | -7.6m/s | -4.3°C | 63.3% | 0hPa | 2.6V | 08:08:25 | 02:35:02 | 00:00:00 | |
| IW2NTF | 2026-09-05 13:08:38 | 45.15883 | 9.52874 | 111° | 58km/h | 5496m | -8.8m/s | -4.9°C | 63.7% | 0hPa | 2.6V | 08:08:35 | 02:34:52 | 00:00:00 | |
| IW2NTF | 2026-09-05 13:08:28 | 45.15940 | 9.52671 | 113° | 64km/h | 5583m | -10.9m/s | -5.7°C | 66% | 0hPa | 2.6V | 08:08:45 | 02:34:42 | 00:00:00 | |
| IW2NTF | 2026-09-05 13:08:17 | 45.16008 | 9.52460 | 113° | 66km/h | 5679m | -8.1m/s | -6.4°C | 66.9% | 0hPa | 2.5V | 08:08:55 | 02:34:32 | 00:00:00 | |
| IW2NTF | 2026-09-05 13:08:08 | 45.16080 | 9.52247 | 116° | 66km/h | 5776m | -10.9m/s | -7.2°C | 70% | 0hPa | 2.5V | 08:09:05 | 02:34:22 | 00:00:00 | |
| IW2NTF | 2026-09-05 13:07:58 | 45.16151 | 9.52036 | 112° | 68km/h | 5866m | -10.6m/s | -7.2°C | 62% | 0hPa | 2.6V | 08:09:15 | 02:34:12 | 00:00:00 | |
| IW2NTF | 2026-09-05 13:07:47 | 45.16217 | 9.51825 | 114° | 60km/h | 5968m | -9.4m/s | -7.4°C | 59.3% | 0hPa | 2.6V | 08:09:25 | 02:34:02 | 00:00:00 | |
| IW2NTF | 2026-09-05 13:07:37 | 45.16288 | 9.51597 | 115° | 62km/h | 6086m | -11.1m/s | -8.4°C | 61.9% | 0hPa | 2.6V | 08:09:36 | 02:33:51 | 00:00:00 | |
| IW2NTF | 2026-09-05 13:07:26 | 45.16359 | 9.51384 | 114° | 68km/h | 6204m | -12.8m/s | -9.2°C | 57.5% | 0hPa | 2.5V | 08:09:46 | 02:33:41 | 00:00:00 | |
| IW2NTF | 2026-09-05 13:07:16 | 45.16430 | 9.51168 | 114° | 68km/h | 6330m | -13.4m/s | -10.2°C | 62.4% | 0hPa | 2.6V | 08:09:56 | 02:33:31 | 00:00:00 | |
| IW2NTF | 2026-09-05 13:07:06 | 45.16499 | 9.50947 | 111° | 69km/h | 6452m | -11.3m/s | -10.8°C | 56.8% | 0hPa | 2.6V | 08:10:06 | 02:33:21 | 00:00:00 | |
| IW2NTF | 2026-09-05 13:06:57 | 45.16564 | 9.50712 | 112° | 73km/h | 6562m | -11.1m/s | -11.7°C | 61.9% | 0hPa | 2.5V | 08:10:16 | 02:33:11 | 00:00:00 | |
| IW2NTF | 2026-09-05 13:06:47 | 45.16630 | 9.50459 | 107° | 77km/h | 6670m | -10.3m/s | -12.6°C | 62% | 0hPa | 2.5V | 08:10:26 | 02:33:01 | 00:00:00 | |
| IW2NTF | 2026-09-05 13:06:33 | 45.16693 | 9.50196 | 109° | 77km/h | 6780m | -10.4m/s | -13.6°C | 62.3% | 0hPa | 2.6V | 08:10:36 | 02:32:51 | 00:00:00 | |
| IW2NTF | 2026-09-05 13:06:23 | 45.16755 | 9.49939 | 109° | 77km/h | 6884m | -9.7m/s | -14.5°C | 65.2% | 0hPa | 2.5V | 08:10:46 | 02:32:41 | 00:00:00 | |
| IW2NTF | 2026-09-05 13:06:14 | 45.16822 | 9.49690 | 112° | 73km/h | 6988m | -9.9m/s | -15.4°C | 74.2% | 0hPa | 2.6V | 08:10:56 | 02:32:31 | 00:00:00 | |
| IW2NTF | 2026-09-05 13:06:03 | 45.16888 | 9.49456 | 110° | 68km/h | 7092m | -10.2m/s | -16.2°C | 75.9% | 0hPa | 2.6V | 08:11:06 | 02:32:21 | 00:00:00 | |
| IW2NTF | 2026-09-05 13:05:53 | 45.16949 | 9.49231 | 109° | 68km/h | 7200m | -10.5m/s | -17°C | 76% | 0hPa | 2.6V | 08:11:16 | 02:32:11 | 00:00:00 | |
| IW2NTF | 2026-09-05 13:05:44 | 45.17002 | 9.49012 | 107° | 64km/h | 7304m | -10.6m/s | -17.8°C | 77.3% | 0hPa | 2.5V | 08:11:26 | 02:32:01 | 00:00:00 | |
| IW2NTF | 2026-09-05 13:05:34 | 45.17057 | 9.48797 | 110° | 64km/h | 7419m | -11.6m/s | -18.3°C | 68.3% | 0hPa | 2.6V | 08:11:36 | 02:31:51 | 00:00:00 | |
| IW2NTF | 2026-09-05 13:05:23 | 45.17116 | 9.48601 | 113° | 60km/h | 7517m | -11.3m/s | -18.9°C | 65.8% | 0hPa | 2.6V | 08:11:46 | 02:31:41 | 00:00:00 | |
| IW2NTF | 2026-09-05 13:05:14 | 45.17179 | 9.48411 | 113° | 60km/h | 7619m | -11.2m/s | -19.9°C | 69% | 0hPa | 2.5V | 08:11:56 | 02:31:31 | 00:00:00 | |
| IW2NTF | 2026-09-05 13:05:03 | 45.17242 | 9.48224 | 117° | 55km/h | 7726m | -12.3m/s | -20.9°C | 73% | 0hPa | 2.6V | 08:12:06 | 02:31:21 | 00:00:00 | |
| IW2NTF | 2026-09-05 13:04:53 | 45.17310 | 9.48048 | 122° | 53km/h | 7845m | -11.7m/s | -21.9°C | 75.4% | 0hPa | 2.6V | 08:12:16 | 02:31:11 | 00:00:00 | |
| IW2NTF | 2026-09-05 13:04:44 | 45.17389 | 9.47878 | 126° | 58km/h | 7964m | -11.6m/s | -22.9°C | 79% | 0hPa | 2.6V | 08:12:26 | 02:31:01 | 00:00:00 | |
| IW2NTF | 2026-09-05 13:04:33 | 45.17474 | 9.47712 | 126° | 58km/h | 8087m | -11.9m/s | -23.9°C | 78.1% | 0hPa | 2.5V | 08:12:36 | 02:30:51 | 00:00:00 | |
| IW2NTF | 2026-09-05 13:04:23 | 45.17566 | 9.47511 | 118° | 58km/h | 8235m | -13m/s | -25.1°C | 82.2% | 0hPa | 2.6V | 08:12:48 | 02:30:39 | 00:00:00 | |
| IW2NTF | 2026-09-05 13:04:13 | 45.17636 | 9.47328 | 118° | 62km/h | 8356m | -12.3m/s | -25.4°C | 63.6% | 0hPa | 2.6V | 08:12:58 | 02:30:29 | 00:00:00 | |
| IW2NTF | 2026-09-05 13:04:03 | 45.17715 | 9.47127 | 120° | 68km/h | 8476m | -11.7m/s | -26.4°C | 66.7% | 0hPa | 2.6V | 08:13:08 | 02:30:19 | 00:00:00 | |
| IW2NTF | 2026-09-05 13:03:53 | 45.17796 | 9.46912 | 118° | 69km/h | 8600m | -12.2m/s | -27.1°C | 57.5% | 0hPa | 2.5V | 08:13:18 | 02:30:09 | 00:00:00 | |
| IW2NTF | 2026-09-05 13:03:43 | 45.17876 | 9.46704 | 122° | 66km/h | 8726m | -12.6m/s | -27.8°C | 44.7% | 0hPa | 2.5V | 08:13:28 | 02:29:59 | 00:00:00 | |
| IW2NTF | 2026-09-05 13:03:34 | 45.17967 | 9.46512 | 126° | 68km/h | 8857m | -13.3m/s | -28.8°C | 44.2% | 0hPa | 2.6V | 08:13:38 | 02:29:49 | 00:00:00 | |
| IW2NTF | 2026-09-05 13:03:23 | 45.18074 | 9.46326 | 132° | 69km/h | 8987m | -12.9m/s | -29.8°C | 47.6% | 0hPa | 2.6V | 08:13:48 | 02:29:39 | 00:00:00 | |
| IW2NTF | 2026-09-05 13:03:11 | 45.18201 | 9.46150 | 136° | 73km/h | 9115m | -12.2m/s | -30.7°C | 48.4% | 0hPa | 2.5V | 08:13:58 | 02:29:29 | 00:00:00 | |
| IW2NTF | 2026-09-05 13:03:02 | 45.18343 | 9.45975 | 138° | 78km/h | 9238m | -12.8m/s | -31.6°C | 44.7% | 0hPa | 2.5V | 08:14:08 | 02:29:19 | 00:00:00 | |
| IW2NTF | 2026-09-05 13:02:51 | 45.18502 | 9.45781 | 139° | 84km/h | 9364m | -13.9m/s | -32.4°C | 38.9% | 0hPa | 2.6V | 08:14:18 | 02:29:09 | 00:00:00 | |
| IW2NTF | 2026-09-05 13:02:42 | 45.18663 | 9.45573 | 138° | 82km/h | 9497m | -13.4m/s | -33.5°C | 36.6% | 0hPa | 2.5V | 08:14:28 | 02:28:59 | 00:00:00 | |
| IW2NTF | 2026-09-05 13:02:31 | 45.18819 | 9.45363 | 135° | 84km/h | 9626m | -13.2m/s | -34.6°C | 38.1% | 0hPa | 2.6V | 08:14:38 | 02:28:49 | 00:00:00 | |
| IW2NTF | 2026-09-05 13:02:23 | 45.18973 | 9.45147 | 133° | 84km/h | 9753m | -13.1m/s | -35.6°C | 35.3% | 0hPa | 2.5V | 08:14:48 | 02:28:39 | 00:00:00 | |
| IW2NTF | 2026-09-05 13:02:12 | 45.19120 | 9.44929 | 131° | 84km/h | 9879m | -12.8m/s | -36.5°C | 26.6% | 0hPa | 2.5V | 08:14:58 | 02:28:29 | 00:00:00 | |
| IW2NTF | 2026-09-05 13:02:01 | 45.19268 | 9.44713 | 133° | 80km/h | 10007m | -13.4m/s | -37.6°C | 25.5% | 0hPa | 2.6V | 08:15:08 | 02:28:19 | 00:00:00 | |
| IW2NTF | 2026-09-05 13:01:51 | 45.19430 | 9.44486 | 136° | 78km/h | 10149m | -13.5m/s | -38.9°C | 27.4% | 0hPa | 2.5V | 08:15:19 | 02:28:08 | 00:00:00 | |
| IW2NTF | 2026-09-05 13:01:41 | 45.19572 | 9.44282 | 134° | 80km/h | 10285m | -13.8m/s | -40.1°C | 29.4% | 0hPa | 2.5V | 08:15:29 | 02:27:58 | 00:00:00 | |
| IW2NTF | 2026-09-05 13:01:31 | 45.19723 | 9.44078 | 139° | 80km/h | 10419m | -14.1m/s | -41.3°C | 34.2% | 0hPa | 2.5V | 08:15:39 | 02:27:48 | 00:00:00 | |
| IW2NTF | 2026-09-05 13:01:21 | 45.19880 | 9.43888 | 139° | 82km/h | 10561m | -14.6m/s | -42.6°C | 39.9% | 0hPa | 2.5V | 08:15:49 | 02:27:38 | 00:00:00 | |
| IW2NTF | 2026-09-05 13:01:12 | 45.20037 | 9.43701 | 139° | 77km/h | 10705m | -14.8m/s | -44°C | 45.2% | 0hPa | 2.5V | 08:15:59 | 02:27:28 | 00:00:00 | |
| IW2NTF | 2026-09-05 13:01:02 | 45.20193 | 9.43511 | 141° | 80km/h | 10848m | -14.6m/s | -45.3°C | 48.6% | 0hPa | 2.5V | 08:16:09 | 02:27:18 | 00:00:00 | |
| IW2NTF | 2026-09-05 13:00:52 | 45.20344 | 9.43331 | 139° | 80km/h | 10994m | -15.1m/s | -46.7°C | 48.9% | 0hPa | 2.5V | 08:16:19 | 02:27:08 | 00:00:00 | |
| IW2NTF | 2026-09-05 13:00:42 | 45.20501 | 9.43169 | 142° | 75km/h | 11140m | -15.2m/s | -47.9°C | 48.2% | 0hPa | 2.5V | 08:16:29 | 02:26:58 | 00:00:00 | |
| IW2NTF | 2026-09-05 13:00:34 | 45.20664 | 9.43008 | 147° | 78km/h | 11285m | -14.4m/s | -49.1°C | 50% | 0hPa | 2.5V | 08:16:39 | 02:26:48 | 00:00:00 | |
| IW2NTF | 2026-09-05 13:00:22 | 45.20834 | 9.42859 | 147° | 78km/h | 11433m | -15m/s | -50.3°C | 53.6% | 0hPa | 2.5V | 08:16:49 | 02:26:38 | 00:00:00 | |
| IW2NTF | 2026-09-05 13:00:11 | 45.21006 | 9.42702 | 146° | 84km/h | 11585m | -14.8m/s | -51.6°C | 57.5% | 0hPa | 2.5V | 08:16:59 | 02:26:28 | 00:00:00 | |
| IW2NTF | 2026-09-05 13:00:02 | 45.21189 | 9.42536 | 145° | 86km/h | 11735m | -15.4m/s | -52.6°C | 61.5% | 0hPa | 2.5V | 08:17:09 | 02:26:18 | 00:00:00 | |
| IW2NTF | 2026-09-05 12:59:51 | 45.21367 | 9.42355 | 142° | 86km/h | 11891m | -16.1m/s | -53.9°C | 61.3% | 0hPa | 2.5V | 08:17:19 | 02:26:08 | 00:00:00 | |
| IW2NTF | 2026-09-05 12:59:41 | 45.21545 | 9.42161 | 142° | 89km/h | 12048m | -15.5m/s | -55°C | 57.2% | 0hPa | 2.5V | 08:17:29 | 02:25:58 | 00:00:00 | |
| IW2NTF | 2026-09-05 12:59:31 | 45.21722 | 9.41963 | 142° | 91km/h | 12208m | -15.2m/s | -56.2°C | 53% | 0hPa | 2.5V | 08:17:39 | 02:25:48 | 00:00:00 | |
| IW2NTF | 2026-09-05 12:59:22 | 45.21906 | 9.41771 | 145° | 88km/h | 12356m | -14.4m/s | -57.5°C | 50.9% | 0hPa | 2.5V | 08:17:49 | 02:25:38 | 00:00:00 | |
| IW2NTF | 2026-09-05 12:59:12 | 45.22084 | 9.41581 | 143° | 86km/h | 12508m | -15.1m/s | -58.9°C | 47.7% | 0hPa | 2.5V | 08:17:59 | 02:25:28 | 00:00:00 | |
| IW2NTF | 2026-09-05 12:59:01 | 45.22258 | 9.41398 | 144° | 86km/h | 12662m | -15.6m/s | -60°C | 43.1% | 0hPa | 2.5V | 08:18:09 | 02:25:18 | 00:00:00 | |
| IW2NTF | 2026-09-05 12:58:50 | 45.22438 | 9.41218 | 145° | 88km/h | 12820m | -15.6m/s | -61.2°C | 39% | 0hPa | 2.5V | 08:18:19 | 02:25:08 | 00:00:00 | |
| DO3MHA-11 | 2026-09-05 12:58:48 | 45.22438 | 9.41218 | 146° | 88km/h | 12820m | -15.6m/s | -61.2°C | 39.0% | 0hPa | 2.6V | 00:00:00 | 02:25:08 | 00:00:00 | |
| IW2NTF | 2026-09-05 12:58:40 | 45.22617 | 9.41037 | 142° | 86km/h | 12979m | -16.8m/s | -62.4°C | 32.5% | 0hPa | 2.6V | 08:18:29 | 02:24:58 | 00:00:00 | |
| DO3MHA-11 | 2026-09-05 12:58:38 | 45.22617 | 9.41037 | 143° | 88km/h | 12979m | -16.7m/s | -62.3°C | 32.5% | 0hPa | 2.6V | 08:18:00 | 02:24:58 | 00:00:00 | |
| IW2NTF | 2026-09-05 12:58:31 | 45.22783 | 9.40827 | 136° | 93km/h | 13141m | -16m/s | -63.1°C | 30% | 0hPa | 2.5V | 08:18:39 | 02:24:48 | 00:00:00 | |
| DO3MHA-11 | 2026-09-05 12:58:28 | 45.22783 | 9.40827 | 137° | 100km/h | 13142m | -16.0m/s | -63.1°C | 30.0% | 0hPa | 2.5V | 00:00:00 | 02:24:48 | 00:00:00 | |
| IW2NTF | 2026-09-05 12:58:21 | 45.22970 | 9.40581 | 138° | 110km/h | 13305m | -16.6m/s | -63.3°C | 28.1% | 0hPa | 2.5V | 08:18:49 | 02:24:38 | 00:00:00 | |
| DO3MHA-11 | 2026-09-05 12:58:18 | 45.22970 | 9.40581 | 139° | 108km/h | 13305m | -16.6m/s | -63.3°C | 28.1% | 0hPa | 2.6V | 00:00:00 | 02:24:38 | 00:00:00 | |
| IW2NTF | 2026-09-05 12:58:10 | 45.23183 | 9.40343 | 145° | 100km/h | 13469m | -16.2m/s | -63.9°C | 26.1% | 0hPa | 2.6V | 08:18:59 | 02:24:28 | 00:00:00 | |
| DO3MHA-11 | 2026-09-05 12:58:08 | 45.23183 | 9.40343 | 146° | 86km/h | 13469m | -16.2m/s | -63.9°C | 26.1% | 0hPa | 2.6V | 00:00:00 | 02:24:28 | 00:00:00 | |
| IW2NTF | 2026-09-05 12:58:01 | 45.23362 | 9.40177 | 144° | 71km/h | 13633m | -17.1m/s | -61.9°C | 19.6% | 0hPa | 2.5V | 08:19:09 | 02:24:18 | 00:00:00 | |
| DO3MHA-11 | 2026-09-05 12:57:58 | 45.23362 | 9.40177 | 145° | 64km/h | 13634m | -17.0m/s | -61.8°C | 19.6% | 0hPa | 2.6V | 00:00:00 | 02:24:18 | 00:00:00 | |
| IW2NTF | 2026-09-05 12:57:50 | 45.23486 | 9.40030 | 136° | 58km/h | 13809m | -17.8m/s | -62.5°C | 18.1% | 0hPa | 2.6V | 08:19:19 | 02:24:08 | 00:00:00 | |
| DO3MHA-11 | 2026-09-05 12:57:48 | 45.23485 | 9.40030 | 137° | 57km/h | 13809m | -17.7m/s | -62.4°C | 18.1% | 0hPa | 2.5V | 00:00:00 | 02:24:08 | 00:00:00 | |
| IW2NTF | 2026-09-05 12:57:40 | 45.23579 | 9.39882 | 128° | 53km/h | 13985m | -17.6m/s | -63.4°C | 16.6% | 0hPa | 2.5V | 08:19:29 | 02:23:58 | 00:00:00 | |
| DB0UT-7 | 2026-09-05 12:57:40 | 45.23562 | 9.39912 | 131° | 55km/h | 13951m | -17.5m/s | -63.2°C | 17.0% | 0hPa | 2.6V | 00:00:00 | 00:00:00 | 00:00:00 | |
| DO3MHA-11 | 2026-09-05 12:57:38 | 45.23579 | 9.39882 | 129° | 51km/h | 13986m | -17.5m/s | -63.4°C | 16.6% | 0hPa | 2.5V | 00:00:00 | 02:23:58 | 00:00:00 | |
| IW2NTF | 2026-09-05 12:57:32 | 45.23644 | 9.39725 | 108° | 51km/h | 14163m | -18.2m/s | -64.6°C | 15.2% | 0hPa | 2.6V | 08:19:39 | 02:23:48 | 00:00:00 | |
| DO3MHA-11 | 2026-09-05 12:57:28 | 45.23644 | 9.39725 | 109° | 53km/h | 14163m | -18.1m/s | -64.6°C | 15.2% | 0hPa | 2.5V | 00:00:00 | 02:23:48 | 00:00:00 | |
| IW2NTF | 2026-09-05 12:57:22 | 45.23672 | 9.39538 | 99° | 57km/h | 14347m | -17.9m/s | -66°C | 14.9% | 0hPa | 2.5V | 08:19:49 | 02:23:38 | 00:00:00 | |
| DO3MHA-11 | 2026-09-05 12:57:17 | 45.23674 | 9.39518 | 99° | 68km/h | 14365m | -18.2m/s | -66.1°C | 15.0% | 0hPa | 2.5V | 00:00:00 | 02:23:37 | 00:00:00 | |
| IW2NTF | 2026-09-05 12:57:11 | 45.23706 | 9.39310 | 105° | 71km/h | 14521m | -17.1m/s | -66.7°C | 14% | 0hPa | 2.5V | 08:19:59 | 02:23:28 | 00:00:00 | |
| DB0UT-7 | 2026-09-05 12:57:10 | 45.23697 | 9.39359 | 104° | 66km/h | 14488m | -17.0m/s | -66.6°C | 14.4% | 0hPa | 2.6V | 00:00:00 | 02:23:30 | 00:00:00 | |
| DO3MHA-11 | 2026-09-05 12:57:06 | 45.23716 | 9.39260 | 108° | 71km/h | 14556m | -17.0m/s | -66.6°C | 13.6% | 0hPa | 2.6V | 08:20:00 | 02:23:26 | 00:00:00 | |
| IW2NTF | 2026-09-05 12:57:02 | 45.23772 | 9.39072 | 118° | 69km/h | 14701m | -16.3m/s | -65.7°C | 11.3% | 0hPa | 2.5V | 08:20:09 | 02:23:18 | 00:00:00 | |
| DO3MHA-11 | 2026-09-05 12:56:56 | 45.23788 | 9.39030 | 121° | 62km/h | 14734m | -15.9m/s | -65.4°C | 11.1% | 0hPa | 2.6V | 00:00:00 | 02:23:16 | 00:00:00 | |
| IW2NTF | 2026-09-05 12:56:50 | 45.23849 | 9.38849 | 110° | 58km/h | 14898m | -19.4m/s | -64.2°C | 9.6% | 0hPa | 2.6V | 08:20:20 | 02:23:07 | 00:00:00 | |
| DO3MHA-11 | 2026-09-05 12:56:46 | 45.23855 | 9.38829 | 110° | 64km/h | 14918m | -20.4m/s | -64.2°C | 9.7% | 0hPa | 2.5V | 00:00:00 | 02:23:06 | 00:00:00 | |
| IW2NTF | 2026-09-05 12:56:41 | 45.23900 | 9.38630 | 109° | 66km/h | 15085m | -17.3m/s | -64.7°C | 10.1% | 0hPa | 2.5V | 08:20:30 | 02:22:57 | 00:00:00 | |
| DB0UT-7 | 2026-09-05 12:56:40 | 45.23884 | 9.38698 | 110° | 68km/h | 15033m | -17.2m/s | -64.4°C | 9.8% | 0hPa | 2.6V | 00:00:00 | 00:00:00 | 00:00:00 | |
| DO3MHA-11 | 2026-09-05 12:56:36 | 45.23906 | 9.38607 | 109° | 69km/h | 15102m | -17.4m/s | -64.7°C | 10.3% | 0hPa | 2.6V | 00:00:00 | 02:22:56 | 00:00:00 | |
| IW2NTF | 2026-09-05 12:56:31 | 45.23950 | 9.38391 | 105° | 69km/h | 15261m | -17.6m/s | -63°C | 9.3% | 0hPa | 2.5V | 08:20:40 | 02:22:47 | 00:00:00 | |
| DO3MHA-11 | 2026-09-05 12:56:26 | 45.23954 | 9.38367 | 106° | 68km/h | 15279m | -17.9m/s | -63.0°C | 9.2% | 0hPa | 2.6V | 00:00:00 | 02:22:46 | 00:00:00 | |
| IW2NTF | 2026-09-05 12:56:21 | 45.24001 | 9.38167 | 109° | 64km/h | 15472m | -19.7m/s | -62.1°C | 8.1% | 0hPa | 2.6V | 08:20:50 | 02:22:37 | 00:00:00 | |
| DO3MHA-11 | 2026-09-05 12:56:15 | 45.24011 | 9.38124 | 109° | 66km/h | 15513m | -21.8m/s | -61.6°C | 7.7% | 0hPa | 2.6V | 00:00:00 | 02:22:35 | 00:00:00 | |
| IW2NTF | 2026-09-05 12:56:11 | 45.24059 | 9.37947 | 111° | 68km/h | 15690m | -23m/s | -60.5°C | 6.7% | 0hPa | 2.6V | 08:21:00 | 02:22:27 | 00:00:00 | |
| DB0UT-7 | 2026-09-05 12:56:10 | 45.24040 | 9.38012 | 111° | 55km/h | 15622m | -21.0m/s | -60.3°C | 6.7% | 0hPa | 2.5V | 08:20:00 | 02:22:30 | 00:00:00 | |
| DO3MHA-11 | 2026-09-05 12:56:04 | 45.24077 | 9.37884 | 114° | 60km/h | 15753m | -19.0m/s | -60.5°C | 6.9% | 0hPa | 2.6V | 00:00:00 | 02:22:24 | 00:00:00 | |
| IW2NTF | 2026-09-05 12:55:59 | 45.24120 | 9.37745 | 114° | 57km/h | 15888m | -19.4m/s | -61.5°C | 7.6% | 0hPa | 2.5V | 08:21:10 | 02:22:17 | 00:00:00 | |
| DO3MHA-11 | 2026-09-05 12:55:54 | 45.24137 | 9.37689 | 111° | 47km/h | 15954m | -22.8m/s | -61.8°C | 7.6% | 0hPa | 2.5V | 00:00:00 | 02:22:14 | 00:00:00 | |
| IW2NTF | 2026-09-05 12:55:49 | 45.24157 | 9.37574 | 96° | 46km/h | 16113m | -22.1m/s | -61.9°C | 7.6% | 0hPa | 2.5V | 08:21:20 | 02:22:07 | 00:00:00 | |
| DO3MHA-11 | 2026-09-05 12:55:44 | 45.24162 | 9.37524 | 99° | 51km/h | 16179m | -22.1m/s | -61.4°C | 7.3% | 0hPa | 2.6V | 00:00:00 | 02:22:04 | 00:00:00 | |
| DB0UT-7 | 2026-09-05 12:55:40 | 45.24169 | 9.37454 | 101° | 42km/h | 16267m | -20.5m/s | -60.6°C | 6.9% | 0hPa | 2.6V | 00:00:00 | 00:00:00 | 00:00:00 | |
| IW2NTF | 2026-09-05 12:55:38 | 45.24175 | 9.37400 | 98° | 53km/h | 16334m | -23.2m/s | -59.9°C | 6.5% | 0hPa | 2.6V | 08:21:30 | 02:21:57 | 00:00:00 | |
| DO3MHA-11 | 2026-09-05 12:55:34 | 45.24181 | 9.37346 | 101° | 49km/h | 16399m | -19.6m/s | -59.9°C | 6.4% | 0hPa | 2.6V | 08:21:00 | 02:21:54 | 00:00:00 | |
| IW2NTF | 2026-09-05 12:55:31 | 45.24202 | 9.37222 | 103° | 49km/h | 16556m | -24.3m/s | -60.5°C | 6.4% | 0hPa | 2.7V | 08:21:40 | 02:21:47 | 00:00:00 | |
| DO3MHA-11 | 2026-09-05 12:55:23 | 45.24211 | 9.37161 | 95° | 33km/h | 16649m | -21.8m/s | -60.2°C | 6.2% | 0hPa | 2.6V | 00:00:00 | 02:21:43 | 00:00:00 | |
| IW2NTF | 2026-09-05 12:55:21 | 45.24211 | 9.37087 | 86° | 31km/h | 16784m | -23.8m/s | -60.4°C | 6.1% | 0hPa | 2.6V | 08:21:50 | 02:21:37 | 00:00:00 | |
| NBG1-10 | 2026-09-05 12:55:14 | 45.24208 | 9.37056 | 82° | 44km/h | 16850m | -22.2m/s | -60.8°C | 6.4% | 0hPa | 2.5V | 00:00:00 | 02:21:34 | 00:00:00 | |
| DO3MHA-11 | 2026-09-05 12:55:13 | 45.24206 | 9.37045 | 82° | 38km/h | 16873m | -23.7m/s | -61.0°C | 6.5% | 0hPa | 2.5V | 00:00:00 | 02:21:33 | 00:00:00 | |
| IW2NTF | 2026-09-05 12:55:11 | 45.24200 | 9.36968 | 88° | 40km/h | 17008m | -22m/s | -62°C | 7.1% | 0hPa | 2.5V | 08:22:00 | 02:21:27 | 00:00:00 | |
| DB0UT-7 | 2026-09-05 12:55:10 | 45.24202 | 9.37008 | 85° | 44km/h | 16941m | -21.4m/s | -61.4°C | 6.8% | 0hPa | 2.5V | 00:00:00 | 02:21:30 | 00:00:00 | |
| DB0ND-19 | 2026-09-05 12:55:09 | 45.24201 | 9.36968 | 88° | 38km/h | 17008m | -22.0m/s | 0°C | -1.0% | -1.0hPa | 2.5V | 00:00:00 | 00:00:00 | 00:00:00 | |
| DO3MHA-11 | 2026-09-05 12:55:03 | 45.24202 | 9.36909 | 99° | 47km/h | 17104m | -23.8m/s | -61.1°C | 6.7% | 0hPa | 2.5V | 00:00:00 | 02:21:23 | 00:00:00 | |
| IW2NTF | 2026-09-05 12:54:59 | 45.24222 | 9.36763 | 103° | 49km/h | 17334m | -25.8m/s | -60.9°C | 6.7% | 0hPa | 2.6V | 08:22:13 | 02:21:14 | 00:00:00 | |
| DO3MHA-11 | 2026-09-05 12:54:53 | 45.24225 | 9.36746 | 105° | 47km/h | 17360m | -25.5m/s | -61.1°C | 6.8% | 0hPa | 2.7V | 00:00:00 | 02:21:13 | 00:00:00 | |
| IW2NTF | 2026-09-05 12:54:49 | 45.24263 | 9.36604 | 117° | 51km/h | 17596m | -24.4m/s | -59.6°C | 6% | 0hPa | 2.7V | 08:22:23 | 02:21:04 | 00:00:00 | |
| DO3MHA-11 | 2026-09-05 12:54:42 | 45.24274 | 9.36573 | 119° | 38km/h | 17642m | -21.9m/s | -59.2°C | 5.8% | 0hPa | 2.6V | 00:00:00 | 02:21:02 | 00:00:00 | |
| NBG1-10 | 2026-09-05 12:54:41 | 45.24280 | 9.36558 | 117° | 22km/h | 17664m | -21.4m/s | -58.9°C | 5.7% | 0hPa | 2.6V | 00:00:00 | 02:21:01 | 00:00:00 | |
| IW2NTF | 2026-09-05 12:54:40 | 45.24316 | 9.36476 | 130° | 29km/h | 17833m | -25.4m/s | -58.8°C | 5.5% | 0hPa | 2.6V | 08:22:33 | 02:20:54 | 00:00:00 | |
| DB0UT-7 | 2026-09-05 12:54:40 | 45.24285 | 9.36544 | 120° | 22km/h | 17687m | -23.0m/s | -58.8°C | 5.6% | 0hPa | 2.6V | 00:00:00 | 00:00:00 | 00:00:00 | |
| DB0ND-19 | 2026-09-05 12:54:38 | 45.24296 | 9.36517 | 123° | 40km/h | 17735m | -24.9m/s | 0°C | -1.0% | -1.0hPa | 2.7V | 00:00:00 | 00:00:00 | 00:00:00 | |
| DO3MHA-11 | 2026-09-05 12:54:32 | 45.24325 | 9.36460 | 131° | 15km/h | 17884m | -24.5m/s | -58.9°C | 5.6% | 0hPa | 2.7V | 00:00:00 | 02:20:52 | 00:00:00 | |
| IW2NTF | 2026-09-05 12:54:27 | 45.24340 | 9.36427 | 51° | 7km/h | 18076m | -23.3m/s | -58.7°C | 5.6% | 0hPa | 2.6V | 08:22:43 | 02:20:44 | 00:00:00 | |
| DO3MHA-11 | 2026-09-05 12:54:22 | 45.24337 | 9.36422 | 59° | 16km/h | 18121m | -22.5m/s | -58.9°C | 5.6% | 0hPa | 2.6V | 00:00:00 | 02:20:42 | 00:00:00 | |
| IW2NTF | 2026-09-05 12:54:16 | 45.24315 | 9.36389 | 62° | 20km/h | 18316m | -23.8m/s | -58.5°C | 5.4% | 0hPa | 2.6V | 08:22:53 | 02:20:34 | 00:00:00 | |
| DO3MHA-11 | 2026-09-05 12:54:12 | 45.24311 | 9.36375 | 81° | 26km/h | 18365m | -23.9m/s | -58.3°C | 5.3% | 0hPa | 2.6V | 00:00:00 | 02:20:32 | 00:00:00 | |
| DB0UT-7 | 2026-09-05 12:54:10 | 45.24311 | 9.36360 | 101° | 24km/h | 18415m | -24.2m/s | -58.4°C | 5.4% | 0hPa | 2.6V | 00:00:00 | 02:20:30 | 00:00:00 | |
| IW2NTF | 2026-09-05 12:54:10 | 45.24326 | 9.36307 | 121° | 29km/h | 18560m | -25.1m/s | -58.7°C | 5.5% | 0hPa | 2.7V | 08:23:03 | 02:20:24 | 00:00:00 | |
| NBG1-10 | 2026-09-05 12:54:08 | 45.24314 | 9.36344 | 108° | 24km/h | 18462m | -23.7m/s | -58.4°C | 5.5% | 0hPa | 2.6V | 08:22:00 | 02:20:28 | 00:00:00 | |
| DO3MHA-11 | 2026-09-05 12:54:02 | 45.24334 | 9.36287 | 121° | 22km/h | 18610m | -24.2m/s | -58.9°C | 5.6% | 0hPa | 2.6V | 08:23:00 | 02:20:22 | 00:00:00 | |
| IW2NTF | 2026-09-05 12:53:59 | 45.24355 | 9.36231 | 99° | 11km/h | 18804m | -22.1m/s | -58.2°C | 5.5% | 0hPa | 2.7V | 08:23:13 | 02:20:14 | 00:00:00 | |
| DO3MHA-11 | 2026-09-05 12:53:52 | 45.24355 | 9.36223 | 84° | 22km/h | 18849m | -22.0m/s | -58.3°C | 5.6% | 0hPa | 2.7V | 00:00:00 | 02:20:12 | 00:00:00 | |
| IW2NTF | 2026-09-05 12:53:50 | 45.24348 | 9.36164 | 98° | 29km/h | 19035m | -25.1m/s | -58.6°C | 5.6% | 0hPa | 2.7V | 08:23:23 | 02:20:04 | 00:00:00 | |
| DO3MHA-11 | 2026-09-05 12:53:42 | 45.24351 | 9.36142 | 105° | 31km/h | 19084m | -24.7m/s | -58.2°C | 5.6% | 0hPa | 2.7V | 00:00:00 | 02:20:02 | 00:00:00 | |
| IW2NTF | 2026-09-05 12:53:40 | 45.24385 | 9.36063 | 137° | 26km/h | 19274m | -25m/s | -57.2°C | 5.2% | 0hPa | 2.7V | 08:23:33 | 02:19:54 | 00:00:00 | |
| DB0UT-7 | 2026-09-05 12:53:40 | 45.24357 | 9.36118 | 117° | 24km/h | 19134m | -23.1m/s | -57.7°C | 5.5% | 0hPa | 2.6V | 00:00:00 | 00:00:00 | 00:00:00 | |
| NBG1-10 | 2026-09-05 12:53:35 | 45.24380 | 9.36071 | 132° | 20km/h | 19250m | -22.9m/s | -57.1°C | 5.1% | 0hPa | 2.6V | 00:00:00 | 02:19:55 | 00:00:00 | |
| DO3MHA-11 | 2026-09-05 12:53:32 | 45.24393 | 9.36050 | 133° | 18km/h | 19325m | -27.6m/s | -57.3°C | 5.2% | 0hPa | 2.6V | 00:00:00 | 02:19:52 | 00:00:00 | |
| IW2NTF | 2026-09-05 12:53:30 | 45.24410 | 9.36010 | 93° | 13km/h | 19537m | -24.9m/s | -57.6°C | 5.5% | 0hPa | 2.7V | 08:23:43 | 02:19:44 | 00:00:00 | |
| DO3MHA-11 | 2026-09-05 12:53:22 | 45.24410 | 9.35999 | 83° | 24km/h | 19589m | -26.1m/s | -57.4°C | 5.6% | 0hPa | 2.7V | 00:00:00 | 02:19:42 | 00:00:00 | |
| IW2NTF | 2026-09-05 12:53:16 | 45.24403 | 9.35910 | 110° | 24km/h | 19879m | -25.1m/s | -56.8°C | 5.4% | 0hPa | 2.7V | 08:23:56 | 02:19:31 | 00:00:00 | |
| DO3MHA-11 | 2026-09-05 12:53:12 | 45.24402 | 9.35918 | 101° | 20km/h | 19854m | -26.2m/s | -56.8°C | 5.4% | 0hPa | 2.6V | 00:00:00 | 02:19:32 | 00:00:00 | |
| DB0UT-7 | 2026-09-05 12:53:10 | 45.24405 | 9.35903 | 106° | 18km/h | 19904m | -23.5m/s | -56.8°C | 5.4% | 0hPa | 2.6V | 00:00:00 | 02:19:30 | 00:00:00 | |
| IW2NTF | 2026-09-05 12:53:06 | 45.24426 | 9.35852 | 111° | 15km/h | 20122m | -26.2m/s | -55.3°C | 4.7% | 0hPa | 2.6V | 08:24:06 | 02:19:21 | 00:00:00 | |
| DO3MHA-11 | 2026-09-05 12:53:02 | 45.24424 | 9.35856 | 131° | 16km/h | 20097m | -25.1m/s | -55.3°C | 4.6% | 0hPa | 2.7V | 00:00:00 | 02:19:22 | 00:00:00 | |
| IW2NTF | 2026-09-05 12:52:56 | 45.24424 | 9.35800 | 50° | 22km/h | 20364m | -26.2m/s | -54.7°C | 4.4% | 0hPa | 2.6V | 08:24:16 | 02:19:11 | 00:00:00 | |
| DO3MHA-11 | 2026-09-05 12:52:51 | 45.24424 | 9.35800 | 51° | 26km/h | 20364m | -26.2m/s | -54.7°C | 4.4% | 0hPa | 2.6V | 00:00:00 | 02:19:11 | 00:00:00 | |
| IW2NTF | 2026-09-05 12:52:46 | 45.24387 | 9.35721 | 77° | 29km/h | 20646m | -25.6m/s | -55.6°C | 4.9% | 0hPa | 2.6V | 08:24:26 | 02:19:01 | 00:00:00 | |
| NBG1-10 | 2026-09-05 12:52:45 | 45.24400 | 9.35759 | 58° | 15km/h | 20537m | -30.0m/s | -55.4°C | 4.7% | 0hPa | 2.7V | 00:00:00 | 02:19:05 | 00:00:00 | |
| DB0UT-7 | 2026-09-05 12:52:40 | 45.24386 | 9.35712 | 76° | 15km/h | 20672m | -26.1m/s | -55.7°C | 4.8% | 0hPa | 2.7V | 00:00:00 | 00:00:00 | 00:00:00 | |
| IW2NTF | 2026-09-05 12:52:36 | 45.24387 | 9.35635 | 132° | 15km/h | 20905m | -26.1m/s | -55.2°C | 4.7% | 0hPa | 2.7V | 08:24:36 | 02:18:51 | 00:00:00 | |
| DB0ND-19 | 2026-09-05 12:52:34 | 45.24383 | 9.35645 | 108° | 18km/h | 20854m | -25.2m/s | 0°C | -1.0% | -1.0hPa | 2.7V | 00:00:00 | 00:00:00 | 00:00:00 | |
| DO3MHA-11 | 2026-09-05 12:52:30 | 45.24389 | 9.35631 | 136° | 9km/h | 20932m | -27.8m/s | -55.1°C | 4.6% | 0hPa | 2.7V | 08:24:00 | 02:18:50 | 00:00:00 | |
| IW2NTF | 2026-09-05 12:52:26 | 45.24407 | 9.35625 | 77° | 2km/h | 21172m | -26.2m/s | -54.5°C | 4.5% | 0hPa | 2.6V | 08:24:46 | 02:18:41 | 00:00:00 | |
| DO3MHA-11 | 2026-09-05 12:52:20 | 45.24407 | 9.35625 | 80° | 9km/h | 21199m | -26.6m/s | -54.2°C | 4.4% | 0hPa | 2.6V | 00:00:00 | 02:18:40 | 00:00:00 | |
| IW2NTF | 2026-09-05 12:52:16 | 45.24401 | 9.35599 | 69° | 7km/h | 21472m | -31.5m/s | -55.5°C | 4.9% | 0hPa | 2.6V | 08:24:56 | 02:18:31 | 00:00:00 | |
| DO3MHA-11 | 2026-09-05 12:52:10 | 45.24401 | 9.35597 | 71° | 5km/h | 21505m | -33.2m/s | -55.3°C | 4.9% | 0hPa | 2.7V | 00:00:00 | 02:18:30 | 00:00:00 | |
| IW2NTF | 2026-09-05 12:52:06 | 45.24401 | 9.35579 | 68° | 4km/h | 21776m | -28.3m/s | -54.7°C | 4.7% | 0hPa | 2.7V | 08:25:06 | 02:18:21 | 00:00:00 | |
| DO3MHA-11 | 2026-09-05 12:52:00 | 45.24401 | 9.35577 | 69° | 16km/h | 21804m | -27.8m/s | -54.6°C | 4.7% | 0hPa | 2.7V | 00:00:00 | 02:18:20 | 00:00:00 | |
| IW2NTF | 2026-09-05 12:51:56 | 45.24372 | 9.35556 | 24° | 20km/h | 22034m | -27.3m/s | -53.7°C | 4.5% | 0hPa | 2.6V | 08:25:16 | 02:18:11 | 00:00:00 | |
| DO3MHA-11 | 2026-09-05 12:51:49 | 45.24363 | 9.35550 | 34° | 13km/h | 22089m | -27.3m/s | -53.8°C | 4.5% | 0hPa | 2.6V | 00:00:00 | 02:18:09 | 00:00:00 | |
| IW2NTF | 2026-09-05 12:51:46 | 45.24347 | 9.35524 | 53° | 11km/h | 22306m | -27.2m/s | -53.9°C | 4.6% | 0hPa | 2.6V | 08:25:26 | 02:18:01 | 00:00:00 | |
| DO3MHA-11 | 2026-09-05 12:51:39 | 45.24342 | 9.35518 | 55° | 13km/h | 22362m | -26.8m/s | -53.8°C | 4.6% | 0hPa | 2.7V | 00:00:00 | 02:17:59 | 00:00:00 | |
| IW2NTF | 2026-09-05 12:51:37 | 45.24333 | 9.35483 | 113° | 11km/h | 22580m | -29.2m/s | -52.8°C | 4.3% | 0hPa | 2.7V | 08:25:36 | 02:17:51 | 00:00:00 | |
| DO3MHA-11 | 2026-09-05 12:51:29 | 45.24335 | 9.35476 | 127° | 7km/h | 22637m | -28.2m/s | -52.5°C | 4.2% | 0hPa | 2.6V | 00:00:00 | 02:17:49 | 00:00:00 | |
| IW2NTF | 2026-09-05 12:51:26 | 45.24345 | 9.35468 | 278° | 4km/h | 22863m | -28.1m/s | -52.8°C | 4.3% | 0hPa | 2.6V | 08:25:46 | 02:17:41 | 00:00:00 | |
| NBG1-10 | 2026-09-05 12:51:20 | 45.24344 | 9.35469 | 333° | 9km/h | 22891m | -27.3m/s | -52.6°C | 4.2% | 0hPa | 2.7V | 00:00:00 | 02:17:40 | 00:00:00 | |
| DO3MHA-11 | 2026-09-05 12:51:19 | 45.24343 | 9.35471 | 315° | 7km/h | 22919m | -27.6m/s | -52.4°C | 4.1% | 0hPa | 2.6V | 00:00:00 | 02:17:39 | 00:00:00 | |
| IW2NTF | 2026-09-05 12:51:16 | 45.24328 | 9.35472 | 41° | 7km/h | 23134m | -27m/s | -51.9°C | 3.9% | 0hPa | 2.6V | 08:25:56 | 02:17:31 | 00:00:00 | |
| DB0UT-7 | 2026-09-05 12:51:10 | 45.24327 | 9.35469 | 58° | 11km/h | 23162m | -27.8m/s | -51.7°C | 3.9% | 0hPa | 2.7V | 00:00:00 | 02:17:30 | 00:00:00 | |
| DO3MHA-11 | 2026-09-05 12:51:09 | 45.24325 | 9.35468 | 50° | 5km/h | 23189m | -26.1m/s | -51.7°C | 3.9% | 0hPa | 2.7V | 00:00:00 | 02:17:29 | 00:00:00 | |
| IW2NTF | 2026-09-05 12:51:06 | 45.24331 | 9.35452 | 128° | 5km/h | 23399m | -25m/s | -52.6°C | 4% | 0hPa | 2.7V | 08:26:06 | 02:17:21 | 00:00:00 | |
| DO3MHA-11 | 2026-09-05 12:50:59 | 45.24333 | 9.35451 | 158° | 5km/h | 23449m | -26.5m/s | -52.8°C | 4.1% | 0hPa | 2.6V | 08:26:00 | 02:17:19 | 00:00:00 | |
| IW2NTF | 2026-09-05 12:50:57 | 45.24334 | 9.35464 | 276° | 9km/h | 23673m | -25.8m/s | -53.2°C | 4.3% | 0hPa | 2.7V | 08:26:16 | 02:17:11 | 00:00:00 | |
| DO3MHA-11 | 2026-09-05 12:50:49 | 45.24333 | 9.35472 | 286° | 22km/h | 23723m | -23.2m/s | -53.4°C | 4.5% | 0hPa | 2.7V | 00:00:00 | 02:17:09 | 00:00:00 | |
| IW2NTF | 2026-09-05 12:50:47 | 45.24304 | 9.35513 | 344° | 24km/h | 23909m | -22.1m/s | -53.1°C | 4.4% | 0hPa | 2.7V | 08:26:26 | 02:17:01 | 00:00:00 | |
| DB0UT-7 | 2026-09-05 12:50:40 | 45.24298 | 9.35515 | 358° | 13km/h | 23931m | -22.2m/s | -53.1°C | 4.4% | 0hPa | 2.6V | 00:00:00 | 00:00:00 | 00:00:00 | |
| DO3MHA-11 | 2026-09-05 12:50:39 | 45.24292 | 9.35515 | 2° | 13km/h | 23954m | -21.9m/s | -53.0°C | 4.4% | 0hPa | 2.6V | 00:00:00 | 02:16:59 | 00:00:00 | |
| IW2NTF | 2026-09-05 12:50:37 | 45.24269 | 9.35509 | 290° | 9km/h | 24158m | -27m/s | -52.9°C | 4.4% | 0hPa | 2.6V | 08:26:36 | 02:16:51 | 00:00:00 | |
| DO3MHA-11 | 2026-09-05 12:50:30 | 45.24268 | 9.35516 | 284° | 16km/h | 24212m | -26.9m/s | -52.9°C | 4.4% | 0hPa | 2.7V | 00:00:00 | 02:16:49 | 00:00:00 | |
| IW2NTF | 2026-09-05 12:50:26 | 45.24249 | 9.35529 | 19° | 16km/h | 24436m | -27.6m/s | -52.8°C | 4.5% | 0hPa | 2.7V | 08:26:46 | 02:16:41 | 00:00:00 | |
| DO3MHA-11 | 2026-09-05 12:50:17 | 45.24233 | 9.35518 | 21° | 11km/h | 24547m | -28.5m/s | -52.4°C | 4.3% | 0hPa | 2.7V | 00:00:00 | 02:16:37 | 00:00:00 | |
| IW2NTF | 2026-09-05 12:50:14 | 45.24214 | 9.35515 | 347° | 7km/h | 24773m | -30.4m/s | -51.8°C | 4.2% | 0hPa | 2.7V | 08:26:57 | 02:16:30 | 00:00:00 | |
| DB0UT-7 | 2026-09-05 12:50:10 | 45.24214 | 9.35515 | 348° | 18km/h | 24774m | -30.4m/s | -51.7°C | 4.2% | 0hPa | 2.7V | 00:00:00 | 02:16:30 | 00:00:00 | |
| DO3MHA-11 | 2026-09-05 12:50:06 | 45.24200 | 9.35515 | 12° | 24km/h | 24893m | -29.7m/s | -51.4°C | 4.1% | 0hPa | 2.6V | 00:00:00 | 02:16:26 | 00:00:00 | |
| IW2NTF | 2026-09-05 12:50:05 | 45.24168 | 9.35491 | 48° | 26km/h | 25071m | -30.1m/s | -51.4°C | 4.1% | 0hPa | 2.6V | 08:27:07 | 02:16:20 | 00:00:00 | |
| NBG1-10 | 2026-09-05 12:50:04 | 45.24190 | 9.35510 | 21° | 16km/h | 24952m | -28.9m/s | -51.6°C | 4.2% | 0hPa | 2.7V | 00:00:00 | 02:16:24 | 00:00:00 | |
| IW2NTF | 2026-09-05 12:49:54 | 45.24173 | 9.35421 | 155° | 7km/h | 25387m | -32.8m/s | -51.2°C | 4.2% | 0hPa | 2.7V | 08:27:17 | 02:16:10 | 00:00:00 | |
| IW2NTF | 2026-09-05 12:49:44 | 45.24162 | 9.35428 | 40° | 13km/h | 25713m | -33m/s | -50.1°C | 4% | 0hPa | 2.7V | 08:27:27 | 02:16:00 | 00:00:00 | |
| DB0UT-7 | 2026-09-05 12:49:40 | 45.24161 | 9.35428 | 41° | 13km/h | 25714m | -33.0m/s | -50.0°C | 4.0% | 0hPa | 2.6V | 00:00:00 | 00:00:00 | 00:00:00 | |
| IW2NTF | 2026-09-05 12:49:34 | 45.24141 | 9.35407 | 14° | 18km/h | 26127m | -35.9m/s | -48.9°C | 3.8% | 0hPa | 2.6V | 08:27:39 | 02:15:48 | 00:00:00 | |
| NBG1-10 | 2026-09-05 12:49:31 | 45.24151 | 9.35406 | 343° | 15km/h | 26022m | -34.0m/s | -49.5°C | 3.9% | 0hPa | 2.7V | 00:00:00 | 02:15:51 | 00:00:00 | |
| DB0ND-19 | 2026-09-05 12:49:28 | 45.24132 | 9.35403 | 23° | 18km/h | 26195m | -32.4m/s | 0°C | -1.0% | -1.0hPa | 2.7V | 00:00:00 | 00:00:00 | 00:00:00 | |
| IW2NTF | 2026-09-05 12:49:23 | 45.24117 | 9.35357 | 114° | 13km/h | 26442m | -30.4m/s | -48°C | 3.4% | 0hPa | 2.7V | 08:27:49 | 02:15:38 | 00:00:00 | |
| OE5DRO-10 | 2026-09-05 12:49:19 | 45.24115 | 9.35362 | 100° | 13km/h | 26412m | -31.0m/s | -47.9°C | 3.4% | 0hPa | 2.6V | 00:00:00 | 00:00:00 | 00:00:00 | |
| IW2NTF | 2026-09-05 12:49:11 | 45.24120 | 9.35343 | 12° | 11km/h | 26771m | -30.1m/s | -48.1°C | 3.5% | 0hPa | 2.6V | 08:27:59 | 02:15:28 | 00:00:00 | |
| DB0UT-7 | 2026-09-05 12:49:10 | 45.24125 | 9.35345 | 352° | 13km/h | 26709m | -32.9m/s | -48.0°C | 3.5% | 0hPa | 2.7V | 00:00:00 | 02:15:30 | 00:00:00 | |
| IW2NTF | 2026-09-05 12:49:03 | 45.24096 | 9.35315 | 109° | 5km/h | 27107m | -33.5m/s | -48.4°C | 3.6% | 0hPa | 2.7V | 08:28:09 | 02:15:18 | 00:00:00 | |
| OE5DRO-10 | 2026-09-05 12:49:00 | 45.24096 | 9.35321 | 79° | 20km/h | 27039m | -34.3m/s | -48.3°C | 3.5% | 0hPa | 2.7V | 00:00:00 | 00:00:00 | 00:00:00 | |
| IW2NTF | 2026-09-05 12:48:49 | 45.24099 | 9.35271 | 93° | 20km/h | 27444m | -33.8m/s | -48.1°C | 3.5% | 0hPa | 2.7V | 08:28:19 | 02:15:08 | 00:00:00 | |
| NBG1-10 | 2026-09-05 12:48:45 | 45.24100 | 9.35254 | 98° | 20km/h | 27543m | -32.5m/s | -48.2°C | 3.6% | 0hPa | 2.6V | 00:00:00 | 02:15:05 | 00:00:00 | |
| IW2NTF | 2026-09-05 12:48:44 | 45.24096 | 9.35226 | 68° | 20km/h | 27772m | -32.1m/s | -48.6°C | 3.9% | 0hPa | 2.6V | 08:28:29 | 02:14:58 | 00:00:00 | |
| DB0UT-7 | 2026-09-05 12:48:40 | 45.24099 | 9.35236 | 71° | 22km/h | 27706m | -34.1m/s | -48.6°C | 3.9% | 0hPa | 2.7V | 00:00:00 | 00:00:00 | 00:00:00 | |
| IW2NTF | 2026-09-05 12:48:34 | 45.24109 | 9.35135 | 122° | 29km/h | 28100m | -35.8m/s | -47.1°C | 3.6% | 0hPa | 2.7V | 08:28:39 | 02:14:48 | 00:00:00 | |
| OE5DRO-10 | 2026-09-05 12:48:31 | 45.24099 | 9.35161 | 117° | 18km/h | 28004m | -32.5m/s | -47.9°C | 3.9% | 0hPa | 2.6V | 00:00:00 | 00:00:00 | 00:00:00 | |
| IW2NTF | 2026-09-05 12:48:23 | 45.24146 | 9.35071 | 136° | 18km/h | 28449m | -33.8m/s | -46.3°C | 3.4% | 0hPa | 2.7V | 08:28:49 | 02:14:38 | 00:00:00 | |
| DO3MHA-11 | 2026-09-05 12:48:23 | 45.24129 | 9.35098 | 120° | 16km/h | 28281m | -35.1m/s | -46.0°C | 3.2% | 0hPa | 2.7V | 00:00:00 | 02:14:43 | 00:00:00 | |
| IW2NTF | 2026-09-05 12:48:13 | 45.24162 | 9.35022 | 90° | 18km/h | 28750m | -32.1m/s | -45.6°C | 3.4% | 0hPa | 2.7V | 08:28:59 | 02:14:28 | 00:00:00 | |
| OE5DRO-10 | 2026-09-05 12:48:12 | 45.24161 | 9.35047 | 111° | 15km/h | 28632m | -27.6m/s | -46.3°C | 3.6% | 0hPa | 2.6V | 00:00:00 | 00:00:00 | 00:00:00 | |
| DB0UT-7 | 2026-09-05 12:48:10 | 45.24162 | 9.35035 | 88° | 13km/h | 28689m | -29.9m/s | -45.9°C | 3.5% | 0hPa | 2.6V | 00:00:00 | 02:14:30 | 00:00:00 | |
| IW2NTF | 2026-09-05 12:48:04 | 45.24160 | 9.35000 | 63° | 15km/h | 29075m | -32.9m/s | -44.5°C | 3.2% | 0hPa | 2.6V | 08:29:09 | 02:14:18 | 00:00:00 | |
| DO3MHA-11 | 2026-09-05 12:48:00 | 45.24162 | 9.35006 | 61° | 15km/h | 29007m | -34.7m/s | -44.8°C | 3.3% | 0hPa | 2.6V | 00:00:00 | 02:14:20 | 00:00:00 | |
| IW2NTF | 2026-09-05 12:47:54 | 45.24171 | 9.34957 | 158° | 7km/h | 29395m | -34.9m/s | -42.9°C | 2.8% | 0hPa | 2.6V | 08:30:00 | 02:14:08 | 00:00:00 | |
| OE5DRO-10 | 2026-09-05 12:47:51 | 45.24164 | 9.34962 | 137° | 15km/h | 29296m | -32.4m/s | -43.1°C | 2.9% | 0hPa | 2.6V | 00:00:00 | 00:00:00 | 00:00:00 | |
| DO3MHA-11 | 2026-09-05 12:47:50 | 45.24167 | 9.34959 | 145° | 11km/h | 29328m | -32.4m/s | -43.0°C | 2.9% | 0hPa | 2.6V | 00:00:00 | 02:14:10 | 08:30:00 | |
| IW2NTF | 2026-09-05 12:47:44 | 45.24184 | 9.34920 | 131° | 13km/h | 29680m | -25.9m/s | -42.5°C | 2.7% | 0hPa | 2.6V | 08:30:00 | 02:13:58 | 00:00:00 | |
| DB0UT-7 | 2026-09-05 12:47:40 | 45.24180 | 9.34930 | 116° | 18km/h | 29627m | -28.4m/s | -42.4°C | 2.7% | 0hPa | 2.7V | 00:00:00 | 00:00:00 | 00:00:00 | |
| NBG1-10 | 2026-09-05 12:47:39 | 45.24182 | 9.34924 | 122° | 18km/h | 29655m | -25.9m/s | -42.4°C | 2.7% | 0hPa | 2.7V | 00:00:00 | 02:13:59 | 08:30:00 | |
| IW2NTF | 2026-09-05 12:47:34 | 45.24189 | 9.34866 | 103° | 35km/h | 29900m | -15.7m/s | -43.1°C | 2.9% | 0hPa | 2.6V | 08:30:00 | 02:13:48 | 00:00:00 | |
| DK5PH-5 | 2026-09-05 12:47:32 | 45.24188 | 9.34907 | 76° | 18km/h | 29826m | -21.1m/s | -42.8°C | 2.8% | 0hPa | 2.6V | 00:00:00 | 02:13:52 | 00:00:00 | |
| DO3MHA-11 | 2026-09-05 12:47:30 | 45.24187 | 9.34890 | 94° | 26km/h | 29865m | -19.7m/s | -43.0°C | 2.9% | 0hPa | 2.6V | 00:00:00 | 02:13:50 | 00:00:00 | |
| OE5DRO-10 | 2026-09-05 12:47:27 | 45.24192 | 9.34853 | 111° | 18km/h | 29916m | -16.5m/s | -43.0°C | 3.0% | 0hPa | 2.6V | 00:00:00 | 00:00:00 | 00:00:00 | |
| IW2NTF | 2026-09-05 12:47:24 | 45.24227 | 9.34826 | 176° | 13km/h | 30126m | -34m/s | -42.8°C | 2.9% | 0hPa | 2.6V | 08:30:00 | 02:13:38 | 00:00:00 | |
| DO3MHA-11 | 2026-09-05 12:47:20 | 45.24220 | 9.34825 | 196° | 15km/h | 30061m | -31.0m/s | -42.7°C | 2.9% | 0hPa | 2.7V | 00:00:00 | 02:13:40 | 00:00:00 | |
| IW2NTF | 2026-09-05 12:47:13 | 45.24261 | 9.34819 | 232° | 16km/h | 30445m | -21.7m/s | -42.5°C | 2.9% | 0hPa | 2.7V | 08:30:00 | 02:13:28 | 00:00:00 | |
| DO3MHA-11 | 2026-09-05 12:47:10 | 45.24255 | 9.34812 | 203° | 11km/h | 30393m | -30.7m/s | -42.5°C | 2.9% | 0hPa | 2.7V | 00:00:00 | 02:13:30 | 00:00:00 | |
| OE5DRO-10 | 2026-09-05 12:47:08 | 45.24261 | 9.34819 | 233° | 27km/h | 30445m | -21.7m/s | -42.5°C | 2.9% | 0hPa | 2.7V | 00:00:00 | 00:00:00 | 00:00:00 | |
| NBG1-10 | 2026-09-05 12:47:06 | 45.24266 | 9.34828 | 234° | 18km/h | 30488m | -22.1m/s | -42.4°C | 2.9% | 0hPa | 2.7V | 00:00:00 | 02:13:26 | 00:00:00 | |
| IW2NTF | 2026-09-05 12:47:04 | 45.24266 | 9.34837 | 351° | 18km/h | 30677m | -22.5m/s | -41.5°C | 2.7% | 0hPa | 2.7V | 08:30:00 | 02:13:18 | 00:00:00 | |
| DK5PH-5 | 2026-09-05 12:47:02 | 45.24273 | 9.34838 | 151° | 24km/h | 30581m | -27.1m/s | -41.8°C | 2.8% | 0hPa | 2.6V | 00:00:00 | 02:13:22 | 00:00:00 | |
| DO3MHA-11 | 2026-09-05 12:47:00 | 45.24272 | 9.34837 | 18° | 16km/h | 30631m | -24.8m/s | -41.7°C | 2.8% | 0hPa | 2.6V | 00:00:00 | 02:13:20 | 00:00:00 | |
| IW2NTF | 2026-09-05 12:46:53 | 45.24251 | 9.34848 | 140° | 33km/h | 30951m | -33.9m/s | -41°C | 2.7% | 0hPa | 2.6V | 08:30:00 | 02:13:08 | 00:00:00 | |
| DO3MHA-11 | 2026-09-05 12:46:50 | 45.24242 | 9.34860 | 129° | 27km/h | 30885m | -30.2m/s | -41.0°C | 2.7% | 0hPa | 2.7V | 00:00:00 | 02:13:10 | 00:00:00 | |
| DB0UT-7 | 2026-09-05 12:46:40 | 45.24294 | 9.34808 | 241° | 26km/h | 31242m | -26.9m/s | -40.2°C | 2.5% | 0hPa | 2.6V | 00:00:00 | 00:00:00 | 00:00:00 | |
| IW2NTF | 2026-09-05 12:46:35 | 45.24355 | 9.34846 | 155° | 37km/h | 31238m | 5.5m/s | -40.2°C | 2.5% | 0hPa | 2.6V | 08:30:00 | 02:12:50 | 00:00:00 | |
| NBG1-10 | 2026-09-05 12:46:33 | 45.24324 | 9.34853 | 189° | 26km/h | 31257m | 6.4m/s | -40.2°C | 2.5% | 0hPa | 2.6V | 00:00:00 | 02:12:53 | 00:00:00 | |
| DK5PH-5 | 2026-09-05 12:46:32 | 45.24335 | 9.34853 | 176° | 24km/h | 31250m | 6.2m/s | 0°C | 0% | 0hPa | 2.6V | 00:00:00 | 02:12:52 | 00:00:00 | |
| DO3MHA-11 | 2026-09-05 12:46:30 | 45.24355 | 9.34846 | 156° | 22km/h | 31239m | 5.5m/s | -40.2°C | 2.5% | 0hPa | 2.6V | 00:00:00 | 02:12:50 | 00:00:00 | |
| OE5DRO-10 | 2026-09-05 12:46:28 | 45.24367 | 9.34837 | 153° | 22km/h | 31228m | 6.1m/s | -40.5°C | 2.5% | 0hPa | 2.6V | 00:00:00 | 00:00:00 | 00:00:00 | |
| DO3MHA-11 | 2026-09-05 12:46:20 | 45.24399 | 9.34854 | 173° | 27km/h | 31178m | 6.9m/s | -40.7°C | 2.6% | 0hPa | 2.6V | 00:00:00 | 02:12:40 | 08:30:00 | |
| IW2NTF | 2026-09-05 12:46:15 | 45.24464 | 9.34828 | 142° | 11km/h | 31115m | 6.2m/s | -40.9°C | 2.6% | 0hPa | 2.6V | 08:30:00 | 02:12:30 | 00:00:00 | |
| DO3MHA-11 | 2026-09-05 12:46:10 | 45.24464 | 9.34827 | 143° | 22km/h | 31115m | 6.2m/s | -40.8°C | 2.6% | 0hPa | 2.6V | 00:00:00 | 02:12:30 | 00:00:00 | |
| OE5DRO-10 | 2026-09-05 12:46:09 | 45.24466 | 9.34825 | 129° | 20km/h | 31109m | 5.0m/s | -40.8°C | 2.6% | 0hPa | 2.6V | 00:00:00 | 00:00:00 | 08:30:00 | |
| DK5PH-5 | 2026-09-05 12:46:02 | 45.24500 | 9.34798 | 150° | 15km/h | 31065m | 6.5m/s | 0°C | 0% | 0hPa | 2.7V | 00:00:00 | 02:12:22 | 00:00:00 | |
| IW2NTF | 2026-09-05 12:45:55 | 45.24537 | 9.34739 | 126° | 13km/h | 30990m | 7.2m/s | -41.1°C | 2.6% | 0hPa | 2.7V | 08:30:00 | 02:12:10 | 00:00:00 | |
| DO3MHA-11 | 2026-09-05 12:45:50 | 45.24537 | 9.34739 | 127° | 15km/h | 30991m | 7.2m/s | -41.0°C | 2.6% | 0hPa | 2.7V | 00:00:00 | 02:12:10 | 00:00:00 | |
| DB0UT-7 | 2026-09-05 12:45:40 | 45.24562 | 9.34701 | 120° | 9km/h | 30926m | 6.6m/s | -40.8°C | 2.6% | 0hPa | 2.6V | 00:00:00 | 00:00:00 | 00:00:00 | |
| DO3MHA-11 | 2026-09-05 12:45:39 | 45.24564 | 9.34699 | 122° | 5km/h | 30920m | 5.7m/s | -40.7°C | 2.5% | 0hPa | 2.7V | 00:00:00 | 02:11:59 | 00:00:00 | |
| PG1ADW-2 | 2026-09-05 12:45:37 | 45.24564 | 9.34695 | 86° | 9km/h | 30907m | 7.5m/s | -40.8°C | 2.6% | 0hPa | 2.7V | 00:00:00 | 00:00:00 | 00:00:00 | |
| DK5PH-5 | 2026-09-05 12:45:31 | 45.24569 | 9.34688 | 194° | 9km/h | 30868m | 5.7m/s | 0°C | 0% | 0hPa | 2.7V | 00:00:00 | 02:11:51 | 00:00:00 | |
| IW2NTF | 2026-09-05 12:45:30 | 45.24562 | 9.34675 | 78° | 7km/h | 30823m | 7.1m/s | -41.5°C | 2.7% | 0hPa | 2.7V | 08:30:00 | 02:11:44 | 00:00:00 | |
| NBG1-10 | 2026-09-05 12:45:27 | 45.24568 | 9.34684 | 42° | 11km/h | 30842m | 5.3m/s | -41.2°C | 2.6% | 0hPa | 2.7V | 00:00:00 | 02:11:47 | 00:00:00 | |
| S52SK | 2026-09-05 12:45:20 | 45.24563 | 9.34668 | 89° | 9km/h | 30805m | 6.4m/s | 0°C | 0% | 0hPa | 2.7V | 00:00:00 | 00:00:00 | 00:00:00 | |
| DO3MHA-11 | 2026-09-05 12:45:19 | 45.24560 | 9.34661 | 44° | 15km/h | 30792m | 6.4m/s | -41.5°C | 2.7% | 0hPa | 2.7V | 00:00:00 | 02:11:39 | 00:00:00 | |
| PG1ADW-2 | 2026-09-05 12:45:18 | 45.24553 | 9.34654 | 23° | 11km/h | 30780m | 5.4m/s | -41.5°C | 2.7% | 0hPa | 2.7V | 00:00:00 | 02:11:37 | 00:00:00 | |
| IW2NTF | 2026-09-05 12:45:15 | 45.24541 | 9.34653 | 343° | 13km/h | 30760m | 6.5m/s | -41.5°C | 2.7% | 0hPa | 2.6V | 08:30:00 | 02:11:34 | 00:00:00 | |
| OE5DRO-10 | 2026-09-05 12:45:11 | 45.24532 | 9.34655 | 2° | 9km/h | 30741m | 7.1m/s | -41.4°C | 2.7% | 0hPa | 2.7V | 00:00:00 | 00:00:00 | 00:00:00 | |
| DB0UT-7 | 2026-09-05 12:45:10 | 45.24528 | 9.34655 | 8° | 9km/h | 30734m | 5.9m/s | -41.3°C | 2.7% | 0hPa | 2.7V | 00:00:00 | 02:11:30 | 00:00:00 | |
| DO3MHA-11 | 2026-09-05 12:45:09 | 45.24524 | 9.34654 | 12° | 9km/h | 30728m | 5.3m/s | -41.3°C | 2.7% | 0hPa | 2.7V | 00:00:00 | 02:11:29 | 00:00:00 | |
| DK5PH-5 | 2026-09-05 12:45:01 | 45.24508 | 9.34649 | 13° | 13km/h | 30678m | 5.2m/s | 0°C | 0% | 0hPa | 2.7V | 00:00:00 | 02:11:21 | 00:00:00 | |
| DO3MHA-11 | 2026-09-05 12:44:59 | 45.24504 | 9.34650 | 320° | 11km/h | 30664m | 7.2m/s | -41.0°C | 2.6% | 0hPa | 2.7V | 00:00:00 | 02:11:19 | 00:00:00 | |
| PG1ADW-2 | 2026-09-05 12:44:57 | 45.24501 | 9.34656 | 303° | 9km/h | 30652m | 5.4m/s | -41.1°C | 2.6% | 0hPa | 2.7V | 00:00:00 | 00:00:00 | 00:00:00 | |
| IW2NTF | 2026-09-05 12:44:54 | 45.24482 | 9.34670 | 245° | 9km/h | 30597m | 5.6m/s | -41.6°C | 2.6% | 0hPa | 2.7V | 08:30:00 | 02:11:08 | 00:00:00 | |
| DO3MHA-11 | 2026-09-05 12:44:50 | 45.24481 | 9.34667 | 250° | 9km/h | 30603m | 6.3m/s | -41.6°C | 2.6% | 0hPa | 2.7V | 00:00:00 | 02:11:09 | 08:30:00 | |
| IW2NTF | 2026-09-05 12:44:44 | 45.24480 | 9.34699 | 215° | 5km/h | 30523m | 5.3m/s | -42°C | 2.7% | 0hPa | 2.7V | 08:30:00 | 02:10:56 | 00:00:00 | |
| DB0UT-7 | 2026-09-05 12:44:40 | 45.24478 | 9.34692 | 254° | 13km/h | 30547m | 5.4m/s | -41.7°C | 2.7% | 0hPa | 2.6V | 00:00:00 | 00:00:00 | 00:00:00 | |
| DO3MHA-11 | 2026-09-05 12:44:39 | 45.24478 | 9.34695 | 250° | 9km/h | 30542m | 6.4m/s | -41.8°C | 2.7% | 0hPa | 2.6V | 00:00:00 | 02:10:59 | 00:00:00 | |
| PG1ADW-2 | 2026-09-05 12:44:37 | 45.24479 | 9.34698 | 223° | 15km/h | 30529m | 5.4m/s | -41.9°C | 2.7% | 0hPa | 2.6V | 00:00:00 | 00:00:00 | 00:00:00 | |
| IW2NTF | 2026-09-05 12:44:30 | 45.24497 | 9.34722 | 231° | 9km/h | 30474m | 5m/s | -42.3°C | 2.7% | 0hPa | 2.6V | 08:30:00 | 02:10:48 | 00:00:00 | |
| DO3MHA-11 | 2026-09-05 12:44:30 | 45.24495 | 9.34720 | 240° | 16km/h | 30479m | 5.2m/s | -42.2°C | 2.7% | 0hPa | 2.7V | 00:00:00 | 02:10:49 | 00:00:00 | |
| IW2NTF | 2026-09-05 12:44:23 | 45.24534 | 9.34717 | 140° | 16km/h | 30416m | 6m/s | -42.4°C | 2.7% | 0hPa | 2.7V | 08:30:00 | 02:10:38 | 00:00:00 | |
| NBG1-10 | 2026-09-05 12:44:21 | 45.24525 | 9.34729 | 150° | 11km/h | 30434m | 6.8m/s | -42.3°C | 2.7% | 0hPa | 2.6V | 00:00:00 | 02:10:41 | 00:00:00 | |
| DO3MHA-11 | 2026-09-05 12:44:19 | 45.24531 | 9.34721 | 132° | 13km/h | 30422m | 5.0m/s | -42.3°C | 2.7% | 0hPa | 2.7V | 00:00:00 | 02:10:39 | 00:00:00 | |
| PG1ADW-2 | 2026-09-05 12:44:17 | 45.24538 | 9.34713 | 156° | 9km/h | 30410m | 6.7m/s | 0°C | 0% | 0hPa | 2.7V | 00:00:00 | 00:00:00 | 00:00:00 | |
| IW2NTF | 2026-09-05 12:44:13 | 45.24557 | 9.34715 | 238° | 7km/h | 30356m | 5.1m/s | -42.5°C | 2.8% | 0hPa | 2.7V | 08:30:00 | 02:10:28 | 00:00:00 | |
| DB0UT-7 | 2026-09-05 12:44:10 | 45.24555 | 9.34712 | 248° | 13km/h | 30368m | 6.6m/s | -42.6°C | 2.8% | 0hPa | 2.6V | 00:00:00 | 02:10:30 | 00:00:00 | |
| DO3MHA-11 | 2026-09-05 12:44:09 | 45.24556 | 9.34714 | 244° | 5km/h | 30362m | 6.1m/s | -42.5°C | 2.8% | 0hPa | 2.7V | 00:00:00 | 02:10:29 | 00:00:00 | |
| DO3MHA-11 | 2026-09-05 12:43:59 | 45.24564 | 9.34712 | 188° | 13km/h | 30304m | 5.6m/s | -42.5°C | 2.8% | 0hPa | 2.7V | 00:00:00 | 02:10:19 | 00:00:00 | |
| IW2NTF | 2026-09-05 12:43:59 | 45.24569 | 9.34713 | 189° | 18km/h | 30298m | 5.9m/s | -42.5°C | 2.8% | 0hPa | 2.6V | 08:30:00 | 02:10:18 | 00:00:00 | |
| PG1ADW-2 | 2026-09-05 12:43:58 | 45.24573 | 9.34714 | 189° | 15km/h | 30293m | 6.3m/s | 0°C | 0% | 0hPa | 2.7V | 00:00:00 | 02:10:17 | 00:00:00 | |
| IW2NTF | 2026-09-05 12:43:52 | 45.24599 | 9.34711 | 166° | 9km/h | 30239m | 5.2m/s | -42.7°C | 2.8% | 0hPa | 2.7V | 08:30:00 | 02:10:08 | 00:00:00 | |
| OE5DRO-10 | 2026-09-05 12:43:50 | 45.24594 | 9.34713 | 169° | 16km/h | 30252m | 5.8m/s | -42.7°C | 2.8% | 0hPa | 2.7V | 00:00:00 | 00:00:00 | 00:00:00 | |
| DO3MHA-11 | 2026-09-05 12:43:49 | 45.24597 | 9.34712 | 165° | 18km/h | 30246m | 6.6m/s | -42.7°C | 2.8% | 0hPa | 2.7V | 00:00:00 | 02:10:09 | 00:00:00 | |
| NBG1-10 | 2026-09-05 12:43:48 | 45.24599 | 9.34711 | 167° | 16km/h | 30240m | 5.1m/s | -42.7°C | 2.8% | 0hPa | 2.7V | 00:00:00 | 02:10:08 | 00:00:00 | |
| DB0UT-7 | 2026-09-05 12:43:40 | 45.24636 | 9.34723 | 197° | 16km/h | 30192m | 5.8m/s | -42.7°C | 2.8% | 0hPa | 2.7V | 00:00:00 | 00:00:00 | 00:00:00 | |
| IW2NTF | 2026-09-05 12:43:38 | 45.24640 | 9.34723 | 165° | 9km/h | 30181m | 5.5m/s | -42.6°C | 2.8% | 0hPa | 2.7V | 08:30:00 | 02:09:58 | 00:00:00 | |
| PG1ADW-2 | 2026-09-05 12:43:37 | 45.24642 | 9.34722 | 167° | 18km/h | 30176m | 6.5m/s | 0°C | 0% | 0hPa | 2.6V | 00:00:00 | 00:00:00 | 00:00:00 | |
| IW2NTF | 2026-09-05 12:43:33 | 45.24684 | 9.34726 | 178° | 20km/h | 30121m | 6m/s | -42.7°C | 2.9% | 0hPa | 2.6V | 08:30:00 | 02:09:48 | 00:00:00 | |
| OE5DRO-10 | 2026-09-05 12:43:30 | 45.24675 | 9.34724 | 194° | 16km/h | 30134m | 5.5m/s | -42.6°C | 2.8% | 0hPa | 2.7V | 00:00:00 | 00:00:00 | 00:00:00 | |
| DO3MHA-11 | 2026-09-05 12:43:29 | 45.24679 | 9.34725 | 187° | 16km/h | 30128m | 6.8m/s | -42.6°C | 2.9% | 0hPa | 2.7V | 00:00:00 | 02:09:49 | 00:00:00 | |
| IW2NTF | 2026-09-05 12:43:18 | 45.24721 | 9.34700 | 167° | 18km/h | 30062m | 5.8m/s | -42.7°C | 2.8% | 0hPa | 2.7V | 08:30:00 | 02:09:38 | 00:00:00 | |
| PG1ADW-2 | 2026-09-05 12:43:17 | 45.24725 | 9.34699 | 170° | 16km/h | 30056m | 6.7m/s | 0°C | 0% | 0hPa | 2.7V | 00:00:00 | 00:00:00 | 00:00:00 | |
| NBG1-10 | 2026-09-05 12:43:15 | 45.24730 | 9.34696 | 147° | 24km/h | 30045m | 4.4m/s | -42.6°C | 2.8% | 0hPa | 2.7V | 00:00:00 | 02:09:35 | 00:00:00 | |
| IW2NTF | 2026-09-05 12:43:13 | 45.24762 | 9.34650 | 130° | 26km/h | 30005m | 6.5m/s | -42.5°C | 2.8% | 0hPa | 2.7V | 08:30:00 | 02:09:28 | 00:00:00 | |
| OE5DRO-10 | 2026-09-05 12:43:11 | 45.24746 | 9.34675 | 134° | 22km/h | 30022m | 6.5m/s | -42.5°C | 2.8% | 0hPa | 2.6V | 00:00:00 | 00:00:00 | 08:30:00 | |
| DB0UT-7 | 2026-09-05 12:43:10 | 45.24751 | 9.34666 | 134° | 24km/h | 30016m | 5.3m/s | -42.5°C | 2.8% | 0hPa | 2.6V | 00:00:00 | 02:09:30 | 00:00:00 | |
| DO3MHA-11 | 2026-09-05 12:43:09 | 45.24757 | 9.34658 | 133° | 20km/h | 30011m | 5.0m/s | -42.5°C | 2.8% | 0hPa | 2.6V | 00:00:00 | 02:09:29 | 00:00:00 | |
| IW2NTF | 2026-09-05 12:42:58 | 45.24788 | 9.34592 | 108° | 24km/h | 29945m | 6.1m/s | -42.6°C | 2.8% | 0hPa | 2.6V | 08:30:00 | 02:09:18 | 00:00:00 | |
| IW2NTF | 2026-09-05 12:42:53 | 45.24802 | 9.34518 | 88° | 27km/h | 29885m | 7m/s | -42.6°C | 2.9% | 0hPa | 2.7V | 08:30:00 | 02:09:08 | 00:00:00 | |
| OE5DRO-10 | 2026-09-05 12:42:52 | 45.24802 | 9.34547 | 111° | 20km/h | 29910m | 6.5m/s | -42.6°C | 2.9% | 0hPa | 2.7V | 00:00:00 | 00:00:00 | 00:00:00 | |
| DO3MHA-11 | 2026-09-05 12:42:49 | 45.24803 | 9.34527 | 84° | 29km/h | 29892m | 5.0m/s | -42.6°C | 2.9% | 0hPa | 2.7V | 00:00:00 | 02:09:09 | 00:00:00 | |
| NBG1-10 | 2026-09-05 12:42:42 | 45.24806 | 9.34447 | 105° | 16km/h | 29850m | 5.4m/s | -42.4°C | 2.8% | 0hPa | 2.7V | 00:00:00 | 02:09:02 | 08:30:00 | |
| DB0UT-7 | 2026-09-05 12:42:40 | 45.24811 | 9.34434 | 135° | 16km/h | 29837m | 6.3m/s | -42.4°C | 2.8% | 0hPa | 2.6V | 00:00:00 | 00:00:00 | 08:30:00 | |
| DO3MHA-11 | 2026-09-05 12:42:39 | 45.24815 | 9.34430 | 150° | 15km/h | 29831m | 5.4m/s | -42.3°C | 2.8% | 0hPa | 2.7V | 00:00:00 | 02:08:59 | 00:00:00 | |
| IW2NTF | 2026-09-05 12:42:38 | 45.24820 | 9.34426 | 87° | 2km/h | 29812m | 5.5m/s | -42.4°C | 2.8% | 0hPa | 2.7V | 08:30:00 | 02:08:56 | 00:00:00 | |
| IW2NTF | 2026-09-05 12:42:32 | 45.24835 | 9.34364 | 106° | 15km/h | 29755m | 5.3m/s | -42.2°C | 2.8% | 0hPa | 2.7V | 08:30:00 | 02:08:46 | 00:00:00 | |
| DO3MHA-11 | 2026-09-05 12:42:29 | 45.24830 | 9.34385 | 114° | 16km/h | 29773m | 6.4m/s | -42.2°C | 2.8% | 0hPa | 2.7V | 00:00:00 | 02:08:49 | 00:00:00 | |
| DO3MHA-11 | 2026-09-05 12:42:19 | 45.24836 | 9.34334 | 69° | 18km/h | 29714m | 4.4m/s | -42.1°C | 2.8% | 0hPa | 2.7V | 00:00:00 | 02:08:39 | 00:00:00 | |
| IW2NTF | 2026-09-05 12:42:18 | 45.24836 | 9.34314 | 112° | 24km/h | 29697m | 6.4m/s | -42.2°C | 2.8% | 0hPa | 2.6V | 08:30:00 | 02:08:36 | 00:00:00 | |
| OE5DRO-10 | 2026-09-05 12:42:13 | 45.24845 | 9.34291 | 113° | 13km/h | 29681m | 5.6m/s | -42.0°C | 2.7% | 0hPa | 2.7V | 00:00:00 | 00:00:00 | 00:00:00 | |
| IW2NTF | 2026-09-05 12:42:11 | 45.24844 | 9.34273 | 123° | 7km/h | 29639m | 5.1m/s | -42.1°C | 2.7% | 0hPa | 2.7V | 08:30:00 | 02:08:26 | 00:00:00 | |
| DB0UT-7 | 2026-09-05 12:42:10 | 45.24845 | 9.34278 | 43° | 13km/h | 29663m | 5.1m/s | -42.0°C | 2.7% | 0hPa | 2.7V | 00:00:00 | 02:08:30 | 00:00:00 | |
| DO3MHA-11 | 2026-09-05 12:42:09 | 45.24844 | 9.34276 | 33° | 9km/h | 29657m | 6.1m/s | -42.0°C | 2.7% | 0hPa | 2.7V | 00:00:00 | 02:08:29 | 00:00:00 | |
| DO3MHA-11 | 2026-09-05 12:41:59 | 45.24856 | 9.34234 | 137° | 9km/h | 29599m | 5.0m/s | -42.0°C | 2.7% | 0hPa | 2.7V | 00:00:00 | 02:08:19 | 00:00:00 | |
| IW2NTF | 2026-09-05 12:41:58 | 45.24863 | 9.34228 | 225° | 2km/h | 29582m | 7m/s | -42.3°C | 2.7% | 0hPa | 2.7V | 08:30:00 | 02:08:16 | 00:00:00 | |
| OE5DRO-10 | 2026-09-05 12:41:54 | 45.24860 | 9.34231 | 323° | 11km/h | 29571m | 4.3m/s | -42.2°C | 2.7% | 0hPa | 2.6V | 00:00:00 | 00:00:00 | 00:00:00 | |
| IW2NTF | 2026-09-05 12:41:52 | 45.24876 | 9.34222 | 122° | 18km/h | 29526m | 5.7m/s | -42.4°C | 2.7% | 0hPa | 2.6V | 08:30:00 | 02:08:06 | 00:00:00 | |
| DO3MHA-11 | 2026-09-05 12:41:49 | 45.24864 | 9.34235 | 157° | 15km/h | 29544m | 5.3m/s | -42.1°C | 2.7% | 0hPa | 2.7V | 00:00:00 | 02:08:09 | 08:30:00 | |
| DK5PH-5 | 2026-09-05 12:41:47 | 45.24873 | 9.34227 | 135° | 16km/h | 29532m | 6.3m/s | 0°C | 0% | 0hPa | 2.7V | 00:00:00 | 02:08:07 | 00:00:00 | |
| DB0ND-19 | 2026-09-05 12:41:42 | 45.24888 | 9.34208 | 201° | 5km/h | 29493m | 5.1m/s | -42.6°C | 0.8% | -1.0hPa | 2.7V | 00:00:00 | 00:00:00 | 00:00:00 | |
| DB0UT-7 | 2026-09-05 12:41:40 | 45.24888 | 9.34208 | 202° | 16km/h | 29493m | 5.0m/s | -42.6°C | 2.7% | 0hPa | 2.7V | 00:00:00 | 00:00:00 | 00:00:00 | |
| DO3MHA-11 | 2026-09-05 12:41:39 | 45.24889 | 9.34208 | 206° | 15km/h | 29487m | 6.6m/s | -42.7°C | 2.8% | 0hPa | 2.7V | 00:00:00 | 02:07:59 | 00:00:00 | |
| IW2NTF | 2026-09-05 12:41:37 | 45.24890 | 9.34204 | 108° | 11km/h | 29470m | 4.4m/s | -42.8°C | 2.7% | 0hPa | 2.7V | 08:30:00 | 02:07:56 | 00:00:00 | |
| OE5DRO-10 | 2026-09-05 12:41:35 | 45.24892 | 9.34200 | 123° | 18km/h | 29465m | 6.1m/s | -42.8°C | 2.8% | 0hPa | 2.7V | 00:00:00 | 00:00:00 | 00:00:00 | |
| IW2NTF | 2026-09-05 12:41:32 | 45.24921 | 9.34143 | 132° | 9km/h | 29411m | 5.4m/s | -43°C | 2.9% | 0hPa | 2.7V | 08:30:00 | 02:07:46 | 00:00:00 | |
| DO3MHA-11 | 2026-09-05 12:41:29 | 45.24915 | 9.34157 | 117° | 13km/h | 29429m | 5.0m/s | -42.8°C | 2.9% | 0hPa | 2.6V | 00:00:00 | 02:07:49 | 00:00:00 | |
| IW2NTF | 2026-09-05 12:41:21 | 45.24936 | 9.34090 | 121° | 22km/h | 29351m | 5.9m/s | -43.2°C | 2.8% | 0hPa | 2.6V | 08:30:00 | 02:07:35 | 00:00:00 | |
| DO3MHA-11 | 2026-09-05 12:41:19 | 45.24922 | 9.34113 | 117° | 22km/h | 29373m | 6.5m/s | -43.0°C | 2.8% | 0hPa | 2.7V | 00:00:00 | 02:07:39 | 00:00:00 | |
| DK5PH-5 | 2026-09-05 12:41:17 | 45.24928 | 9.34101 | 137° | 22km/h | 29362m | 4.5m/s | 0°C | 0% | 0hPa | 2.6V | 00:00:00 | 02:07:37 | 00:00:00 | |
| OE5DRO-10 | 2026-09-05 12:41:16 | 45.24932 | 9.34096 | 133° | 22km/h | 29357m | 4.9m/s | -43.1°C | 2.8% | 0hPa | 2.6V | 00:00:00 | 00:00:00 | 00:00:00 | |
| DB0ND-19 | 2026-09-05 12:41:11 | 45.24941 | 9.34059 | 102° | 20km/h | 29329m | 5.3m/s | 0°C | -1.0% | -1.0hPa | 2.6V | 00:00:00 | 00:00:00 | 00:00:00 | |
| DB0UT-7 | 2026-09-05 12:41:10 | 45.24942 | 9.34052 | 111° | 16km/h | 29324m | 5.5m/s | -43.2°C | 2.8% | 0hPa | 2.6V | 00:00:00 | 02:07:30 | 00:00:00 | |
| DO3MHA-11 | 2026-09-05 12:41:09 | 45.24944 | 9.34047 | 122° | 20km/h | 29319m | 5.2m/s | -43.2°C | 2.8% | 0hPa | 2.6V | 00:00:00 | 02:07:29 | 00:00:00 | |
| IW2NTF | 2026-09-05 12:41:07 | 45.24947 | 9.34037 | 85° | 13km/h | 29297m | 4.6m/s | -43.3°C | 2.8% | 0hPa | 2.6V | 08:30:00 | 02:07:25 | 00:00:00 | |
| IW2NTF | 2026-09-05 12:41:00 | 45.24969 | 9.33966 | 22° | 11km/h | 29243m | 6.4m/s | -43.7°C | 2.8% | 0hPa | 2.7V | 08:30:00 | 02:07:15 | 00:00:00 | |
| DO3MHA-11 | 2026-09-05 12:40:59 | 45.24964 | 9.33979 | 132° | 15km/h | 29267m | 4.7m/s | -43.5°C | 2.8% | 0hPa | 2.6V | 00:00:00 | 02:07:19 | 00:00:00 | |
| NBG1-10 | 2026-09-05 12:40:57 | 45.24971 | 9.33969 | 127° | 13km/h | 29256m | 5.7m/s | -43.6°C | 2.8% | 0hPa | 2.6V | 00:00:00 | 02:07:17 | 00:00:00 | |
| DO3MHA-11 | 2026-09-05 12:40:49 | 45.24955 | 9.33947 | 120° | 16km/h | 29210m | 5.7m/s | -44.1°C | 2.9% | 0hPa | 2.7V | 00:00:00 | 02:07:09 | 00:00:00 | |
| IW2NTF | 2026-09-05 12:40:45 | 45.24970 | 9.33917 | 113° | 18km/h | 29183m | 4m/s | -44.5°C | 3% | 0hPa | 2.7V | 08:30:00 | 02:07:04 | 00:00:00 | |
| DB0UT-7 | 2026-09-05 12:40:40 | 45.24968 | 9.33912 | 323° | 11km/h | 29160m | 4.8m/s | -44.6°C | 3.0% | 0hPa | 2.7V | 00:00:00 | 00:00:00 | 00:00:00 | |
| DO3MHA-11 | 2026-09-05 12:40:39 | 45.24965 | 9.33916 | 332° | 9km/h | 29155m | 5.1m/s | -44.6°C | 2.9% | 0hPa | 2.7V | 00:00:00 | 02:06:59 | 00:00:00 | |
| OE5DRO-10 | 2026-09-05 12:40:38 | 45.24961 | 9.33918 | 346° | 9km/h | 29150m | 5.6m/s | -44.6°C | 3.0% | 0hPa | 2.7V | 00:00:00 | 00:00:00 | 00:00:00 | |
| IW2NTF | 2026-09-05 12:40:35 | 45.24957 | 9.33903 | 88° | 7km/h | 29106m | 6.7m/s | -44.7°C | 3% | 0hPa | 2.7V | 08:30:00 | 02:06:50 | 00:00:00 | |
| DO3MHA-11 | 2026-09-05 12:40:28 | 45.24955 | 9.33897 | 43° | 13km/h | 29095m | 5.1m/s | -44.9°C | 3.1% | 0hPa | 2.7V | 00:00:00 | 02:06:48 | 00:00:00 | |
| IW2NTF | 2026-09-05 12:40:24 | 45.24950 | 9.33885 | 126° | 22km/h | 29050m | 5.2m/s | -45.3°C | 3.1% | 0hPa | 2.7V | 08:30:00 | 02:06:40 | 00:00:00 | |
| NBG1-10 | 2026-09-05 12:40:21 | 45.24947 | 9.33890 | 120° | 15km/h | 29056m | 6.0m/s | -45.2°C | 3.1% | 0hPa | 2.7V | 00:00:00 | 02:06:41 | 00:00:00 | |
| OE5DRO-10 | 2026-09-05 12:40:19 | 45.24954 | 9.33879 | 134° | 15km/h | 29045m | 5.7m/s | -45.1°C | 3.1% | 0hPa | 2.7V | 00:00:00 | 00:00:00 | 08:30:00 | |
| DO3MHA-11 | 2026-09-05 12:40:18 | 45.24958 | 9.33873 | 144° | 13km/h | 29039m | 6.3m/s | -45.1°C | 3.1% | 0hPa | 2.7V | 00:00:00 | 02:06:38 | 08:30:00 | |
| IW2NTF | 2026-09-05 12:40:13 | 45.24963 | 9.33842 | 80° | 9km/h | 28983m | 4.2m/s | -45.2°C | 3.1% | 0hPa | 2.7V | 08:30:00 | 02:06:28 | 00:00:00 | |
| DB0UT-7 | 2026-09-05 12:40:10 | 45.24965 | 9.33847 | 49° | 13km/h | 28994m | 6.3m/s | -45.1°C | 3.1% | 0hPa | 2.6V | 00:00:00 | 02:06:30 | 00:00:00 | |
| DB0ND-19 | 2026-09-05 12:40:09 | 45.24963 | 9.33842 | 80° | 7km/h | 28984m | 4.2m/s | 0°C | -1.0% | -1.0hPa | 2.6V | 00:00:00 | 00:00:00 | 00:00:00 | |
| DO3MHA-11 | 2026-09-05 12:40:08 | 45.24963 | 9.33842 | 81° | 11km/h | 28984m | 4.2m/s | -45.2°C | 3.1% | 0hPa | 2.6V | 00:00:00 | 02:06:28 | 00:00:00 | |
| IW2NTF | 2026-09-05 12:40:04 | 45.24965 | 9.33809 | 353° | 7km/h | 28931m | 5.2m/s | -45.4°C | 3.1% | 0hPa | 2.6V | 08:30:00 | 02:06:18 | 00:00:00 | |
| OE5DRO-10 | 2026-09-05 12:40:00 | 45.24967 | 9.33807 | 311° | 13km/h | 28940m | 4.8m/s | -45.3°C | 3.2% | 0hPa | 2.7V | 00:00:00 | 00:00:00 | 00:00:00 | |
| DO3MHA-11 | 2026-09-05 12:39:58 | 45.24965 | 9.33809 | 354° | 18km/h | 28931m | 5.1m/s | -45.3°C | 3.1% | 0hPa | 2.7V | 00:00:00 | 02:06:18 | 00:00:00 | |
| IW2NTF | 2026-09-05 12:39:54 | 45.24966 | 9.33749 | 122° | 22km/h | 28872m | 4.7m/s | -45.7°C | 3.2% | 0hPa | 2.7V | 08:30:00 | 02:06:08 | 00:00:00 | |
| DO3MHA-11 | 2026-09-05 12:39:48 | 45.24967 | 9.33749 | 123° | 13km/h | 28873m | 4.6m/s | -45.6°C | 3.2% | 0hPa | 2.7V | 00:00:00 | 02:06:08 | 00:00:00 | |
| IW2NTF | 2026-09-05 12:39:44 | 45.24963 | 9.33719 | 83° | 18km/h | 28817m | 6.4m/s | -45.7°C | 3.2% | 0hPa | 2.7V | 08:30:00 | 02:05:58 | 00:00:00 | |
| OE5DRO-10 | 2026-09-05 12:39:41 | 45.24967 | 9.33736 | 49° | 16km/h | 28834m | 6.2m/s | -45.9°C | 3.2% | 0hPa | 2.6V | 00:00:00 | 00:00:00 | 00:00:00 | |
| DB0UT-7 | 2026-09-05 12:39:40 | 45.24965 | 9.33732 | 65° | 18km/h | 28829m | 5.3m/s | -45.8°C | 3.2% | 0hPa | 2.6V | 00:00:00 | 00:00:00 | 00:00:00 | |
| DO3MHA-11 | 2026-09-05 12:39:38 | 45.24963 | 9.33719 | 84° | 16km/h | 28817m | 6.3m/s | -45.6°C | 3.2% | 0hPa | 2.6V | 00:00:00 | 02:05:58 | 00:00:00 | |
| IW2NTF | 2026-09-05 12:39:34 | 45.24979 | 9.33679 | 81° | 5km/h | 28759m | 5.2m/s | -45.7°C | 3.1% | 0hPa | 2.6V | 08:30:00 | 02:05:48 | 00:00:00 | |
| IW2NTF | 2026-09-05 12:39:23 | 45.24999 | 9.33612 | 143° | 18km/h | 28705m | 5m/s | -45.9°C | 3.2% | 0hPa | 2.7V | 08:30:00 | 02:05:38 | 00:00:00 | |
| OE5DRO-10 | 2026-09-05 12:39:22 | 45.24984 | 9.33639 | 115° | 22km/h | 28727m | 5.0m/s | -45.9°C | 3.2% | 0hPa | 2.7V | 00:00:00 | 00:00:00 | 00:00:00 | |
| NBG1-10 | 2026-09-05 12:39:15 | 45.25009 | 9.33599 | 132° | 18km/h | 28687m | 5.3m/s | -46.1°C | 3.2% | 0hPa | 2.6V | 00:00:00 | 02:05:35 | 00:00:00 | |
| IW2NTF | 2026-09-05 12:39:12 | 45.25036 | 9.33567 | 129° | 27km/h | 28646m | 5.8m/s | -46.2°C | 3.3% | 0hPa | 2.6V | 08:30:00 | 02:05:28 | 00:00:00 | |
| DB0UT-7 | 2026-09-05 12:39:10 | 45.25027 | 9.33579 | 144° | 18km/h | 28659m | 5.1m/s | -46.2°C | 3.2% | 0hPa | 2.7V | 00:00:00 | 02:05:30 | 00:00:00 | |
| DB0ND-19 | 2026-09-05 12:39:07 | 45.25048 | 9.33545 | 134° | 22km/h | 28629m | 6.3m/s | 0°C | -1.0% | -1.0hPa | 2.7V | 00:00:00 | 00:00:00 | 00:00:00 | |
| OE5DRO-10 | 2026-09-05 12:39:03 | 45.25056 | 9.33534 | 133° | 16km/h | 28618m | 5.5m/s | -46.1°C | 3.3% | 0hPa | 2.7V | 00:00:00 | 00:00:00 | 00:00:00 | |
| IW2NTF | 2026-09-05 12:39:02 | 45.25068 | 9.33509 | 126° | 9km/h | 28589m | 6.9m/s | -46.2°C | 3.3% | 0hPa | 2.7V | 08:30:00 | 02:05:18 | 00:00:00 | |
| IW2NTF | 2026-09-05 12:38:50 | 45.25092 | 9.33463 | 139° | 20km/h | 28532m | 4.8m/s | -46°C | 3.2% | 0hPa | 2.6V | 08:30:00 | 02:05:08 | 00:00:00 | |
| OE5DRO-10 | 2026-09-05 12:38:44 | 45.25104 | 9.33446 | 134° | 16km/h | 28510m | 5.4m/s | -45.9°C | 3.3% | 0hPa | 2.6V | 00:00:00 | 00:00:00 | 00:00:00 | |
| IW2NTF | 2026-09-05 12:38:43 | 45.25120 | 9.33431 | 113° | 16km/h | 28476m | 6.7m/s | -46°C | 3.2% | 0hPa | 2.6V | 08:30:00 | 02:04:58 | 00:00:00 | |
| NBG1-10 | 2026-09-05 12:38:42 | 45.25109 | 9.33440 | 162° | 20km/h | 28499m | 6.7m/s | -45.9°C | 3.3% | 0hPa | 2.7V | 00:00:00 | 02:05:02 | 00:00:00 | |
| DB0UT-7 | 2026-09-05 12:38:40 | 45.25115 | 9.33438 | 157° | 22km/h | 28488m | 4.3m/s | -45.9°C | 3.2% | 0hPa | 2.7V | 00:00:00 | 00:00:00 | 00:00:00 | |
| IW2NTF | 2026-09-05 12:38:29 | 45.25140 | 9.33381 | 126° | 18km/h | 28420m | 5.9m/s | -46.2°C | 3.3% | 0hPa | 2.7V | 08:30:00 | 02:04:48 | 00:00:00 | |
| OE5DRO-10 | 2026-09-05 12:38:25 | 45.25151 | 9.33360 | 133° | 29km/h | 28404m | 6.9m/s | -46.0°C | 3.3% | 0hPa | 2.6V | 00:00:00 | 00:00:00 | 00:00:00 | |
| IW2NTF | 2026-09-05 12:38:24 | 45.25185 | 9.33314 | 141° | 24km/h | 28363m | 5.3m/s | -46°C | 3.1% | 0hPa | 2.6V | 08:30:00 | 02:04:38 | 00:00:00 | |
| IW2NTF | 2026-09-05 12:38:13 | 45.25237 | 9.33250 | 124° | 35km/h | 28307m | 6.3m/s | -46°C | 3.2% | 0hPa | 2.7V | 08:30:00 | 02:04:28 | 00:00:00 | |
| NBG1-10 | 2026-09-05 12:38:09 | 45.25232 | 9.33260 | 118° | 29km/h | 28313m | 5.2m/s | -45.9°C | 3.2% | 0hPa | 2.7V | 00:00:00 | 02:04:29 | 00:00:00 | |
| OE5DRO-10 | 2026-09-05 12:38:05 | 45.25256 | 9.33226 | 147° | 27km/h | 28290m | 4.9m/s | -46.0°C | 3.2% | 0hPa | 2.7V | 00:00:00 | 00:00:00 | 00:00:00 | |
| IW2NTF | 2026-09-05 12:38:04 | 45.25286 | 9.33189 | 128° | 16km/h | 28248m | 4.5m/s | -45.8°C | 3.1% | 0hPa | 2.7V | 08:30:00 | 02:04:18 | 00:00:00 | |
| IW2NTF | 2026-09-05 12:37:54 | 45.25323 | 9.33103 | 135° | 29km/h | 28190m | 6.6m/s | -46.2°C | 3.1% | 0hPa | 2.7V | 08:30:00 | 02:04:08 | 00:00:00 | |
| OE5DRO-10 | 2026-09-05 12:37:46 | 45.25332 | 9.33087 | 125° | 29km/h | 28179m | 5.2m/s | -46.2°C | 3.1% | 0hPa | 2.6V | 00:00:00 | 00:00:00 | 00:00:00 | |
| IW2NTF | 2026-09-05 12:37:45 | 45.25354 | 9.33015 | 104° | 37km/h | 28132m | 4.9m/s | -46.6°C | 3.2% | 0hPa | 2.6V | 08:30:00 | 02:03:58 | 00:00:00 | |
| DB0UT-7 | 2026-09-05 12:37:40 | 45.25349 | 9.33039 | 106° | 29km/h | 28143m | 6.8m/s | -46.5°C | 3.2% | 0hPa | 2.7V | 00:00:00 | 00:00:00 | 00:00:00 | |
| IW2NTF | 2026-09-05 12:37:34 | 45.25389 | 9.32920 | 129° | 24km/h | 28072m | 4.6m/s | -47.1°C | 3.3% | 0hPa | 2.7V | 08:30:00 | 02:03:48 | 00:00:00 | |
| NBG1-10 | 2026-09-05 12:37:29 | 45.25385 | 9.32927 | 129° | 27km/h | 28078m | 6.3m/s | -47.1°C | 3.2% | 0hPa | 2.7V | 00:00:00 | 02:03:49 | 08:30:00 | |
| OE5DRO-10 | 2026-09-05 12:37:27 | 45.25393 | 9.32913 | 124° | 29km/h | 28068m | 4.1m/s | -47.1°C | 3.2% | 0hPa | 2.6V | 00:00:00 | 00:00:00 | 08:30:00 | |
| IW2NTF | 2026-09-05 12:37:22 | 45.25413 | 9.32816 | 114° | 33km/h | 28016m | 6.4m/s | -47.7°C | 3.4% | 0hPa | 2.7V | 08:30:00 | 02:03:38 | 00:00:00 | |
| IW2NTF | 2026-09-05 12:37:11 | 45.25422 | 9.32729 | 82° | 33km/h | 27961m | 4.7m/s | -47.9°C | 3.4% | 0hPa | 2.6V | 08:30:00 | 02:03:28 | 00:00:00 | |
| DB0UT-7 | 2026-09-05 12:37:10 | 45.25425 | 9.32749 | 68° | 22km/h | 27972m | 6.0m/s | -47.8°C | 3.4% | 0hPa | 2.6V | 00:00:00 | 02:03:30 | 00:00:00 | |
| OE5DRO-10 | 2026-09-05 12:37:08 | 45.25421 | 9.32729 | 83° | 22km/h | 27961m | 4.6m/s | -47.8°C | 3.4% | 0hPa | 2.6V | 00:00:00 | 00:00:00 | 00:00:00 | |
| IW2NTF | 2026-09-05 12:37:01 | 45.25428 | 9.32641 | 74° | 26km/h | 27905m | 5.6m/s | -48.1°C | 3.5% | 0hPa | 2.6V | 08:30:00 | 02:03:18 | 00:00:00 | |
| NBG1-10 | 2026-09-05 12:36:56 | 45.25424 | 9.32626 | 64° | 15km/h | 27893m | 6.4m/s | -48.0°C | 3.5% | 0hPa | 2.7V | 00:00:00 | 02:03:16 | 00:00:00 | |
| IW2NTF | 2026-09-05 12:36:52 | 45.25408 | 9.32584 | 69° | 9km/h | 27846m | 5.1m/s | -48°C | 3.5% | 0hPa | 2.7V | 08:30:00 | 02:03:08 | 00:00:00 | |
| OE5DRO-10 | 2026-09-05 12:36:49 | 45.25409 | 9.32587 | 66° | 13km/h | 27852m | 6.5m/s | -48.0°C | 3.5% | 0hPa | 2.6V | 00:00:00 | 00:00:00 | 00:00:00 | |
| IW2NTF | 2026-09-05 12:36:40 | 45.25408 | 9.32530 | 63° | 7km/h | 27790m | 6.5m/s | -48°C | 3.5% | 0hPa | 2.6V | 08:30:00 | 02:02:58 | 00:00:00 | |
| IW2NTF | 2026-09-05 12:36:32 | 45.25390 | 9.32520 | 78° | 18km/h | 27734m | 6.5m/s | -48.4°C | 3.6% | 0hPa | 2.7V | 08:30:00 | 02:02:48 | 00:00:00 | |
| OE5DRO-10 | 2026-09-05 12:36:30 | 45.25392 | 9.32527 | 39° | 16km/h | 27747m | 5.3m/s | -48.3°C | 3.6% | 0hPa | 2.6V | 00:00:00 | 00:00:00 | 00:00:00 | |
| NBG1-10 | 2026-09-05 12:36:23 | 45.25388 | 9.32478 | 84° | 15km/h | 27706m | 5.0m/s | -48.4°C | 3.6% | 0hPa | 2.7V | 00:00:00 | 02:02:43 | 00:00:00 | |
| IW2NTF | 2026-09-05 12:36:20 | 45.25381 | 9.32456 | 329° | 2km/h | 27677m | 7.1m/s | -48.4°C | 3.6% | 0hPa | 2.7V | 08:30:00 | 02:02:38 | 00:00:00 | |
| IW2NTF | 2026-09-05 12:36:12 | 45.25375 | 9.32426 | 92° | 16km/h | 27621m | 5.1m/s | -48°C | 3.6% | 0hPa | 2.6V | 08:30:00 | 02:02:28 | 00:00:00 | |
| DB0UT-7 | 2026-09-05 12:36:10 | 45.25375 | 9.32439 | 86° | 15km/h | 27632m | 6.1m/s | -48.1°C | 3.6% | 0hPa | 2.6V | 00:00:00 | 02:02:30 | 00:00:00 | |
| IW2NTF | 2026-09-05 12:36:01 | 45.25373 | 9.32392 | 62° | 9km/h | 27565m | 6.4m/s | -48°C | 3.5% | 0hPa | 2.6V | 08:30:00 | 02:02:18 | 00:00:00 | |
| IW2NTF | 2026-09-05 12:35:51 | 45.25354 | 9.32318 | 63° | 18km/h | 27509m | 4.7m/s | -47.8°C | 3.5% | 0hPa | 2.6V | 08:30:00 | 02:02:08 | 00:00:00 | |
| NBG1-10 | 2026-09-05 12:35:50 | 45.25358 | 9.32330 | 70° | 11km/h | 27520m | 6.0m/s | -47.8°C | 3.5% | 0hPa | 2.6V | 00:00:00 | 02:02:10 | 00:00:00 | |
| IW2NTF | 2026-09-05 12:35:42 | 45.25348 | 9.32281 | 46° | 11km/h | 27454m | 6.4m/s | -47.9°C | 3.5% | 0hPa | 2.6V | 08:30:00 | 02:01:58 | 00:00:00 | |
| DB0UT-7 | 2026-09-05 12:35:40 | 45.25353 | 9.32287 | 43° | 9km/h | 27465m | 5.0m/s | -47.8°C | 3.5% | 0hPa | 2.7V | 00:00:00 | 00:00:00 | 00:00:00 | |
| IW2NTF | 2026-09-05 12:35:34 | 45.25348 | 9.32240 | 162° | 7km/h | 27397m | 4.8m/s | -47.6°C | 3.4% | 0hPa | 2.7V | 08:30:00 | 02:01:48 | 00:00:00 | |
| IW2NTF | 2026-09-05 12:35:24 | 45.25345 | 9.32225 | 87° | 11km/h | 27341m | 6.6m/s | -47.7°C | 3.5% | 0hPa | 2.6V | 08:30:00 | 02:01:38 | 00:00:00 | |
| NBG1-10 | 2026-09-05 12:35:17 | 45.25345 | 9.32221 | 80° | 13km/h | 27335m | 5.5m/s | -47.6°C | 3.5% | 0hPa | 2.7V | 00:00:00 | 02:01:37 | 00:00:00 | |
| IW2NTF | 2026-09-05 12:35:13 | 45.25339 | 9.32207 | 30° | 13km/h | 27284m | 4.7m/s | -47.6°C | 3.4% | 0hPa | 2.7V | 08:30:00 | 02:01:28 | 00:00:00 | |
| DB0UT-7 | 2026-09-05 12:35:10 | 45.25344 | 9.32210 | 15° | 11km/h | 27295m | 6.4m/s | -47.7°C | 3.4% | 0hPa | 2.7V | 00:00:00 | 02:01:30 | 00:00:00 | |
| IW2NTF | 2026-09-05 12:35:04 | 45.25334 | 9.32175 | 67° | 7km/h | 27229m | 6m/s | -47.6°C | 3.5% | 0hPa | 2.7V | 08:30:00 | 02:01:18 | 00:00:00 | |
| IW2NTF | 2026-09-05 12:34:52 | 45.25325 | 9.32133 | 93° | 15km/h | 27172m | 5.1m/s | -47.6°C | 3.4% | 0hPa | 2.6V | 08:30:00 | 02:01:08 | 00:00:00 | |
| DB0UT-7 | 2026-09-05 12:34:40 | 45.25312 | 9.32114 | 48° | 15km/h | 27128m | 6.0m/s | -47.9°C | 3.5% | 0hPa | 2.6V | 00:00:00 | 00:00:00 | 00:00:00 | |
| IW2NTF | 2026-09-05 12:34:38 | 45.25309 | 9.32098 | 84° | 11km/h | 27105m | 6.3m/s | -48°C | 3.5% | 0hPa | 2.6V | 08:30:00 | 02:00:56 | 00:00:00 | |
| IW2NTF | 2026-09-05 12:34:32 | 45.25291 | 9.32072 | 28° | 16km/h | 27048m | 4.7m/s | -48°C | 3.5% | 0hPa | 2.7V | 08:30:00 | 02:00:46 | 00:00:00 | |
| IW2NTF | 2026-09-05 12:34:21 | 45.25257 | 9.32043 | 7° | 16km/h | 26991m | 6.3m/s | -47.9°C | 3.5% | 0hPa | 2.7V | 08:30:00 | 02:00:36 | 00:00:00 | |
| IW2NTF | 2026-09-05 12:34:11 | 45.25208 | 9.32009 | 16° | 24km/h | 26935m | 5.5m/s | -47.9°C | 3.5% | 0hPa | 2.7V | 08:30:00 | 02:00:26 | 00:00:00 | |
| DB0UT-7 | 2026-09-05 12:34:10 | 45.25228 | 9.32026 | 36° | 18km/h | 26958m | 5.0m/s | -47.9°C | 3.5% | 0hPa | 2.7V | 00:00:00 | 02:00:30 | 00:00:00 | |
| IW2NTF | 2026-09-05 12:34:02 | 45.25156 | 9.31994 | 6° | 22km/h | 26878m | 5.5m/s | -48°C | 3.5% | 0hPa | 2.7V | 08:30:00 | 02:00:16 | 00:00:00 | |
| IW2NTF | 2026-09-05 12:33:52 | 45.25122 | 9.31992 | 14° | 13km/h | 26822m | 6m/s | -47.8°C | 3.5% | 0hPa | 2.7V | 08:30:00 | 02:00:06 | 00:00:00 | |
| IW2NTF | 2026-09-05 12:33:42 | 45.25095 | 9.31973 | 25° | 7km/h | 26767m | 5.8m/s | -47.9°C | 3.5% | 0hPa | 2.6V | 08:30:00 | 01:59:56 | 00:00:00 | |
| DB0UT-7 | 2026-09-05 12:33:40 | 45.25103 | 9.31984 | 32° | 7km/h | 26789m | 6.1m/s | -47.8°C | 3.5% | 0hPa | 2.7V | 00:00:00 | 00:00:00 | 08:30:00 | |
| NBG1-10 | 2026-09-05 12:33:39 | 45.25101 | 9.31981 | 44° | 7km/h | 26782m | 6.2m/s | -47.8°C | 3.5% | 0hPa | 2.7V | 00:00:00 | 01:59:59 | 00:00:00 | |
| IW2NTF | 2026-09-05 12:33:27 | 45.25072 | 9.31969 | 18° | 7km/h | 26711m | 6m/s | -47.8°C | 3.5% | 0hPa | 2.7V | 08:30:00 | 01:59:46 | 00:00:00 | |
| IW2NTF | 2026-09-05 12:33:22 | 45.25066 | 9.31967 | 62° | 7km/h | 26655m | 6.5m/s | -47.6°C | 3.4% | 0hPa | 2.6V | 08:30:00 | 01:59:36 | 00:00:00 | |
| IW2NTF | 2026-09-05 12:33:12 | 45.25065 | 9.31947 | 76° | 4km/h | 26599m | 4.2m/s | -48°C | 3.5% | 0hPa | 2.6V | 08:30:00 | 01:59:26 | 00:00:00 | |
| DB0UT-7 | 2026-09-05 12:33:10 | 45.25065 | 9.31947 | 188° | 15km/h | 26622m | 5.3m/s | -47.9°C | 3.5% | 0hPa | 2.6V | 00:00:00 | 01:59:30 | 00:00:00 | |
| NBG1-10 | 2026-09-05 12:33:06 | 45.25065 | 9.31947 | 77° | 18km/h | 26600m | 4.2m/s | -47.9°C | 3.5% | 0hPa | 2.6V | 00:00:00 | 01:59:26 | 00:00:00 | |
| IW2NTF | 2026-09-05 12:32:59 | 45.25076 | 9.31903 | 101° | 11km/h | 26544m | 5.3m/s | -48°C | 3.5% | 0hPa | 2.6V | 08:30:00 | 01:59:16 | 00:00:00 | |
| IW2NTF | 2026-09-05 12:32:53 | 45.25063 | 9.31843 | 99° | 16km/h | 26490m | 4.6m/s | -48.1°C | 3.5% | 0hPa | 2.7V | 08:30:00 | 01:59:06 | 00:00:00 | |
| OE5DRO-10 | 2026-09-05 12:32:45 | 45.25064 | 9.31837 | 96° | 22km/h | 26486m | 4.9m/s | -48.1°C | 3.5% | 0hPa | 2.7V | 00:00:00 | 00:00:00 | 00:00:00 | |
| IW2NTF | 2026-09-05 12:32:42 | 45.25048 | 9.31759 | 48° | 29km/h | 26435m | 4.8m/s | -48°C | 3.5% | 0hPa | 2.7V | 08:30:00 | 01:58:56 | 00:00:00 | |
| DB0UT-7 | 2026-09-05 12:32:40 | 45.25060 | 9.31795 | 81° | 24km/h | 26458m | 5.8m/s | -48.0°C | 3.4% | 0hPa | 2.7V | 00:00:00 | 00:00:00 | 00:00:00 | |
| NBG1-10 | 2026-09-05 12:32:33 | 45.25035 | 9.31739 | 47° | 26km/h | 26420m | 5.8m/s | -48.0°C | 3.5% | 0hPa | 2.7V | 00:00:00 | 01:58:53 | 00:00:00 | |
| IW2NTF | 2026-09-05 12:32:32 | 45.25014 | 9.31693 | 60° | 26km/h | 26381m | 6.4m/s | -48.2°C | 3.5% | 0hPa | 2.7V | 08:30:00 | 01:58:46 | 00:00:00 | |
| OE5DRO-10 | 2026-09-05 12:32:23 | 45.25003 | 9.31674 | 34° | 18km/h | 26365m | 5.0m/s | -48.2°C | 3.5% | 0hPa | 2.7V | 00:00:00 | 00:00:00 | 00:00:00 | |
| IW2NTF | 2026-09-05 12:32:22 | 45.24964 | 9.31651 | 28° | 13km/h | 26326m | 5.3m/s | -48.3°C | 3.5% | 0hPa | 2.7V | 08:30:00 | 01:58:36 | 00:00:00 | |
| IW2NTF | 2026-09-05 12:32:12 | 45.24918 | 9.31604 | 20° | 37km/h | 26271m | 5.8m/s | -48.6°C | 3.5% | 0hPa | 2.6V | 08:30:00 | 01:58:26 | 00:00:00 | |
| DB0UT-7 | 2026-09-05 12:32:10 | 45.24944 | 9.31624 | 40° | 27km/h | 26293m | 5.2m/s | -48.3°C | 3.5% | 0hPa | 2.7V | 00:00:00 | 01:58:30 | 00:00:00 | |
| IW2NTF | 2026-09-05 12:32:02 | 45.24842 | 9.31605 | 21° | 22km/h | 26216m | 6.6m/s | -48.8°C | 3.5% | 0hPa | 2.7V | 08:30:00 | 01:58:16 | 00:00:00 | |
| NBG1-10 | 2026-09-05 12:32:00 | 45.24868 | 9.31607 | 346° | 22km/h | 26239m | 6.0m/s | -48.5°C | 3.5% | 0hPa | 2.7V | 00:00:00 | 01:58:20 | 00:00:00 | |
| OE5DRO-10 | 2026-09-05 12:31:54 | 45.24833 | 9.31598 | 35° | 18km/h | 26204m | 4.9m/s | -48.9°C | 3.6% | 0hPa | 2.7V | 00:00:00 | 00:00:00 | 00:00:00 | |
| IW2NTF | 2026-09-05 12:31:51 | 45.24782 | 9.31592 | 330° | 29km/h | 26161m | 5m/s | -49.4°C | 3.7% | 0hPa | 2.6V | 08:30:00 | 01:58:06 | 00:00:00 | |
| IW2NTF | 2026-09-05 12:31:41 | 45.24734 | 9.31610 | 16° | 13km/h | 26106m | 5.7m/s | -49.4°C | 3.5% | 0hPa | 2.6V | 08:30:00 | 01:57:56 | 00:00:00 | |
| DB0UT-7 | 2026-09-05 12:31:40 | 45.24746 | 9.31609 | 347° | 13km/h | 26129m | 6.1m/s | -49.4°C | 3.7% | 0hPa | 2.6V | 00:00:00 | 00:00:00 | 00:00:00 | |
| OE5DRO-10 | 2026-09-05 12:31:33 | 45.24724 | 9.31609 | 347° | 16km/h | 26090m | 6.4m/s | -49.3°C | 3.6% | 0hPa | 2.6V | 00:00:00 | 00:00:00 | 00:00:00 | |
| IW2NTF | 2026-09-05 12:31:32 | 45.24697 | 9.31612 | 21° | 13km/h | 26051m | 6.2m/s | -49.7°C | 3.7% | 0hPa | 2.6V | 08:30:00 | 01:57:46 | 00:00:00 | |
| NBG1-10 | 2026-09-05 12:31:27 | 45.24700 | 9.31614 | 19° | 15km/h | 26057m | 5.1m/s | -49.6°C | 3.7% | 0hPa | 2.7V | 00:00:00 | 01:57:47 | 08:30:00 | |
| IW2NTF | 2026-09-05 12:31:22 | 45.24674 | 9.31593 | 23° | 16km/h | 25996m | 5.4m/s | -50°C | 3.8% | 0hPa | 2.6V | 08:30:00 | 01:57:36 | 00:00:00 | |
| OE5DRO-10 | 2026-09-05 12:31:13 | 45.24663 | 9.31582 | 50° | 16km/h | 25980m | 4.7m/s | -49.9°C | 3.8% | 0hPa | 2.6V | 00:00:00 | 00:00:00 | 00:00:00 | |
| DO3MHA-11 | 2026-09-05 12:31:11 | 45.24659 | 9.31574 | 61° | 15km/h | 25968m | 5.8m/s | -50.0°C | 3.8% | 0hPa | 2.6V | 00:00:00 | 01:57:31 | 00:00:00 | |
| IW2NTF | 2026-09-05 12:31:10 | 45.24652 | 9.31538 | 54° | 18km/h | 25931m | 6.4m/s | -50.1°C | 3.8% | 0hPa | 2.6V | 08:30:00 | 01:57:24 | 00:00:00 | |
| DB0UT-7 | 2026-09-05 12:31:10 | 45.24658 | 9.31571 | 74° | 16km/h | 25963m | 4.5m/s | -50.0°C | 3.8% | 0hPa | 2.6V | 00:00:00 | 01:57:30 | 00:00:00 | |
| DO3MHA-11 | 2026-09-05 12:31:00 | 45.24637 | 9.31521 | 41° | 16km/h | 25908m | 6.0m/s | -50.1°C | 3.8% | 0hPa | 2.6V | 00:00:00 | 01:57:20 | 00:00:00 | |
| IW2NTF | 2026-09-05 12:30:59 | 45.24622 | 9.31497 | 60° | 13km/h | 25875m | 5.4m/s | -50.2°C | 3.8% | 0hPa | 2.6V | 08:30:00 | 01:57:14 | 00:00:00 | |
| NBG1-10 | 2026-09-05 12:30:54 | 45.24622 | 9.31497 | 61° | 15km/h | 25875m | 5.3m/s | -50.1°C | 3.8% | 0hPa | 2.6V | 00:00:00 | 01:57:14 | 00:00:00 | |
| IW2NTF | 2026-09-05 12:30:50 | 45.24588 | 9.31458 | 30° | 20km/h | 25821m | 4.4m/s | -50.1°C | 3.7% | 0hPa | 2.6V | 08:30:00 | 01:57:04 | 00:00:00 | |
| DO3MHA-11 | 2026-09-05 12:30:50 | 45.24614 | 9.31477 | 47° | 18km/h | 25854m | 5.7m/s | -50.1°C | 3.9% | 0hPa | 2.7V | 00:00:00 | 01:57:10 | 00:00:00 | |
| DB0UT-7 | 2026-09-05 12:30:40 | 45.24573 | 9.31448 | 33° | 15km/h | 25798m | 5.8m/s | -50.1°C | 3.7% | 0hPa | 2.7V | 00:00:00 | 00:00:00 | 00:00:00 | |
| IW2NTF | 2026-09-05 12:30:39 | 45.24553 | 9.31438 | 348° | 20km/h | 25765m | 5m/s | -50.3°C | 3.8% | 0hPa | 2.6V | 08:30:00 | 01:56:54 | 00:00:00 | |
| DO3MHA-11 | 2026-09-05 12:30:38 | 45.24568 | 9.31442 | 43° | 15km/h | 25787m | 4.6m/s | -50.2°C | 3.8% | 0hPa | 2.7V | 00:00:00 | 01:56:58 | 00:00:00 | |
| OE5DRO-10 | 2026-09-05 12:30:35 | 45.24558 | 9.31437 | 355° | 18km/h | 25771m | 5.8m/s | -50.2°C | 3.7% | 0hPa | 2.7V | 00:00:00 | 00:00:00 | 00:00:00 | |
| IW2NTF | 2026-09-05 12:30:30 | 45.24514 | 9.31442 | 12° | 11km/h | 25710m | 4.3m/s | -50.7°C | 3.8% | 0hPa | 2.7V | 08:30:00 | 01:56:44 | 00:00:00 | |
| DO3MHA-11 | 2026-09-05 12:30:25 | 45.24517 | 9.31443 | 7° | 16km/h | 25716m | 6.3m/s | -50.7°C | 3.8% | 0hPa | 2.7V | 00:00:00 | 01:56:45 | 08:30:00 | |
| NBG1-10 | 2026-09-05 12:30:21 | 45.24502 | 9.31443 | 341° | 9km/h | 25697m | 6.0m/s | -50.9°C | 3.9% | 0hPa | 2.6V | 00:00:00 | 01:56:41 | 00:00:00 | |
| IW2NTF | 2026-09-05 12:30:18 | 45.24473 | 9.31469 | 315° | 11km/h | 25660m | 5.8m/s | -51°C | 3.9% | 0hPa | 2.6V | 08:30:00 | 01:56:34 | 00:00:00 | |
| OE5DRO-10 | 2026-09-05 12:30:17 | 45.24478 | 9.31464 | 328° | 7km/h | 25670m | 4.5m/s | -50.9°C | 3.9% | 0hPa | 2.7V | 00:00:00 | 00:00:00 | 00:00:00 | |
| DO3MHA-11 | 2026-09-05 12:30:16 | 45.24475 | 9.31466 | 324° | 7km/h | 25666m | 4.7m/s | -50.9°C | 3.9% | 0hPa | 2.7V | 00:00:00 | 01:56:35 | 00:00:00 | |
| IW2NTF | 2026-09-05 12:30:10 | 45.24458 | 9.31486 | 306° | 15km/h | 25607m | 5m/s | -51.2°C | 3.9% | 0hPa | 2.7V | 08:30:00 | 01:56:24 | 00:00:00 | |
| DB0UT-7 | 2026-09-05 12:30:10 | 45.24468 | 9.31476 | 17° | 7km/h | 25639m | 6.6m/s | -51.0°C | 3.9% | 0hPa | 2.7V | 00:00:00 | 01:56:30 | 00:00:00 | |
| DO3MHA-11 | 2026-09-05 12:30:05 | 45.24460 | 9.31481 | 311° | 5km/h | 25612m | 4.5m/s | -51.1°C | 3.9% | 0hPa | 2.7V | 00:00:00 | 01:56:25 | 00:00:00 | |
| IW2NTF | 2026-09-05 12:29:59 | 45.24451 | 9.31487 | 82° | 11km/h | 25551m | 5m/s | -51.2°C | 3.9% | 0hPa | 2.7V | 08:30:00 | 01:56:14 | 00:00:00 | |
| OE5DRO-10 | 2026-09-05 12:29:57 | 45.24453 | 9.31493 | 46° | 9km/h | 25569m | 5.2m/s | -51.1°C | 4.0% | 0hPa | 2.6V | 00:00:00 | 00:00:00 | 00:00:00 | |
| DO3MHA-11 | 2026-09-05 12:29:55 | 45.24452 | 9.31490 | 79° | 7km/h | 25557m | 6.5m/s | -51.2°C | 4.0% | 0hPa | 2.7V | 00:00:00 | 01:56:15 | 00:00:00 | |
| IW2NTF | 2026-09-05 12:29:50 | 45.24450 | 9.31468 | 111° | 11km/h | 25498m | 6.2m/s | -51.8°C | 4.1% | 0hPa | 2.7V | 08:30:00 | 01:56:04 | 00:00:00 | |
| NBG1-10 | 2026-09-05 12:29:48 | 45.24448 | 9.31478 | 19° | 16km/h | 25521m | 5.7m/s | -51.5°C | 3.9% | 0hPa | 2.7V | 00:00:00 | 01:56:08 | 00:00:00 | |
| DO3MHA-11 | 2026-09-05 12:29:45 | 45.24449 | 9.31471 | 110° | 13km/h | 25504m | 4.9m/s | -51.7°C | 4.0% | 0hPa | 2.6V | 00:00:00 | 01:56:05 | 00:00:00 | |
| DB0UT-7 | 2026-09-05 12:29:40 | 45.24453 | 9.31449 | 96° | 18km/h | 25477m | 5.3m/s | -51.7°C | 4.1% | 0hPa | 2.6V | 00:00:00 | 00:00:00 | 00:00:00 | |
| OE5DRO-10 | 2026-09-05 12:29:38 | 45.24453 | 9.31438 | 97° | 16km/h | 25466m | 6.4m/s | 0°C | 0% | 0hPa | 2.6V | 00:00:00 | 00:00:00 | 00:00:00 | |
| DO3MHA-11 | 2026-09-05 12:29:35 | 45.24456 | 9.31428 | 121° | 18km/h | 25450m | 5.5m/s | -51.9°C | 4.0% | 0hPa | 2.6V | 00:00:00 | 01:55:55 | 00:00:00 | |
| IW2NTF | 2026-09-05 12:29:33 | 45.24462 | 9.31405 | 101° | 20km/h | 25428m | 5.5m/s | -51.8°C | 4% | 0hPa | 2.6V | 08:30:00 | 01:55:51 | 00:00:00 | |
| IW2NTF | 2026-09-05 12:29:27 | 45.24458 | 9.31337 | 68° | 20km/h | 25374m | 6m/s | -51.9°C | 4.1% | 0hPa | 2.7V | 08:30:00 | 01:55:41 | 00:00:00 | |
| DO3MHA-11 | 2026-09-05 12:29:25 | 45.24463 | 9.31362 | 87° | 22km/h | 25396m | 5.3m/s | -51.8°C | 4.1% | 0hPa | 2.6V | 00:00:00 | 01:55:45 | 00:00:00 | |
| OE5DRO-10 | 2026-09-05 12:29:19 | 45.24455 | 9.31322 | 73° | 24km/h | 25364m | 4.6m/s | 0°C | 0% | 0hPa | 2.6V | 00:00:00 | 00:00:00 | 00:00:00 | |
| DO3MHA-11 | 2026-09-05 12:29:15 | 45.24444 | 9.31292 | 53° | 24km/h | 25343m | 5.2m/s | -51.9°C | 4.1% | 0hPa | 2.6V | 00:00:00 | 01:55:35 | 00:00:00 | |
| IW2NTF | 2026-09-05 12:29:13 | 45.24433 | 9.31268 | 56° | 20km/h | 25320m | 5.2m/s | -51.9°C | 4.1% | 0hPa | 2.6V | 08:30:00 | 01:55:31 | 00:00:00 | |
| DB0UT-7 | 2026-09-05 12:29:10 | 45.24430 | 9.31262 | 49° | 27km/h | 25315m | 6.3m/s | -51.9°C | 4.1% | 0hPa | 2.7V | 00:00:00 | 01:55:30 | 08:30:00 | |
| IW2NTF | 2026-09-05 12:29:07 | 45.24384 | 9.31202 | 26° | 27km/h | 25265m | 5.1m/s | -51.9°C | 4% | 0hPa | 2.6V | 08:30:00 | 01:55:21 | 00:00:00 | |
| DO3MHA-11 | 2026-09-05 12:29:05 | 45.24407 | 9.31228 | 52° | 27km/h | 25287m | 4.6m/s | -51.9°C | 4.2% | 0hPa | 2.7V | 00:00:00 | 01:55:25 | 00:00:00 | |
| OE5DRO-10 | 2026-09-05 12:29:00 | 45.24378 | 9.31197 | 30° | 27km/h | 25260m | 6.4m/s | 0°C | 0% | 0hPa | 2.7V | 00:00:00 | 00:00:00 | 00:00:00 | |
| DO3MHA-11 | 2026-09-05 12:28:55 | 45.24353 | 9.31174 | 35° | 29km/h | 25232m | 4.2m/s | -52.0°C | 4.1% | 0hPa | 2.7V | 00:00:00 | 01:55:15 | 08:30:00 | |
| IW2NTF | 2026-09-05 12:28:53 | 45.24331 | 9.31147 | 39° | 31km/h | 25210m | 5.4m/s | -52°C | 4.2% | 0hPa | 2.7V | 08:30:00 | 01:55:11 | 00:00:00 | |
| IW2NTF | 2026-09-05 12:28:47 | 45.24262 | 9.31104 | 21° | 29km/h | 25154m | 5.2m/s | -51.9°C | 4.1% | 0hPa | 2.7V | 08:30:00 | 01:55:01 | 00:00:00 | |
| DO3MHA-11 | 2026-09-05 12:28:45 | 45.24289 | 9.31118 | 27° | 29km/h | 25177m | 4.8m/s | -51.8°C | 4.1% | 0hPa | 2.6V | 00:00:00 | 01:55:05 | 00:00:00 | |
| NBG1-10 | 2026-09-05 12:28:42 | 45.24269 | 9.31107 | 18° | 22km/h | 25159m | 5.0m/s | -51.8°C | 4.1% | 0hPa | 2.6V | 00:00:00 | 01:55:02 | 00:00:00 | |
| OE5DRO-10 | 2026-09-05 12:28:41 | 45.24262 | 9.31104 | 22° | 29km/h | 25154m | 5.1m/s | 0°C | 0% | 0hPa | 2.6V | 00:00:00 | 00:00:00 | 00:00:00 | |
| DB0UT-7 | 2026-09-05 12:28:40 | 45.24255 | 9.31100 | 26° | 27km/h | 25148m | 6.2m/s | -51.8°C | 4.1% | 0hPa | 2.6V | 00:00:00 | 00:00:00 | 00:00:00 | |
| DO3MHA-11 | 2026-09-05 12:28:35 | 45.24219 | 9.31086 | 358° | 29km/h | 25121m | 5.0m/s | -51.7°C | 4.1% | 0hPa | 2.6V | 00:00:00 | 01:54:55 | 00:00:00 | |
| IW2NTF | 2026-09-05 12:28:33 | 45.24190 | 9.31085 | 7° | 27km/h | 25098m | 5.5m/s | -51.6°C | 4% | 0hPa | 2.6V | 08:30:00 | 01:54:51 | 00:00:00 | |
| IW2NTF | 2026-09-05 12:28:27 | 45.24128 | 9.31059 | 348° | 22km/h | 25042m | 5.3m/s | -51.8°C | 4.1% | 0hPa | 2.6V | 08:30:00 | 01:54:41 | 00:00:00 | |
| DO3MHA-11 | 2026-09-05 12:28:25 | 45.24150 | 9.31064 | 32° | 24km/h | 25065m | 4.9m/s | -51.7°C | 4.1% | 0hPa | 2.6V | 00:00:00 | 01:54:45 | 00:00:00 | |
| OE5DRO-10 | 2026-09-05 12:28:23 | 45.24133 | 9.31058 | 354° | 22km/h | 25048m | 4.7m/s | 0°C | 0% | 0hPa | 2.7V | 00:00:00 | 00:00:00 | 00:00:00 | |
| DO3MHA-11 | 2026-09-05 12:28:15 | 45.24088 | 9.31064 | 357° | 22km/h | 25009m | 5.0m/s | -51.9°C | 4.1% | 0hPa | 2.7V | 00:00:00 | 01:54:35 | 00:00:00 | |
| IW2NTF | 2026-09-05 12:28:12 | 45.24062 | 9.31059 | 12° | 22km/h | 24987m | 5.2m/s | -51.9°C | 4% | 0hPa | 2.7V | 08:30:00 | 01:54:31 | 00:00:00 | |
| DB0UT-7 | 2026-09-05 12:28:10 | 45.24056 | 9.31058 | 4° | 16km/h | 24981m | 6.1m/s | -51.8°C | 4.1% | 0hPa | 2.6V | 00:00:00 | 01:54:30 | 00:00:00 | |
| IW2NTF | 2026-09-05 12:28:05 | 45.24019 | 9.31078 | 352° | 18km/h | 24931m | 6.5m/s | -51.8°C | 4.1% | 0hPa | 2.6V | 08:30:00 | 01:54:21 | 00:00:00 | |
| OE5DRO-10 | 2026-09-05 12:28:03 | 45.24029 | 9.31073 | 336° | 16km/h | 24942m | 5.2m/s | 0°C | 0% | 0hPa | 2.6V | 00:00:00 | 00:00:00 | 00:00:00 | |
| NBG1-10 | 2026-09-05 12:28:00 | 45.24015 | 9.31078 | 6° | 16km/h | 24926m | 5.8m/s | -51.7°C | 4.0% | 0hPa | 2.6V | 00:00:00 | 01:54:20 | 00:00:00 | |
| DO3MHA-11 | 2026-09-05 12:27:55 | 45.23995 | 9.31077 | 334° | 16km/h | 24898m | 5.3m/s | -52.0°C | 4.1% | 0hPa | 2.6V | 00:00:00 | 01:54:15 | 00:00:00 | |
| IW2NTF | 2026-09-05 12:27:53 | 45.23987 | 9.31092 | 302° | 18km/h | 24875m | 6.6m/s | -52°C | 4.2% | 0hPa | 2.7V | 08:30:00 | 01:54:11 | 00:00:00 | |
| DO3MHA-11 | 2026-09-05 12:27:45 | 45.23969 | 9.31120 | 326° | 15km/h | 24842m | 6.4m/s | -51.9°C | 4.1% | 0hPa | 2.6V | 00:00:00 | 01:54:05 | 00:00:00 | |
| IW2NTF | 2026-09-05 12:27:43 | 45.23957 | 9.31132 | 315° | 11km/h | 24818m | 5.7m/s | -52°C | 4.1% | 0hPa | 2.6V | 08:30:00 | 01:54:01 | 00:00:00 | |
| DB0UT-7 | 2026-09-05 12:27:40 | 45.23955 | 9.31135 | 312° | 15km/h | 24813m | 5.0m/s | -51.9°C | 4.1% | 0hPa | 2.6V | 00:00:00 | 00:00:00 | 00:00:00 | |
| DO3MHA-11 | 2026-09-05 12:27:35 | 45.23940 | 9.31152 | 325° | 13km/h | 24785m | 6.1m/s | -51.8°C | 4.1% | 0hPa | 2.6V | 00:00:00 | 01:53:55 | 00:00:00 | |
| IW2NTF | 2026-09-05 12:27:33 | 45.23928 | 9.31161 | 336° | 16km/h | 24761m | 5.9m/s | -51.8°C | 4.1% | 0hPa | 2.6V | 08:30:00 | 01:53:51 | 00:00:00 | |
| NBG1-10 | 2026-09-05 12:27:27 | 45.23916 | 9.31165 | 11° | 13km/h | 24740m | 5.3m/s | -51.8°C | 4.0% | 0hPa | 2.6V | 00:00:00 | 01:53:47 | 00:00:00 | |
| DO3MHA-11 | 2026-09-05 12:27:25 | 45.23911 | 9.31164 | 6° | 13km/h | 24730m | 5.6m/s | -51.8°C | 4.1% | 0hPa | 2.6V | 00:00:00 | 01:53:45 | 08:30:00 | |
| IW2NTF | 2026-09-05 12:27:23 | 45.23896 | 9.31168 | 335° | 13km/h | 24707m | 6.2m/s | -52.1°C | 4.1% | 0hPa | 2.6V | 08:30:00 | 01:53:41 | 00:00:00 | |
| DO3MHA-11 | 2026-09-05 12:27:15 | 45.23880 | 9.31181 | 352° | 15km/h | 24676m | 4.5m/s | -52.1°C | 4.0% | 0hPa | 2.7V | 00:00:00 | 01:53:35 | 00:00:00 | |
| IW2NTF | 2026-09-05 12:27:13 | 45.23869 | 9.31175 | 37° | 15km/h | 24653m | 4.9m/s | -52.1°C | 4% | 0hPa | 2.7V | 08:30:00 | 01:53:31 | 00:00:00 | |
| DO3MHA-11 | 2026-09-05 12:27:05 | 45.23846 | 9.31168 | 359° | 16km/h | 24620m | 5.0m/s | -52.3°C | 4.3% | 0hPa | 2.7V | 00:00:00 | 01:53:25 | 00:00:00 | |
| IW2NTF | 2026-09-05 12:27:03 | 45.23831 | 9.31170 | 0° | 15km/h | 24597m | 5m/s | -52.4°C | 4.2% | 0hPa | 2.7V | 08:30:00 | 01:53:21 | 00:00:00 | |
| DO3MHA-11 | 2026-09-05 12:26:55 | 45.23808 | 9.31159 | 21° | 16km/h | 24564m | 5.0m/s | -52.2°C | 4.1% | 0hPa | 2.7V | 00:00:00 | 01:53:15 | 00:00:00 | |
| IW2NTF | 2026-09-05 12:26:54 | 45.23792 | 9.31148 | 20° | 15km/h | 24542m | 5.3m/s | -52.2°C | 4.1% | 0hPa | 2.7V | 08:30:00 | 01:53:11 | 00:00:00 | |
| DB0UT-7 | 2026-09-05 12:26:52 | 45.23795 | 9.31150 | 28° | 16km/h | 24547m | 5.0m/s | -52.3°C | 4.2% | 0hPa | 2.6V | 00:00:00 | 01:53:12 | 00:00:00 | |
| DO3MHA-11 | 2026-09-05 12:26:45 | 45.23769 | 9.31148 | 354° | 15km/h | 24508m | 4.7m/s | -52.2°C | 4.1% | 0hPa | 2.6V | 00:00:00 | 01:53:05 | 00:00:00 | |
| IW2NTF | 2026-09-05 12:26:42 | 45.23752 | 9.31148 | 8° | 18km/h | 24486m | 5.4m/s | -52.5°C | 4.1% | 0hPa | 2.6V | 08:30:00 | 01:53:01 | 00:00:00 | |
| DO3MHA-11 | 2026-09-05 12:26:35 | 45.23730 | 9.31140 | 353° | 18km/h | 24453m | 5.4m/s | -52.4°C | 4.3% | 0hPa | 2.7V | 00:00:00 | 01:52:55 | 00:00:00 | |
| IW2NTF | 2026-09-05 12:26:31 | 45.23716 | 9.31147 | 335° | 18km/h | 24431m | 5.3m/s | -52.7°C | 4.3% | 0hPa | 2.7V | 08:30:00 | 01:52:51 | 00:00:00 | |
| DO3MHA-11 | 2026-09-05 12:26:25 | 45.23685 | 9.31156 | 6° | 16km/h | 24398m | 4.8m/s | -52.7°C | 4.2% | 0hPa | 2.7V | 00:00:00 | 01:52:45 | 00:00:00 | |
| IW2NTF | 2026-09-05 12:26:24 | 45.23671 | 9.31161 | 319° | 16km/h | 24377m | 4.9m/s | -52.6°C | 4.3% | 0hPa | 2.7V | 08:30:00 | 01:52:41 | 00:00:00 | |
| DB0UT-7 | 2026-09-05 12:26:21 | 45.23671 | 9.31161 | 320° | 13km/h | 24377m | 4.8m/s | -52.6°C | 4.3% | 0hPa | 2.7V | 00:00:00 | 00:00:00 | 00:00:00 | |
| DO3MHA-11 | 2026-09-05 12:26:15 | 45.23662 | 9.31193 | 296° | 13km/h | 24344m | 5.1m/s | -52.4°C | 4.3% | 0hPa | 2.7V | 00:00:00 | 01:52:35 | 00:00:00 | |
| IW2NTF | 2026-09-05 12:26:13 | 45.23655 | 9.31206 | 329° | 5km/h | 24322m | 5.2m/s | -52.5°C | 4.3% | 0hPa | 2.7V | 08:30:00 | 01:52:31 | 00:00:00 | |
| DO3MHA-11 | 2026-09-05 12:26:05 | 45.23653 | 9.31231 | 265° | 13km/h | 24290m | 5.9m/s | -52.3°C | 4.3% | 0hPa | 2.6V | 00:00:00 | 01:52:25 | 00:00:00 | |
| IW2NTF | 2026-09-05 12:26:03 | 45.23656 | 9.31254 | 263° | 16km/h | 24268m | 5.6m/s | -52.2°C | 4.2% | 0hPa | 2.6V | 08:30:00 | 01:52:21 | 00:00:00 | |
| IW2NTF | 2026-09-05 12:25:57 | 45.23668 | 9.31283 | 245° | 9km/h | 24212m | 4.9m/s | -52.2°C | 4.1% | 0hPa | 2.7V | 08:30:00 | 01:52:11 | 00:00:00 | |
| DO3MHA-11 | 2026-09-05 12:25:55 | 45.23663 | 9.31271 | 227° | 11km/h | 24236m | 6.0m/s | -52.1°C | 4.2% | 0hPa | 2.6V | 00:00:00 | 01:52:15 | 08:30:00 | |
| DB0UT-7 | 2026-09-05 12:25:51 | 45.23668 | 9.31283 | 246° | 7km/h | 24213m | 4.9m/s | -52.1°C | 4.1% | 0hPa | 2.7V | 00:00:00 | 01:52:11 | 00:00:00 | |
| DO3MHA-11 | 2026-09-05 12:25:45 | 45.23675 | 9.31309 | 207° | 9km/h | 24183m | 6.3m/s | -52.1°C | 4.2% | 0hPa | 2.6V | 00:00:00 | 01:52:05 | 00:00:00 | |
| IW2NTF | 2026-09-05 12:25:42 | 45.23687 | 9.31308 | 178° | 9km/h | 24162m | 5.6m/s | -52.1°C | 4.1% | 0hPa | 2.6V | 08:30:00 | 01:52:01 | 00:00:00 | |
| NBG1-10 | 2026-09-05 12:25:41 | 45.23687 | 9.31308 | 179° | 7km/h | 24162m | 5.6m/s | -52.0°C | 4.1% | 0hPa | 2.7V | 00:00:00 | 01:52:01 | 00:00:00 | |
| DO3MHA-11 | 2026-09-05 12:25:35 | 45.23689 | 9.31310 | 49° | 2km/h | 24131m | 5.0m/s | -52.2°C | 4.2% | 0hPa | 2.7V | 00:00:00 | 01:51:55 | 00:00:00 | |
| IW2NTF | 2026-09-05 12:25:33 | 45.23691 | 9.31309 | 145° | 5km/h | 24108m | 6.2m/s | -52.2°C | 4.2% | 0hPa | 2.7V | 08:30:00 | 01:51:51 | 00:00:00 | |
| DO3MHA-11 | 2026-09-05 12:25:25 | 45.23693 | 9.31302 | 347° | 13km/h | 24077m | 5.2m/s | -52.2°C | 4.1% | 0hPa | 2.6V | 00:00:00 | 01:51:45 | 00:00:00 | |
| IW2NTF | 2026-09-05 12:25:23 | 45.23681 | 9.31301 | 0° | 16km/h | 24056m | 5.6m/s | -52.1°C | 4.2% | 0hPa | 2.7V | 08:30:00 | 01:51:41 | 00:00:00 | |
| DB0UT-7 | 2026-09-05 12:25:21 | 45.23681 | 9.31301 | 1° | 18km/h | 24056m | 5.6m/s | -52.0°C | 4.2% | 0hPa | 2.6V | 00:00:00 | 00:00:00 | 00:00:00 | |
| DO3MHA-11 | 2026-09-05 12:25:15 | 45.23663 | 9.31301 | 30° | 15km/h | 24024m | 3.9m/s | -52.0°C | 4.2% | 0hPa | 2.6V | 00:00:00 | 01:51:35 | 00:00:00 | |
| IW2NTF | 2026-09-05 12:25:13 | 45.23653 | 9.31303 | 340° | 15km/h | 24003m | 4.8m/s | -52°C | 4.1% | 0hPa | 2.6V | 08:30:00 | 01:51:31 | 00:00:00 | |
| NBG1-10 | 2026-09-05 12:25:08 | 45.23642 | 9.31306 | 352° | 22km/h | 23988m | 4.2m/s | -52.0°C | 4.1% | 0hPa | 2.7V | 00:00:00 | 01:51:28 | 08:30:00 | |
| IW2NTF | 2026-09-05 12:25:07 | 45.23611 | 9.31318 | 353° | 13km/h | 23950m | 4.4m/s | -51.9°C | 4.2% | 0hPa | 2.6V | 08:30:00 | 01:51:21 | 00:00:00 | |
| DO3MHA-11 | 2026-09-05 12:25:05 | 45.23627 | 9.31312 | 337° | 18km/h | 23971m | 5.1m/s | -52.0°C | 4.2% | 0hPa | 2.6V | 00:00:00 | 01:51:25 | 00:00:00 | |
| DO3MHA-11 | 2026-09-05 12:24:55 | 45.23581 | 9.31326 | 358° | 24km/h | 23919m | 4.7m/s | -52.0°C | 4.2% | 0hPa | 2.6V | 00:00:00 | 01:51:15 | 00:00:00 | |
| IW2NTF | 2026-09-05 12:24:53 | 45.23552 | 9.31335 | 339° | 27km/h | 23898m | 4.9m/s | -52.1°C | 4.1% | 0hPa | 2.7V | 08:30:00 | 01:51:11 | 00:00:00 | |
| DB0UT-7 | 2026-09-05 12:24:51 | 45.23552 | 9.31335 | 340° | 24km/h | 23898m | 4.8m/s | -52.0°C | 4.1% | 0hPa | 2.6V | 00:00:00 | 01:51:11 | 00:00:00 | |
| IW2NTF | 2026-09-05 12:24:47 | 45.23504 | 9.31367 | 343° | 26km/h | 23845m | 4.2m/s | -52°C | 4.1% | 0hPa | 2.6V | 08:30:00 | 01:51:01 | 00:00:00 | |
| DO3MHA-11 | 2026-09-05 12:24:45 | 45.23525 | 9.31353 | 322° | 26km/h | 23865m | 4.8m/s | -51.9°C | 4.0% | 0hPa | 2.6V | 00:00:00 | 01:51:05 | 00:00:00 | |
| DO3MHA-11 | 2026-09-05 12:24:35 | 45.23466 | 9.31390 | 335° | 22km/h | 23814m | 4.0m/s | -51.9°C | 4.1% | 0hPa | 2.6V | 00:00:00 | 01:50:55 | 00:00:00 | |
| IW2NTF | 2026-09-05 12:24:32 | 45.23448 | 9.31411 | 310° | 24km/h | 23793m | 4.6m/s | -51.9°C | 4% | 0hPa | 2.6V | 08:30:00 | 01:50:51 | 00:00:00 | |
| IW2NTF | 2026-09-05 12:24:26 | 45.23399 | 9.31475 | 302° | 22km/h | 23728m | 4.9m/s | -52.6°C | 4.3% | 0hPa | 2.6V | 08:30:00 | 01:50:39 | 00:00:00 | |
| DO3MHA-11 | 2026-09-05 12:24:25 | 45.23424 | 9.31442 | 316° | 22km/h | 23761m | 5.1m/s | -52.3°C | 4.1% | 0hPa | 2.6V | 00:00:00 | 01:50:45 | 08:30:00 | |
| DB0UT-7 | 2026-09-05 12:24:21 | 45.23406 | 9.31463 | 319° | 13km/h | 23740m | 5.1m/s | -52.5°C | 4.2% | 0hPa | 2.7V | 00:00:00 | 00:00:00 | 08:30:00 | |
| DO3MHA-11 | 2026-09-05 12:24:15 | 45.23391 | 9.31496 | 290° | 13km/h | 23707m | 5.3m/s | -52.6°C | 4.3% | 0hPa | 2.7V | 00:00:00 | 01:50:35 | 00:00:00 | |
| IW2NTF | 2026-09-05 12:24:14 | 45.23386 | 9.31524 | 283° | 11km/h | 23674m | 5m/s | -52.6°C | 4.3% | 0hPa | 2.7V | 08:30:00 | 01:50:29 | 00:00:00 | |
| DO3MHA-11 | 2026-09-05 12:24:05 | 45.23385 | 9.31542 | 259° | 11km/h | 23652m | 6.3m/s | -52.7°C | 4.3% | 0hPa | 2.6V | 00:00:00 | 01:50:25 | 00:00:00 | |
| IW2NTF | 2026-09-05 12:24:02 | 45.23396 | 9.31564 | 246° | 15km/h | 23620m | 5.1m/s | -52.5°C | 4.2% | 0hPa | 2.6V | 08:30:00 | 01:50:19 | 00:00:00 | |
| DO3MHA-11 | 2026-09-05 12:23:55 | 45.23399 | 9.31577 | 266° | 9km/h | 23600m | 5.4m/s | -52.3°C | 4.2% | 0hPa | 2.6V | 00:00:00 | 01:50:15 | 00:00:00 | |
| NBG1-10 | 2026-09-05 12:23:52 | 45.23399 | 9.31588 | 273° | 9km/h | 23584m | 5.3m/s | -52.3°C | 4.2% | 0hPa | 2.6V | 00:00:00 | 01:50:12 | 00:00:00 | |
| DB0UT-7 | 2026-09-05 12:23:51 | 45.23399 | 9.31590 | 257° | 7km/h | 23578m | 6.2m/s | -52.3°C | 4.2% | 0hPa | 2.6V | 00:00:00 | 01:50:11 | 00:00:00 | |
| IW2NTF | 2026-09-05 12:23:49 | 45.23400 | 9.31595 | 237° | 7km/h | 23567m | 5.3m/s | -52.3°C | 4.3% | 0hPa | 2.6V | 08:30:00 | 01:50:09 | 00:00:00 | |
| DO3MHA-11 | 2026-09-05 12:23:45 | 45.23405 | 9.31607 | 230° | 7km/h | 23546m | 6.0m/s | -52.2°C | 4.3% | 0hPa | 2.7V | 00:00:00 | 01:50:05 | 00:00:00 | |
| IW2NTF | 2026-09-05 12:23:42 | 45.23402 | 9.31618 | 310° | 7km/h | 23513m | 6.1m/s | -52.2°C | 4.3% | 0hPa | 2.7V | 08:30:00 | 01:49:59 | 00:00:00 | |
| IW2NTF | 2026-09-05 12:23:34 | 45.23408 | 9.31628 | 217° | 5km/h | 23461m | 5.9m/s | -52°C | 4.1% | 0hPa | 2.6V | 08:30:00 | 01:49:49 | 00:00:00 | |
| DO3MHA-11 | 2026-09-05 12:23:24 | 45.23410 | 9.31634 | 177° | 9km/h | 23436m | 4.8m/s | -51.9°C | 4.2% | 0hPa | 2.6V | 00:00:00 | 01:49:44 | 00:00:00 | |
| IW2NTF | 2026-09-05 12:23:22 | 45.23421 | 9.31639 | 190° | 11km/h | 23411m | 5.1m/s | -51.9°C | 4.3% | 0hPa | 2.7V | 08:30:00 | 01:49:39 | 00:00:00 | |
| DB0UT-7 | 2026-09-05 12:23:21 | 45.23416 | 9.31636 | 204° | 9km/h | 23421m | 5.2m/s | -51.9°C | 4.2% | 0hPa | 2.6V | 00:00:00 | 00:00:00 | 00:00:00 | |
| IW2NTF | 2026-09-05 12:23:15 | 45.23438 | 9.31629 | 162° | 16km/h | 23361m | 4.5m/s | -51.7°C | 4.1% | 0hPa | 2.6V | 08:30:00 | 01:49:29 | 00:00:00 | |
| DO3MHA-11 | 2026-09-05 12:23:14 | 45.23429 | 9.31633 | 115° | 11km/h | 23386m | 4.9m/s | -51.9°C | 4.2% | 0hPa | 2.6V | 00:00:00 | 01:49:34 | 00:00:00 | |
| IW2NTF | 2026-09-05 12:23:05 | 45.23467 | 9.31616 | 119° | 7km/h | 23310m | 4.7m/s | -51.4°C | 4.2% | 0hPa | 2.6V | 08:30:00 | 01:49:19 | 00:00:00 | |
| DO3MHA-11 | 2026-09-05 12:23:04 | 45.23455 | 9.31627 | 169° | 11km/h | 23336m | 5.4m/s | 0°C | 0% | 0hPa | 2.6V | 00:00:00 | 01:49:24 | 00:00:00 | |
| IW2NTF | 2026-09-05 12:22:55 | 45.23482 | 9.31594 | 155° | 15km/h | 23260m | 4.6m/s | -51.1°C | 4% | 0hPa | 2.6V | 08:30:00 | 01:49:09 | 00:00:00 | |
| DO3MHA-11 | 2026-09-05 12:22:54 | 45.23472 | 9.31600 | 115° | 7km/h | 23285m | 5.6m/s | -51.2°C | 4.0% | 0hPa | 2.6V | 00:00:00 | 01:49:14 | 08:30:00 | |
| DB0UT-7 | 2026-09-05 12:22:51 | 45.23476 | 9.31597 | 163° | 9km/h | 23271m | 6.0m/s | -51.1°C | 4.0% | 0hPa | 2.7V | 00:00:00 | 01:49:11 | 00:00:00 | |
| IW2NTF | 2026-09-05 12:22:44 | 45.23481 | 9.31576 | 31° | 4km/h | 23209m | 3.8m/s | -50.9°C | 3.9% | 0hPa | 2.6V | 08:30:00 | 01:48:59 | 00:00:00 | |
| DO3MHA-11 | 2026-09-05 12:22:44 | 45.23489 | 9.31586 | 57° | 9km/h | 23235m | 6.1m/s | -50.9°C | 4.1% | 0hPa | 2.7V | 00:00:00 | 01:49:04 | 00:00:00 | |
| IW2NTF | 2026-09-05 12:22:35 | 45.23489 | 9.31558 | 30° | 15km/h | 23160m | 5.1m/s | -50.7°C | 4% | 0hPa | 2.7V | 08:30:00 | 01:48:49 | 00:00:00 | |
| DO3MHA-11 | 2026-09-05 12:22:34 | 45.23490 | 9.31566 | 149° | 11km/h | 23185m | 4.4m/s | -50.7°C | 3.9% | 0hPa | 2.6V | 00:00:00 | 01:48:54 | 00:00:00 | |
| IW2NTF | 2026-09-05 12:22:25 | 45.23487 | 9.31542 | 159° | 7km/h | 23112m | 5.7m/s | -50.7°C | 3.8% | 0hPa | 2.6V | 08:30:00 | 01:48:39 | 00:00:00 | |
| DO3MHA-11 | 2026-09-05 12:22:24 | 45.23478 | 9.31547 | 174° | 5km/h | 23136m | 5.1m/s | -50.8°C | 3.9% | 0hPa | 2.7V | 00:00:00 | 01:48:44 | 00:00:00 | |
| DB0UT-7 | 2026-09-05 12:22:21 | 45.23483 | 9.31545 | 152° | 7km/h | 23121m | 4.0m/s | -50.8°C | 3.8% | 0hPa | 2.6V | 00:00:00 | 00:00:00 | 00:00:00 | |
| IW2NTF | 2026-09-05 12:22:14 | 45.23473 | 9.31538 | 239° | 5km/h | 23059m | 6m/s | -51°C | 3.9% | 0hPa | 2.6V | 08:30:00 | 01:48:28 | 00:00:00 | |
| IW2NTF | 2026-09-05 12:22:04 | 45.23458 | 9.31545 | 20° | 11km/h | 23008m | 4.5m/s | -51.5°C | 3.9% | 0hPa | 2.7V | 08:30:00 | 01:48:18 | 00:00:00 | |
| DO3MHA-11 | 2026-09-05 12:22:00 | 45.23464 | 9.31546 | 353° | 7km/h | 23019m | 5.6m/s | -51.3°C | 3.9% | 0hPa | 2.7V | 00:00:00 | 01:48:20 | 00:00:00 | |
| DB0UT-7 | 2026-09-05 12:21:51 | 45.23452 | 9.31552 | 293° | 9km/h | 22973m | 5.0m/s | -51.8°C | 4.1% | 0hPa | 2.7V | 00:00:00 | 01:48:11 | 00:00:00 | |
| DO3MHA-11 | 2026-09-05 12:21:50 | 45.23451 | 9.31555 | 298° | 9km/h | 22968m | 6.1m/s | -51.9°C | 4.1% | 0hPa | 2.7V | 00:00:00 | 01:48:10 | 00:00:00 | |
| IW2NTF | 2026-09-05 12:21:47 | 45.23434 | 9.31572 | 281° | 7km/h | 22926m | 3.8m/s | -51.8°C | 4.1% | 0hPa | 2.7V | 08:30:00 | 01:48:02 | 00:00:00 | |
| DO3MHA-11 | 2026-09-05 12:21:40 | 45.23435 | 9.31575 | 244° | 7km/h | 22917m | 5.4m/s | -51.9°C | 4.1% | 0hPa | 2.6V | 00:00:00 | 01:48:00 | 00:00:00 | |
| IW2NTF | 2026-09-05 12:21:37 | 45.23430 | 9.31592 | 350° | 5km/h | 22876m | 4.5m/s | -52.1°C | 4% | 0hPa | 2.6V | 08:30:00 | 01:47:52 | 00:00:00 | |
| DO3MHA-11 | 2026-09-05 12:21:30 | 45.23428 | 9.31594 | 262° | 9km/h | 22866m | 4.6m/s | -52.0°C | 4.0% | 0hPa | 2.7V | 00:00:00 | 01:47:50 | 00:00:00 | |
| IW2NTF | 2026-09-05 12:21:27 | 45.23447 | 9.31604 | 252° | 9km/h | 22826m | 4.5m/s | -52.3°C | 4.2% | 0hPa | 2.7V | 08:30:00 | 01:47:42 | 00:00:00 | |
| DO3MHA-11 | 2026-09-05 12:21:20 | 45.23446 | 9.31610 | 306° | 7km/h | 22816m | 5.3m/s | -52.4°C | 4.3% | 0hPa | 2.6V | 00:00:00 | 01:47:40 | 08:30:00 | |
| IW2NTF | 2026-09-05 12:21:16 | 45.23442 | 9.31631 | 238° | 5km/h | 22776m | 4.8m/s | -52.6°C | 4.2% | 0hPa | 2.6V | 08:30:00 | 01:47:32 | 00:00:00 | |
| DB0UT-7 | 2026-09-05 12:21:11 | 45.23443 | 9.31632 | 220° | 7km/h | 22772m | 4.7m/s | -52.5°C | 4.2% | 0hPa | 2.7V | 00:00:00 | 00:00:00 | 00:00:00 | |
| DO3MHA-11 | 2026-09-05 12:21:09 | 45.23445 | 9.31635 | 206° | 7km/h | 22761m | 4.8m/s | -52.4°C | 4.2% | 0hPa | 2.7V | 00:00:00 | 01:47:29 | 00:00:00 | |
| IW2NTF | 2026-09-05 12:21:07 | 45.23453 | 9.31630 | 234° | 7km/h | 22725m | 5m/s | -52.4°C | 4.2% | 0hPa | 2.7V | 08:30:00 | 01:47:22 | 00:00:00 | |
| DO3MHA-11 | 2026-09-05 12:20:58 | 45.23454 | 9.31633 | 70° | 11km/h | 22705m | 4.6m/s | -52.4°C | 4.3% | 0hPa | 2.6V | 00:00:00 | 01:47:18 | 00:00:00 | |
| IW2NTF | 2026-09-05 12:20:57 | 45.23458 | 9.31613 | 103° | 13km/h | 22673m | 5.8m/s | -52.2°C | 4.2% | 0hPa | 2.6V | 08:30:00 | 01:47:12 | 00:00:00 | |
| DO3MHA-11 | 2026-09-05 12:20:48 | 45.23455 | 9.31596 | 61° | 5km/h | 22652m | 6.1m/s | -52.0°C | 4.1% | 0hPa | 2.6V | 00:00:00 | 01:47:08 | 00:00:00 | |
| IW2NTF | 2026-09-05 12:20:47 | 45.23453 | 9.31588 | 116° | 5km/h | 22620m | 6m/s | -51.9°C | 4.1% | 0hPa | 2.6V | 08:30:00 | 01:47:02 | 00:00:00 | |
| DB0UT-7 | 2026-09-05 12:20:41 | 45.23453 | 9.31586 | 116° | 11km/h | 22615m | 4.5m/s | -51.8°C | 4.1% | 0hPa | 2.6V | 00:00:00 | 01:47:01 | 00:00:00 | |
| DO3MHA-11 | 2026-09-05 12:20:38 | 45.23453 | 9.31575 | 74° | 11km/h | 22599m | 5.0m/s | -51.7°C | 4.0% | 0hPa | 2.6V | 00:00:00 | 01:46:58 | 00:00:00 | |
| IW2NTF | 2026-09-05 12:20:32 | 45.23446 | 9.31546 | 75° | 5km/h | 22556m | 5.4m/s | -51.9°C | 4% | 0hPa | 2.6V | 08:30:00 | 01:46:50 | 00:00:00 | |
| DO3MHA-11 | 2026-09-05 12:20:28 | 45.23446 | 9.31542 | 117° | 11km/h | 22546m | 4.7m/s | -51.9°C | 4.0% | 0hPa | 2.6V | 00:00:00 | 01:46:48 | 00:00:00 | |
| IW2NTF | 2026-09-05 12:20:26 | 45.23444 | 9.31509 | 82° | 11km/h | 22505m | 4.5m/s | -52.2°C | 4.1% | 0hPa | 2.6V | 08:30:00 | 01:46:40 | 00:00:00 | |
| DO3MHA-11 | 2026-09-05 12:20:18 | 45.23442 | 9.31500 | 64° | 13km/h | 22494m | 5.1m/s | -52.2°C | 4.0% | 0hPa | 2.7V | 00:00:00 | 01:46:38 | 00:00:00 | |
| IW2NTF | 2026-09-05 12:20:16 | 45.23426 | 9.31476 | 22° | 13km/h | 22452m | 5m/s | -52.5°C | 4% | 0hPa | 2.5V | 08:30:00 | 01:46:30 | 00:00:00 | |
| DB0UT-7 | 2026-09-05 12:20:11 | 45.23429 | 9.31479 | 30° | 15km/h | 22458m | 4.9m/s | -52.3°C | 4.0% | 0hPa | 2.7V | 00:00:00 | 00:00:00 | 00:00:00 | |
| DO3MHA-11 | 2026-09-05 12:20:08 | 45.23421 | 9.31474 | 17° | 11km/h | 22442m | 4.9m/s | -52.6°C | 4.1% | 0hPa | 2.7V | 00:00:00 | 01:46:28 | 00:00:00 | |
| IW2NTF | 2026-09-05 12:20:06 | 45.23409 | 9.31451 | 6° | 15km/h | 22401m | 5.7m/s | -53.1°C | 4.3% | 0hPa | 2.7V | 08:30:00 | 01:46:20 | 00:00:00 | |
| DO3MHA-11 | 2026-09-05 12:19:58 | 45.23399 | 9.31451 | 3° | 18km/h | 22390m | 6.2m/s | -53.1°C | 4.2% | 0hPa | 2.7V | 00:00:00 | 01:46:18 | 00:00:00 | |
| IW2NTF | 2026-09-05 12:19:55 | 45.23367 | 9.31436 | 79° | 16km/h | 22344m | 4.3m/s | -53.1°C | 4.2% | 0hPa | 2.7V | 08:30:00 | 01:46:09 | 00:00:00 | |
| DO3MHA-11 | 2026-09-05 12:19:48 | 45.23366 | 9.31431 | 74° | 13km/h | 22339m | 5.8m/s | -53.1°C | 4.3% | 0hPa | 2.6V | 00:00:00 | 01:46:08 | 08:30:00 | |
| NBG1-10 | 2026-09-05 12:19:45 | 45.23360 | 9.31427 | 359° | 13km/h | 22324m | 5.3m/s | -53.3°C | 4.4% | 0hPa | 2.5V | 00:00:00 | 01:46:05 | 00:00:00 | |
| DB0UT-7 | 2026-09-05 12:19:41 | 45.23343 | 9.31424 | 18° | 11km/h | 22304m | 5.6m/s | -53.5°C | 4.4% | 0hPa | 2.5V | 00:00:00 | 01:46:01 | 08:30:00 | |
| IW2NTF | 2026-09-05 12:19:40 | 45.23337 | 9.31416 | 68° | 13km/h | 22288m | 6m/s | -53.5°C | 4.4% | 0hPa | 2.7V | 08:30:00 | 01:45:58 | 00:00:00 | |
| DO3MHA-11 | 2026-09-05 12:19:38 | 45.23337 | 9.31416 | 69° | 11km/h | 22288m | 5.9m/s | -53.4°C | 4.4% | 0hPa | 2.7V | 00:00:00 | 01:45:58 | 00:00:00 | |
| IW2NTF | 2026-09-05 12:19:33 | 45.23326 | 9.31380 | 17° | 11km/h | 22228m | 5.9m/s | -53.3°C | 4.4% | 0hPa | 2.7V | 08:30:00 | 01:45:47 | 00:00:00 | |
| DO3MHA-11 | 2026-09-05 12:19:28 | 45.23328 | 9.31382 | 22° | 11km/h | 22234m | 5.3m/s | -53.3°C | 4.4% | 0hPa | 2.7V | 00:00:00 | 01:45:48 | 00:00:00 | |
| IW2NTF | 2026-09-05 12:19:23 | 45.23307 | 9.31355 | 23° | 13km/h | 22175m | 4.9m/s | -53.2°C | 4.2% | 0hPa | 2.7V | 08:30:00 | 01:45:37 | 00:00:00 | |
| DO3MHA-11 | 2026-09-05 12:19:18 | 45.23310 | 9.31357 | 34° | 15km/h | 22181m | 6.0m/s | -53.2°C | 4.3% | 0hPa | 2.6V | 00:00:00 | 01:45:38 | 00:00:00 | |
| IW2NTF | 2026-09-05 12:19:13 | 45.23270 | 9.31345 | 30° | 11km/h | 22122m | 4.3m/s | -53.2°C | 4.2% | 0hPa | 2.6V | 08:30:00 | 01:45:27 | 00:00:00 | |
| NBG1-10 | 2026-09-05 12:19:12 | 45.23289 | 9.31352 | 4° | 16km/h | 22149m | 6.0m/s | -53.0°C | 4.1% | 0hPa | 2.6V | 00:00:00 | 01:45:32 | 00:00:00 | |
| DB0UT-7 | 2026-09-05 12:19:11 | 45.23285 | 9.31351 | 11° | 18km/h | 22143m | 5.4m/s | -53.0°C | 4.1% | 0hPa | 2.6V | 00:00:00 | 00:00:00 | 00:00:00 | |
| DO3MHA-11 | 2026-09-05 12:19:08 | 45.23273 | 9.31347 | 21° | 15km/h | 22127m | 5.5m/s | 0°C | 0% | 0hPa | 2.6V | 00:00:00 | 01:45:28 | 00:00:00 | |
| IW2NTF | 2026-09-05 12:19:04 | 45.23232 | 9.31332 | 7° | 24km/h | 22069m | 4.9m/s | -54°C | 4.4% | 0hPa | 2.6V | 08:30:00 | 01:45:17 | 00:00:00 | |
| DO3MHA-11 | 2026-09-05 12:18:58 | 45.23238 | 9.31333 | 7° | 22km/h | 22075m | 4.4m/s | -53.8°C | 4.4% | 0hPa | 2.6V | 00:00:00 | 01:45:18 | 00:00:00 | |
| IW2NTF | 2026-09-05 12:18:53 | 45.23181 | 9.31308 | 11° | 18km/h | 22018m | 5.5m/s | -54°C | 4.4% | 0hPa | 2.6V | 08:30:00 | 01:45:07 | 00:00:00 | |
| DO3MHA-11 | 2026-09-05 12:18:48 | 45.23186 | 9.31309 | 15° | 15km/h | 22023m | 4.6m/s | -53.9°C | 4.4% | 0hPa | 2.7V | 00:00:00 | 01:45:08 | 00:00:00 | |
| IW2NTF | 2026-09-05 12:18:42 | 45.23150 | 9.31301 | 58° | 7km/h | 21965m | 6m/s | -54.3°C | 4.5% | 0hPa | 2.7V | 08:30:00 | 01:44:57 | 00:00:00 | |
| DB0UT-7 | 2026-09-05 12:18:41 | 45.23156 | 9.31305 | 354° | 9km/h | 21986m | 4.4m/s | -54.2°C | 4.5% | 0hPa | 2.7V | 00:00:00 | 01:45:01 | 00:00:00 | |
| DO3MHA-11 | 2026-09-05 12:18:38 | 45.23151 | 9.31303 | 45° | 9km/h | 21971m | 4.6m/s | -54.2°C | 4.5% | 0hPa | 2.7V | 00:00:00 | 01:44:58 | 00:00:00 | |
| IW2NTF | 2026-09-05 12:18:33 | 45.23132 | 9.31280 | 60° | 11km/h | 21915m | 5.6m/s | -54.8°C | 4.7% | 0hPa | 2.7V | 08:30:00 | 01:44:47 | 00:00:00 | |
| DO3MHA-11 | 2026-09-05 12:18:28 | 45.23133 | 9.31283 | 56° | 9km/h | 21920m | 4.6m/s | -54.7°C | 4.7% | 0hPa | 2.7V | 00:00:00 | 01:44:48 | 00:00:00 | |
| IW2NTF | 2026-09-05 12:18:23 | 45.23126 | 9.31246 | 92° | 11km/h | 21862m | 4.8m/s | -54.5°C | 4.6% | 0hPa | 2.7V | 08:30:00 | 01:44:37 | 00:00:00 | |
| DO3MHA-11 | 2026-09-05 12:18:18 | 45.23126 | 9.31250 | 83° | 9km/h | 21868m | 5.9m/s | -54.5°C | 4.6% | 0hPa | 2.6V | 00:00:00 | 01:44:38 | 08:30:00 | |
| IW2NTF | 2026-09-05 12:18:12 | 45.23112 | 9.31227 | 62° | 5km/h | 21811m | 5m/s | -54.4°C | 4.6% | 0hPa | 2.6V | 08:30:00 | 01:44:27 | 00:00:00 | |
| DB0UT-7 | 2026-09-05 12:18:11 | 45.23118 | 9.31230 | 3° | 5km/h | 21832m | 5.5m/s | -54.4°C | 4.6% | 0hPa | 2.6V | 00:00:00 | 00:00:00 | 00:00:00 | |
| DO3MHA-11 | 2026-09-05 12:18:08 | 45.23114 | 9.31228 | 37° | 5km/h | 21816m | 5.0m/s | -54.3°C | 4.6% | 0hPa | 2.6V | 00:00:00 | 01:44:28 | 00:00:00 | |
| NBG1-10 | 2026-09-05 12:18:06 | 45.23112 | 9.31225 | 99° | 5km/h | 21806m | 6.2m/s | -54.2°C | 4.6% | 0hPa | 2.6V | 00:00:00 | 01:44:26 | 00:00:00 | |
| IW2NTF | 2026-09-05 12:18:03 | 45.23111 | 9.31212 | 351° | 7km/h | 21759m | 5.9m/s | -54.1°C | 4.5% | 0hPa | 2.6V | 08:30:00 | 01:44:17 | 00:00:00 | |
| DO3MHA-11 | 2026-09-05 12:17:58 | 45.23112 | 9.31211 | 350° | 5km/h | 21765m | 4.6m/s | -54.0°C | 4.5% | 0hPa | 2.7V | 00:00:00 | 01:44:18 | 00:00:00 | |
| IW2NTF | 2026-09-05 12:17:53 | 45.23108 | 9.31213 | 134° | 4km/h | 21707m | 4.5m/s | -54.2°C | 4.4% | 0hPa | 2.7V | 08:30:00 | 01:44:07 | 00:00:00 | |
| DO3MHA-11 | 2026-09-05 12:17:48 | 45.23107 | 9.31214 | 150° | 4km/h | 21713m | 5.6m/s | -54.1°C | 4.4% | 0hPa | 2.7V | 00:00:00 | 01:44:08 | 00:00:00 | |
| IW2NTF | 2026-09-05 12:17:42 | 45.23101 | 9.31210 | 163° | 4km/h | 21656m | 5.9m/s | -54.3°C | 4.6% | 0hPa | 2.7V | 08:30:00 | 01:43:57 | 00:00:00 | |
| DB0UT-7 | 2026-09-05 12:17:41 | 45.23102 | 9.31210 | 321° | 5km/h | 21677m | 4.2m/s | -54.3°C | 4.5% | 0hPa | 2.6V | 00:00:00 | 01:44:01 | 00:00:00 | |
| DO3MHA-11 | 2026-09-05 12:17:38 | 45.23101 | 9.31210 | 130° | 4km/h | 21662m | 4.4m/s | -54.2°C | 4.5% | 0hPa | 2.6V | 00:00:00 | 01:43:58 | 00:00:00 | |
| IW2NTF | 2026-09-05 12:17:33 | 45.23101 | 9.31215 | 320° | 5km/h | 21606m | 5.7m/s | -54.3°C | 4.5% | 0hPa | 2.6V | 08:30:00 | 01:43:47 | 00:00:00 | |
| DO3MHA-11 | 2026-09-05 12:17:28 | 45.23102 | 9.31214 | 311° | 5km/h | 21611m | 4.1m/s | -54.2°C | 4.6% | 0hPa | 2.6V | 00:00:00 | 01:43:48 | 00:00:00 | |
| IW2NTF | 2026-09-05 12:17:23 | 45.23104 | 9.31219 | 340° | 4km/h | 21555m | 4.4m/s | -54.3°C | 4.7% | 0hPa | 2.6V | 08:30:00 | 01:43:37 | 00:00:00 | |
| DO3MHA-11 | 2026-09-05 12:17:18 | 45.23105 | 9.31219 | 346° | 11km/h | 21560m | 5.7m/s | -54.3°C | 4.7% | 0hPa | 2.6V | 00:00:00 | 01:43:38 | 00:00:00 | |
| IW2NTF | 2026-09-05 12:17:13 | 45.23079 | 9.31220 | 93° | 7km/h | 21507m | 4.5m/s | -54.4°C | 4.5% | 0hPa | 2.6V | 08:30:00 | 01:43:27 | 00:00:00 | |
| DB0UT-7 | 2026-09-05 12:17:11 | 45.23085 | 9.31221 | 343° | 7km/h | 21526m | 4.2m/s | -54.3°C | 4.6% | 0hPa | 2.7V | 00:00:00 | 00:00:00 | 00:00:00 | |
| DO3MHA-11 | 2026-09-05 12:17:08 | 45.23079 | 9.31222 | 53° | 9km/h | 21512m | 5.0m/s | -54.4°C | 4.5% | 0hPa | 2.7V | 00:00:00 | 01:43:28 | 00:00:00 | |
| IW2NTF | 2026-09-05 12:17:01 | 45.23072 | 9.31197 | 2° | 9km/h | 21448m | 4.8m/s | -54.2°C | 4.4% | 0hPa | 2.7V | 08:30:00 | 01:43:15 | 00:00:00 | |
| DO3MHA-11 | 2026-09-05 12:16:58 | 45.23078 | 9.31196 | 357° | 7km/h | 21462m | 4.2m/s | -54.2°C | 4.4% | 0hPa | 2.6V | 00:00:00 | 01:43:18 | 00:00:00 | |
| DO3MHA-11 | 2026-09-05 12:16:49 | 45.23074 | 9.31197 | 150° | 7km/h | 21415m | 4.7m/s | -54.4°C | 4.6% | 0hPa | 2.6V | 00:00:00 | 01:43:08 | 08:30:00 | |
| DB0UT-7 | 2026-09-05 12:16:41 | 45.23072 | 9.31183 | 62° | 11km/h | 21381m | 4.3m/s | -54.7°C | 4.5% | 0hPa | 2.6V | 00:00:00 | 01:43:01 | 00:00:00 | |
| NBG1-10 | 2026-09-05 12:16:39 | 45.23070 | 9.31175 | 137° | 11km/h | 21367m | 4.4m/s | -54.7°C | 4.6% | 0hPa | 2.6V | 00:00:00 | 01:42:58 | 08:30:00 | |
| DO3MHA-11 | 2026-09-05 12:16:38 | 45.23070 | 9.31175 | 137° | 11km/h | 21367m | 4.4m/s | -54.7°C | 4.6% | 0hPa | 2.7V | 00:00:00 | 01:42:58 | 00:00:00 | |
| DO3MHA-11 | 2026-09-05 12:16:28 | 45.23079 | 9.31140 | 60° | 13km/h | 21313m | 5.5m/s | -54.7°C | 4.6% | 0hPa | 2.7V | 00:00:00 | 01:42:47 | 00:00:00 | |
| DO3MHA-11 | 2026-09-05 12:16:17 | 45.23075 | 9.31100 | 130° | 9km/h | 21265m | 4.7m/s | -54.2°C | 4.5% | 0hPa | 2.7V | 00:00:00 | 01:42:37 | 00:00:00 | |
| IW2NTF | 2026-09-05 12:16:16 | 45.23077 | 9.31095 | 103° | 5km/h | 21255m | 5.8m/s | -54.2°C | 4.5% | 0hPa | 2.7V | 08:30:00 | 01:42:35 | 00:00:00 | |
| IW2NTF | 2026-09-05 12:16:09 | 45.23079 | 9.31057 | 91° | 9km/h | 21197m | 5.6m/s | -54.3°C | 4.4% | 0hPa | 2.6V | 08:30:00 | 01:42:23 | 00:00:00 | |
| DO3MHA-11 | 2026-09-05 12:16:07 | 45.23078 | 9.31072 | 88° | 7km/h | 21217m | 4.0m/s | -54.2°C | 4.4% | 0hPa | 2.7V | 00:00:00 | 01:42:27 | 00:00:00 | |
| DO3MHA-11 | 2026-09-05 12:15:57 | 45.23081 | 9.31051 | 180° | 9km/h | 21167m | 6.0m/s | -54.6°C | 4.5% | 0hPa | 2.7V | 00:00:00 | 01:42:17 | 00:00:00 | |
| IW2NTF | 2026-09-05 12:15:56 | 45.23085 | 9.31048 | 138° | 11km/h | 21147m | 5.2m/s | -55°C | 4.6% | 0hPa | 2.7V | 08:30:00 | 01:42:13 | 00:00:00 | |
| DO3MHA-11 | 2026-09-05 12:15:47 | 45.23101 | 9.31031 | 164° | 16km/h | 21118m | 5.6m/s | -55.0°C | 4.6% | 0hPa | 2.7V | 00:00:00 | 01:42:07 | 00:00:00 | |
| IW2NTF | 2026-09-05 12:15:46 | 45.23120 | 9.31027 | 182° | 18km/h | 21098m | 5.5m/s | -55.1°C | 4.6% | 0hPa | 2.6V | 08:30:00 | 01:42:03 | 00:00:00 | |
| DB0UT-7 | 2026-09-05 12:15:41 | 45.23129 | 9.31028 | 185° | 22km/h | 21089m | 4.0m/s | -55.0°C | 4.6% | 0hPa | 2.6V | 00:00:00 | 00:00:00 | 00:00:00 | |
| NBG1-10 | 2026-09-05 12:15:40 | 45.23136 | 9.31027 | 162° | 16km/h | 21080m | 5.3m/s | -55.1°C | 4.6% | 0hPa | 2.6V | 00:00:00 | 01:41:59 | 00:00:00 | |
| IW2NTF | 2026-09-05 12:15:37 | 45.23163 | 9.31013 | 164° | 22km/h | 21049m | 6m/s | -55.2°C | 4.6% | 0hPa | 2.6V | 08:30:00 | 01:41:53 | 00:00:00 | |
| DO3MHA-11 | 2026-09-05 12:15:35 | 45.23153 | 9.31016 | 161° | 20km/h | 21060m | 5.0m/s | -55.2°C | 4.6% | 0hPa | 2.6V | 00:00:00 | 01:41:55 | 00:00:00 | |
| IW2NTF | 2026-09-05 12:15:26 | 45.23203 | 9.30984 | 140° | 15km/h | 21000m | 5.7m/s | -55.3°C | 4.7% | 0hPa | 2.6V | 08:30:00 | 01:41:43 | 00:00:00 | |
| DO3MHA-11 | 2026-09-05 12:15:25 | 45.23196 | 9.30992 | 143° | 15km/h | 21009m | 4.1m/s | -55.2°C | 4.7% | 0hPa | 2.7V | 00:00:00 | 01:41:45 | 00:00:00 | |
| IW2NTF | 2026-09-05 12:15:17 | 45.23233 | 9.30964 | 152° | 11km/h | 20952m | 5.3m/s | -55.5°C | 4.7% | 0hPa | 2.7V | 08:30:00 | 01:41:33 | 00:00:00 | |
| DO3MHA-11 | 2026-09-05 12:15:15 | 45.23228 | 9.30967 | 170° | 15km/h | 20961m | 4.5m/s | -55.4°C | 4.6% | 0hPa | 2.6V | 00:00:00 | 01:41:35 | 08:30:00 | |
| IW2NTF | 2026-09-05 12:15:06 | 45.23248 | 9.30898 | 104° | 11km/h | 20895m | 4.8m/s | -55.7°C | 4.8% | 0hPa | 2.7V | 08:30:00 | 01:41:21 | 00:00:00 | |
| NBG1-10 | 2026-09-05 12:15:06 | 45.23240 | 9.30927 | 99° | 24km/h | 20918m | 5.2m/s | -55.6°C | 4.7% | 0hPa | 2.6V | 00:00:00 | 01:41:26 | 00:00:00 | |
| DO3MHA-11 | 2026-09-05 12:15:05 | 45.23241 | 9.30919 | 110° | 18km/h | 20914m | 3.9m/s | -55.6°C | 4.7% | 0hPa | 2.6V | 00:00:00 | 01:41:25 | 00:00:00 | |
| DO3MHA-11 | 2026-09-05 12:14:55 | 45.23250 | 9.30858 | 85° | 29km/h | 20866m | 5.2m/s | -55.7°C | 4.7% | 0hPa | 2.6V | 00:00:00 | 01:41:15 | 00:00:00 | |
| IW2NTF | 2026-09-05 12:14:53 | 45.23248 | 9.30815 | 91° | 35km/h | 20846m | 4.5m/s | -56°C | 4.8% | 0hPa | 2.6V | 08:30:00 | 01:41:11 | 00:00:00 | |
| DB0UT-7 | 2026-09-05 12:14:48 | 45.23247 | 9.30781 | 83° | 26km/h | 20831m | 4.8m/s | -56.1°C | 4.9% | 0hPa | 2.6V | 00:00:00 | 01:41:08 | 00:00:00 | |
| IW2NTF | 2026-09-05 12:14:46 | 45.23244 | 9.30722 | 80° | 26km/h | 20796m | 5.3m/s | -56.2°C | 4.9% | 0hPa | 2.6V | 08:30:00 | 01:41:01 | 00:00:00 | |
| DO3MHA-11 | 2026-09-05 12:14:45 | 45.23246 | 9.30755 | 93° | 26km/h | 20816m | 3.9m/s | -56.2°C | 4.9% | 0hPa | 2.6V | 00:00:00 | 01:41:05 | 00:00:00 | |
| IW2NTF | 2026-09-05 12:14:37 | 45.23231 | 9.30626 | 70° | 24km/h | 20747m | 4.7m/s | -56°C | 5% | 0hPa | 2.7V | 08:30:00 | 01:40:51 | 00:00:00 | |
| DO3MHA-11 | 2026-09-05 12:14:35 | 45.23238 | 9.30663 | 72° | 26km/h | 20766m | 4.7m/s | -56.1°C | 5.0% | 0hPa | 2.6V | 00:00:00 | 01:40:55 | 00:00:00 | |
| NBG1-10 | 2026-09-05 12:14:33 | 45.23234 | 9.30644 | 77° | 24km/h | 20756m | 5.0m/s | -56.1°C | 5.0% | 0hPa | 2.6V | 00:00:00 | 01:40:53 | 00:00:00 | |
| IW2NTF | 2026-09-05 12:14:26 | 45.23204 | 9.30546 | 60° | 27km/h | 20698m | 5.5m/s | -55.9°C | 4.9% | 0hPa | 2.7V | 08:30:00 | 01:40:41 | 00:00:00 | |
| DO3MHA-11 | 2026-09-05 12:14:25 | 45.23216 | 9.30578 | 72° | 26km/h | 20718m | 4.5m/s | -55.9°C | 4.9% | 0hPa | 2.6V | 00:00:00 | 01:40:45 | 00:00:00 | |
| DB0UT-7 | 2026-09-05 12:14:18 | 45.23194 | 9.30521 | 55° | 22km/h | 20684m | 5.6m/s | -55.8°C | 4.9% | 0hPa | 2.6V | 00:00:00 | 00:00:00 | 08:30:00 | |
| DO3MHA-11 | 2026-09-05 12:14:15 | 45.23182 | 9.30500 | 56° | 18km/h | 20669m | 5.7m/s | -55.7°C | 4.8% | 0hPa | 2.7V | 00:00:00 | 01:40:35 | 00:00:00 | |
| IW2NTF | 2026-09-05 12:14:05 | 45.23122 | 9.30420 | 31° | 20km/h | 20592m | 5.7m/s | -55.7°C | 4.7% | 0hPa | 2.6V | 08:30:00 | 01:40:19 | 00:00:00 | |
| NBG1-10 | 2026-09-05 12:14:00 | 45.23126 | 9.30425 | 38° | 18km/h | 20597m | 4.2m/s | -55.6°C | 4.7% | 0hPa | 2.6V | 00:00:00 | 01:40:20 | 00:00:00 | |
| IW2NTF | 2026-09-05 12:13:55 | 45.23077 | 9.30383 | 32° | 18km/h | 20544m | 4.9m/s | -56°C | 4.9% | 0hPa | 2.6V | 08:30:00 | 01:40:09 | 00:00:00 | |
| DB0UT-7 | 2026-09-05 12:13:48 | 45.23073 | 9.30380 | 28° | 15km/h | 20539m | 5.4m/s | -55.9°C | 4.9% | 0hPa | 2.7V | 00:00:00 | 01:40:08 | 00:00:00 | |
| IW2NTF | 2026-09-05 12:13:45 | 45.23037 | 9.30355 | 22° | 20km/h | 20494m | 5.8m/s | -55.9°C | 4.9% | 0hPa | 2.7V | 08:30:00 | 01:39:59 | 00:00:00 | |
| DO3MHA-11 | 2026-09-05 12:13:45 | 45.23061 | 9.30373 | 28° | 18km/h | 20525m | 5.2m/s | -56.0°C | 5.0% | 0hPa | 2.7V | 00:00:00 | 01:40:05 | 08:30:00 | |
| IW2NTF | 2026-09-05 12:13:35 | 45.23009 | 9.30323 | 72° | 13km/h | 20445m | 6.2m/s | -55.7°C | 5% | 0hPa | 2.6V | 08:30:00 | 01:39:49 | 00:00:00 | |
| NBG1-10 | 2026-09-05 12:13:27 | 45.23006 | 9.30317 | 47° | 9km/h | 20434m | 5.1m/s | -55.5°C | 4.8% | 0hPa | 2.7V | 00:00:00 | 01:39:47 | 00:00:00 | |
| DO3MHA-11 | 2026-09-05 12:13:25 | 45.23005 | 9.30314 | 85° | 7km/h | 20423m | 5.5m/s | -55.4°C | 4.8% | 0hPa | 2.7V | 00:00:00 | 01:39:45 | 00:00:00 | |
| IW2NTF | 2026-09-05 12:13:22 | 45.23006 | 9.30291 | 111° | 9km/h | 20376m | 6m/s | -55°C | 4.6% | 0hPa | 2.7V | 08:30:00 | 01:39:36 | 00:00:00 | |
| DB0UT-7 | 2026-09-05 12:13:18 | 45.23003 | 9.30297 | 121° | 11km/h | 20386m | 4.3m/s | -55.0°C | 4.6% | 0hPa | 2.7V | 00:00:00 | 00:00:00 | 00:00:00 | |
| DO3MHA-11 | 2026-09-05 12:13:14 | 45.23006 | 9.30285 | 96° | 11km/h | 20367m | 4.3m/s | -55.0°C | 4.7% | 0hPa | 2.7V | 00:00:00 | 01:39:34 | 00:00:00 | |
| IW2NTF | 2026-09-05 12:13:07 | 45.23014 | 9.30237 | 130° | 11km/h | 20304m | 5m/s | -55.2°C | 4.4% | 0hPa | 2.6V | 08:30:00 | 01:39:21 | 00:00:00 | |
| DO3MHA-11 | 2026-09-05 12:13:04 | 45.23009 | 9.30249 | 111° | 13km/h | 20319m | 5.0m/s | -55.0°C | 4.4% | 0hPa | 2.7V | 00:00:00 | 01:39:24 | 00:00:00 | |
| IW2NTF | 2026-09-05 12:12:56 | 45.23038 | 9.30212 | 132° | 15km/h | 20250m | 4.3m/s | -55.9°C | 4.9% | 0hPa | 2.7V | 08:30:00 | 01:39:10 | 00:00:00 | |
| DO3MHA-11 | 2026-09-05 12:12:54 | 45.23032 | 9.30228 | 120° | 13km/h | 20270m | 4.8m/s | -55.8°C | 4.8% | 0hPa | 2.6V | 00:00:00 | 01:39:14 | 00:00:00 | |
| DB0UT-7 | 2026-09-05 12:12:48 | 45.23043 | 9.30205 | 133° | 15km/h | 20241m | 5.0m/s | -55.9°C | 4.8% | 0hPa | 2.6V | 00:00:00 | 01:39:08 | 00:00:00 | |
| IW2NTF | 2026-09-05 12:12:46 | 45.23070 | 9.30186 | 167° | 11km/h | 20201m | 4.1m/s | -55.8°C | 4.6% | 0hPa | 2.7V | 08:30:00 | 01:39:00 | 00:00:00 | |
| DO3MHA-11 | 2026-09-05 12:12:44 | 45.23056 | 9.30192 | 159° | 13km/h | 20221m | 5.0m/s | -55.9°C | 4.7% | 0hPa | 2.7V | 00:00:00 | 01:39:04 | 00:00:00 | |
| IW2NTF | 2026-09-05 12:12:35 | 45.23099 | 9.30158 | 148° | 22km/h | 20152m | 3.3m/s | -56.3°C | 4.8% | 0hPa | 2.6V | 08:30:00 | 01:38:50 | 00:00:00 | |
| DO3MHA-11 | 2026-09-05 12:12:34 | 45.23085 | 9.30175 | 124° | 16km/h | 20171m | 4.2m/s | -55.8°C | 4.7% | 0hPa | 2.7V | 00:00:00 | 01:38:54 | 00:00:00 | |
| IW2NTF | 2026-09-05 12:12:26 | 45.23120 | 9.30127 | 122° | 13km/h | 20106m | 4.1m/s | -56.9°C | 5% | 0hPa | 2.7V | 08:30:00 | 01:38:40 | 00:00:00 | |
| DO3MHA-11 | 2026-09-05 12:12:24 | 45.23115 | 9.30137 | 135° | 16km/h | 20124m | 4.9m/s | -56.7°C | 4.8% | 0hPa | 2.6V | 00:00:00 | 01:38:44 | 00:00:00 | |
| NBG1-10 | 2026-09-05 12:12:21 | 45.23118 | 9.30130 | 112° | 22km/h | 20110m | 3.7m/s | -56.9°C | 4.9% | 0hPa | 2.6V | 00:00:00 | 01:38:41 | 00:00:00 | |
| DB0UT-7 | 2026-09-05 12:12:18 | 45.23125 | 9.30119 | 147° | 18km/h | 20096m | 4.9m/s | -56.8°C | 5.0% | 0hPa | 2.6V | 00:00:00 | 00:00:00 | 00:00:00 | |
| IW2NTF | 2026-09-05 12:12:15 | 45.23166 | 9.30087 | 157° | 15km/h | 20057m | 5m/s | -57°C | 5% | 0hPa | 2.6V | 08:30:00 | 01:38:30 | 00:00:00 | |
| DO3MHA-11 | 2026-09-05 12:12:14 | 45.23146 | 9.30100 | 147° | 20km/h | 20076m | 3.5m/s | -56.8°C | 5.0% | 0hPa | 2.7V | 00:00:00 | 01:38:34 | 08:30:00 | |
| IW2NTF | 2026-09-05 12:12:06 | 45.23206 | 9.30024 | 142° | 29km/h | 20008m | 5m/s | -57°C | 5.1% | 0hPa | 2.6V | 08:30:00 | 01:38:20 | 00:00:00 | |
| DO3MHA-11 | 2026-09-05 12:12:04 | 45.23184 | 9.30056 | 131° | 27km/h | 20028m | 4.4m/s | -56.9°C | 4.9% | 0hPa | 2.7V | 00:00:00 | 01:38:24 | 00:00:00 | |
| IW2NTF | 2026-09-05 12:11:56 | 45.23237 | 9.29959 | 111° | 31km/h | 19962m | 3.8m/s | -56.9°C | 5% | 0hPa | 2.7V | 08:30:00 | 01:38:10 | 00:00:00 | |
| DO3MHA-11 | 2026-09-05 12:11:54 | 45.23228 | 9.29992 | 114° | 26km/h | 19980m | 4.6m/s | -56.9°C | 5.0% | 0hPa | 2.6V | 00:00:00 | 01:38:14 | 00:00:00 | |
| IW2NTF | 2026-09-05 12:11:47 | 45.23269 | 9.29896 | 111° | 22km/h | 19916m | 4.3m/s | -56.9°C | 5% | 0hPa | 2.6V | 08:30:00 | 01:38:00 | 00:00:00 | |
| DO3MHA-11 | 2026-09-05 12:11:44 | 45.23259 | 9.29917 | 129° | 22km/h | 19935m | 4.8m/s | -56.9°C | 5.0% | 0hPa | 2.7V | 00:00:00 | 01:38:04 | 00:00:00 | |
| NBG1-10 | 2026-09-05 12:11:37 | 45.23272 | 9.29869 | 97° | 18km/h | 19903m | 3.2m/s | -56.9°C | 5.0% | 0hPa | 2.6V | 00:00:00 | 01:37:57 | 00:00:00 | |
| DO3MHA-11 | 2026-09-05 12:11:33 | 45.23280 | 9.29838 | 125° | 18km/h | 19885m | 4.0m/s | -56.9°C | 5.0% | 0hPa | 2.6V | 00:00:00 | 01:37:53 | 00:00:00 | |
| IW2NTF | 2026-09-05 12:11:32 | 45.23284 | 9.29825 | 101° | 13km/h | 19871m | 4.6m/s | -57.1°C | 5.2% | 0hPa | 2.6V | 08:30:00 | 01:37:50 | 00:00:00 | |
| DO3MHA-11 | 2026-09-05 12:11:23 | 45.23281 | 9.29775 | 69° | 16km/h | 19838m | 4.3m/s | -57.0°C | 5.1% | 0hPa | 2.7V | 00:00:00 | 01:37:43 | 00:00:00 | |
| IW2NTF | 2026-09-05 12:11:22 | 45.23276 | 9.29754 | 69° | 18km/h | 19824m | 4.4m/s | -56.9°C | 5.1% | 0hPa | 2.7V | 08:30:00 | 01:37:40 | 00:00:00 | |
| IW2NTF | 2026-09-05 12:11:13 | 45.23269 | 9.29693 | 85° | 15km/h | 19771m | 4.3m/s | -56.6°C | 5.1% | 0hPa | 2.7V | 08:30:00 | 01:37:29 | 00:00:00 | |
| DB0UT-7 | 2026-09-05 12:11:03 | 45.23264 | 9.29665 | 91° | 11km/h | 19742m | 4.4m/s | -56.4°C | 4.9% | 0hPa | 2.6V | 00:00:00 | 01:37:23 | 00:00:00 | |
| IW2NTF | 2026-09-05 12:11:00 | 45.23263 | 9.29645 | 88° | 16km/h | 19723m | 4.8m/s | -56.6°C | 4.9% | 0hPa | 2.6V | 08:30:00 | 01:37:19 | 00:00:00 | |
| IW2NTF | 2026-09-05 12:10:55 | 45.23266 | 9.29605 | 115° | 7km/h | 19675m | 5.2m/s | -56.5°C | 4.8% | 0hPa | 2.6V | 08:30:00 | 01:37:09 | 00:00:00 | |
| DO3MHA-11 | 2026-09-05 12:10:53 | 45.23263 | 9.29615 | 83° | 9km/h | 19695m | 4.2m/s | -56.4°C | 4.8% | 0hPa | 2.7V | 00:00:00 | 01:37:13 | 00:00:00 | |
| DO3MHA-11 | 2026-09-05 12:10:43 | 45.23270 | 9.29586 | 118° | 9km/h | 19645m | 5.7m/s | -56.5°C | 4.9% | 0hPa | 2.7V | 00:00:00 | 01:37:03 | 08:30:00 | |
| IW2NTF | 2026-09-05 12:10:40 | 45.23275 | 9.29572 | 123° | 9km/h | 19625m | 4.5m/s | -56.8°C | 4.9% | 0hPa | 2.6V | 08:30:00 | 01:36:59 | 00:00:00 | |
| IW2NTF | 2026-09-05 12:10:35 | 45.23271 | 9.29555 | 106° | 9km/h | 19573m | 4.3m/s | -57.5°C | 5.2% | 0hPa | 2.6V | 08:30:00 | 01:36:48 | 00:00:00 | |
| DO3MHA-11 | 2026-09-05 12:10:33 | 45.23271 | 9.29560 | 15° | 9km/h | 19597m | 4.8m/s | -57.2°C | 4.9% | 0hPa | 2.6V | 00:00:00 | 01:36:53 | 00:00:00 | |
| NBG1-10 | 2026-09-05 12:10:30 | 45.23270 | 9.29559 | 88° | 18km/h | 19583m | 5.2m/s | -57.4°C | 5.1% | 0hPa | 2.6V | 00:00:00 | 01:36:50 | 00:00:00 | |
| DO3MHA-11 | 2026-09-05 12:10:23 | 45.23281 | 9.29533 | 117° | 18km/h | 19548m | 5.5m/s | -57.4°C | 5.2% | 0hPa | 2.6V | 00:00:00 | 01:36:43 | 00:00:00 | |
| IW2NTF | 2026-09-05 12:10:17 | 45.23310 | 9.29466 | 121° | 24km/h | 19484m | 4.8m/s | -57.2°C | 5.1% | 0hPa | 2.6V | 08:30:00 | 01:36:30 | 00:00:00 | |
| DO3MHA-11 | 2026-09-05 12:10:13 | 45.23301 | 9.29481 | 142° | 24km/h | 19499m | 4.0m/s | -57.2°C | 5.1% | 0hPa | 2.7V | 00:00:00 | 01:36:33 | 00:00:00 | |
| IW2NTF | 2026-09-05 12:10:05 | 45.23354 | 9.29393 | 143° | 22km/h | 19430m | 5m/s | -57.2°C | 5.1% | 0hPa | 2.6V | 08:30:00 | 01:36:19 | 00:00:00 | |
| DO3MHA-11 | 2026-09-05 12:10:03 | 45.23335 | 9.29412 | 133° | 22km/h | 19450m | 5.4m/s | -57.1°C | 5.0% | 0hPa | 2.6V | 00:00:00 | 01:36:23 | 00:00:00 | |
| NBG1-10 | 2026-09-05 12:09:57 | 45.23362 | 9.29384 | 140° | 29km/h | 19422m | 4.0m/s | -57.2°C | 5.1% | 0hPa | 2.6V | 00:00:00 | 01:36:17 | 00:00:00 | |
| DO3MHA-11 | 2026-09-05 12:09:53 | 45.23378 | 9.29363 | 130° | 27km/h | 19402m | 5.6m/s | -57.2°C | 5.1% | 0hPa | 2.6V | 00:00:00 | 01:36:13 | 00:00:00 | |
| IW2NTF | 2026-09-05 12:09:51 | 45.23416 | 9.29320 | 148° | 27km/h | 19368m | 4.7m/s | -57.5°C | 5.1% | 0hPa | 2.6V | 08:30:00 | 01:36:06 | 00:00:00 | |
| DO3MHA-11 | 2026-09-05 12:09:43 | 45.23433 | 9.29306 | 156° | 33km/h | 19355m | 5.5m/s | -57.5°C | 5.1% | 0hPa | 2.7V | 00:00:00 | 01:36:03 | 00:00:00 | |
| NBG1-10 | 2026-09-05 12:09:24 | 45.23528 | 9.29143 | 117° | 31km/h | 19264m | 4.5m/s | -58.0°C | 5.2% | 0hPa | 2.7V | 00:00:00 | 01:35:44 | 00:00:00 | |
| DO3MHA-11 | 2026-09-05 12:09:23 | 45.23532 | 9.29133 | 115° | 33km/h | 19260m | 4.7m/s | -58.2°C | 5.3% | 0hPa | 2.6V | 00:00:00 | 01:35:43 | 00:00:00 | |
| DB0UT-7 | 2026-09-05 12:09:20 | 45.23541 | 9.29101 | 114° | 31km/h | 19246m | 4.7m/s | -58.4°C | 5.4% | 0hPa | 2.6V | 00:00:00 | 01:35:40 | 00:00:00 | |
| IW2NTF | 2026-09-05 12:09:19 | 45.23563 | 9.29033 | 113° | 33km/h | 19216m | 5m/s | -58.5°C | 5.3% | 0hPa | 2.6V | 08:30:00 | 01:35:34 | 00:00:00 | |
| DO3MHA-11 | 2026-09-05 12:09:13 | 45.23566 | 9.29022 | 113° | 31km/h | 19211m | 5.3m/s | -58.4°C | 5.3% | 0hPa | 2.6V | 00:00:00 | 01:35:33 | 08:30:00 | |
| IW2NTF | 2026-09-05 12:09:06 | 45.23581 | 9.28923 | 95° | 31km/h | 19166m | 5.1m/s | -59°C | 5.5% | 0hPa | 2.6V | 08:30:00 | 01:35:24 | 00:00:00 | |
| DO3MHA-11 | 2026-09-05 12:09:03 | 45.23582 | 9.28912 | 95° | 27km/h | 19162m | 4.2m/s | -58.9°C | 5.5% | 0hPa | 2.7V | 00:00:00 | 01:35:23 | 00:00:00 | |
| IW2NTF | 2026-09-05 12:08:54 | 45.23587 | 9.28821 | 95° | 26km/h | 19119m | 3.9m/s | -59.2°C | 5.6% | 0hPa | 2.7V | 08:30:00 | 01:35:14 | 00:00:00 | |
| DO3MHA-11 | 2026-09-05 12:08:53 | 45.23588 | 9.28813 | 96° | 20km/h | 19114m | 5.3m/s | -59.2°C | 5.6% | 0hPa | 2.7V | 00:00:00 | 01:35:13 | 00:00:00 | |
| NBG1-10 | 2026-09-05 12:08:51 | 45.23589 | 9.28797 | 96° | 18km/h | 19105m | 4.6m/s | -59.2°C | 5.6% | 0hPa | 2.7V | 00:00:00 | 01:35:11 | 00:00:00 | |
| DB0UT-7 | 2026-09-05 12:08:50 | 45.23589 | 9.28790 | 95° | 29km/h | 19099m | 5.3m/s | -59.2°C | 5.6% | 0hPa | 2.7V | 00:00:00 | 00:00:00 | 00:00:00 | |
| IW2NTF | 2026-09-05 12:08:48 | 45.23590 | 9.28740 | 93° | 18km/h | 19066m | 4.8m/s | -59.2°C | 5.5% | 0hPa | 2.7V | 08:30:00 | 01:35:03 | 00:00:00 | |
| DO3MHA-11 | 2026-09-05 12:08:43 | 45.23590 | 9.28740 | 94° | 16km/h | 19066m | 4.8m/s | -59.1°C | 5.5% | 0hPa | 2.7V | 00:00:00 | 01:35:03 | 00:00:00 | |
| IW2NTF | 2026-09-05 12:08:36 | 45.23601 | 9.28675 | 112° | 16km/h | 19009m | 5.1m/s | -59.5°C | 5.7% | 0hPa | 2.6V | 08:30:00 | 01:34:51 | 00:00:00 | |
| DO3MHA-11 | 2026-09-05 12:08:33 | 45.23598 | 9.28686 | 107° | 16km/h | 19019m | 5.2m/s | -59.5°C | 5.7% | 0hPa | 2.6V | 00:00:00 | 01:34:53 | 00:00:00 | |
| IW2NTF | 2026-09-05 12:08:24 | 45.23622 | 9.28611 | 111° | 18km/h | 18957m | 4.8m/s | -59.4°C | 5.8% | 0hPa | 2.6V | 08:30:00 | 01:34:40 | 00:00:00 | |
| DO3MHA-11 | 2026-09-05 12:08:23 | 45.23616 | 9.28630 | 116° | 16km/h | 18972m | 4.2m/s | -59.2°C | 5.8% | 0hPa | 2.7V | 00:00:00 | 01:34:43 | 00:00:00 | |
| NBG1-10 | 2026-09-05 12:08:18 | 45.23625 | 9.28600 | 106° | 24km/h | 18948m | 3.8m/s | -59.4°C | 5.6% | 0hPa | 2.7V | 00:00:00 | 01:34:38 | 00:00:00 | |
| IW2NTF | 2026-09-05 12:08:13 | 45.23643 | 9.28550 | 119° | 24km/h | 18906m | 5.3m/s | -59.2°C | 5.6% | 0hPa | 2.7V | 08:30:00 | 01:34:29 | 00:00:00 | |
| DO3MHA-11 | 2026-09-05 12:08:13 | 45.23632 | 9.28573 | 122° | 22km/h | 18926m | 4.6m/s | -59.2°C | 5.5% | 0hPa | 2.6V | 00:00:00 | 01:34:33 | 00:00:00 | |
| DO3MHA-11 | 2026-09-05 12:08:03 | 45.23662 | 9.28508 | 130° | 24km/h | 18879m | 4.9m/s | -59.0°C | 5.6% | 0hPa | 2.7V | 00:00:00 | 01:34:23 | 00:00:00 | |
| IW2NTF | 2026-09-05 12:07:59 | 45.23683 | 9.28476 | 136° | 22km/h | 18855m | 5.2m/s | -59.5°C | 5.5% | 0hPa | 2.7V | 08:30:00 | 01:34:18 | 00:00:00 | |
| DO3MHA-11 | 2026-09-05 12:07:53 | 45.23706 | 9.28448 | 136° | 35km/h | 18832m | 3.7m/s | -59.4°C | 5.7% | 0hPa | 2.6V | 00:00:00 | 01:34:13 | 00:00:00 | |
| NBG1-10 | 2026-09-05 12:07:45 | 45.23755 | 9.28377 | 143° | 37km/h | 18794m | 5.2m/s | -59.5°C | 5.5% | 0hPa | 2.6V | 00:00:00 | 01:34:05 | 00:00:00 | |
| DO3MHA-11 | 2026-09-05 12:07:43 | 45.23769 | 9.28363 | 143° | 40km/h | 18785m | 4.8m/s | -59.6°C | 5.7% | 0hPa | 2.6V | 00:00:00 | 01:34:03 | 08:30:00 | |
| IW2NTF | 2026-09-05 12:07:39 | 45.23818 | 9.28288 | 127° | 46km/h | 18753m | 5.2m/s | -60°C | 5.9% | 0hPa | 2.6V | 08:30:00 | 01:33:56 | 00:00:00 | |
| DB0UT-7 | 2026-09-05 12:07:39 | 45.23795 | 9.28326 | 133° | 35km/h | 18767m | 5.2m/s | -59.9°C | 5.8% | 0hPa | 2.6V | 00:00:00 | 01:33:59 | 08:30:00 | |
| DO3MHA-11 | 2026-09-05 12:07:35 | 45.23838 | 9.28251 | 130° | 38km/h | 18739m | 5.4m/s | -60.0°C | 5.9% | 0hPa | 2.6V | 00:00:00 | 01:33:53 | 00:00:00 | |
| DO3MHA-11 | 2026-09-05 12:07:22 | 45.23899 | 9.28128 | 125° | 33km/h | 18689m | 4.0m/s | -59.7°C | 5.9% | 0hPa | 2.6V | 00:00:00 | 01:33:42 | 00:00:00 | |
| DO3MHA-11 | 2026-09-05 12:07:12 | 45.23952 | 9.28042 | 118° | 31km/h | 18641m | 4.4m/s | -59.4°C | 5.8% | 0hPa | 2.6V | 00:00:00 | 01:33:32 | 00:00:00 | |
| DB0UT-7 | 2026-09-05 12:07:08 | 45.23968 | 9.28003 | 128° | 16km/h | 18624m | 3.6m/s | -59.2°C | 5.7% | 0hPa | 2.7V | 00:00:00 | 00:00:00 | 00:00:00 | |
| IW2NTF | 2026-09-05 12:07:03 | 45.24013 | 9.27923 | 113° | 27km/h | 18578m | 5.3m/s | -58.9°C | 5.7% | 0hPa | 2.7V | 08:30:00 | 01:33:18 | 00:00:00 | |
| DO3MHA-11 | 2026-09-05 12:07:02 | 45.23999 | 9.27954 | 138° | 27km/h | 18596m | 3.4m/s | -59.0°C | 5.7% | 0hPa | 2.6V | 00:00:00 | 01:33:22 | 00:00:00 | |
| DO3MHA-11 | 2026-09-05 12:06:52 | 45.24031 | 9.27869 | 119° | 22km/h | 18550m | 3.5m/s | -58.7°C | 5.5% | 0hPa | 2.6V | 00:00:00 | 01:33:12 | 00:00:00 | |
| DO3MHA-11 | 2026-09-05 12:06:42 | 45.24067 | 9.27810 | 118° | 22km/h | 18504m | 4.1m/s | -58.5°C | 5.5% | 0hPa | 2.6V | 00:00:00 | 01:33:02 | 00:00:00 | |
| NBG1-10 | 2026-09-05 12:06:39 | 45.24074 | 9.27792 | 121° | 35km/h | 18490m | 4.3m/s | -58.7°C | 5.5% | 0hPa | 2.6V | 00:00:00 | 01:32:59 | 00:00:00 | |
| DO3MHA-11 | 2026-09-05 12:06:32 | 45.24094 | 9.27744 | 119° | 20km/h | 18459m | 4.9m/s | -58.7°C | 5.6% | 0hPa | 2.6V | 00:00:00 | 01:32:52 | 00:00:00 | |
| IW2NTF | 2026-09-05 12:06:24 | 45.24101 | 9.27646 | 96° | 15km/h | 18399m | 4.9m/s | -58.6°C | 5.4% | 0hPa | 2.6V | 08:30:00 | 01:32:38 | 00:00:00 | |
| DO3MHA-11 | 2026-09-05 12:06:22 | 45.24099 | 9.27675 | 87° | 15km/h | 18417m | 4.2m/s | -58.6°C | 5.4% | 0hPa | 2.6V | 00:00:00 | 01:32:42 | 00:00:00 | |
| IW2NTF | 2026-09-05 12:06:12 | 45.24091 | 9.27582 | 85° | 18km/h | 18343m | 5.2m/s | -58.8°C | 5.6% | 0hPa | 2.6V | 08:30:00 | 01:32:26 | 00:00:00 | |
| DO3MHA-11 | 2026-09-05 12:06:02 | 45.24086 | 9.27563 | 63° | 11km/h | 18324m | 5.4m/s | -58.8°C | 5.7% | 0hPa | 2.7V | 00:00:00 | 01:32:22 | 00:00:00 | |
| IW2NTF | 2026-09-05 12:06:00 | 45.24074 | 9.27548 | 22° | 11km/h | 18293m | 4.9m/s | -58.9°C | 5.6% | 0hPa | 2.7V | 08:30:00 | 01:32:16 | 00:00:00 | |
| DO3MHA-11 | 2026-09-05 12:05:52 | 45.24064 | 9.27537 | 58° | 9km/h | 18276m | 4.3m/s | -58.6°C | 5.6% | 0hPa | 2.6V | 00:00:00 | 01:32:12 | 00:00:00 | |
| IW2NTF | 2026-09-05 12:05:48 | 45.24056 | 9.27521 | 40° | 9km/h | 18246m | 4.3m/s | -58.5°C | 5.4% | 0hPa | 2.6V | 08:30:00 | 01:32:06 | 00:00:00 | |
| DB0UT-7 | 2026-09-05 12:05:47 | 45.24058 | 9.27523 | 47° | 7km/h | 18251m | 5.0m/s | -58.5°C | 5.5% | 0hPa | 2.6V | 00:00:00 | 01:32:07 | 00:00:00 | |
| IW2NTF | 2026-09-05 12:05:42 | 45.24047 | 9.27501 | 22° | 4km/h | 18198m | 4.1m/s | -58.6°C | 5.5% | 0hPa | 2.6V | 08:30:00 | 01:31:56 | 00:00:00 | |
| DO3MHA-11 | 2026-09-05 12:05:32 | 45.24045 | 9.27500 | 19° | 9km/h | 18178m | 5.7m/s | -59.0°C | 5.5% | 0hPa | 2.7V | 00:00:00 | 01:31:52 | 00:00:00 | |
| IW2NTF | 2026-09-05 12:05:28 | 45.24045 | 9.27490 | 119° | 9km/h | 18148m | 6.1m/s | -59.2°C | 5.6% | 0hPa | 2.7V | 08:30:00 | 01:31:46 | 00:00:00 | |
| IW2NTF | 2026-09-05 12:05:20 | 45.24057 | 9.27451 | 113° | 15km/h | 18101m | 5.5m/s | -59.2°C | 5.8% | 0hPa | 2.6V | 08:30:00 | 01:31:36 | 00:00:00 | |
| DO3MHA-11 | 2026-09-05 12:05:20 | 45.24053 | 9.27468 | 109° | 18km/h | 18120m | 4.0m/s | -59.1°C | 5.7% | 0hPa | 2.6V | 00:00:00 | 01:31:40 | 00:00:00 | |
| DB0UT-7 | 2026-09-05 12:05:17 | 45.24056 | 9.27455 | 108° | 33km/h | 18106m | 3.9m/s | -59.0°C | 5.7% | 0hPa | 2.6V | 00:00:00 | 00:00:00 | 00:00:00 | |
| IW2NTF | 2026-09-05 12:05:08 | 45.24076 | 9.27388 | 115° | 22km/h | 18051m | 4.1m/s | -59.1°C | 5.7% | 0hPa | 2.7V | 08:30:00 | 01:31:26 | 00:00:00 | |
| IW2NTF | 2026-09-05 12:05:00 | 45.24116 | 9.27320 | 116° | 29km/h | 17995m | 4m/s | -58.9°C | 5.8% | 0hPa | 2.7V | 08:30:00 | 01:31:15 | 00:00:00 | |
| DO3MHA-11 | 2026-09-05 12:04:49 | 45.24138 | 9.27264 | 124° | 31km/h | 17964m | 4.2m/s | -58.9°C | 5.7% | 0hPa | 2.7V | 00:00:00 | 01:31:09 | 00:00:00 | |
| IW2NTF | 2026-09-05 12:04:48 | 45.24155 | 9.27236 | 129° | 26km/h | 17944m | 5.8m/s | -58.9°C | 5.8% | 0hPa | 2.6V | 08:30:00 | 01:31:05 | 00:00:00 | |
| DO3MHA-11 | 2026-09-05 12:04:39 | 45.24182 | 9.27173 | 117° | 35km/h | 17914m | 5.6m/s | -58.6°C | 5.6% | 0hPa | 2.6V | 00:00:00 | 01:30:59 | 00:00:00 | |
| IW2NTF | 2026-09-05 12:04:37 | 45.24200 | 9.27127 | 123° | 35km/h | 17893m | 4.7m/s | -58.5°C | 5.5% | 0hPa | 2.6V | 08:30:00 | 01:30:55 | 00:00:00 | |
| IW2NTF | 2026-09-05 12:04:31 | 45.24240 | 9.27010 | 112° | 42km/h | 17843m | 4.4m/s | -58.3°C | 5.7% | 0hPa | 2.7V | 08:30:00 | 01:30:45 | 00:00:00 | |
| DO3MHA-11 | 2026-09-05 12:04:29 | 45.24225 | 9.27064 | 116° | 40km/h | 17863m | 4.6m/s | -58.3°C | 5.5% | 0hPa | 2.6V | 00:00:00 | 01:30:49 | 00:00:00 | |
| IW2NTF | 2026-09-05 12:04:20 | 45.24277 | 9.26893 | 111° | 33km/h | 17795m | 5.5m/s | -58.1°C | 5.5% | 0hPa | 2.6V | 08:30:00 | 01:30:35 | 00:00:00 | |
| DO3MHA-11 | 2026-09-05 12:04:19 | 45.24264 | 9.26936 | 112° | 33km/h | 17815m | 4.5m/s | -58.2°C | 5.6% | 0hPa | 2.7V | 00:00:00 | 01:30:39 | 08:30:00 | |
| DO3MHA-11 | 2026-09-05 12:04:09 | 45.24292 | 9.26823 | 104° | 44km/h | 17765m | 6.3m/s | -57.9°C | 5.3% | 0hPa | 2.7V | 00:00:00 | 01:30:29 | 00:00:00 | |
| IW2NTF | 2026-09-05 12:04:08 | 45.24303 | 9.26761 | 108° | 47km/h | 17744m | 4m/s | -57.9°C | 5.2% | 0hPa | 2.7V | 08:30:00 | 01:30:25 | 00:00:00 | |
| NBG1-10 | 2026-09-05 12:04:06 | 45.24299 | 9.26777 | 107° | 44km/h | 17749m | 5.5m/s | -57.8°C | 5.2% | 0hPa | 2.7V | 00:00:00 | 01:30:26 | 08:30:00 | |
| IW2NTF | 2026-09-05 12:04:01 | 45.24331 | 9.26619 | 99° | 38km/h | 17699m | 3.8m/s | -59°C | 5.7% | 0hPa | 2.6V | 08:30:00 | 01:30:15 | 00:00:00 | |
| DO3MHA-11 | 2026-09-05 12:03:58 | 45.24325 | 9.26656 | 107° | 42km/h | 17712m | 3.2m/s | -58.2°C | 5.3% | 0hPa | 2.7V | 00:00:00 | 01:30:18 | 00:00:00 | |
| DO3MHA-11 | 2026-09-05 12:03:48 | 45.24349 | 9.26509 | 102° | 47km/h | 17666m | 4.8m/s | -59.3°C | 5.9% | 0hPa | 2.7V | 00:00:00 | 01:30:08 | 00:00:00 | |
| IW2NTF | 2026-09-05 12:03:46 | 45.24358 | 9.26457 | 102° | 49km/h | 17652m | 4.9m/s | -59.3°C | 6% | 0hPa | 2.6V | 08:30:00 | 01:30:05 | 00:00:00 | |
| DB0UT-7 | 2026-09-05 12:03:43 | 45.24362 | 9.26423 | 99° | 46km/h | 17643m | 4.2m/s | -59.3°C | 6.0% | 0hPa | 2.7V | 00:00:00 | 00:00:00 | 00:00:00 | |
| IW2NTF | 2026-09-05 12:03:41 | 45.24377 | 9.26295 | 99° | 47km/h | 17607m | 3.9m/s | -59.2°C | 6% | 0hPa | 2.7V | 08:30:00 | 01:29:55 | 00:00:00 | |
| DO3MHA-11 | 2026-09-05 12:03:38 | 45.24371 | 9.26344 | 97° | 47km/h | 17620m | 4.1m/s | -59.1°C | 5.9% | 0hPa | 2.6V | 00:00:00 | 01:29:58 | 00:00:00 | |
| NBG1-10 | 2026-09-05 12:03:33 | 45.24379 | 9.26261 | 95° | 46km/h | 17598m | 4.5m/s | -59.0°C | 5.9% | 0hPa | 2.6V | 00:00:00 | 01:29:53 | 00:00:00 | |
| DO3MHA-11 | 2026-09-05 12:03:28 | 45.24383 | 9.26176 | 91° | 47km/h | 17575m | 4.5m/s | -59.0°C | 5.9% | 0hPa | 2.6V | 00:00:00 | 01:29:48 | 00:00:00 | |
| IW2NTF | 2026-09-05 12:03:25 | 45.24385 | 9.26125 | 96° | 47km/h | 17562m | 3.6m/s | -59°C | 5.9% | 0hPa | 2.6V | 08:30:00 | 01:29:45 | 00:00:00 | |
| IW2NTF | 2026-09-05 12:03:20 | 45.24391 | 9.25931 | 88° | 42km/h | 17510m | 4.5m/s | -58.9°C | 5.9% | 0hPa | 2.6V | 08:30:00 | 01:29:33 | 00:00:00 | |
| DO3MHA-11 | 2026-09-05 12:03:18 | 45.24392 | 9.26008 | 92° | 44km/h | 17532m | 5.0m/s | -58.8°C | 5.8% | 0hPa | 2.6V | 00:00:00 | 01:29:38 | 00:00:00 | |
| DB0UT-7 | 2026-09-05 12:03:13 | 45.24391 | 9.25931 | 89° | 44km/h | 17510m | 4.5m/s | -58.8°C | 5.9% | 0hPa | 2.6V | 00:00:00 | 01:29:33 | 00:00:00 | |
| DO3MHA-11 | 2026-09-05 12:03:09 | 45.24390 | 9.25851 | 91° | 47km/h | 17489m | 4.2m/s | -58.7°C | 6.0% | 0hPa | 2.6V | 00:00:00 | 01:29:28 | 00:00:00 | |
| IW2NTF | 2026-09-05 12:03:04 | 45.24387 | 9.25766 | 84° | 44km/h | 17467m | 3.9m/s | -58.8°C | 5.8% | 0hPa | 2.6V | 08:30:00 | 01:29:23 | 00:00:00 | |
| NBG1-10 | 2026-09-05 12:03:00 | 45.24382 | 9.25718 | 81° | 46km/h | 17454m | 3.6m/s | -58.8°C | 5.8% | 0hPa | 2.7V | 00:00:00 | 01:29:20 | 00:00:00 | |
| DO3MHA-11 | 2026-09-05 12:02:58 | 45.24379 | 9.25686 | 85° | 44km/h | 17445m | 4.6m/s | -58.7°C | 5.9% | 0hPa | 2.7V | 00:00:00 | 01:29:18 | 00:00:00 | |
| IW2NTF | 2026-09-05 12:02:54 | 45.24373 | 9.25603 | 85° | 46km/h | 17425m | 4.4m/s | -58.7°C | 5.8% | 0hPa | 2.7V | 08:30:00 | 01:29:13 | 00:00:00 | |
| DO3MHA-11 | 2026-09-05 12:02:48 | 45.24372 | 9.25531 | 84° | 42km/h | 17402m | 3.7m/s | -59.0°C | 5.8% | 0hPa | 2.7V | 00:00:00 | 01:29:08 | 08:30:00 | |
| IW2NTF | 2026-09-05 12:02:44 | 45.24368 | 9.25458 | 86° | 42km/h | 17381m | 5m/s | -59.7°C | 6.2% | 0hPa | 2.6V | 08:30:00 | 01:29:03 | 00:00:00 | |
| DB0UT-7 | 2026-09-05 12:02:43 | 45.24367 | 9.25458 | 87° | 46km/h | 17381m | 5.0m/s | -59.6°C | 6.2% | 0hPa | 2.7V | 00:00:00 | 00:00:00 | 00:00:00 | |
| DO3MHA-11 | 2026-09-05 12:02:38 | 45.24369 | 9.25381 | 102° | 49km/h | 17360m | 3.6m/s | -59.9°C | 6.6% | 0hPa | 2.7V | 00:00:00 | 01:28:58 | 00:00:00 | |
| IW2NTF | 2026-09-05 12:02:34 | 45.24379 | 9.25297 | 100° | 51km/h | 17338m | 5.1m/s | -59.9°C | 6.5% | 0hPa | 2.7V | 08:30:00 | 01:28:53 | 00:00:00 | |
| DO3MHA-11 | 2026-09-05 12:02:28 | 45.24389 | 9.25206 | 99° | 46km/h | 17317m | 4.9m/s | -59.7°C | 6.3% | 0hPa | 2.7V | 00:00:00 | 01:28:48 | 00:00:00 | |
| NBG1-10 | 2026-09-05 12:02:27 | 45.24391 | 9.25188 | 100° | 40km/h | 17312m | 4.0m/s | -59.6°C | 6.3% | 0hPa | 2.7V | 00:00:00 | 01:28:47 | 00:00:00 | |
| IW2NTF | 2026-09-05 12:02:25 | 45.24397 | 9.25125 | 96° | 44km/h | 17295m | 4.1m/s | -59.6°C | 6.3% | 0hPa | 2.7V | 08:30:00 | 01:28:43 | 00:00:00 | |
| DO3MHA-11 | 2026-09-05 12:02:18 | 45.24408 | 9.25049 | 99° | 40km/h | 17270m | 4.6m/s | -59.3°C | 6.3% | 0hPa | 2.6V | 00:00:00 | 01:28:38 | 00:00:00 | |
| IW2NTF | 2026-09-05 12:02:14 | 45.24412 | 9.24975 | 93° | 40km/h | 17247m | 4m/s | -59.6°C | 6.4% | 0hPa | 2.6V | 08:30:00 | 01:28:33 | 00:00:00 | |
| DB0UT-7 | 2026-09-05 12:02:13 | 45.24412 | 9.24975 | 94° | 38km/h | 17247m | 3.9m/s | -59.6°C | 6.4% | 0hPa | 2.6V | 00:00:00 | 01:28:33 | 00:00:00 | |
| DO3MHA-11 | 2026-09-05 12:02:06 | 45.24421 | 9.24882 | 114° | 33km/h | 17211m | 6.0m/s | -60.0°C | 6.5% | 0hPa | 2.6V | 00:00:00 | 01:28:26 | 00:00:00 | |
| IW2NTF | 2026-09-05 12:02:00 | 45.24454 | 9.24730 | 105° | 44km/h | 17153m | 4.2m/s | -60.3°C | 6.8% | 0hPa | 2.6V | 08:30:00 | 01:28:14 | 00:00:00 | |
| NBG1-10 | 2026-09-05 12:01:54 | 45.24454 | 9.24730 | 106° | 44km/h | 17153m | 4.1m/s | -60.3°C | 6.8% | 0hPa | 2.6V | 00:00:00 | 01:28:14 | 00:00:00 | |
| DO3MHA-11 | 2026-09-05 12:01:53 | 45.24457 | 9.24714 | 106° | 40km/h | 17148m | 5.0m/s | -60.2°C | 6.8% | 0hPa | 2.6V | 00:00:00 | 01:28:13 | 00:00:00 | |
| IW2NTF | 2026-09-05 12:01:47 | 45.24480 | 9.24591 | 108° | 42km/h | 17104m | 4.3m/s | -61.4°C | 7.2% | 0hPa | 2.6V | 08:30:00 | 01:28:04 | 00:00:00 | |
| DO3MHA-11 | 2026-09-05 12:01:43 | 45.24483 | 9.24577 | 107° | 44km/h | 17100m | 4.8m/s | -61.3°C | 7.2% | 0hPa | 2.6V | 00:00:00 | 01:28:03 | 00:00:00 | |
| IW2NTF | 2026-09-05 12:01:36 | 45.24490 | 9.24393 | 91° | 46km/h | 17047m | 3.6m/s | -61.4°C | 7.4% | 0hPa | 2.6V | 08:30:00 | 01:27:52 | 00:00:00 | |
| IW2NTF | 2026-09-05 12:01:26 | 45.24490 | 9.24232 | 86° | 46km/h | 17001m | 5.2m/s | -61.4°C | 7.4% | 0hPa | 2.7V | 08:30:00 | 01:27:42 | 00:00:00 | |
| NBG1-10 | 2026-09-05 12:01:21 | 45.24489 | 9.24215 | 87° | 38km/h | 16997m | 3.5m/s | -61.3°C | 7.3% | 0hPa | 2.6V | 00:00:00 | 01:27:41 | 00:00:00 | |
| IW2NTF | 2026-09-05 12:01:17 | 45.24495 | 9.24086 | 95° | 37km/h | 16956m | 4.4m/s | -61.2°C | 7.3% | 0hPa | 2.6V | 08:30:00 | 01:27:32 | 00:00:00 | |
| DB0UT-7 | 2026-09-05 12:01:13 | 45.24494 | 9.24100 | 96° | 37km/h | 16961m | 4.9m/s | -61.2°C | 7.3% | 0hPa | 2.7V | 00:00:00 | 01:27:33 | 00:00:00 | |
| IW2NTF | 2026-09-05 12:01:05 | 45.24505 | 9.23959 | 93° | 35km/h | 16910m | 4.3m/s | -61.3°C | 7.3% | 0hPa | 2.7V | 08:30:00 | 01:27:22 | 00:00:00 | |
| IW2NTF | 2026-09-05 12:00:55 | 45.24503 | 9.23825 | 89° | 37km/h | 16865m | 3.7m/s | -61.7°C | 7.5% | 0hPa | 2.7V | 08:30:00 | 01:27:12 | 00:00:00 | |
| NBG1-10 | 2026-09-05 12:00:48 | 45.24501 | 9.23774 | 84° | 37km/h | 16847m | 4.8m/s | -61.7°C | 7.8% | 0hPa | 2.6V | 00:00:00 | 01:27:08 | 00:00:00 | |
| IW2NTF | 2026-09-05 12:00:45 | 45.24486 | 9.23694 | 72° | 40km/h | 16820m | 4.3m/s | -61.6°C | 7.7% | 0hPa | 2.6V | 08:30:00 | 01:27:02 | 00:00:00 | |
| DB0UT-7 | 2026-09-05 12:00:43 | 45.24489 | 9.23708 | 72° | 37km/h | 16825m | 5.2m/s | -61.7°C | 7.8% | 0hPa | 2.6V | 00:00:00 | 00:00:00 | 00:00:00 | |
| DO3MHA-11 | 2026-09-05 12:00:42 | 45.24486 | 9.23694 | 73° | 37km/h | 16820m | 4.3m/s | -61.6°C | 7.7% | 0hPa | 2.6V | 00:00:00 | 01:27:02 | 00:00:00 | |
| IW2NTF | 2026-09-05 12:00:34 | 45.24465 | 9.23567 | 73° | 37km/h | 16774m | 5.7m/s | -61.3°C | 7.6% | 0hPa | 2.6V | 08:30:00 | 01:26:52 | 00:00:00 | |
| DO3MHA-11 | 2026-09-05 12:00:30 | 45.24458 | 9.23540 | 70° | 38km/h | 16764m | 4.6m/s | -61.2°C | 7.6% | 0hPa | 2.7V | 00:00:00 | 01:26:50 | 00:00:00 | |
| IW2NTF | 2026-09-05 12:00:25 | 45.24438 | 9.23434 | 80° | 29km/h | 16728m | 4.5m/s | -60.8°C | 7.5% | 0hPa | 2.7V | 08:30:00 | 01:26:42 | 00:00:00 | |
| DO3MHA-11 | 2026-09-05 12:00:20 | 45.24435 | 9.23414 | 80° | 35km/h | 16720m | 4.6m/s | -60.8°C | 7.4% | 0hPa | 2.6V | 00:00:00 | 01:26:40 | 08:30:00 | |
| IW2NTF | 2026-09-05 12:00:15 | 45.24420 | 9.23316 | 81° | 38km/h | 16680m | 4.1m/s | -60.5°C | 7.3% | 0hPa | 2.6V | 08:30:00 | 01:26:32 | 00:00:00 | |
| DB0UT-7 | 2026-09-05 12:00:13 | 45.24421 | 9.23330 | 80° | 46km/h | 16685m | 4.8m/s | -60.6°C | 7.4% | 0hPa | 2.6V | 00:00:00 | 01:26:33 | 00:00:00 | |
| DO3MHA-11 | 2026-09-05 12:00:10 | 45.24417 | 9.23290 | 83° | 35km/h | 16670m | 5.1m/s | -60.5°C | 7.3% | 0hPa | 2.6V | 00:00:00 | 01:26:30 | 00:00:00 | |
| IW2NTF | 2026-09-05 12:00:05 | 45.24408 | 9.23190 | 79° | 33km/h | 16632m | 4m/s | -60.2°C | 7.3% | 0hPa | 2.6V | 08:30:00 | 01:26:22 | 00:00:00 | |
| DO3MHA-11 | 2026-09-05 11:59:59 | 45.24404 | 9.23154 | 82° | 33km/h | 16618m | 5.1m/s | -60.1°C | 7.2% | 0hPa | 2.7V | 00:00:00 | 01:26:19 | 00:00:00 | |
| IW2NTF | 2026-09-05 11:59:55 | 45.24388 | 9.23065 | 79° | 31km/h | 16584m | 6.3m/s | -59.9°C | 7% | 0hPa | 2.7V | 08:30:00 | 01:26:12 | 00:00:00 | |
| DO3MHA-11 | 2026-09-05 11:59:48 | 45.24386 | 9.23027 | 98° | 38km/h | 16563m | 4.0m/s | -59.9°C | 7.0% | 0hPa | 2.6V | 00:00:00 | 01:26:08 | 00:00:00 | |
| IW2NTF | 2026-09-05 11:59:45 | 45.24374 | 9.22960 | 67° | 47km/h | 16536m | 4.9m/s | -60.1°C | 7% | 0hPa | 2.6V | 08:30:00 | 01:26:02 | 00:00:00 | |
| NBG1-10 | 2026-09-05 11:59:42 | 45.24374 | 9.22960 | 68° | 47km/h | 16537m | 4.9m/s | 0°C | 0% | 0hPa | 2.7V | 00:00:00 | 01:26:02 | 00:00:00 | |
| DO3MHA-11 | 2026-09-05 11:59:38 | 45.24369 | 9.22890 | 100° | 46km/h | 16517m | 5.4m/s | -60.2°C | 7.1% | 0hPa | 2.7V | 00:00:00 | 01:25:58 | 00:00:00 | |
| IW2NTF | 2026-09-05 11:59:34 | 45.24371 | 9.22808 | 83° | 44km/h | 16486m | 5.7m/s | -60.8°C | 7.3% | 0hPa | 2.7V | 08:30:00 | 01:25:52 | 00:00:00 | |
| DO3MHA-11 | 2026-09-05 11:59:28 | 45.24373 | 9.22736 | 99° | 47km/h | 16464m | 4.6m/s | -61.0°C | 7.6% | 0hPa | 2.7V | 00:00:00 | 01:25:48 | 00:00:00 | |
| IW2NTF | 2026-09-05 11:59:22 | 45.24376 | 9.22631 | 87° | 44km/h | 16439m | 3.7m/s | -61°C | 7.4% | 0hPa | 2.7V | 08:30:00 | 01:25:42 | 00:00:00 | |
| DO3MHA-11 | 2026-09-05 11:59:18 | 45.24376 | 9.22567 | 96° | 49km/h | 16423m | 4.9m/s | -60.8°C | 7.3% | 0hPa | 2.6V | 00:00:00 | 01:25:38 | 00:00:00 | |
| IW2NTF | 2026-09-05 11:59:12 | 45.24390 | 9.22466 | 102° | 47km/h | 16399m | 3.8m/s | -61.1°C | 7.7% | 0hPa | 2.6V | 08:30:00 | 01:25:32 | 00:00:00 | |
| NBG1-10 | 2026-09-05 11:59:09 | 45.24395 | 9.22412 | 93° | 49km/h | 16387m | 3.0m/s | 0°C | 0% | 0hPa | 2.6V | 00:00:00 | 01:25:29 | 00:00:00 | |
| DO3MHA-11 | 2026-09-05 11:59:08 | 45.24395 | 9.22395 | 94° | 47km/h | 16383m | 4.8m/s | -61.2°C | 7.7% | 0hPa | 2.6V | 00:00:00 | 01:25:28 | 00:00:00 | |
| IW2NTF | 2026-09-05 11:59:05 | 45.24405 | 9.22291 | 100° | 46km/h | 16359m | 5m/s | -61.6°C | 7.9% | 0hPa | 2.6V | 08:30:00 | 01:25:22 | 00:00:00 | |
| DO3MHA-11 | 2026-09-05 11:58:58 | 45.24415 | 9.22226 | 102° | 53km/h | 16343m | 3.4m/s | -61.7°C | 8.0% | 0hPa | 2.8V | 00:00:00 | 01:25:18 | 00:00:00 | |
| IW2NTF | 2026-09-05 11:58:55 | 45.24437 | 9.22113 | 106° | 57km/h | 16319m | 3.1m/s | -61.8°C | 8% | 0hPa | 2.8V | 08:30:00 | 01:25:12 | 00:00:00 | |
| DO3MHA-11 | 2026-09-05 11:58:48 | 45.24452 | 9.22042 | 105° | 51km/h | 16304m | 4.4m/s | -61.7°C | 8.0% | 0hPa | 2.6V | 00:00:00 | 01:25:08 | 08:30:00 | |
| IW2NTF | 2026-09-05 11:58:38 | 45.24505 | 9.21781 | 105° | 46km/h | 16242m | 4.6m/s | -61.6°C | 7.9% | 0hPa | 2.6V | 08:30:00 | 01:24:53 | 00:00:00 | |
| DB0UT-7 | 2026-09-05 11:58:38 | 45.24489 | 9.21866 | 108° | 51km/h | 16264m | 4.0m/s | -61.5°C | 7.8% | 0hPa | 2.8V | 00:00:00 | 01:24:58 | 00:00:00 | |
| DO3MHA-11 | 2026-09-05 11:58:28 | 45.24523 | 9.21697 | 111° | 51km/h | 16221m | 4.7m/s | -61.8°C | 8.3% | 0hPa | 2.8V | 00:00:00 | 01:24:48 | 00:00:00 | |
| IW2NTF | 2026-09-05 11:58:25 | 45.24546 | 9.21608 | 107° | 55km/h | 16202m | 3.8m/s | -62.2°C | 8% | 0hPa | 2.8V | 08:30:00 | 01:24:43 | 00:00:00 | |
| DO3MHA-11 | 2026-09-05 11:58:18 | 45.24561 | 9.21523 | 103° | 55km/h | 16182m | 3.8m/s | -62.5°C | 8.3% | 0hPa | 2.7V | 00:00:00 | 01:24:38 | 00:00:00 | |
| IW2NTF | 2026-09-05 11:58:14 | 45.24585 | 9.21436 | 119° | 62km/h | 16160m | 4.3m/s | -62.6°C | 8.8% | 0hPa | 2.6V | 08:30:00 | 01:24:33 | 00:00:00 | |
| DB0UT-7 | 2026-09-05 11:58:08 | 45.24621 | 9.21345 | 115° | 62km/h | 16139m | 5.7m/s | -63.0°C | 8.7% | 0hPa | 2.6V | 00:00:00 | 00:00:00 | 00:00:00 | |
| IW2NTF | 2026-09-05 11:57:59 | 45.24680 | 9.21169 | 116° | 60km/h | 16089m | 3.5m/s | -62.7°C | 8.8% | 0hPa | 2.7V | 08:30:00 | 01:24:18 | 00:00:00 | |
| DO3MHA-11 | 2026-09-05 11:57:58 | 45.24680 | 9.21168 | 117° | 68km/h | 16089m | 3.5m/s | -62.7°C | 8.8% | 0hPa | 2.8V | 00:00:00 | 01:24:18 | 00:00:00 | |
| IW2NTF | 2026-09-05 11:57:53 | 45.24762 | 9.20957 | 120° | 66km/h | 16050m | 4.9m/s | -62.4°C | 8.8% | 0hPa | 2.8V | 08:30:00 | 01:24:08 | 00:00:00 | |
| DO3MHA-11 | 2026-09-05 11:57:48 | 45.24762 | 9.20956 | 121° | 68km/h | 16050m | 4.8m/s | -62.3°C | 8.8% | 0hPa | 2.7V | 00:00:00 | 01:24:08 | 00:00:00 | |
| DB0UT-7 | 2026-09-05 11:57:38 | 45.24840 | 9.20742 | 118° | 73km/h | 16011m | 3.4m/s | -62.0°C | 8.5% | 0hPa | 2.8V | 00:00:00 | 01:23:58 | 00:00:00 | |
| IW2NTF | 2026-09-05 11:57:37 | 45.24857 | 9.20698 | 121° | 71km/h | 16002m | 3.9m/s | -62°C | 8.6% | 0hPa | 2.8V | 08:30:00 | 01:23:56 | 00:00:00 | |
| DO3MHA-11 | 2026-09-05 11:57:28 | 45.24927 | 9.20518 | 114° | 73km/h | 15969m | 4.7m/s | -61.7°C | 8.3% | 0hPa | 2.6V | 00:00:00 | 01:23:48 | 00:00:00 | |
| IW2NTF | 2026-09-05 11:57:27 | 45.24970 | 9.20379 | 114° | 75km/h | 15944m | 4.8m/s | -61.7°C | 8.4% | 0hPa | 2.6V | 08:30:00 | 01:23:42 | 00:00:00 | |
| DO3MHA-11 | 2026-09-05 11:57:18 | 45.25004 | 9.20282 | 118° | 73km/h | 15928m | 4.0m/s | -61.7°C | 8.5% | 0hPa | 2.7V | 00:00:00 | 01:23:38 | 08:30:00 | |
| IW2NTF | 2026-09-05 11:57:17 | 45.25055 | 9.20142 | 117° | 71km/h | 15900m | 4.8m/s | -62.3°C | 8.8% | 0hPa | 2.6V | 08:30:00 | 01:23:32 | 00:00:00 | |
| DO3MHA-11 | 2026-09-05 11:57:08 | 45.25086 | 9.20047 | 115° | 77km/h | 15881m | 4.6m/s | -62.5°C | 9.1% | 0hPa | 2.8V | 00:00:00 | 01:23:28 | 00:00:00 | |
| IW2NTF | 2026-09-05 11:57:07 | 45.25126 | 9.19889 | 108° | 77km/h | 15852m | 4m/s | -62.4°C | 9.1% | 0hPa | 2.8V | 08:30:00 | 01:23:22 | 00:00:00 | |
| DO3MHA-11 | 2026-09-05 11:56:58 | 45.25153 | 9.19786 | 112° | 73km/h | 15834m | 5.3m/s | -62.3°C | 9.1% | 0hPa | 2.8V | 00:00:00 | 01:23:18 | 00:00:00 | |
| IW2NTF | 2026-09-05 11:56:55 | 45.25191 | 9.19639 | 106° | 73km/h | 15808m | 5.2m/s | -62.1°C | 9.1% | 0hPa | 2.8V | 08:30:00 | 01:23:12 | 00:00:00 | |
| DO3MHA-11 | 2026-09-05 11:56:48 | 45.25211 | 9.19538 | 108° | 71km/h | 15790m | 3.2m/s | -61.9°C | 9.1% | 0hPa | 2.6V | 00:00:00 | 01:23:08 | 00:00:00 | |
| IW2NTF | 2026-09-05 11:56:45 | 45.25256 | 9.19342 | 107° | 71km/h | 15753m | 3.9m/s | -61.7°C | 9.1% | 0hPa | 2.8V | 08:30:00 | 01:23:00 | 00:00:00 | |
| DB0UT-7 | 2026-09-05 11:56:38 | 45.25268 | 9.19293 | 110° | 71km/h | 15745m | 5.2m/s | -61.6°C | 9.2% | 0hPa | 2.6V | 00:00:00 | 01:22:58 | 08:30:00 | |
| DO3MHA-11 | 2026-09-05 11:56:37 | 45.25274 | 9.19268 | 111° | 71km/h | 15741m | 3.7m/s | -61.5°C | 9.1% | 0hPa | 2.8V | 00:00:00 | 01:22:57 | 00:00:00 | |
| IW2NTF | 2026-09-05 11:56:33 | 45.25317 | 9.19103 | 107° | 69km/h | 15708m | 5.5m/s | -61.3°C | 9.1% | 0hPa | 2.8V | 08:30:00 | 01:22:50 | 00:00:00 | |
| IW2NTF | 2026-09-05 11:56:25 | 45.25375 | 9.18864 | 115° | 68km/h | 15663m | 3.7m/s | -61°C | 8.7% | 0hPa | 2.6V | 08:30:00 | 01:22:40 | 00:00:00 | |
| DO3MHA-11 | 2026-09-05 11:56:23 | 45.25355 | 9.18931 | 110° | 69km/h | 15676m | 4.4m/s | -61.0°C | 8.8% | 0hPa | 2.6V | 00:00:00 | 01:22:43 | 00:00:00 | |
| IW2NTF | 2026-09-05 11:56:16 | 45.25440 | 9.18631 | 108° | 69km/h | 15618m | 4.4m/s | -61.3°C | 9% | 0hPa | 2.6V | 08:30:00 | 01:22:30 | 00:00:00 | |
| DB0UT-7 | 2026-09-05 11:56:08 | 45.25451 | 9.18584 | 108° | 64km/h | 15610m | 4.7m/s | -61.8°C | 9.4% | 0hPa | 2.6V | 00:00:00 | 00:00:00 | 00:00:00 | |
| IW2NTF | 2026-09-05 11:56:07 | 45.25507 | 9.18402 | 116° | 71km/h | 15576m | 4.1m/s | -62.8°C | 10% | 0hPa | 2.6V | 08:30:00 | 01:22:20 | 00:00:00 | |
| DO3MHA-11 | 2026-09-05 11:56:05 | 45.25469 | 9.18515 | 115° | 69km/h | 15597m | 3.8m/s | -62.3°C | 9.9% | 0hPa | 2.6V | 00:00:00 | 01:22:25 | 00:00:00 | |
| IW2NTF | 2026-09-05 11:55:55 | 45.25583 | 9.18184 | 117° | 58km/h | 15533m | 3.9m/s | -62.9°C | 10.6% | 0hPa | 2.8V | 08:30:00 | 01:22:10 | 00:00:00 | |
| DO3MHA-11 | 2026-09-05 11:55:52 | 45.25568 | 9.18222 | 119° | 62km/h | 15542m | 3.8m/s | -62.9°C | 10.4% | 0hPa | 2.8V | 00:00:00 | 01:22:12 | 00:00:00 | |
| IW2NTF | 2026-09-05 11:55:45 | 45.25649 | 9.17986 | 113° | 60km/h | 15489m | 4.1m/s | -63°C | 10.7% | 0hPa | 2.8V | 08:30:00 | 01:22:00 | 00:00:00 | |
| DO3MHA-11 | 2026-09-05 11:55:41 | 45.25643 | 9.18006 | 115° | 60km/h | 15494m | 5.2m/s | -63.0°C | 10.7% | 0hPa | 2.8V | 00:00:00 | 01:22:01 | 00:00:00 | |
| DB0UT-7 | 2026-09-05 11:55:37 | 45.25669 | 9.17928 | 117° | 66km/h | 15476m | 3.8m/s | -62.9°C | 10.6% | 0hPa | 2.8V | 00:00:00 | 01:21:57 | 00:00:00 | |
| IW2NTF | 2026-09-05 11:55:35 | 45.25713 | 9.17793 | 113° | 62km/h | 15446m | 4.8m/s | -63°C | 10.7% | 0hPa | 2.8V | 08:30:00 | 01:21:50 | 00:00:00 | |
| DO3MHA-11 | 2026-09-05 11:55:31 | 45.25706 | 9.17814 | 115° | 68km/h | 15451m | 3.9m/s | -62.9°C | 10.6% | 0hPa | 2.6V | 00:00:00 | 01:21:51 | 08:30:00 | |
| IW2NTF | 2026-09-05 11:55:26 | 45.25770 | 9.17572 | 108° | 71km/h | 15402m | 3.2m/s | -63.5°C | 11.3% | 0hPa | 2.6V | 08:30:00 | 01:21:40 | 00:00:00 | |
| DO3MHA-11 | 2026-09-05 11:55:17 | 45.25786 | 9.17500 | 107° | 71km/h | 15390m | 4.5m/s | -63.7°C | 11.4% | 0hPa | 2.6V | 00:00:00 | 01:21:37 | 00:00:00 | |
| IW2NTF | 2026-09-05 11:55:16 | 45.25822 | 9.17330 | 105° | 73km/h | 15360m | 3.5m/s | -63.6°C | 11.6% | 0hPa | 2.6V | 08:30:00 | 01:21:30 | 00:00:00 | |
| DB0UT-7 | 2026-09-05 11:55:07 | 45.25833 | 9.17255 | 100° | 68km/h | 15347m | 3.8m/s | -63.5°C | 11.6% | 0hPa | 2.7V | 00:00:00 | 00:00:00 | 00:00:00 | |
| IW2NTF | 2026-09-05 11:55:05 | 45.25851 | 9.17086 | 102° | 68km/h | 15315m | 4.6m/s | -63.3°C | 11.7% | 0hPa | 2.6V | 08:30:00 | 01:21:20 | 00:00:00 | |
| DO3MHA-11 | 2026-09-05 11:54:57 | 45.25863 | 9.17015 | 104° | 66km/h | 15303m | 4.5m/s | -63.2°C | 11.6% | 0hPa | 2.7V | 00:00:00 | 01:21:17 | 00:00:00 | |
| IW2NTF | 2026-09-05 11:54:55 | 45.25883 | 9.16851 | 95° | 68km/h | 15271m | 4.5m/s | -63.1°C | 11.4% | 0hPa | 2.6V | 08:30:00 | 01:21:10 | 00:00:00 | |
| DO3MHA-11 | 2026-09-05 11:54:47 | 45.25889 | 9.16781 | 100° | 66km/h | 15258m | 5.1m/s | -63.3°C | 11.6% | 0hPa | 2.8V | 00:00:00 | 01:21:07 | 00:00:00 | |
| IW2NTF | 2026-09-05 11:54:45 | 45.25911 | 9.16622 | 100° | 66km/h | 15226m | 3.8m/s | -63.6°C | 12.1% | 0hPa | 2.8V | 08:30:00 | 01:21:00 | 00:00:00 | |
| DO3MHA-11 | 2026-09-05 11:54:37 | 45.25921 | 9.16551 | 103° | 69km/h | 15213m | 3.0m/s | -63.7°C | 12.3% | 0hPa | 2.6V | 00:00:00 | 01:20:57 | 00:00:00 | |
| IW2NTF | 2026-09-05 11:54:35 | 45.25952 | 9.16383 | 104° | 68km/h | 15180m | 5.1m/s | -64°C | 12.7% | 0hPa | 2.6V | 08:30:00 | 01:20:50 | 00:00:00 | |
| DO3MHA-11 | 2026-09-05 11:54:27 | 45.25966 | 9.16311 | 106° | 69km/h | 15166m | 4.9m/s | -64.0°C | 12.8% | 0hPa | 2.7V | 00:00:00 | 01:20:47 | 00:00:00 | |
| IW2NTF | 2026-09-05 11:54:25 | 45.25998 | 9.16143 | 108° | 69km/h | 15134m | 4.4m/s | -64.1°C | 12.9% | 0hPa | 2.8V | 08:30:00 | 01:20:40 | 00:00:00 | |
| DO3MHA-11 | 2026-09-05 11:54:17 | 45.26014 | 9.16073 | 108° | 68km/h | 15120m | 4.7m/s | -64.0°C | 13.0% | 0hPa | 2.8V | 00:00:00 | 01:20:37 | 00:00:00 | |
| IW2NTF | 2026-09-05 11:54:15 | 45.26044 | 9.15913 | 102° | 68km/h | 15088m | 5.5m/s | -64°C | 13.1% | 0hPa | 2.8V | 08:30:00 | 01:20:30 | 00:00:00 | |
| DO3MHA-11 | 2026-09-05 11:54:07 | 45.26056 | 9.15840 | 105° | 68km/h | 15075m | 5.2m/s | -64.0°C | 13.2% | 0hPa | 2.6V | 00:00:00 | 01:20:27 | 00:00:00 | |
| IW2NTF | 2026-09-05 11:54:06 | 45.26080 | 9.15671 | 95° | 66km/h | 15042m | 5.1m/s | -64.5°C | 14.3% | 0hPa | 2.6V | 08:30:00 | 01:20:20 | 00:00:00 | |
| DO3MHA-11 | 2026-09-05 11:53:57 | 45.26083 | 9.15601 | 94° | 68km/h | 15028m | 4.3m/s | -64.3°C | 14.4% | 0hPa | 2.7V | 00:00:00 | 01:20:17 | 08:30:00 | |
| IW2NTF | 2026-09-05 11:53:55 | 45.26102 | 9.15437 | 100° | 73km/h | 14999m | 4.2m/s | -64.2°C | 13.9% | 0hPa | 2.8V | 08:30:00 | 01:20:10 | 00:00:00 | |
| DB0UT-7 | 2026-09-05 11:53:54 | 45.26089 | 9.15534 | 101° | 62km/h | 15015m | 3.7m/s | -64.2°C | 14.3% | 0hPa | 2.8V | 00:00:00 | 01:20:14 | 00:00:00 | |
| DO3MHA-11 | 2026-09-05 11:53:47 | 45.26111 | 9.15365 | 99° | 60km/h | 14984m | 4.3m/s | -64.0°C | 13.8% | 0hPa | 2.8V | 00:00:00 | 01:20:07 | 00:00:00 | |
| IW2NTF | 2026-09-05 11:53:45 | 45.26126 | 9.15215 | 104° | 58km/h | 14950m | 4.2m/s | -63.9°C | 14.1% | 0hPa | 2.8V | 08:30:00 | 01:20:00 | 00:00:00 | |
| DO3MHA-11 | 2026-09-05 11:53:37 | 45.26136 | 9.15151 | 102° | 62km/h | 14936m | 4.1m/s | -64.1°C | 14.7% | 0hPa | 2.7V | 00:00:00 | 01:19:57 | 00:00:00 | |
| IW2NTF | 2026-09-05 11:53:35 | 45.26159 | 9.14997 | 98° | 62km/h | 14904m | 2.4m/s | -64.5°C | 15.1% | 0hPa | 2.7V | 08:30:00 | 01:19:50 | 00:00:00 | |
| DO3MHA-11 | 2026-09-05 11:53:27 | 45.26166 | 9.14934 | 102° | 57km/h | 14890m | 5.1m/s | -64.6°C | 15.2% | 0hPa | 2.7V | 00:00:00 | 01:19:47 | 00:00:00 | |
| IW2NTF | 2026-09-05 11:53:25 | 45.26191 | 9.14797 | 108° | 55km/h | 14856m | 3.6m/s | -64.7°C | 16.1% | 0hPa | 2.7V | 08:30:00 | 01:19:40 | 00:00:00 | |
| DB0UT-7 | 2026-09-05 11:53:24 | 45.26175 | 9.14875 | 105° | 60km/h | 14875m | 4.6m/s | -64.6°C | 15.2% | 0hPa | 2.7V | 00:00:00 | 00:00:00 | 00:00:00 | |
| DO3MHA-11 | 2026-09-05 11:53:17 | 45.26206 | 9.14740 | 114° | 57km/h | 14843m | 4.1m/s | -64.8°C | 17.1% | 0hPa | 2.7V | 00:00:00 | 01:19:37 | 00:00:00 | |
| IW2NTF | 2026-09-05 11:53:16 | 45.26244 | 9.14607 | 112° | 57km/h | 14811m | 5m/s | -64.7°C | 17.3% | 0hPa | 2.7V | 08:30:00 | 01:19:30 | 00:00:00 | |
| DO3MHA-11 | 2026-09-05 11:53:07 | 45.26261 | 9.14552 | 116° | 60km/h | 14798m | 5.2m/s | -64.6°C | 17.3% | 0hPa | 2.8V | 00:00:00 | 01:19:27 | 00:00:00 | |
| IW2NTF | 2026-09-05 11:53:05 | 45.26306 | 9.14415 | 112° | 64km/h | 14762m | 5.8m/s | -64.5°C | 17.5% | 0hPa | 2.8V | 08:30:00 | 01:19:20 | 00:00:00 | |
| DO3MHA-11 | 2026-09-05 11:52:57 | 45.26323 | 9.14350 | 106° | 60km/h | 14747m | 5.5m/s | -64.4°C | 17.5% | 0hPa | 2.7V | 00:00:00 | 01:19:17 | 00:00:00 | |
| IW2NTF | 2026-09-05 11:52:55 | 45.26351 | 9.14203 | 110° | 57km/h | 14715m | 4m/s | -64.5°C | 19% | 0hPa | 2.7V | 08:30:00 | 01:19:10 | 00:00:00 | |
| DO3MHA-11 | 2026-09-05 11:52:47 | 45.26366 | 9.14145 | 110° | 62km/h | 14702m | 4.4m/s | -64.5°C | 19.6% | 0hPa | 2.8V | 00:00:00 | 01:19:07 | 00:00:00 | |
| IW2NTF | 2026-09-05 11:52:45 | 45.26402 | 9.13993 | 107° | 66km/h | 14671m | 4.6m/s | -64.5°C | 19.7% | 0hPa | 2.8V | 08:30:00 | 01:19:00 | 00:00:00 | |
| DO3MHA-11 | 2026-09-05 11:52:36 | 45.26424 | 9.13912 | 116° | 64km/h | 14652m | 5.3m/s | -64.4°C | 19.8% | 0hPa | 2.8V | 00:00:00 | 01:18:56 | 00:00:00 | |
| IW2NTF | 2026-09-05 11:52:35 | 45.26464 | 9.13792 | 116° | 66km/h | 14623m | 4.8m/s | -64.4°C | 20.5% | 0hPa | 2.8V | 08:30:00 | 01:18:50 | 00:00:00 | |
| IW2NTF | 2026-09-05 11:52:26 | 45.26537 | 9.13579 | 116° | 66km/h | 14579m | 5.3m/s | -65°C | 22.6% | 0hPa | 2.8V | 08:30:00 | 01:18:40 | 00:00:00 | |
| DB0UT-7 | 2026-09-05 11:52:17 | 45.26562 | 9.13515 | 120° | 68km/h | 14566m | 4.9m/s | -65.0°C | 23.1% | 0hPa | 2.8V | 00:00:00 | 00:00:00 | 00:00:00 | |
| DO3MHA-11 | 2026-09-05 11:52:16 | 45.26569 | 9.13494 | 118° | 68km/h | 14562m | 4.2m/s | -65.0°C | 23.2% | 0hPa | 2.8V | 00:00:00 | 01:18:36 | 00:00:00 | |
| IW2NTF | 2026-09-05 11:52:15 | 45.26616 | 9.13358 | 109° | 68km/h | 14534m | 5.3m/s | -64.9°C | 23.6% | 0hPa | 2.8V | 08:30:00 | 01:18:30 | 00:00:00 | |
| IW2NTF | 2026-09-05 11:52:06 | 45.26667 | 9.13132 | 107° | 71km/h | 14490m | 4.2m/s | -64.7°C | 23.7% | 0hPa | 2.8V | 08:30:00 | 01:18:20 | 00:00:00 | |
| DO3MHA-11 | 2026-09-05 11:51:56 | 45.26686 | 9.13035 | 105° | 68km/h | 14470m | 5.3m/s | -64.6°C | 23.7% | 0hPa | 2.7V | 00:00:00 | 01:18:16 | 00:00:00 | |
| IW2NTF | 2026-09-05 11:51:55 | 45.26709 | 9.12893 | 104° | 68km/h | 14441m | 4.3m/s | -65.1°C | 24.9% | 0hPa | 2.8V | 08:30:00 | 01:18:10 | 00:00:00 | |
| DB0UT-7 | 2026-09-05 11:51:47 | 45.26722 | 9.12822 | 104° | 71km/h | 14427m | 4.3m/s | -65.3°C | 26.2% | 0hPa | 2.7V | 00:00:00 | 01:18:07 | 00:00:00 | |
| IW2NTF | 2026-09-05 11:51:46 | 45.26750 | 9.12645 | 102° | 75km/h | 14396m | 4.3m/s | -65.6°C | 27.3% | 0hPa | 2.7V | 08:30:00 | 01:18:00 | 00:00:00 | |
| DO3MHA-11 | 2026-09-05 11:51:36 | 45.26768 | 9.12542 | 104° | 71km/h | 14378m | 4.5m/s | -65.6°C | 27.8% | 0hPa | 2.7V | 00:00:00 | 01:17:56 | 00:00:00 | |
| IW2NTF | 2026-09-05 11:51:35 | 45.26790 | 9.12390 | 96° | 71km/h | 14350m | 4.2m/s | -65.5°C | 27% | 0hPa | 2.7V | 08:30:00 | 01:17:50 | 00:00:00 | |
| IW2NTF | 2026-09-05 11:51:25 | 45.26822 | 9.12158 | 97° | 62km/h | 14305m | 4.7m/s | -65.4°C | 26.9% | 0hPa | 2.8V | 08:30:00 | 01:17:40 | 00:00:00 | |
| DO3MHA-11 | 2026-09-05 11:51:25 | 45.26805 | 9.12268 | 102° | 62km/h | 14327m | 4.3m/s | -65.5°C | 26.7% | 0hPa | 2.7V | 00:00:00 | 01:17:45 | 00:00:00 | |
| DB0UT-7 | 2026-09-05 11:51:17 | 45.26827 | 9.12092 | 97° | 57km/h | 14292m | 5.6m/s | -65.3°C | 26.9% | 0hPa | 2.7V | 00:00:00 | 00:00:00 | 08:30:00 | |
| IW2NTF | 2026-09-05 11:51:15 | 45.26841 | 9.11947 | 97° | 57km/h | 14259m | 2.9m/s | -65.1°C | 27.5% | 0hPa | 2.7V | 08:30:00 | 01:17:30 | 00:00:00 | |
| DO3MHA-11 | 2026-09-05 11:51:15 | 45.26831 | 9.12050 | 99° | 58km/h | 14282m | 4.6m/s | -65.2°C | 27.1% | 0hPa | 2.7V | 00:00:00 | 01:17:35 | 00:00:00 | |
| IW2NTF | 2026-09-05 11:51:05 | 45.26855 | 9.11733 | 95° | 57km/h | 14213m | 4.1m/s | -64.9°C | 26.7% | 0hPa | 2.7V | 08:30:00 | 01:17:20 | 00:00:00 | |
| DO3MHA-11 | 2026-09-05 11:51:05 | 45.26849 | 9.11840 | 96° | 58km/h | 14238m | 3.7m/s | -65.0°C | 26.8% | 0hPa | 2.8V | 00:00:00 | 01:17:25 | 00:00:00 | |
| IW2NTF | 2026-09-05 11:50:55 | 45.26868 | 9.11541 | 96° | 55km/h | 14167m | 4.9m/s | -64.7°C | 25.9% | 0hPa | 2.8V | 08:30:00 | 01:17:10 | 00:00:00 | |
| DO3MHA-11 | 2026-09-05 11:50:55 | 45.26862 | 9.11637 | 97° | 55km/h | 14190m | 3.9m/s | -64.8°C | 26.4% | 0hPa | 2.7V | 00:00:00 | 01:17:15 | 08:30:00 | |
| DB0UT-7 | 2026-09-05 11:50:47 | 45.26875 | 9.11482 | 101° | 51km/h | 14151m | 5.2m/s | -64.5°C | 26.7% | 0hPa | 2.7V | 00:00:00 | 01:17:07 | 00:00:00 | |
| IW2NTF | 2026-09-05 11:50:45 | 45.26889 | 9.11355 | 100° | 47km/h | 14120m | 4.4m/s | -64.3°C | 25.7% | 0hPa | 2.7V | 08:30:00 | 01:17:00 | 00:00:00 | |
| DO3MHA-11 | 2026-09-05 11:50:45 | 45.26879 | 9.11444 | 99° | 49km/h | 14143m | 2.6m/s | -64.4°C | 26.7% | 0hPa | 2.7V | 00:00:00 | 01:17:05 | 00:00:00 | |
| IW2NTF | 2026-09-05 11:50:35 | 45.26910 | 9.11173 | 105° | 57km/h | 14074m | 4.2m/s | -63.9°C | 25.3% | 0hPa | 2.7V | 08:30:00 | 01:16:50 | 00:00:00 | |
| DO3MHA-11 | 2026-09-05 11:50:35 | 45.26897 | 9.11269 | 99° | 53km/h | 14097m | 4.3m/s | -64.1°C | 25.4% | 0hPa | 2.8V | 00:00:00 | 01:16:55 | 00:00:00 | |
| IW2NTF | 2026-09-05 11:50:26 | 45.26931 | 9.11001 | 100° | 49km/h | 14032m | 6m/s | -63.6°C | 24.8% | 0hPa | 2.8V | 08:30:00 | 01:16:40 | 00:00:00 | |
| DO3MHA-11 | 2026-09-05 11:50:25 | 45.26923 | 9.11088 | 97° | 49km/h | 14054m | 4.2m/s | -63.7°C | 24.6% | 0hPa | 2.7V | 00:00:00 | 01:16:45 | 00:00:00 | |
| DB0UT-7 | 2026-09-05 11:50:17 | 45.26939 | 9.10949 | 108° | 47km/h | 14017m | 4.8m/s | -63.5°C | 25.2% | 0hPa | 2.7V | 00:00:00 | 00:00:00 | 00:00:00 | |
| IW2NTF | 2026-09-05 11:50:15 | 45.26965 | 9.10833 | 99° | 57km/h | 13981m | 4.6m/s | -63.5°C | 26.1% | 0hPa | 2.7V | 08:30:00 | 01:16:30 | 00:00:00 | |
| DO3MHA-11 | 2026-09-05 11:50:15 | 45.26947 | 9.10916 | 111° | 58km/h | 14008m | 6.6m/s | -63.4°C | 25.4% | 0hPa | 2.7V | 00:00:00 | 01:16:35 | 00:00:00 | |
| IW2NTF | 2026-09-05 11:50:05 | 45.26986 | 9.10636 | 121° | 33km/h | 13931m | 5.8m/s | -63.1°C | 25.4% | 0hPa | 2.7V | 08:30:00 | 01:16:20 | 00:00:00 | |
| DO3MHA-11 | 2026-09-05 11:50:05 | 45.26977 | 9.10720 | 96° | 46km/h | 13957m | 4.8m/s | -63.3°C | 25.6% | 0hPa | 2.7V | 00:00:00 | 01:16:25 | 00:00:00 | |
| DO3MHA-11 | 2026-09-05 11:49:55 | 45.27012 | 9.10579 | 113° | 46km/h | 13900m | 4.8m/s | -62.8°C | 24.8% | 0hPa | 2.7V | 00:00:00 | 01:16:15 | 00:00:00 | |
| IW2NTF | 2026-09-05 11:49:55 | 45.27027 | 9.10509 | 112° | 38km/h | 13866m | 5.2m/s | -62.7°C | 24.7% | 0hPa | 2.8V | 08:30:00 | 01:16:10 | 00:00:00 | |
| DB0UT-7 | 2026-09-05 11:49:47 | 45.27041 | 9.10465 | 117° | 49km/h | 13847m | 6.1m/s | -62.5°C | 25.0% | 0hPa | 2.7V | 00:00:00 | 01:16:07 | 00:00:00 | |
| DO3MHA-11 | 2026-09-05 11:49:45 | 45.27057 | 9.10426 | 123° | 51km/h | 13836m | 6.5m/s | -62.4°C | 24.9% | 0hPa | 2.7V | 00:00:00 | 01:16:05 | 00:00:00 | |
| IW2NTF | 2026-09-05 11:49:44 | 45.27102 | 9.10345 | 139° | 42km/h | 13801m | 5.6m/s | -62.1°C | 24.8% | 0hPa | 2.7V | 08:30:00 | 01:16:00 | 00:00:00 | |
| DO3MHA-11 | 2026-09-05 11:49:35 | 45.27146 | 9.10306 | 158° | 57km/h | 13776m | 7.6m/s | -61.9°C | 25.3% | 0hPa | 2.8V | 00:00:00 | 01:15:55 | 00:00:00 | |
| IW2NTF | 2026-09-05 11:49:32 | 45.27196 | 9.10249 | 124° | 66km/h | 13743m | 7.3m/s | -61.8°C | 27% | 0hPa | 2.8V | 08:30:00 | 01:15:50 | 00:00:00 | |
| DO3MHA-11 | 2026-09-05 11:49:25 | 45.27231 | 9.10156 | 116° | 46km/h | 13709m | 6.0m/s | -61.5°C | 25.9% | 0hPa | 2.7V | 00:00:00 | 01:15:45 | 08:30:00 | |
| IW2NTF | 2026-09-05 11:49:23 | 45.27250 | 9.10089 | 117° | 37km/h | 13680m | 4.6m/s | -61.4°C | 25.4% | 0hPa | 2.7V | 08:30:00 | 01:15:40 | 00:00:00 | |
| DB0UT-7 | 2026-09-05 11:49:17 | 45.27270 | 9.10052 | 135° | 69km/h | 13661m | 8.2m/s | -61.2°C | 26.4% | 0hPa | 2.8V | 00:00:00 | 00:00:00 | 00:00:00 | |
| DO3MHA-11 | 2026-09-05 11:49:15 | 45.27295 | 9.10017 | 138° | 66km/h | 13645m | 7.2m/s | -61.1°C | 27.0% | 0hPa | 2.8V | 00:00:00 | 01:15:35 | 00:00:00 | |
| IW2NTF | 2026-09-05 11:49:12 | 45.27370 | 9.09920 | 139° | 64km/h | 13617m | 7.6m/s | -61.2°C | 28% | 0hPa | 2.8V | 08:30:00 | 01:15:30 | 00:00:00 | |
| DO3MHA-11 | 2026-09-05 11:49:05 | 45.27419 | 9.09867 | 147° | 71km/h | 13584m | 4.9m/s | -60.9°C | 28.6% | 0hPa | 2.8V | 00:00:00 | 01:15:25 | 00:00:00 | |
| IW2NTF | 2026-09-05 11:49:02 | 45.27483 | 9.09785 | 130° | 82km/h | 13548m | 7.6m/s | -61°C | 29.5% | 0hPa | 2.8V | 08:30:00 | 01:15:20 | 00:00:00 | |
| DO3MHA-11 | 2026-09-05 11:48:55 | 45.27549 | 9.09684 | 137° | 78km/h | 13523m | 5.4m/s | -60.9°C | 28.8% | 0hPa | 2.7V | 00:00:00 | 01:15:15 | 00:00:00 | |
| IW2NTF | 2026-09-05 11:48:52 | 45.27619 | 9.09603 | 144° | 78km/h | 13492m | 6.4m/s | -61.2°C | 30.7% | 0hPa | 2.8V | 08:30:00 | 01:15:10 | 00:00:00 | |
| DB0UT-7 | 2026-09-05 11:48:47 | 45.27670 | 9.09552 | 143° | 97km/h | 13477m | 5.5m/s | -61.2°C | 33.1% | 0hPa | 2.7V | 00:00:00 | 01:15:07 | 00:00:00 | |
| DO3MHA-11 | 2026-09-05 11:48:45 | 45.27705 | 9.09511 | 140° | 84km/h | 13467m | 4.2m/s | -61.2°C | 33.9% | 0hPa | 2.7V | 00:00:00 | 01:15:05 | 00:00:00 | |
| IW2NTF | 2026-09-05 11:48:42 | 45.27790 | 9.09412 | 141° | 82km/h | 13444m | 6.5m/s | -61.9°C | 35.3% | 0hPa | 2.7V | 08:30:00 | 01:15:00 | 00:00:00 | |
| IW2NTF | 2026-09-05 11:48:32 | 45.27980 | 9.09232 | 149° | 115km/h | 13392m | 5.3m/s | -62.9°C | 39.3% | 0hPa | 2.7V | 08:30:00 | 01:14:50 | 00:00:00 | |
| DO3MHA-11 | 2026-09-05 11:48:25 | 45.28091 | 9.09130 | 143° | 108km/h | 13369m | 3.4m/s | -63.4°C | 41.0% | 0hPa | 2.7V | 00:00:00 | 01:14:45 | 00:00:00 | |
| IW2NTF | 2026-09-05 11:48:22 | 45.28194 | 9.09013 | 142° | 111km/h | 13348m | 4.5m/s | -63.3°C | 42.6% | 0hPa | 2.8V | 08:30:00 | 01:14:40 | 00:00:00 | |
| DB0UT-7 | 2026-09-05 11:48:17 | 45.28262 | 9.08941 | 144° | 95km/h | 13337m | 4.3m/s | 0°C | 0% | 0hPa | 2.7V | 00:00:00 | 00:00:00 | 00:00:00 | |
| DO3MHA-11 | 2026-09-05 11:48:15 | 45.28307 | 9.08894 | 144° | 113km/h | 13330m | 3.6m/s | -63.2°C | 42.5% | 0hPa | 2.7V | 00:00:00 | 01:14:35 | 00:00:00 | |
| IW2NTF | 2026-09-05 11:48:12 | 45.28421 | 9.08770 | 140° | 113km/h | 13314m | 3.2m/s | -63.2°C | 41.9% | 0hPa | 2.7V | 08:30:00 | 01:14:30 | 00:00:00 | |
| IW2NTF | 2026-09-05 11:48:05 | 45.28643 | 9.08525 | 140° | 110km/h | 13280m | 2.8m/s | -63.2°C | 44.6% | 0hPa | 2.8V | 08:30:00 | 01:14:20 | 00:00:00 | |
| DO3MHA-11 | 2026-09-05 11:48:05 | 45.28531 | 9.08645 | 142° | 110km/h | 13297m | 2.9m/s | -63.1°C | 42.1% | 0hPa | 2.7V | 00:00:00 | 01:14:25 | 00:00:00 | |
| DO3MHA-11 | 2026-09-05 11:47:55 | 45.28749 | 9.08398 | 139° | 113km/h | 13263m | 3.8m/s | -63.5°C | 45.4% | 0hPa | 2.7V | 00:00:00 | 01:14:15 | 08:30:00 | |
| IW2NTF | 2026-09-05 11:47:52 | 45.28859 | 9.08268 | 141° | 111km/h | 13248m | 3.4m/s | -63.9°C | 47.2% | 0hPa | 2.8V | 08:30:00 | 01:14:10 | 00:00:00 | |
| DO3MHA-11 | 2026-09-05 11:47:45 | 45.28970 | 9.08146 | 145° | 102km/h | 13230m | 3.2m/s | -63.9°C | 48.9% | 0hPa | 2.8V | 00:00:00 | 01:14:05 | 00:00:00 | |
| IW2NTF | 2026-09-05 11:47:41 | 45.29070 | 9.08026 | 136° | 102km/h | 13210m | 4.7m/s | -63.8°C | 48.7% | 0hPa | 2.8V | 08:30:00 | 01:14:00 | 00:00:00 | |
| DO3MHA-11 | 2026-09-05 11:47:35 | 45.29166 | 9.07908 | 142° | 95km/h | 13192m | 3.7m/s | -63.6°C | 50.6% | 0hPa | 2.7V | 00:00:00 | 01:13:55 | 00:00:00 | |
| IW2NTF | 2026-09-05 11:47:31 | 45.29265 | 9.07807 | 145° | 93km/h | 13173m | 2.3m/s | -63.5°C | 52.6% | 0hPa | 2.7V | 08:30:00 | 01:13:50 | 00:00:00 | |
| DO3MHA-11 | 2026-09-05 11:47:24 | 45.29377 | 9.07685 | 140° | 97km/h | 13152m | 3.5m/s | -63.3°C | 52.9% | 0hPa | 2.7V | 00:00:00 | 01:13:44 | 00:00:00 | |
| IW2NTF | 2026-09-05 11:47:21 | 45.29451 | 9.07595 | 141° | 99km/h | 13137m | 4m/s | -63.2°C | 54.1% | 0hPa | 2.8V | 08:30:00 | 01:13:40 | 00:00:00 | |
| DO3MHA-11 | 2026-09-05 11:47:14 | 45.29565 | 9.07467 | 142° | 95km/h | 13114m | 3.6m/s | -63.1°C | 55.0% | 0hPa | 2.8V | 00:00:00 | 01:13:34 | 00:00:00 | |
| IW2NTF | 2026-09-05 11:47:12 | 45.29638 | 9.07381 | 140° | 95km/h | 13099m | 4.3m/s | -63.1°C | 55.7% | 0hPa | 2.8V | 08:30:00 | 01:13:30 | 00:00:00 | |
| DO3MHA-11 | 2026-09-05 11:47:04 | 45.29753 | 9.07251 | 143° | 93km/h | 13077m | 4.1m/s | -62.9°C | 55.8% | 0hPa | 2.7V | 00:00:00 | 01:13:24 | 00:00:00 | |
| IW2NTF | 2026-09-05 11:47:02 | 45.29830 | 9.07169 | 142° | 93km/h | 13060m | 3m/s | -62.9°C | 57.7% | 0hPa | 2.7V | 08:30:00 | 01:13:20 | 00:00:00 | |
| DO3MHA-11 | 2026-09-05 11:46:54 | 45.29943 | 9.07051 | 144° | 91km/h | 13035m | 4.7m/s | -63.0°C | 58.6% | 0hPa | 2.7V | 00:00:00 | 01:13:14 | 00:00:00 | |
| IW2NTF | 2026-09-05 11:46:51 | 45.30017 | 9.06972 | 142° | 91km/h | 13019m | 4m/s | -63°C | 57.1% | 0hPa | 2.8V | 08:30:00 | 01:13:10 | 00:00:00 | |
| DO3MHA-11 | 2026-09-05 11:46:44 | 45.30130 | 9.06862 | 149° | 91km/h | 12993m | 4.8m/s | -62.8°C | 57.4% | 0hPa | 2.8V | 00:00:00 | 01:13:04 | 00:00:00 | |
| IW2NTF | 2026-09-05 11:46:41 | 45.30209 | 9.06795 | 148° | 89km/h | 12977m | 3.8m/s | -62.7°C | 56.7% | 0hPa | 2.8V | 08:30:00 | 01:13:00 | 00:00:00 | |
| DO3MHA-11 | 2026-09-05 11:46:34 | 45.30325 | 9.06692 | 147° | 91km/h | 12952m | 4.8m/s | -62.5°C | 55.3% | 0hPa | 2.8V | 00:00:00 | 01:12:54 | 00:00:00 | |
| IW2NTF | 2026-09-05 11:46:31 | 45.30402 | 9.06620 | 146° | 91km/h | 12934m | 4.4m/s | -62.3°C | 58% | 0hPa | 2.8V | 08:30:00 | 01:12:50 | 00:00:00 | |
| DO3MHA-11 | 2026-09-05 11:46:24 | 45.30517 | 9.06516 | 149° | 95km/h | 12909m | 5.0m/s | 0°C | 0% | 0hPa | 2.7V | 00:00:00 | 01:12:44 | 08:30:00 | |
| IW2NTF | 2026-09-05 11:46:21 | 45.30597 | 9.06445 | 147° | 97km/h | 12891m | 3.5m/s | -62°C | 59.4% | 0hPa | 2.7V | 08:30:00 | 01:12:40 | 00:00:00 | |
| DO3MHA-11 | 2026-09-05 11:46:14 | 45.30719 | 9.06336 | 149° | 91km/h | 12867m | 4.4m/s | 0°C | 0% | 0hPa | 2.8V | 00:00:00 | 01:12:34 | 00:00:00 | |
| IW2NTF | 2026-09-05 11:46:11 | 45.30796 | 9.06268 | 148° | 89km/h | 12851m | 3.4m/s | -61.7°C | 58.9% | 0hPa | 2.8V | 08:30:00 | 01:12:30 | 00:00:00 | |
| DO3MHA-11 | 2026-09-05 11:46:03 | 45.30935 | 9.06147 | 150° | 93km/h | 12823m | 4.2m/s | 0°C | 0% | 0hPa | 2.7V | 00:00:00 | 01:12:23 | 00:00:00 | |
| IW2NTF | 2026-09-05 11:46:01 | 45.30998 | 9.06094 | 148° | 97km/h | 12810m | 4m/s | -61.5°C | 61.7% | 0hPa | 2.7V | 08:30:00 | 01:12:20 | 00:00:00 | |
| DO3MHA-11 | 2026-09-05 11:45:52 | 45.31153 | 9.05956 | 149° | 89km/h | 12777m | 4.1m/s | 0°C | 0% | 0hPa | 2.8V | 00:00:00 | 01:12:12 | 00:00:00 | |
| IW2NTF | 2026-09-05 11:45:51 | 45.31192 | 9.05922 | 146° | 89km/h | 12768m | 4.7m/s | -61.1°C | 61.9% | 0hPa | 2.8V | 08:30:00 | 01:12:10 | 00:00:00 | |
| IW2NTF | 2026-09-05 11:45:41 | 45.31380 | 9.05746 | 147° | 91km/h | 12726m | 4.3m/s | -60.8°C | 61.6% | 0hPa | 2.7V | 08:30:00 | 01:12:00 | 00:00:00 | |
| DO3MHA-11 | 2026-09-05 11:45:41 | 45.31360 | 9.05763 | 149° | 93km/h | 12730m | 3.4m/s | 0°C | 0% | 0hPa | 2.8V | 00:00:00 | 01:12:01 | 00:00:00 | |
| IW2NTF | 2026-09-05 11:45:35 | 45.31572 | 9.05559 | 143° | 88km/h | 12680m | 5.3m/s | -60.4°C | 63.2% | 0hPa | 2.8V | 08:30:00 | 01:11:50 | 00:00:00 | |
| DB0UT-7 | 2026-09-05 11:45:31 | 45.31554 | 9.05577 | 145° | 89km/h | 12685m | 3.5m/s | 0°C | 0% | 0hPa | 2.8V | 00:00:00 | 01:11:51 | 00:00:00 | |
| IW2NTF | 2026-09-05 11:45:27 | 45.31760 | 9.05374 | 143° | 89km/h | 12636m | 4.2m/s | -59.9°C | 62.5% | 0hPa | 2.8V | 08:30:00 | 01:11:40 | 00:00:00 | |
| DO3MHA-11 | 2026-09-05 11:45:21 | 45.31741 | 9.05393 | 145° | 93km/h | 12641m | 4.8m/s | 0°C | 0% | 0hPa | 2.8V | 00:00:00 | 01:11:41 | 00:00:00 | |
| IW2NTF | 2026-09-05 11:45:17 | 45.31943 | 9.05184 | 143° | 95km/h | 12594m | 4.5m/s | -59.6°C | 62.1% | 0hPa | 2.8V | 08:30:00 | 01:11:30 | 00:00:00 | |
| DO3MHA-11 | 2026-09-05 11:45:11 | 45.31924 | 9.05204 | 144° | 91km/h | 12598m | 3.7m/s | 0°C | 0% | 0hPa | 2.8V | 00:00:00 | 01:11:31 | 00:00:00 | |
| IW2NTF | 2026-09-05 11:45:05 | 45.32127 | 9.04992 | 144° | 86km/h | 12550m | 3.9m/s | -59.3°C | 61.8% | 0hPa | 2.8V | 08:30:00 | 01:11:20 | 00:00:00 | |
| DB0UT-7 | 2026-09-05 11:45:01 | 45.32109 | 9.05010 | 145° | 91km/h | 12555m | 4.1m/s | 0°C | 0% | 0hPa | 2.8V | 00:00:00 | 00:00:00 | 00:00:00 | |
| DO3MHA-11 | 2026-09-05 11:45:00 | 45.32127 | 9.04992 | 145° | 89km/h | 12551m | 3.8m/s | 0°C | 0% | 0hPa | 2.8V | 00:00:00 | 01:11:20 | 00:00:00 | |
| IW2NTF | 2026-09-05 11:44:55 | 45.32310 | 9.04803 | 145° | 88km/h | 12508m | 4.9m/s | -58.8°C | 62.4% | 0hPa | 2.8V | 08:30:00 | 01:11:10 | 00:00:00 | |
| DO3MHA-11 | 2026-09-05 11:44:48 | 45.32347 | 9.04768 | 146° | 89km/h | 12500m | 4.1m/s | 0°C | 0% | 0hPa | 2.8V | 00:00:00 | 01:11:08 | 00:00:00 | |
| IW2NTF | 2026-09-05 11:44:45 | 45.32491 | 9.04611 | 142° | 89km/h | 12465m | 4.7m/s | -58.4°C | 60.5% | 0hPa | 2.8V | 08:30:00 | 01:11:00 | 00:00:00 | |
| IW2NTF | 2026-09-05 11:44:36 | 45.32676 | 9.04432 | 146° | 88km/h | 12422m | 5m/s | -58.1°C | 62.2% | 0hPa | 2.8V | 08:30:00 | 01:10:50 | 00:00:00 | |
| IW2NTF | 2026-09-05 11:44:25 | 45.32858 | 9.04237 | 144° | 91km/h | 12379m | 5m/s | -57.9°C | 59.9% | 0hPa | 2.8V | 08:30:00 | 01:10:40 | 00:00:00 | |
| IW2NTF | 2026-09-05 11:44:15 | 45.33042 | 9.04053 | 143° | 95km/h | 12336m | 4.2m/s | -57.4°C | 62.1% | 0hPa | 2.8V | 08:30:00 | 01:10:30 | 00:00:00 | |
| IW2NTF | 2026-09-05 11:44:05 | 45.33241 | 9.03864 | 145° | 99km/h | 12293m | 4.4m/s | -57.1°C | 60.7% | 0hPa | 2.8V | 08:30:00 | 01:10:20 | 00:00:00 | |
| IW2NTF | 2026-09-05 11:43:55 | 45.33433 | 9.03674 | 145° | 91km/h | 12250m | 3.9m/s | -56.7°C | 61.1% | 0hPa | 2.8V | 08:30:00 | 01:10:10 | 00:00:00 | |
| DB0UT-7 | 2026-09-05 11:43:47 | 45.33493 | 9.03620 | 148° | 95km/h | 12238m | 4.7m/s | 0°C | 0% | 0hPa | 2.8V | 00:00:00 | 01:10:07 | 00:00:00 | |
| IW2NTF | 2026-09-05 11:43:42 | 45.33630 | 9.03485 | 142° | 89km/h | 12208m | 4.5m/s | -56.2°C | 61.7% | 0hPa | 2.8V | 08:30:00 | 01:10:00 | 00:00:00 | |
| IW2NTF | 2026-09-05 11:43:35 | 45.33819 | 9.03305 | 145° | 93km/h | 12166m | 5m/s | -56°C | 64.1% | 0hPa | 2.7V | 08:30:00 | 01:09:50 | 00:00:00 | |
| IW2NTF | 2026-09-05 11:43:25 | 45.34011 | 9.03116 | 148° | 91km/h | 12125m | 5.3m/s | -55.6°C | 62.4% | 0hPa | 2.7V | 08:30:00 | 01:09:40 | 00:00:00 | |
| IW2NTF | 2026-09-05 11:43:16 | 45.34206 | 9.02936 | 145° | 95km/h | 12082m | 4.6m/s | -55.3°C | 60.8% | 0hPa | 2.7V | 08:30:00 | 01:09:30 | 00:00:00 | |
| IW2NTF | 2026-09-05 11:43:06 | 45.34395 | 9.02741 | 145° | 89km/h | 12044m | 2.7m/s | -55°C | 62.9% | 0hPa | 2.8V | 08:30:00 | 01:09:20 | 00:00:00 | |
| IW2NTF | 2026-09-05 11:42:56 | 45.34587 | 9.02548 | 145° | 89km/h | 12006m | 3.4m/s | -54.9°C | 65.8% | 0hPa | 2.7V | 08:30:00 | 01:09:10 | 00:00:00 | |
| IW2NTF | 2026-09-05 11:42:45 | 45.34771 | 9.02356 | 143° | 97km/h | 11966m | 4.6m/s | -54.5°C | 66% | 0hPa | 2.8V | 08:30:00 | 01:09:00 | 00:00:00 | |
| IW2NTF | 2026-09-05 11:42:35 | 45.34957 | 9.02163 | 144° | 91km/h | 11927m | 4.2m/s | -54.2°C | 64.6% | 0hPa | 2.9V | 08:30:00 | 01:08:50 | 00:00:00 | |
| IW2NTF | 2026-09-05 11:42:25 | 45.35144 | 9.01958 | 144° | 97km/h | 11887m | 3.3m/s | -53.9°C | 63.4% | 0hPa | 2.9V | 08:30:00 | 01:08:40 | 00:00:00 | |
| IW2NTF | 2026-09-05 11:42:16 | 45.35337 | 9.01755 | 143° | 95km/h | 11845m | 4.2m/s | -53.7°C | 63.4% | 0hPa | 2.7V | 08:30:00 | 01:08:30 | 00:00:00 | |
| IW2NTF | 2026-09-05 11:42:05 | 45.35529 | 9.01553 | 143° | 95km/h | 11803m | 3.4m/s | -53.4°C | 64.3% | 0hPa | 2.7V | 08:30:00 | 01:08:20 | 00:00:00 | |
| IW2NTF | 2026-09-05 11:41:55 | 45.35711 | 9.01343 | 141° | 93km/h | 11765m | 3.3m/s | -53.1°C | 64.1% | 0hPa | 2.9V | 08:30:00 | 01:08:10 | 00:00:00 | |
| IW2NTF | 2026-09-05 11:41:45 | 45.35892 | 9.01139 | 141° | 88km/h | 11724m | 4m/s | -52.8°C | 61.4% | 0hPa | 2.9V | 08:30:00 | 01:08:00 | 00:00:00 | |
| IW2NTF | 2026-09-05 11:41:32 | 45.36075 | 9.00941 | 141° | 88km/h | 11683m | 4.7m/s | -52.4°C | 61.9% | 0hPa | 2.9V | 08:30:00 | 01:07:50 | 00:00:00 | |
| IW2NTF | 2026-09-05 11:41:25 | 45.36245 | 9.00746 | 141° | 89km/h | 11643m | 3.4m/s | -52.1°C | 59.9% | 0hPa | 2.7V | 08:30:00 | 01:07:40 | 00:00:00 | |
| IW2NTF | 2026-09-05 11:41:15 | 45.36418 | 9.00549 | 143° | 88km/h | 11602m | 3.8m/s | -51.7°C | 59.2% | 0hPa | 2.7V | 08:30:00 | 01:07:30 | 00:00:00 | |
| IW2NTF | 2026-09-05 11:41:05 | 45.36588 | 9.00362 | 141° | 82km/h | 11564m | 3.7m/s | -51.4°C | 60.3% | 0hPa | 2.9V | 08:30:00 | 01:07:20 | 00:00:00 | |
| IW2NTF | 2026-09-05 11:40:55 | 45.36760 | 9.00175 | 141° | 82km/h | 11524m | 3m/s | -51.1°C | 59.2% | 0hPa | 2.9V | 08:30:00 | 01:07:10 | 00:00:00 | |
| IW2NTF | 2026-09-05 11:40:46 | 45.36929 | 8.99992 | 143° | 84km/h | 11485m | 3.9m/s | -50.8°C | 57.9% | 0hPa | 2.7V | 08:30:00 | 01:07:00 | 00:00:00 | |
| IW2NTF | 2026-09-05 11:40:35 | 45.37109 | 8.99808 | 145° | 86km/h | 11446m | 4.8m/s | -50.4°C | 57.4% | 0hPa | 2.9V | 08:30:00 | 01:06:50 | 00:00:00 | |
| IW2NTF | 2026-09-05 11:40:25 | 45.37287 | 8.99625 | 144° | 86km/h | 11405m | 4.5m/s | -50.1°C | 57.1% | 0hPa | 2.9V | 08:30:00 | 01:06:40 | 00:00:00 | |
| IW2NTF | 2026-09-05 11:40:16 | 45.37457 | 8.99453 | 141° | 80km/h | 11366m | 3.1m/s | -49.7°C | 57.6% | 0hPa | 2.8V | 08:30:00 | 01:06:30 | 00:00:00 | |
| IW2NTF | 2026-09-05 11:40:05 | 45.37630 | 8.99269 | 141° | 82km/h | 11326m | 3.2m/s | -49.5°C | 55.3% | 0hPa | 2.9V | 08:30:00 | 01:06:20 | 00:00:00 | |
| IW2NTF | 2026-09-05 11:39:55 | 45.37799 | 8.99089 | 141° | 89km/h | 11286m | 3.7m/s | -49.1°C | 49.7% | 0hPa | 2.9V | 08:30:00 | 01:06:10 | 00:00:00 | |
| IW2NTF | 2026-09-05 11:39:43 | 45.37968 | 8.98907 | 140° | 86km/h | 11246m | 5.2m/s | -48.7°C | 46% | 0hPa | 2.8V | 08:30:00 | 01:06:00 | 00:00:00 | |
| IW2NTF | 2026-09-05 11:39:33 | 45.38139 | 8.98721 | 142° | 82km/h | 11205m | 2.9m/s | -48.3°C | 44.7% | 0hPa | 2.9V | 08:30:00 | 01:05:50 | 00:00:00 | |
| IW2NTF | 2026-09-05 11:39:24 | 45.38303 | 8.98529 | 144° | 86km/h | 11164m | 3.5m/s | -47.9°C | 43.3% | 0hPa | 2.9V | 08:30:00 | 01:05:40 | 00:00:00 | |
| IW2NTF | 2026-09-05 11:39:13 | 45.38469 | 8.98333 | 143° | 82km/h | 11124m | 4.7m/s | -47.5°C | 41.2% | 0hPa | 2.8V | 08:30:00 | 01:05:30 | 00:00:00 | |
| IW2NTF | 2026-09-05 11:39:03 | 45.38639 | 8.98147 | 138° | 89km/h | 11086m | 3.8m/s | -47.2°C | 40.9% | 0hPa | 2.9V | 08:30:00 | 01:05:20 | 00:00:00 | |
| IW2NTF | 2026-09-05 11:38:53 | 45.38802 | 8.97946 | 140° | 84km/h | 11046m | 3.7m/s | -46.8°C | 39.1% | 0hPa | 2.9V | 08:30:00 | 01:05:10 | 00:00:00 | |
| IW2NTF | 2026-09-05 11:38:43 | 45.38966 | 8.97745 | 139° | 88km/h | 11007m | 4.6m/s | -46.4°C | 37% | 0hPa | 2.9V | 08:30:00 | 01:05:00 | 00:00:00 | |
| IW2NTF | 2026-09-05 11:38:33 | 45.39138 | 8.97538 | 138° | 86km/h | 10967m | 3.9m/s | -46°C | 35% | 0hPa | 2.9V | 08:30:00 | 01:04:50 | 00:00:00 | |
| IW2NTF | 2026-09-05 11:38:23 | 45.39308 | 8.97330 | 136° | 89km/h | 10930m | 3.2m/s | -45.7°C | 34.3% | 0hPa | 2.8V | 08:30:00 | 01:04:40 | 00:00:00 | |
| IW2NTF | 2026-09-05 11:38:13 | 45.39476 | 8.97119 | 137° | 88km/h | 10894m | 3.1m/s | -45.4°C | 33.6% | 0hPa | 2.9V | 08:30:00 | 01:04:30 | 00:00:00 | |
| IW2NTF | 2026-09-05 11:38:03 | 45.39633 | 8.96915 | 137° | 84km/h | 10855m | 4.5m/s | -45.1°C | 33.1% | 0hPa | 2.8V | 08:30:00 | 01:04:20 | 00:00:00 | |
| IW2NTF | 2026-09-05 11:37:53 | 45.39796 | 8.96706 | 137° | 82km/h | 10819m | 3m/s | -44.9°C | 33.1% | 0hPa | 2.9V | 08:30:00 | 01:04:10 | 00:00:00 | |
| IW2NTF | 2026-09-05 11:37:43 | 45.39957 | 8.96500 | 136° | 89km/h | 10781m | 4.5m/s | -44.5°C | 32% | 0hPa | 2.8V | 08:30:00 | 01:04:00 | 00:00:00 | |
| IW2NTF | 2026-09-05 11:37:34 | 45.40154 | 8.96263 | 138° | 86km/h | 10737m | 3.5m/s | -44.2°C | 33.1% | 0hPa | 2.9V | 08:30:00 | 01:03:48 | 00:00:00 | |
| IW2NTF | 2026-09-05 11:37:23 | 45.40311 | 8.96068 | 139° | 82km/h | 10699m | 4.1m/s | -43.8°C | 32.2% | 0hPa | 2.9V | 08:30:00 | 01:03:38 | 00:00:00 | |
| IW2NTF | 2026-09-05 11:37:11 | 45.40469 | 8.95853 | 135° | 84km/h | 10662m | 3.3m/s | -43.5°C | 31.3% | 0hPa | 2.9V | 08:30:00 | 01:03:28 | 00:00:00 | |
| IW2NTF | 2026-09-05 11:37:02 | 45.40625 | 8.95648 | 135° | 88km/h | 10628m | 3.5m/s | -43.1°C | 31.1% | 0hPa | 2.9V | 08:30:00 | 01:03:18 | 00:00:00 | |
| IW2NTF | 2026-09-05 11:36:49 | 45.40780 | 8.95437 | 137° | 86km/h | 10591m | 3.7m/s | -42.8°C | 29.4% | 0hPa | 2.9V | 08:30:00 | 01:03:08 | 00:00:00 | |
| IW2NTF | 2026-09-05 11:36:39 | 45.40968 | 8.95181 | 135° | 84km/h | 10547m | 4.1m/s | -42.4°C | 29.3% | 0hPa | 2.9V | 08:30:00 | 01:02:56 | 00:00:00 | |
| IW2NTF | 2026-09-05 11:36:29 | 45.41118 | 8.94964 | 135° | 86km/h | 10511m | 4.1m/s | -42.1°C | 28.2% | 0hPa | 2.9V | 08:30:00 | 01:02:46 | 00:00:00 | |
| IW2NTF | 2026-09-05 11:36:19 | 45.41271 | 8.94745 | 134° | 84km/h | 10477m | 3.4m/s | -41.8°C | 27.8% | 0hPa | 2.9V | 08:30:00 | 01:02:36 | 00:00:00 | |
| IW2NTF | 2026-09-05 11:36:09 | 45.41422 | 8.94526 | 133° | 86km/h | 10442m | 3.6m/s | -41.5°C | 28.2% | 0hPa | 2.9V | 08:30:00 | 01:02:26 | 00:00:00 | |
| IW2NTF | 2026-09-05 11:35:59 | 45.41574 | 8.94300 | 135° | 88km/h | 10408m | 3.2m/s | -41.2°C | 27.5% | 0hPa | 2.8V | 08:30:00 | 01:02:16 | 00:00:00 | |
| IW2NTF | 2026-09-05 11:35:49 | 45.41729 | 8.94080 | 131° | 86km/h | 10374m | 3.5m/s | -40.9°C | 27.8% | 0hPa | 2.9V | 08:30:00 | 01:02:06 | 00:00:00 | |
| IW2NTF | 2026-09-05 11:35:42 | 45.41892 | 8.93858 | 139° | 86km/h | 10339m | 2.6m/s | -40.6°C | 26.9% | 0hPa | 2.9V | 08:30:00 | 01:01:56 | 00:00:00 | |
| IW2NTF | 2026-09-05 11:35:29 | 45.42056 | 8.93633 | 136° | 93km/h | 10305m | 3.3m/s | -40.3°C | 25.9% | 0hPa | 2.9V | 08:30:00 | 01:01:46 | 00:00:00 | |
| IW2NTF | 2026-09-05 11:35:19 | 45.42226 | 8.93412 | 136° | 91km/h | 10272m | 3m/s | -39.9°C | 25.7% | 0hPa | 2.9V | 08:30:00 | 01:01:36 | 00:00:00 | |
| IW2NTF | 2026-09-05 11:35:09 | 45.42398 | 8.93185 | 138° | 88km/h | 10239m | 4m/s | -39.6°C | 24.5% | 0hPa | 2.9V | 08:30:00 | 01:01:26 | 00:00:00 | |
| IW2NTF | 2026-09-05 11:35:00 | 45.42571 | 8.92962 | 137° | 93km/h | 10202m | 3m/s | -39.2°C | 23.8% | 0hPa | 2.8V | 08:30:00 | 01:01:16 | 00:00:00 | |
| IW2NTF | 2026-09-05 11:34:49 | 45.42741 | 8.92743 | 137° | 89km/h | 10168m | 4m/s | -39°C | 23.7% | 0hPa | 2.8V | 08:30:00 | 01:01:06 | 00:00:00 | |
| IW2NTF | 2026-09-05 11:34:39 | 45.42905 | 8.92521 | 137° | 89km/h | 10132m | 3.9m/s | -38.7°C | 24.5% | 0hPa | 2.9V | 08:30:00 | 01:00:56 | 00:00:00 | |
| IW2NTF | 2026-09-05 11:34:29 | 45.43074 | 8.92292 | 136° | 93km/h | 10098m | 3.4m/s | -38.4°C | 24.1% | 0hPa | 2.9V | 08:30:00 | 01:00:46 | 00:00:00 | |
| IW2NTF | 2026-09-05 11:34:19 | 45.43248 | 8.92063 | 135° | 95km/h | 10064m | 3.2m/s | -38.1°C | 25.1% | 0hPa | 2.9V | 08:30:00 | 01:00:36 | 00:00:00 | |
| IW2NTF | 2026-09-05 11:34:09 | 45.43416 | 8.91833 | 136° | 95km/h | 10027m | 3.9m/s | -37.9°C | 27.4% | 0hPa | 2.8V | 08:30:00 | 01:00:26 | 00:00:00 | |
| IW2NTF | 2026-09-05 11:33:59 | 45.43586 | 8.91606 | 139° | 91km/h | 9992m | 3.2m/s | -37.6°C | 29% | 0hPa | 2.9V | 08:30:00 | 01:00:16 | 00:00:00 | |
| IW2NTF | 2026-09-05 11:33:49 | 45.43764 | 8.91381 | 135° | 88km/h | 9955m | 2.6m/s | -37.2°C | 28.8% | 0hPa | 2.9V | 08:30:00 | 01:00:06 | 00:00:00 | |
| IW2NTF | 2026-09-05 11:33:39 | 45.43934 | 8.91164 | 139° | 99km/h | 9916m | 4.6m/s | -37°C | 30% | 0hPa | 2.8V | 08:30:00 | 00:59:56 | 00:00:00 | |
| IW2NTF | 2026-09-05 11:33:29 | 45.44136 | 8.90921 | 138° | 99km/h | 9861m | 4.8m/s | -36.6°C | 31.4% | 0hPa | 2.9V | 08:30:00 | 00:59:45 | 00:00:00 | |
| IW2NTF | 2026-09-05 11:33:19 | 45.44336 | 8.90669 | 138° | 93km/h | 9807m | 6.7m/s | -36.2°C | 36.5% | 0hPa | 2.8V | 08:30:00 | 00:59:34 | 00:00:00 | |
| IW2NTF | 2026-09-05 11:33:09 | 45.44499 | 8.90488 | 136° | 99km/h | 9762m | 3.2m/s | -35.9°C | 38.6% | 0hPa | 2.9V | 08:30:00 | 00:59:25 | 00:00:00 | |
| IW2NTF | 2026-09-05 11:32:59 | 45.44682 | 8.90275 | 141° | 95km/h | 9709m | 7m/s | -35.7°C | 46.4% | 0hPa | 2.9V | 08:30:00 | 00:59:15 | 00:00:00 | |
| IW2NTF | 2026-09-05 11:32:49 | 45.44862 | 8.90076 | 141° | 88km/h | 9652m | 4.7m/s | -35.3°C | 51.2% | 0hPa | 2.9V | 08:30:00 | 00:59:05 | 00:00:00 | |
| IW2NTF | 2026-09-05 11:32:37 | 45.45042 | 8.89879 | 141° | 82km/h | 9599m | 3.9m/s | -34.9°C | 50.2% | 0hPa | 2.9V | 08:30:00 | 00:58:55 | 00:00:00 | |
| IW2NTF | 2026-09-05 11:32:27 | 45.45222 | 8.89691 | 142° | 86km/h | 9550m | 5.5m/s | -34.5°C | 48.7% | 0hPa | 2.8V | 08:30:00 | 00:58:45 | 00:00:00 | |
| IW2NTF | 2026-09-05 11:32:17 | 45.45391 | 8.89484 | 146° | 97km/h | 9498m | 6.4m/s | -34.1°C | 49.6% | 0hPa | 2.9V | 08:30:00 | 00:58:35 | 00:00:00 | |
| IW2NTF | 2026-09-05 11:32:07 | 45.45560 | 8.89309 | 136° | 82km/h | 9434m | 6.6m/s | -33.6°C | 50.9% | 0hPa | 2.9V | 08:30:00 | 00:58:25 | 00:00:00 | |
| IW2NTF | 2026-09-05 11:31:58 | 45.45704 | 8.89112 | 136° | 73km/h | 9380m | 4.7m/s | -33.1°C | 48.7% | 0hPa | 2.9V | 08:30:00 | 00:58:15 | 00:00:00 | |
| IW2NTF | 2026-09-05 11:31:47 | 45.45840 | 8.88921 | 129° | 68km/h | 9331m | 4.6m/s | -32.7°C | 46.5% | 0hPa | 2.9V | 08:30:00 | 00:58:05 | 00:00:00 | |
| IW2NTF | 2026-09-05 11:31:37 | 45.45963 | 8.88736 | 136° | 77km/h | 9283m | 4.8m/s | -32.2°C | 44.5% | 0hPa | 2.9V | 08:30:00 | 00:57:55 | 00:00:00 | |
| IW2NTF | 2026-09-05 11:31:27 | 45.46098 | 8.88538 | 127° | 75km/h | 9233m | 4.9m/s | -31.8°C | 44.1% | 0hPa | 2.9V | 08:30:00 | 00:57:45 | 00:00:00 | |
| IW2NTF | 2026-09-05 11:31:17 | 45.46229 | 8.88352 | 133° | 73km/h | 9170m | 5.1m/s | -31.3°C | 42.2% | 0hPa | 2.9V | 08:30:00 | 00:57:35 | 00:00:00 | |
| IW2NTF | 2026-09-05 11:31:07 | 45.46342 | 8.88154 | 129° | 66km/h | 9118m | 4.9m/s | -30.9°C | 44.4% | 0hPa | 2.9V | 08:30:00 | 00:57:25 | 00:00:00 | |
| IW2NTF | 2026-09-05 11:30:57 | 45.46454 | 8.87949 | 127° | 73km/h | 9070m | 4.6m/s | -30.7°C | 50.7% | 0hPa | 2.9V | 08:30:00 | 00:57:15 | 00:00:00 | |
| IW2NTF | 2026-09-05 11:30:48 | 45.46558 | 8.87756 | 126° | 66km/h | 9026m | 4.7m/s | -30.5°C | 56.3% | 0hPa | 2.9V | 08:30:00 | 00:57:05 | 00:00:00 | |
| IW2NTF | 2026-09-05 11:30:38 | 45.46655 | 8.87551 | 123° | 66km/h | 8983m | 4.4m/s | -30.4°C | 64.7% | 0hPa | 2.9V | 08:30:00 | 00:56:55 | 00:00:00 | |
| IW2NTF | 2026-09-05 11:30:27 | 45.46743 | 8.87335 | 119° | 66km/h | 8941m | 5.1m/s | -30.1°C | 64.4% | 0hPa | 2.9V | 08:30:00 | 00:56:45 | 00:00:00 | |
| IW2NTF | 2026-09-05 11:30:19 | 45.46825 | 8.87129 | 118° | 68km/h | 8900m | 3.8m/s | -29.7°C | 64.3% | 0hPa | 3V | 08:30:00 | 00:56:35 | 00:00:00 | |
| IW2NTF | 2026-09-05 11:30:07 | 45.46903 | 8.86926 | 115° | 66km/h | 8859m | 4.5m/s | -29.4°C | 65.3% | 0hPa | 2.9V | 08:30:00 | 00:56:25 | 00:00:00 | |
| IW2NTF | 2026-09-05 11:29:57 | 45.46981 | 8.86720 | 119° | 64km/h | 8818m | 4.4m/s | -29.1°C | 64.8% | 0hPa | 3V | 08:30:00 | 00:56:15 | 00:00:00 | |
| IW2NTF | 2026-09-05 11:29:47 | 45.47058 | 8.86529 | 121° | 60km/h | 8775m | 5.7m/s | -28.8°C | 66.1% | 0hPa | 3V | 08:30:00 | 00:56:05 | 00:00:00 | |
| IW2NTF | 2026-09-05 11:29:37 | 45.47134 | 8.86345 | 116° | 58km/h | 8734m | 3.5m/s | -28.5°C | 69.1% | 0hPa | 3V | 08:30:00 | 00:55:55 | 00:00:00 | |
| IW2NTF | 2026-09-05 11:29:27 | 45.47212 | 8.86155 | 117° | 60km/h | 8691m | 4.8m/s | -28.1°C | 69.7% | 0hPa | 3V | 08:30:00 | 00:55:45 | 00:00:00 | |
| IW2NTF | 2026-09-05 11:29:18 | 45.47290 | 8.85954 | 121° | 66km/h | 8650m | 5.1m/s | -27.8°C | 68.8% | 0hPa | 2.8V | 08:30:00 | 00:55:35 | 00:00:00 | |
| IW2NTF | 2026-09-05 11:29:05 | 45.47364 | 8.85755 | 118° | 62km/h | 8607m | 4m/s | -27.4°C | 67.6% | 0hPa | 3V | 08:30:00 | 00:55:25 | 00:00:00 | |
| IW2NTF | 2026-09-05 11:28:55 | 45.47439 | 8.85554 | 112° | 60km/h | 8563m | 4.4m/s | -27°C | 65.5% | 0hPa | 2.8V | 08:30:00 | 00:55:15 | 00:00:00 | |
| IW2NTF | 2026-09-05 11:28:46 | 45.47512 | 8.85361 | 120° | 66km/h | 8506m | 5.5m/s | -26.6°C | 64.2% | 0hPa | 3V | 08:30:00 | 00:55:05 | 00:00:00 | |
| IW2NTF | 2026-09-05 11:28:35 | 45.47591 | 8.85169 | 113° | 66km/h | 8448m | 5.9m/s | -26.1°C | 62.2% | 0hPa | 3V | 08:30:00 | 00:54:55 | 00:00:00 | |
| IW2NTF | 2026-09-05 11:28:25 | 45.47655 | 8.84980 | 118° | 60km/h | 8395m | 6.2m/s | -25.6°C | 61.2% | 0hPa | 3V | 08:30:00 | 00:54:45 | 00:00:00 | |
| IW2NTF | 2026-09-05 11:28:15 | 45.47717 | 8.84779 | 109° | 60km/h | 8345m | 3.9m/s | -25.3°C | 66% | 0hPa | 3V | 08:30:00 | 00:54:35 | 00:00:00 | |
| IW2NTF | 2026-09-05 11:28:05 | 45.47781 | 8.84579 | 115° | 49km/h | 8289m | 6.1m/s | -24.9°C | 69.5% | 0hPa | 2.8V | 08:30:00 | 00:54:25 | 00:00:00 | |
| IW2NTF | 2026-09-05 11:27:55 | 45.47842 | 8.84392 | 123° | 64km/h | 8228m | 3.8m/s | -24.6°C | 74.9% | 0hPa | 3V | 08:30:00 | 00:54:15 | 00:00:00 | |
| IW2NTF | 2026-09-05 11:27:45 | 45.47917 | 8.84212 | 112° | 57km/h | 8172m | 4.8m/s | -24.2°C | 76.5% | 0hPa | 3V | 08:30:00 | 00:54:05 | 00:00:00 | |
| IW2NTF | 2026-09-05 11:27:35 | 45.47995 | 8.83998 | 120° | 47km/h | 8098m | 6m/s | -24.1°C | 89.1% | 0hPa | 3V | 08:30:00 | 00:53:53 | 00:00:00 | |
| IW2NTF | 2026-09-05 11:27:25 | 45.48067 | 8.83812 | 107° | 57km/h | 8043m | 6.4m/s | -23.6°C | 86.9% | 0hPa | 3V | 08:30:00 | 00:53:43 | 00:00:00 | |
| IW2NTF | 2026-09-05 11:27:15 | 45.48129 | 8.83653 | 122° | 57km/h | 7991m | 8m/s | -23.1°C | 84.5% | 0hPa | 3V | 08:30:00 | 00:53:33 | 00:00:00 | |
| IW2NTF | 2026-09-05 11:27:05 | 45.48189 | 8.83458 | 103° | 64km/h | 7932m | 5.5m/s | -22.6°C | 80.9% | 0hPa | 3V | 08:30:00 | 00:53:23 | 00:00:00 | |
| IW2NTF | 2026-09-05 11:26:56 | 45.48238 | 8.83267 | 111° | 55km/h | 7874m | 4m/s | -22°C | 78.1% | 0hPa | 3V | 08:30:00 | 00:53:13 | 00:00:00 | |
| IW2NTF | 2026-09-05 11:26:46 | 45.48297 | 8.83081 | 113° | 58km/h | 7821m | 6.9m/s | -21.5°C | 75.6% | 0hPa | 3V | 08:30:00 | 00:53:03 | 00:00:00 | |
| IW2NTF | 2026-09-05 11:26:35 | 45.48356 | 8.82874 | 108° | 60km/h | 7769m | 7.2m/s | -21°C | 73.1% | 0hPa | 2.9V | 08:30:00 | 00:52:53 | 00:00:00 | |
| IW2NTF | 2026-09-05 11:26:25 | 45.48412 | 8.82696 | 99° | 57km/h | 7712m | 4.1m/s | -20.5°C | 70.5% | 0hPa | 2.9V | 08:30:00 | 00:52:43 | 00:00:00 | |
| IW2NTF | 2026-09-05 11:26:15 | 45.48450 | 8.82493 | 101° | 62km/h | 7650m | 4.9m/s | -20.1°C | 70.7% | 0hPa | 2.9V | 08:30:00 | 00:52:33 | 00:00:00 | |
| IW2NTF | 2026-09-05 11:26:05 | 45.48504 | 8.82279 | 107° | 57km/h | 7595m | 3.7m/s | -20°C | 77.6% | 0hPa | 2.9V | 08:30:00 | 00:52:23 | 00:00:00 | |
| IW2NTF | 2026-09-05 11:25:55 | 45.48533 | 8.82069 | 108° | 57km/h | 7540m | 4.4m/s | -19.6°C | 77.7% | 0hPa | 2.9V | 08:30:00 | 00:52:13 | 00:00:00 | |
| IW2NTF | 2026-09-05 11:25:45 | 45.48586 | 8.81849 | 101° | 57km/h | 7483m | 5.3m/s | -19.2°C | 80% | 0hPa | 3V | 08:30:00 | 00:52:03 | 00:00:00 | |
| IW2NTF | 2026-09-05 11:25:35 | 45.48632 | 8.81640 | 117° | 60km/h | 7433m | 5.7m/s | -18.8°C | 78.5% | 0hPa | 3V | 08:30:00 | 00:51:53 | 00:00:00 | |
| IW2NTF | 2026-09-05 11:25:26 | 45.48700 | 8.81408 | 108° | 68km/h | 7379m | 5.9m/s | -18.3°C | 76.1% | 0hPa | 3V | 08:30:00 | 00:51:43 | 00:00:00 | |
| IW2NTF | 2026-09-05 11:25:13 | 45.48764 | 8.81186 | 114° | 69km/h | 7324m | 7.5m/s | -17.9°C | 76.3% | 0hPa | 3V | 08:30:00 | 00:51:33 | 00:00:00 | |
| IW2NTF | 2026-09-05 11:25:04 | 45.48830 | 8.80965 | 108° | 66km/h | 7273m | 4.1m/s | -17.5°C | 75.5% | 0hPa | 3V | 08:30:00 | 00:51:23 | 00:00:00 | |
| IW2NTF | 2026-09-05 11:24:54 | 45.48901 | 8.80733 | 110° | 68km/h | 7223m | 4.4m/s | -17.2°C | 77.6% | 0hPa | 3V | 08:30:00 | 00:51:13 | 00:00:00 | |
| IW2NTF | 2026-09-05 11:24:43 | 45.48972 | 8.80500 | 112° | 78km/h | 7173m | 5.6m/s | -16.8°C | 77% | 0hPa | 3V | 08:30:00 | 00:51:03 | 00:00:00 | |
| IW2NTF | 2026-09-05 11:24:33 | 45.49052 | 8.80254 | 116° | 78km/h | 7126m | 4.7m/s | -16.4°C | 75.5% | 0hPa | 3V | 08:30:00 | 00:50:53 | 00:00:00 | |
| IW2NTF | 2026-09-05 11:24:24 | 45.49133 | 8.80017 | 118° | 73km/h | 7078m | 5.2m/s | -15.9°C | 73.5% | 0hPa | 3V | 08:30:00 | 00:50:43 | 00:00:00 | |
| IW2NTF | 2026-09-05 11:24:13 | 45.49219 | 8.79773 | 115° | 78km/h | 7032m | 4.1m/s | -15.5°C | 72.2% | 0hPa | 3V | 08:30:00 | 00:50:33 | 00:00:00 | |
| IW2NTF | 2026-09-05 11:24:03 | 45.49295 | 8.79524 | 112° | 77km/h | 6983m | 4.1m/s | -15.1°C | 70.9% | 0hPa | 3V | 08:30:00 | 00:50:23 | 00:00:00 | |
| IW2NTF | 2026-09-05 11:23:53 | 45.49368 | 8.79275 | 108° | 71km/h | 6932m | 3.7m/s | -14.6°C | 68.8% | 0hPa | 3V | 08:30:00 | 00:50:13 | 00:00:00 | |
| IW2NTF | 2026-09-05 11:23:43 | 45.49433 | 8.79037 | 112° | 69km/h | 6879m | 5.2m/s | -14.2°C | 67.1% | 0hPa | 2.9V | 08:30:00 | 00:50:03 | 00:00:00 | |
| IW2NTF | 2026-09-05 11:23:33 | 45.49492 | 8.78802 | 107° | 66km/h | 6823m | 7m/s | -13.7°C | 65.2% | 0hPa | 3V | 08:30:00 | 00:49:53 | 00:00:00 | |
| IW2NTF | 2026-09-05 11:23:23 | 45.49552 | 8.78551 | 110° | 68km/h | 6764m | 6.2m/s | -13.1°C | 63.5% | 0hPa | 3V | 08:30:00 | 00:49:43 | 00:00:00 | |
| IW2NTF | 2026-09-05 11:23:18 | 45.49613 | 8.78309 | 111° | 75km/h | 6705m | 6.8m/s | -12.6°C | 62.3% | 0hPa | 3V | 08:30:00 | 00:49:33 | 00:00:00 | |
| IW2NTF | 2026-09-05 11:23:08 | 45.49697 | 8.78054 | 115° | 82km/h | 6649m | 7.2m/s | -12.1°C | 60.8% | 0hPa | 3V | 08:30:00 | 00:49:23 | 00:00:00 | |
| IW2NTF | 2026-09-05 11:22:58 | 45.49779 | 8.77808 | 109° | 71km/h | 6593m | 6.1m/s | -11.6°C | 59.3% | 0hPa | 3V | 08:30:00 | 00:49:13 | 00:00:00 | |
| IW2NTF | 2026-09-05 11:22:48 | 45.49859 | 8.77579 | 119° | 64km/h | 6548m | 3.4m/s | -11.2°C | 60.1% | 0hPa | 3V | 08:30:00 | 00:49:03 | 00:00:00 | |
| IW2NTF | 2026-09-05 11:22:32 | 45.49944 | 8.77329 | 111° | 69km/h | 6482m | 4.6m/s | -10.7°C | 57.5% | 0hPa | 3V | 08:30:00 | 00:48:52 | 00:00:00 | |
| IW2NTF | 2026-09-05 11:22:22 | 45.50027 | 8.77097 | 117° | 69km/h | 6431m | 6.5m/s | -10.3°C | 56.5% | 0hPa | 3V | 08:30:00 | 00:48:42 | 00:00:00 | |
| IW2NTF | 2026-09-05 11:22:12 | 45.50108 | 8.76861 | 107° | 78km/h | 6377m | 4.2m/s | -10°C | 57.2% | 0hPa | 3V | 08:30:00 | 00:48:32 | 00:00:00 | |
| IW2NTF | 2026-09-05 11:22:02 | 45.50193 | 8.76639 | 122° | 71km/h | 6318m | 5.6m/s | -9.7°C | 59.1% | 0hPa | 3V | 08:30:00 | 00:48:22 | 00:00:00 | |
| IW2NTF | 2026-09-05 11:21:52 | 45.50268 | 8.76406 | 111° | 66km/h | 6260m | 9.1m/s | -9.2°C | 58.5% | 0hPa | 3V | 08:30:00 | 00:48:12 | 00:00:00 | |
| IW2NTF | 2026-09-05 11:21:43 | 45.50326 | 8.76186 | 117° | 58km/h | 6197m | 7m/s | -8.8°C | 56.2% | 0hPa | 3V | 08:30:00 | 00:48:02 | 00:00:00 | |
| IW2NTF | 2026-09-05 11:21:32 | 45.50374 | 8.75983 | 113° | 64km/h | 6144m | 5.8m/s | -8.5°C | 58.1% | 0hPa | 3V | 08:30:00 | 00:47:52 | 00:00:00 | |
| IW2NTF | 2026-09-05 11:21:23 | 45.50433 | 8.75760 | 106° | 69km/h | 6088m | 3.2m/s | -8.2°C | 57.1% | 0hPa | 3V | 08:30:00 | 00:47:42 | 00:00:00 | |
| IW2NTF | 2026-09-05 11:21:12 | 45.50473 | 8.75544 | 99° | 66km/h | 6033m | 6.6m/s | -7.8°C | 59.2% | 0hPa | 3V | 08:30:00 | 00:47:32 | 00:00:00 | |
| IW2NTF | 2026-09-05 11:21:02 | 45.50506 | 8.75325 | 99° | 57km/h | 5982m | 4.9m/s | -7.5°C | 58.2% | 0hPa | 3V | 08:30:00 | 00:47:22 | 00:00:00 | |
| IW2NTF | 2026-09-05 11:20:52 | 45.50530 | 8.75110 | 102° | 55km/h | 5931m | 7.6m/s | -7.4°C | 60.6% | 0hPa | 3V | 08:30:00 | 00:47:12 | 00:00:00 | |
| IW2NTF | 2026-09-05 11:20:43 | 45.50562 | 8.74871 | 112° | 58km/h | 5873m | 4.7m/s | -7.6°C | 66.8% | 0hPa | 3V | 08:30:00 | 00:47:00 | 00:00:00 | |
| IW2NTF | 2026-09-05 11:20:32 | 45.50616 | 8.74679 | 105° | 69km/h | 5819m | 5.2m/s | -7.2°C | 66.3% | 0hPa | 3V | 08:30:00 | 00:46:50 | 00:00:00 | |
| IW2NTF | 2026-09-05 11:20:22 | 45.50644 | 8.74435 | 99° | 60km/h | 5770m | 4.3m/s | -7.1°C | 68.9% | 0hPa | 3V | 08:30:00 | 00:46:40 | 00:00:00 | |
| IW2NTF | 2026-09-05 11:20:12 | 45.50684 | 8.74228 | 107° | 62km/h | 5718m | 5.9m/s | -6.8°C | 68.2% | 0hPa | 3V | 08:30:00 | 00:46:30 | 00:00:00 | |
| IW2NTF | 2026-09-05 11:20:02 | 45.50715 | 8.74008 | 102° | 60km/h | 5668m | 4.7m/s | -6.4°C | 65.5% | 0hPa | 3V | 08:30:00 | 00:46:20 | 00:00:00 | |
| IW2NTF | 2026-09-05 11:19:52 | 45.50734 | 8.73796 | 98° | 64km/h | 5624m | 2.3m/s | -6.2°C | 65% | 0hPa | 3V | 08:30:00 | 00:46:10 | 00:00:00 | |
| IW2NTF | 2026-09-05 11:19:42 | 45.50759 | 8.73576 | 94° | 62km/h | 5581m | 3.4m/s | -5.9°C | 65.5% | 0hPa | 3V | 08:30:00 | 00:46:00 | 00:00:00 | |
| IW2NTF | 2026-09-05 11:19:32 | 45.50781 | 8.73373 | 97° | 55km/h | 5534m | 5.1m/s | -5.8°C | 72.8% | 0hPa | 3V | 08:30:00 | 00:45:50 | 00:00:00 | |
| IW2NTF | 2026-09-05 11:19:23 | 45.50821 | 8.73176 | 108° | 66km/h | 5488m | 4.5m/s | -5.6°C | 70.2% | 0hPa | 3V | 08:30:00 | 00:45:40 | 00:00:00 | |
| IW2NTF | 2026-09-05 11:19:12 | 45.50860 | 8.72960 | 91° | 55km/h | 5444m | 2.7m/s | -5.4°C | 69.9% | 0hPa | 3V | 08:30:00 | 00:45:30 | 00:00:00 | |
| IW2NTF | 2026-09-05 11:19:02 | 45.50888 | 8.72750 | 108° | 47km/h | 5396m | 6.3m/s | -5.1°C | 69.4% | 0hPa | 3V | 08:30:00 | 00:45:20 | 00:00:00 | |
| IW2NTF | 2026-09-05 11:18:53 | 45.50906 | 8.72550 | 96° | 53km/h | 5355m | 4.1m/s | -4.7°C | 68.5% | 0hPa | 3V | 08:30:00 | 00:45:10 | 00:00:00 | |
| IW2NTF | 2026-09-05 11:18:42 | 45.50932 | 8.72365 | 102° | 58km/h | 5301m | 5.4m/s | -4.2°C | 66.5% | 0hPa | 3V | 08:30:00 | 00:45:00 | 00:00:00 | |
| IW2NTF | 2026-09-05 11:18:33 | 45.50962 | 8.72183 | 106° | 51km/h | 5263m | 3.2m/s | -3.9°C | 66% | 0hPa | 3V | 08:30:00 | 00:44:50 | 00:00:00 | |
| IW2NTF | 2026-09-05 11:18:20 | 45.50984 | 8.71981 | 93° | 62km/h | 5218m | 4.2m/s | -3.6°C | 66.6% | 0hPa | 3V | 08:30:00 | 00:44:40 | 00:00:00 | |
| IW2NTF | 2026-09-05 11:18:10 | 45.51022 | 8.71768 | 105° | 62km/h | 5173m | 5.8m/s | -3.2°C | 64.9% | 0hPa | 3V | 08:30:00 | 00:44:30 | 00:00:00 | |
| IW2NTF | 2026-09-05 11:18:01 | 45.51066 | 8.71570 | 108° | 58km/h | 5128m | 4.4m/s | -2.7°C | 63.1% | 0hPa | 3V | 08:30:00 | 00:44:20 | 00:00:00 | |
| IW2NTF | 2026-09-05 11:17:50 | 45.51109 | 8.71372 | 107° | 53km/h | 5087m | 4m/s | -2.3°C | 61.3% | 0hPa | 3V | 08:30:00 | 00:44:10 | 00:00:00 | |
| IW2NTF | 2026-09-05 11:17:45 | 45.51148 | 8.71179 | 104° | 69km/h | 5048m | 5m/s | -1.9°C | 60% | 0hPa | 3V | 08:30:00 | 00:44:00 | 00:00:00 | |
| IW2NTF | 2026-09-05 11:17:35 | 45.51197 | 8.70962 | 104° | 57km/h | 4998m | 7.5m/s | -1.6°C | 59.9% | 0hPa | 3V | 08:30:00 | 00:43:50 | 00:00:00 | |
| IW2NTF | 2026-09-05 11:17:29 | 45.51223 | 8.70837 | 112° | 55km/h | 4967m | 4.8m/s | -1.4°C | 60.1% | 0hPa | 3V | 08:30:00 | 00:43:44 | 00:00:00 | |
| IW2NTF | 2026-09-05 11:17:23 | 45.51262 | 8.70717 | 116° | 64km/h | 4940m | 4.3m/s | -1.5°C | 58.2% | 0hPa | 3V | 08:30:00 | 00:43:38 | 00:00:00 | |
| IW2NTF | 2026-09-05 11:17:17 | 45.51297 | 8.70594 | 112° | 60km/h | 4916m | 3.6m/s | -1.4°C | 59.9% | 0hPa | 3V | 08:30:00 | 00:43:32 | 00:00:00 | |
| IW2NTF | 2026-09-05 11:17:11 | 45.51334 | 8.70479 | 119° | 55km/h | 4894m | 3.1m/s | -1.3°C | 60.7% | 0hPa | 3V | 08:30:00 | 00:43:26 | 00:00:00 | |
| IW2NTF | 2026-09-05 11:17:05 | 45.51373 | 8.70374 | 118° | 58km/h | 4873m | 2.6m/s | -1.3°C | 65.4% | 0hPa | 3V | 08:30:00 | 00:43:20 | 00:00:00 | |
| IW2NTF | 2026-09-05 11:16:59 | 45.51411 | 8.70263 | 116° | 55km/h | 4852m | 3.5m/s | -1.7°C | 71.3% | 0hPa | 3V | 08:30:00 | 00:43:14 | 00:00:00 | |
| IW2NTF | 2026-09-05 11:16:53 | 45.51445 | 8.70132 | 109° | 69km/h | 4828m | 3.8m/s | -1.6°C | 71.9% | 0hPa | 3V | 08:30:00 | 00:43:08 | 00:00:00 | |
| IW2NTF | 2026-09-05 11:16:46 | 45.51491 | 8.70024 | 120° | 46km/h | 4797m | 5.2m/s | -1.6°C | 70.9% | 0hPa | 3V | 08:30:00 | 00:43:02 | 00:00:00 | |
| IW2NTF | 2026-09-05 11:16:41 | 45.51516 | 8.69913 | 109° | 62km/h | 4769m | 4.3m/s | -1.2°C | 70% | 0hPa | 3V | 08:30:00 | 00:42:56 | 00:00:00 | |
| IW2NTF | 2026-09-05 11:16:35 | 45.51570 | 8.69795 | 133° | 55km/h | 4743m | 4.7m/s | -1.1°C | 68.5% | 0hPa | 3V | 08:30:00 | 00:42:50 | 00:00:00 | |
| IW2NTF | 2026-09-05 11:16:30 | 45.51608 | 8.69700 | 112° | 60km/h | 4712m | 4.9m/s | -0.6°C | 67.3% | 0hPa | 3V | 08:30:00 | 00:42:44 | 00:00:00 | |
| IW2NTF | 2026-09-05 11:16:23 | 45.51651 | 8.69602 | 119° | 38km/h | 4684m | 6.4m/s | -0.5°C | 66.1% | 0hPa | 3V | 08:30:00 | 00:42:38 | 00:00:00 | |
| IW2NTF | 2026-09-05 11:16:16 | 45.51672 | 8.69502 | 109° | 58km/h | 4655m | 5.5m/s | -0.3°C | 64.8% | 0hPa | 3V | 08:30:00 | 00:42:32 | 00:00:00 | |
| IW2NTF | 2026-09-05 11:16:11 | 45.51715 | 8.69414 | 129° | 33km/h | 4624m | 3.9m/s | 0°C | 63.9% | 0hPa | 3V | 08:30:00 | 00:42:26 | 00:00:00 | |
| IW2NTF | 2026-09-05 11:16:05 | 45.51735 | 8.69335 | 111° | 53km/h | 4591m | 4.2m/s | 0.3°C | 62.9% | 0hPa | 3V | 08:30:00 | 00:42:20 | 00:00:00 | |
| IW2NTF | 2026-09-05 11:15:59 | 45.51785 | 8.69245 | 136° | 44km/h | 4561m | 5.4m/s | 0.3°C | 62.9% | 0hPa | 3V | 08:30:00 | 00:42:14 | 00:00:00 | |
| IW2NTF | 2026-09-05 11:15:53 | 45.51823 | 8.69189 | 126° | 35km/h | 4532m | 4.8m/s | 0.5°C | 62.6% | 0hPa | 3V | 08:30:00 | 00:42:08 | 00:00:00 | |
| IW2NTF | 2026-09-05 11:15:47 | 45.51857 | 8.69108 | 132° | 46km/h | 4502m | 3.9m/s | 0.8°C | 61.3% | 0hPa | 3V | 08:30:00 | 00:42:02 | 00:00:00 | |
| IW2NTF | 2026-09-05 11:15:41 | 45.51893 | 8.69032 | 119° | 51km/h | 4465m | 7m/s | 1°C | 60.4% | 0hPa | 3V | 08:30:00 | 00:41:56 | 00:00:00 | |
| IW2NTF | 2026-09-05 11:15:36 | 45.51941 | 8.68960 | 139° | 35km/h | 4426m | 4.9m/s | 1.4°C | 59.1% | 0hPa | 3V | 08:30:00 | 00:41:50 | 00:00:00 | |
| IW2NTF | 2026-09-05 11:15:30 | 45.51963 | 8.68898 | 113° | 46km/h | 4394m | 6.5m/s | 1.7°C | 58.3% | 0hPa | 3V | 08:30:00 | 00:41:44 | 00:00:00 | |
| IW2NTF | 2026-09-05 11:15:24 | 45.52004 | 8.68808 | 123° | 47km/h | 4361m | 5.8m/s | 2°C | 57.2% | 0hPa | 3V | 08:30:00 | 00:41:38 | 00:00:00 | |
| IW2NTF | 2026-09-05 11:15:18 | 45.52025 | 8.68736 | 113° | 35km/h | 4328m | 4.7m/s | 2.2°C | 56.1% | 0hPa | 3V | 08:30:00 | 00:41:32 | 00:00:00 | |
| IW2NTF | 2026-09-05 11:15:11 | 45.52070 | 8.68674 | 150° | 37km/h | 4292m | 6.4m/s | 2.6°C | 54.7% | 0hPa | 3V | 08:30:00 | 00:41:26 | 00:00:00 | |
| IW2NTF | 2026-09-05 11:15:05 | 45.52094 | 8.68616 | 107° | 40km/h | 4256m | 5.6m/s | 2.7°C | 54.3% | 0hPa | 3V | 08:30:00 | 00:41:20 | 00:00:00 | |
| IW2NTF | 2026-09-05 11:14:58 | 45.52133 | 8.68555 | 147° | 33km/h | 4220m | 5.3m/s | 3.1°C | 53% | 0hPa | 3V | 08:30:00 | 00:41:14 | 00:00:00 | |
| IW2NTF | 2026-09-05 11:14:53 | 45.52153 | 8.68512 | 99° | 31km/h | 4190m | 3.6m/s | 3.1°C | 53.2% | 0hPa | 3V | 08:30:00 | 00:41:08 | 00:00:00 | |
| IW2NTF | 2026-09-05 11:14:47 | 45.52180 | 8.68433 | 127° | 44km/h | 4163m | 4.2m/s | 3.2°C | 53% | 0hPa | 3V | 08:30:00 | 00:41:02 | 00:00:00 | |
| IW2NTF | 2026-09-05 11:14:41 | 45.52216 | 8.68360 | 110° | 38km/h | 4131m | 4.3m/s | 3.2°C | 53% | 0hPa | 3V | 08:30:00 | 00:40:56 | 00:00:00 | |
| IW2NTF | 2026-09-05 11:14:35 | 45.52225 | 8.68306 | 136° | 16km/h | 4101m | 5.3m/s | 3.3°C | 52.5% | 0hPa | 3V | 08:30:00 | 00:40:50 | 00:00:00 | |
| IW2NTF | 2026-09-05 11:14:28 | 45.52245 | 8.68277 | 118° | 15km/h | 4069m | 4.5m/s | 3.4°C | 51.7% | 0hPa | 3V | 08:30:00 | 00:40:44 | 00:00:00 | |
| IW2NTF | 2026-09-05 11:14:23 | 45.52270 | 8.68240 | 124° | 35km/h | 4043m | 4.6m/s | 3.5°C | 48.7% | 0hPa | 3V | 08:30:00 | 00:40:38 | 00:00:00 | |
| IW2NTF | 2026-09-05 11:14:17 | 45.52284 | 8.68188 | 85° | 11km/h | 4012m | 5.2m/s | 3.8°C | 48% | 0hPa | 3V | 08:30:00 | 00:40:32 | 00:00:00 | |
| IW2NTF | 2026-09-05 11:14:11 | 45.52296 | 8.68184 | 183° | 16km/h | 3987m | 2.9m/s | 4°C | 46.3% | 0hPa | 3V | 08:30:00 | 00:40:26 | 00:00:00 | |
| IW2NTF | 2026-09-05 11:14:05 | 45.52331 | 8.68159 | 129° | 31km/h | 3964m | 5.3m/s | 4.2°C | 45.2% | 0hPa | 3V | 08:30:00 | 00:40:20 | 00:00:00 | |
| IW2NTF | 2026-09-05 11:13:58 | 45.52354 | 8.68108 | 121° | 27km/h | 3937m | 4.8m/s | 4°C | 44.7% | 0hPa | 3V | 08:30:00 | 00:40:14 | 00:00:00 | |
| IW2NTF | 2026-09-05 11:13:53 | 45.52379 | 8.68076 | 169° | 16km/h | 3908m | 6m/s | 3.9°C | 45.2% | 0hPa | 3V | 08:30:00 | 00:40:08 | 00:00:00 | |
| IW2NTF | 2026-09-05 11:13:47 | 45.52393 | 8.68063 | 107° | 20km/h | 3878m | 5.8m/s | 3.9°C | 45.7% | 0hPa | 3V | 08:30:00 | 00:40:02 | 00:00:00 | |
| IW2NTF | 2026-09-05 11:13:42 | 45.52393 | 8.68028 | 63° | 13km/h | 3846m | 5.7m/s | 3.9°C | 47.3% | 0hPa | 3V | 08:30:00 | 00:39:56 | 00:00:00 | |
| IW2NTF | 2026-09-05 11:13:35 | 45.52389 | 8.68000 | 100° | 9km/h | 3822m | 2.6m/s | 3.9°C | 48% | 0hPa | 3V | 08:30:00 | 00:39:50 | 00:00:00 | |
| IW2NTF | 2026-09-05 11:13:28 | 45.52394 | 8.67971 | 90° | 29km/h | 3802m | 4.3m/s | 4.1°C | 46.6% | 0hPa | 3V | 08:30:00 | 00:39:44 | 00:00:00 | |
| IW2NTF | 2026-09-05 11:13:23 | 45.52386 | 8.67922 | 72° | 13km/h | 3773m | 6m/s | 4.3°C | 46.3% | 0hPa | 3V | 08:30:00 | 00:39:38 | 00:00:00 | |
| IW2NTF | 2026-09-05 11:13:17 | 45.52383 | 8.67894 | 68° | 13km/h | 3746m | 2.9m/s | 4.6°C | 45.4% | 0hPa | 3V | 08:30:00 | 00:39:32 | 00:00:00 | |
| IW2NTF | 2026-09-05 11:13:09 | 45.52367 | 8.67834 | 53° | 13km/h | 3716m | 2.3m/s | 4.9°C | 44.6% | 0hPa | 3V | 08:30:00 | 00:39:24 | 00:00:00 | |
| IW2NTF | 2026-09-05 11:13:03 | 45.52365 | 8.67805 | 85° | 22km/h | 3689m | 4.2m/s | 5.1°C | 43.4% | 0hPa | 3V | 08:30:00 | 00:39:18 | 00:00:00 | |
| IW2NTF | 2026-09-05 11:12:57 | 45.52352 | 8.67767 | 67° | 18km/h | 3658m | 6.1m/s | 5.4°C | 41% | 0hPa | 3V | 08:30:00 | 00:39:12 | 00:00:00 | |
| IW2NTF | 2026-09-05 11:12:51 | 45.52349 | 8.67728 | 90° | 18km/h | 3634m | 4.8m/s | 5.6°C | 40.6% | 0hPa | 3V | 08:30:00 | 00:39:06 | 00:00:00 | |
| IW2NTF | 2026-09-05 11:12:45 | 45.52347 | 8.67689 | 59° | 15km/h | 3614m | 3.4m/s | 5.7°C | 40% | 0hPa | 3V | 08:30:00 | 00:39:00 | 00:00:00 | |
| IW2NTF | 2026-09-05 11:12:38 | 45.52333 | 8.67649 | 88° | 27km/h | 3594m | 4.5m/s | 5.9°C | 40% | 0hPa | 3V | 08:30:00 | 00:38:54 | 00:00:00 | |
| IW2NTF | 2026-09-05 11:12:33 | 45.52338 | 8.67598 | 98° | 16km/h | 3566m | 5m/s | 6°C | 40.7% | 0hPa | 3V | 08:30:00 | 00:38:48 | 00:00:00 | |
| IW2NTF | 2026-09-05 11:12:27 | 45.52343 | 8.67563 | 89° | 20km/h | 3538m | 3m/s | 6.2°C | 40.4% | 0hPa | 3V | 08:30:00 | 00:38:42 | 00:00:00 | |
| IW2NTF | 2026-09-05 11:12:21 | 45.52335 | 8.67512 | 76° | 27km/h | 3519m | 4.5m/s | 6.4°C | 39.9% | 0hPa | 3V | 08:30:00 | 00:38:36 | 00:00:00 | |
| IW2NTF | 2026-09-05 11:12:15 | 45.52336 | 8.67450 | 104° | 27km/h | 3497m | 4.5m/s | 6.5°C | 39.7% | 0hPa | 3V | 08:30:00 | 00:38:30 | 00:00:00 | |
| IW2NTF | 2026-09-05 11:12:08 | 45.52350 | 8.67402 | 112° | 22km/h | 3463m | 5m/s | 6.8°C | 38.3% | 0hPa | 3V | 08:30:00 | 00:38:24 | 00:00:00 | |
| IW2NTF | 2026-09-05 11:12:03 | 45.52358 | 8.67368 | 99° | 13km/h | 3441m | 2.6m/s | 6.9°C | 38.7% | 0hPa | 3V | 08:30:00 | 00:38:18 | 00:00:00 | |
| IW2NTF | 2026-09-05 11:11:57 | 45.52359 | 8.67326 | 110° | 18km/h | 3422m | 2.1m/s | 7°C | 39.7% | 0hPa | 3V | 08:30:00 | 00:38:12 | 00:00:00 | |
| IW2NTF | 2026-09-05 11:11:51 | 45.52377 | 8.67291 | 106° | 16km/h | 3397m | 2.9m/s | 7°C | 41.3% | 0hPa | 3V | 08:30:00 | 00:38:06 | 00:00:00 | |
| IW2NTF | 2026-09-05 11:11:45 | 45.52380 | 8.67277 | 170° | 13km/h | 3369m | 3.9m/s | 7°C | 42.6% | 0hPa | 3V | 08:30:00 | 00:38:00 | 00:00:00 | |
| IW2NTF | 2026-09-05 11:11:38 | 45.52406 | 8.67251 | 116° | 16km/h | 3345m | 3.6m/s | 7°C | 44.8% | 0hPa | 3V | 08:30:00 | 00:37:54 | 00:00:00 | |
| IW2NTF | 2026-09-05 11:11:32 | 45.52422 | 8.67220 | 122° | 26km/h | 3308m | 5.3m/s | 7.1°C | 47.1% | 0hPa | 3V | 08:30:00 | 00:37:46 | 00:00:00 | |
| IW2NTF | 2026-09-05 11:11:25 | 45.52431 | 8.67181 | 136° | 7km/h | 3283m | 4.4m/s | 7.2°C | 47.9% | 0hPa | 3V | 08:30:00 | 00:37:40 | 00:00:00 | |
| IW2NTF | 2026-09-05 11:11:18 | 45.52455 | 8.67169 | 144° | 18km/h | 3254m | 3.6m/s | 7.5°C | 48% | 0hPa | 3V | 08:30:00 | 00:37:34 | 00:00:00 | |
| IW2NTF | 2026-09-05 11:11:13 | 45.52477 | 8.67164 | 196° | 16km/h | 3226m | 2.7m/s | 7.7°C | 46.8% | 0hPa | 3V | 08:30:00 | 00:37:28 | 00:00:00 | |
| IW2NTF | 2026-09-05 11:11:07 | 45.52489 | 8.67155 | 94° | 13km/h | 3202m | 6.8m/s | 7.9°C | 46.1% | 0hPa | 3V | 08:30:00 | 00:37:22 | 00:00:00 | |
| IW2NTF | 2026-09-05 11:11:01 | 45.52500 | 8.67139 | 163° | 20km/h | 3172m | 4.1m/s | 8.2°C | 45.5% | 0hPa | 3V | 08:30:00 | 00:37:16 | 00:00:00 | |
| IW2NTF | 2026-09-05 11:10:55 | 45.52528 | 8.67139 | 186° | 20km/h | 3147m | 3.9m/s | 8.4°C | 43.9% | 0hPa | 3V | 08:30:00 | 00:37:10 | 00:00:00 | |
| IW2NTF | 2026-09-05 11:10:48 | 45.52561 | 8.67117 | 131° | 26km/h | 3123m | 3.7m/s | 8.7°C | 43.8% | 0hPa | 3V | 08:30:00 | 00:37:04 | 00:00:00 | |
| IW2NTF | 2026-09-05 11:10:43 | 45.52568 | 8.67085 | 146° | 7km/h | 3096m | 4.8m/s | 8.9°C | 42.6% | 0hPa | 3V | 08:30:00 | 00:36:58 | 00:00:00 | |
| IW2NTF | 2026-09-05 11:10:37 | 45.52590 | 8.67089 | 159° | 20km/h | 3071m | 3.5m/s | 9.1°C | 42.2% | 0hPa | 3V | 08:30:00 | 00:36:52 | 00:00:00 | |
| IW2NTF | 2026-09-05 11:10:31 | 45.52605 | 8.67051 | 102° | 13km/h | 3042m | 4.1m/s | 9.4°C | 41.2% | 0hPa | 3V | 08:30:00 | 00:36:46 | 00:00:00 | |
| IW2NTF | 2026-09-05 11:10:25 | 45.52617 | 8.67047 | 191° | 7km/h | 3011m | 4.6m/s | 9.7°C | 39.3% | 0hPa | 3V | 08:30:00 | 00:36:40 | 00:00:00 | |
| IW2NTF | 2026-09-05 11:10:19 | 45.52620 | 8.67022 | 106° | 22km/h | 2986m | 4.4m/s | 10°C | 38.7% | 0hPa | 3V | 08:30:00 | 00:36:34 | 00:00:00 | |
| IW2NTF | 2026-09-05 11:10:13 | 45.52640 | 8.67007 | 181° | 9km/h | 2960m | 4.4m/s | 10.2°C | 38.1% | 0hPa | 3V | 08:30:00 | 00:36:28 | 00:00:00 | |
| IW2NTF | 2026-09-05 11:10:06 | 45.52649 | 8.66971 | 95° | 26km/h | 2932m | 6.4m/s | 10.5°C | 37.7% | 0hPa | 3V | 08:30:00 | 00:36:22 | 00:00:00 | |
| IW2NTF | 2026-09-05 11:10:01 | 45.52642 | 8.66940 | 56° | 13km/h | 2901m | 6.3m/s | 10.8°C | 34.5% | 0hPa | 3V | 08:30:00 | 00:36:16 | 00:00:00 | |
| IW2NTF | 2026-09-05 11:09:55 | 45.52645 | 8.66915 | 161° | 15km/h | 2872m | 5.2m/s | 11.1°C | 34.2% | 0hPa | 3V | 08:30:00 | 00:36:10 | 00:00:00 | |
| IW2NTF | 2026-09-05 11:09:49 | 45.52659 | 8.66909 | 105° | 13km/h | 2838m | 6.8m/s | 11.4°C | 33.4% | 0hPa | 3V | 08:30:00 | 00:36:04 | 00:00:00 | |
| IW2NTF | 2026-09-05 11:09:43 | 45.52668 | 8.66878 | 81° | 5km/h | 2804m | 6.3m/s | 11.7°C | 33% | 0hPa | 3V | 08:30:00 | 00:35:58 | 00:00:00 | |
| IW2NTF | 2026-09-05 11:09:36 | 45.52665 | 8.66875 | 215° | 7km/h | 2772m | 5m/s | 12°C | 32.5% | 0hPa | 3V | 08:30:00 | 00:35:52 | 00:00:00 | |
| IW2NTF | 2026-09-05 11:09:31 | 45.52682 | 8.66862 | 97° | 16km/h | 2746m | 4.8m/s | 12.3°C | 32.2% | 0hPa | 3V | 08:30:00 | 00:35:46 | 00:00:00 | |
| IW2NTF | 2026-09-05 11:09:25 | 45.52674 | 8.66838 | 8° | 9km/h | 2716m | 4m/s | 12.6°C | 32% | 0hPa | 3V | 08:30:00 | 00:35:40 | 00:00:00 | |
| IW2NTF | 2026-09-05 11:09:19 | 45.52674 | 8.66844 | 165° | 9km/h | 2690m | 4.2m/s | 12.5°C | 32.5% | 0hPa | 3V | 08:30:00 | 00:35:34 | 00:00:00 | |
| IW2NTF | 2026-09-05 11:09:13 | 45.52691 | 8.66827 | 129° | 9km/h | 2662m | 6.6m/s | 12.6°C | 34.7% | 0hPa | 3V | 08:30:00 | 00:35:28 | 00:00:00 | |
| IW2NTF | 2026-09-05 11:09:06 | 45.52692 | 8.66811 | 105° | 7km/h | 2635m | 3m/s | 12.6°C | 38.2% | 0hPa | 3V | 08:30:00 | 00:35:22 | 00:00:00 | |
| IW2NTF | 2026-09-05 11:09:01 | 45.52691 | 8.66800 | 99° | 7km/h | 2614m | 4.5m/s | 12.7°C | 39% | 0hPa | 3V | 08:30:00 | 00:35:16 | 00:00:00 | |
| IW2NTF | 2026-09-05 11:08:55 | 45.52700 | 8.66771 | 127° | 20km/h | 2596m | 2.8m/s | 12.7°C | 41.3% | 0hPa | 3V | 08:30:00 | 00:35:10 | 00:00:00 | |
| IW2NTF | 2026-09-05 11:08:49 | 45.52712 | 8.66748 | 100° | 7km/h | 2571m | 5.8m/s | 12.4°C | 44.5% | 0hPa | 3V | 08:30:00 | 00:35:04 | 00:00:00 | |
| IW2NTF | 2026-09-05 11:08:43 | 45.52715 | 8.66714 | 75° | 18km/h | 2544m | 4.8m/s | 12.4°C | 45.6% | 0hPa | 3V | 08:30:00 | 00:34:58 | 00:00:00 | |
| IW2NTF | 2026-09-05 11:08:36 | 45.52703 | 8.66712 | 279° | 7km/h | 2512m | 4.6m/s | 12.5°C | 46.9% | 0hPa | 3V | 08:30:00 | 00:34:52 | 00:00:00 | |
| IW2NTF | 2026-09-05 11:08:31 | 45.52704 | 8.66732 | 274° | 11km/h | 2483m | 4.7m/s | 12.7°C | 46.9% | 0hPa | 3V | 08:30:00 | 00:34:46 | 00:00:00 | |
| IW2NTF | 2026-09-05 11:08:25 | 45.52697 | 8.66739 | 77° | 9km/h | 2460m | 4.7m/s | 12.9°C | 46.8% | 0hPa | 3V | 08:30:00 | 00:34:40 | 00:00:00 | |
| IW2NTF | 2026-09-05 11:08:19 | 45.52693 | 8.66719 | 351° | 4km/h | 2431m | 5.8m/s | 13.1°C | 46.6% | 0hPa | 3V | 08:30:00 | 00:34:34 | 00:00:00 | |
| IW2NTF | 2026-09-05 11:08:13 | 45.52687 | 8.66741 | 318° | 11km/h | 2405m | 3.2m/s | 13.4°C | 45.4% | 0hPa | 3V | 08:30:00 | 00:34:28 | 00:00:00 | |
| IW2NTF | 2026-09-05 11:08:06 | 45.52677 | 8.66753 | 284° | 13km/h | 2376m | 3.4m/s | 13.7°C | 44.7% | 0hPa | 3V | 08:30:00 | 00:34:22 | 00:00:00 | |
| IW2NTF | 2026-09-05 11:08:01 | 45.52665 | 8.66775 | 342° | 2km/h | 2345m | 5.9m/s | 13.9°C | 44.6% | 0hPa | 3V | 08:30:00 | 00:34:16 | 00:00:00 | |
| IW2NTF | 2026-09-05 11:07:55 | 45.52673 | 8.66784 | 263° | 13km/h | 2313m | 3.4m/s | 14.3°C | 43.4% | 0hPa | 3V | 08:30:00 | 00:34:10 | 00:00:00 | |
| IW2NTF | 2026-09-05 11:07:49 | 45.52666 | 8.66802 | 90° | 5km/h | 2284m | 6m/s | 14.5°C | 42.8% | 0hPa | 3V | 08:30:00 | 00:34:04 | 00:00:00 | |
| IW2NTF | 2026-09-05 11:07:43 | 45.52678 | 8.66796 | 232° | 11km/h | 2254m | 3.3m/s | 14.9°C | 42% | 0hPa | 3V | 08:30:00 | 00:33:58 | 00:00:00 | |
| IW2NTF | 2026-09-05 11:07:36 | 45.52667 | 8.66812 | 10° | 11km/h | 2230m | 3.6m/s | 15.1°C | 41.5% | 0hPa | 3V | 08:30:00 | 00:33:52 | 00:00:00 | |
| IW2NTF | 2026-09-05 11:07:31 | 45.52670 | 8.66807 | 237° | 15km/h | 2195m | 5.2m/s | 15.4°C | 40.8% | 0hPa | 3V | 08:30:00 | 00:33:46 | 00:00:00 | |
| IW2NTF | 2026-09-05 11:07:25 | 45.52670 | 8.66835 | 335° | 7km/h | 2168m | 4.5m/s | 15.7°C | 40% | 0hPa | 3V | 08:30:00 | 00:33:40 | 00:00:00 | |
| IW2NTF | 2026-09-05 11:07:17 | 45.52677 | 8.66836 | 247° | 13km/h | 2135m | 4.5m/s | 16°C | 38.9% | 0hPa | 3V | 08:30:00 | 00:33:32 | 00:00:00 | |
| IW2NTF | 2026-09-05 11:07:11 | 45.52677 | 8.66841 | 128° | 9km/h | 2106m | 4.5m/s | 16.2°C | 38.6% | 0hPa | 3V | 08:30:00 | 00:33:26 | 00:00:00 | |
| IW2NTF | 2026-09-05 11:07:04 | 45.52691 | 8.66837 | 268° | 7km/h | 2079m | 5.8m/s | 16.5°C | 37.9% | 0hPa | 3V | 08:30:00 | 00:33:20 | 00:00:00 | |
| IW2NTF | 2026-09-05 11:06:59 | 45.52692 | 8.66865 | 230° | 18km/h | 2053m | 3.8m/s | 16.8°C | 37.4% | 0hPa | 3V | 08:30:00 | 00:33:14 | 00:00:00 | |
| IW2NTF | 2026-09-05 11:06:53 | 45.52711 | 8.66877 | 152° | 5km/h | 2028m | 3.5m/s | 17°C | 37.3% | 0hPa | 3V | 08:30:00 | 00:33:08 | 00:00:00 | |
| IW2NTF | 2026-09-05 11:06:45 | 45.52712 | 8.66895 | 237° | 16km/h | 1996m | 4.3m/s | 17.3°C | 36.8% | 0hPa | 3V | 08:30:00 | 00:33:02 | 00:00:00 | |
| IW2NTF | 2026-09-05 11:06:45 | 45.52716 | 8.66902 | 210° | 13km/h | 1987m | 5.1m/s | 17.4°C | 36.5% | 0hPa | 3V | 08:30:00 | 00:33:00 | 00:00:00 | |
| IW2NTF | 2026-09-05 11:06:39 | 45.52720 | 8.66903 | 125° | 2km/h | 1978m | 4.6m/s | 17.5°C | 36.1% | 0hPa | 3V | 08:30:00 | 00:32:58 | 00:00:00 | |
| IW2NTF | 2026-09-05 11:06:39 | 45.52720 | 8.66903 | 293° | 2km/h | 1970m | 4.2m/s | 17.6°C | 36% | 0hPa | 3V | 08:30:00 | 00:32:56 | 00:00:00 | |
| IW2NTF | 2026-09-05 11:06:39 | 45.52721 | 8.66907 | 237° | 11km/h | 1960m | 4.8m/s | 17.7°C | 35.9% | 0hPa | 3V | 08:30:00 | 00:32:54 | 00:00:00 | |
| IW2NTF | 2026-09-05 11:06:33 | 45.52726 | 8.66913 | 201° | 15km/h | 1948m | 6.1m/s | 17.8°C | 35.3% | 0hPa | 3V | 08:30:00 | 00:32:52 | 00:00:00 | |
| IW2NTF | 2026-09-05 11:06:33 | 45.52731 | 8.66914 | 164° | 7km/h | 1936m | 4.9m/s | 17.9°C | 34.9% | 0hPa | 3V | 08:30:00 | 00:32:50 | 00:00:00 | |
| IW2NTF | 2026-09-05 11:06:33 | 45.52732 | 8.66912 | 33° | 5km/h | 1928m | 5.8m/s | 18°C | 34.8% | 0hPa | 3V | 08:30:00 | 00:32:48 | 00:00:00 | |
| IW2NTF | 2026-09-05 11:06:27 | 45.52729 | 8.66912 | 332° | 9km/h | 1917m | 4.9m/s | 18.1°C | 34.3% | 0hPa | 3V | 08:30:00 | 00:32:46 | 00:00:00 | |
| IW2NTF | 2026-09-05 11:06:27 | 45.52726 | 8.66919 | 288° | 16km/h | 1908m | 4m/s | 18.1°C | 34.1% | 0hPa | 3V | 08:30:00 | 00:32:44 | 00:00:00 | |
| IW2NTF | 2026-09-05 11:06:27 | 45.52726 | 8.66931 | 258° | 20km/h | 1899m | 5.6m/s | 18.2°C | 33.6% | 0hPa | 3V | 08:30:00 | 00:32:42 | 00:00:00 | |
| IW2NTF | 2026-09-05 11:06:21 | 45.52730 | 8.66944 | 222° | 18km/h | 1890m | 3.6m/s | 18.4°C | 33.5% | 0hPa | 3V | 08:30:00 | 00:32:40 | 00:00:00 | |
| IW2NTF | 2026-09-05 11:06:21 | 45.52738 | 8.66950 | 193° | 15km/h | 1881m | 5.2m/s | 18.4°C | 33.6% | 0hPa | 3V | 08:30:00 | 00:32:38 | 00:00:00 | |
| IW2NTF | 2026-09-05 11:06:21 | 45.52744 | 8.66949 | 145° | 9km/h | 1871m | 3.8m/s | 18.5°C | 33.3% | 0hPa | 3V | 08:30:00 | 00:32:36 | 00:00:00 | |
| IW2NTF | 2026-09-05 11:06:15 | 45.52746 | 8.66946 | 119° | 2km/h | 1865m | 3.7m/s | 18.6°C | 33.4% | 0hPa | 3V | 08:30:00 | 00:32:34 | 00:00:00 | |
| IW2NTF | 2026-09-05 11:06:15 | 45.52746 | 8.66948 | 275° | 9km/h | 1855m | 5.7m/s | 18.6°C | 33% | 0hPa | 3V | 08:30:00 | 00:32:32 | 00:00:00 | |
| IW2NTF | 2026-09-05 11:06:15 | 45.52747 | 8.66958 | 252° | 18km/h | 1845m | 4.8m/s | 18.8°C | 32.9% | 0hPa | 3V | 08:30:00 | 00:32:30 | 00:00:00 | |
| IW2NTF | 2026-09-05 11:06:09 | 45.52752 | 8.66970 | 225° | 18km/h | 1833m | 7.1m/s | 18.9°C | 32.8% | 0hPa | 3V | 08:30:00 | 00:32:28 | 00:00:00 | |
| IW2NTF | 2026-09-05 11:06:09 | 45.52759 | 8.66975 | 190° | 15km/h | 1821m | 6.5m/s | 19°C | 32.4% | 0hPa | 3V | 08:30:00 | 00:32:26 | 00:00:00 | |
| IW2NTF | 2026-09-05 11:06:09 | 45.52765 | 8.66973 | 140° | 9km/h | 1809m | 4.5m/s | 19.1°C | 31.9% | 0hPa | 3V | 08:30:00 | 00:32:24 | 00:00:00 | |
| IW2NTF | 2026-09-05 11:06:03 | 45.52767 | 8.66971 | 164° | 4km/h | 1802m | 5m/s | 19.1°C | 31.9% | 0hPa | 3V | 08:30:00 | 00:32:22 | 00:00:00 | |
| IW2NTF | 2026-09-05 11:06:03 | 45.52770 | 8.66972 | 200° | 11km/h | 1791m | 4.7m/s | 19.2°C | 31.8% | 0hPa | 3V | 08:30:00 | 00:32:20 | 00:00:00 | |
| IW2NTF | 2026-09-05 11:06:03 | 45.52776 | 8.66974 | 180° | 13km/h | 1780m | 7.4m/s | 19.3°C | 31.6% | 0hPa | 3V | 08:30:00 | 00:32:18 | 00:00:00 | |
| IW2NTF | 2026-09-05 11:05:57 | 45.52782 | 8.66971 | 146° | 11km/h | 1767m | 6.3m/s | 19.4°C | 31.4% | 0hPa | 3V | 08:30:00 | 00:32:16 | 00:00:00 | |
| IW2NTF | 2026-09-05 11:05:57 | 45.52783 | 8.66971 | 278° | 4km/h | 1756m | 4.5m/s | 19.5°C | 31.3% | 0hPa | 3V | 08:30:00 | 00:32:14 | 00:00:00 | |
| IW2NTF | 2026-09-05 11:05:57 | 45.52784 | 8.66978 | 252° | 16km/h | 1747m | 6.2m/s | 19.6°C | 31.1% | 0hPa | 3V | 08:30:00 | 00:32:12 | 00:00:00 | |
| IW2NTF | 2026-09-05 11:05:51 | 45.52789 | 8.66989 | 228° | 22km/h | 1735m | 5.1m/s | 19.7°C | 30.9% | 0hPa | 3V | 08:30:00 | 00:32:10 | 00:00:00 | |
| IW2NTF | 2026-09-05 11:05:51 | 45.52798 | 8.67001 | 223° | 27km/h | 1725m | 4.4m/s | 19.8°C | 30.7% | 0hPa | 3V | 08:30:00 | 00:32:08 | 00:00:00 | |
| IW2NTF | 2026-09-05 11:05:51 | 45.52808 | 8.67012 | 208° | 26km/h | 1716m | 4m/s | 19.9°C | 30.6% | 0hPa | 3V | 08:30:00 | 00:32:06 | 00:00:00 | |
| IW2NTF | 2026-09-05 11:05:45 | 45.52818 | 8.67016 | 175° | 15km/h | 1707m | 5m/s | 20°C | 30.5% | 0hPa | 3V | 08:30:00 | 00:32:04 | 00:00:00 | |
| IW2NTF | 2026-09-05 11:05:45 | 45.52826 | 8.67011 | 136° | 16km/h | 1698m | 5.5m/s | 20.1°C | 30.4% | 0hPa | 3V | 08:30:00 | 00:32:02 | 00:00:00 | |
| IW2NTF | 2026-09-05 11:05:45 | 45.52829 | 8.67004 | 120° | 9km/h | 1687m | 4.6m/s | 20.2°C | 30.1% | 0hPa | 3V | 08:30:00 | 00:32:00 | 00:00:00 | |
| IW2NTF | 2026-09-05 11:05:39 | 45.52831 | 8.67001 | 90° | 2km/h | 1678m | 4.4m/s | 20.3°C | 30.1% | 0hPa | 3V | 08:30:00 | 00:31:58 | 00:00:00 | |
| IW2NTF | 2026-09-05 11:05:39 | 45.52833 | 8.66998 | 147° | 7km/h | 1667m | 6.2m/s | 20.4°C | 30% | 0hPa | 3V | 08:30:00 | 00:31:56 | 00:00:00 | |
| IW2NTF | 2026-09-05 11:05:39 | 45.52837 | 8.66993 | 140° | 20km/h | 1655m | 5.1m/s | 20.2°C | 31.1% | 0hPa | 3V | 08:30:00 | 00:31:54 | 00:00:00 | |
| IW2NTF | 2026-09-05 11:05:31 | 45.52859 | 8.66982 | 188° | 22km/h | 1631m | 6.2m/s | 20.4°C | 31% | 0hPa | 3V | 08:30:00 | 00:31:50 | 00:00:00 | |
| IW2NTF | 2026-09-05 11:05:31 | 45.52869 | 8.66988 | 214° | 22km/h | 1619m | 6.3m/s | 20.5°C | 30.9% | 0hPa | 3V | 08:30:00 | 00:31:48 | 00:00:00 | |
| IW2NTF | 2026-09-05 11:05:31 | 45.52877 | 8.66997 | 217° | 18km/h | 1608m | 4.5m/s | 20.6°C | 30.6% | 0hPa | 3V | 08:30:00 | 00:31:46 | 00:00:00 | |
| IW2NTF | 2026-09-05 11:05:26 | 45.52884 | 8.67004 | 218° | 13km/h | 1600m | 3.3m/s | 20.6°C | 30.6% | 0hPa | 3V | 08:30:00 | 00:31:44 | 00:00:00 | |
| IW2NTF | 2026-09-05 11:05:26 | 45.52889 | 8.67011 | 218° | 15km/h | 1592m | 5.3m/s | 20.7°C | 30.4% | 0hPa | 3V | 08:30:00 | 00:31:42 | 00:00:00 | |
| IW2NTF | 2026-09-05 11:05:26 | 45.52896 | 8.67018 | 217° | 22km/h | 1582m | 4.7m/s | 20.8°C | 30.4% | 0hPa | 3V | 08:30:00 | 00:31:40 | 00:00:00 | |
| IW2NTF | 2026-09-05 11:05:19 | 45.52906 | 8.67028 | 206° | 27km/h | 1574m | 3.8m/s | 20.8°C | 30.3% | 0hPa | 3V | 08:30:00 | 00:31:38 | 00:00:00 | |
| IW2NTF | 2026-09-05 11:05:19 | 45.52920 | 8.67036 | 197° | 29km/h | 1566m | 4m/s | 20.9°C | 30.2% | 0hPa | 3V | 08:30:00 | 00:31:36 | 00:00:00 | |
| IW2NTF | 2026-09-05 11:05:19 | 45.52935 | 8.67037 | 175° | 29km/h | 1558m | 4m/s | 20.9°C | 30.4% | 0hPa | 3V | 08:30:00 | 00:31:34 | 00:00:00 | |
| IW2NTF | 2026-09-05 11:05:13 | 45.52948 | 8.67034 | 160° | 22km/h | 1549m | 5.6m/s | 20.9°C | 30.7% | 0hPa | 3V | 08:30:00 | 00:31:32 | 00:00:00 | |
| IW2NTF | 2026-09-05 11:05:13 | 45.52956 | 8.67032 | 189° | 13km/h | 1538m | 5m/s | 20.9°C | 31% | 0hPa | 3V | 08:30:00 | 00:31:30 | 00:00:00 | |
| IW2NTF | 2026-09-05 11:05:13 | 45.52960 | 8.67035 | 216° | 9km/h | 1528m | 6.8m/s | 21°C | 30.8% | 0hPa | 3V | 08:30:00 | 00:31:28 | 00:00:00 | |
| IW2NTF | 2026-09-05 11:05:07 | 45.52964 | 8.67038 | 190° | 9km/h | 1513m | 7.2m/s | 21.2°C | 30.7% | 0hPa | 3V | 08:30:00 | 00:31:26 | 00:00:00 | |
| IW2NTF | 2026-09-05 11:05:07 | 45.52971 | 8.67038 | 176° | 20km/h | 1503m | 3.2m/s | 21.3°C | 30.5% | 0hPa | 3V | 08:30:00 | 00:31:24 | 00:00:00 | |
| IW2NTF | 2026-09-05 11:05:07 | 45.52983 | 8.67038 | 184° | 26km/h | 1493m | 5.9m/s | 21.3°C | 30.4% | 0hPa | 3V | 08:30:00 | 00:31:22 | 00:00:00 | |
| IW2NTF | 2026-09-05 11:05:01 | 45.52996 | 8.67040 | 182° | 26km/h | 1481m | 6.2m/s | 21.4°C | 31.1% | 0hPa | 3V | 08:30:00 | 00:31:20 | 00:00:00 | |
| IW2NTF | 2026-09-05 11:05:01 | 45.53007 | 8.67039 | 171° | 18km/h | 1471m | 3.4m/s | 21.5°C | 30.9% | 0hPa | 3V | 08:30:00 | 00:31:18 | 00:00:00 | |
| IW2NTF | 2026-09-05 11:05:01 | 45.53014 | 8.67035 | 145° | 15km/h | 1463m | 5.4m/s | 21.5°C | 31.2% | 0hPa | 3V | 08:30:00 | 00:31:16 | 00:00:00 | |
| IW2NTF | 2026-09-05 11:04:56 | 45.53020 | 8.67029 | 152° | 15km/h | 1453m | 3.5m/s | 21.6°C | 31% | 0hPa | 3V | 08:30:00 | 00:31:14 | 00:00:00 | |
| IW2NTF | 2026-09-05 11:04:56 | 45.53030 | 8.67026 | 176° | 20km/h | 1445m | 3.9m/s | 21.7°C | 30.9% | 0hPa | 3V | 08:30:00 | 00:31:12 | 00:00:00 | |
| IW2NTF | 2026-09-05 11:04:56 | 45.53040 | 8.67028 | 196° | 22km/h | 1437m | 4.2m/s | 21.7°C | 30.8% | 0hPa | 3V | 08:30:00 | 00:31:10 | 00:00:00 | |
| IW2NTF | 2026-09-05 11:04:56 | 45.53048 | 8.67035 | 226° | 15km/h | 1430m | 3.8m/s | 21.8°C | 31.1% | 0hPa | 3V | 08:30:00 | 00:31:08 | 00:00:00 | |
| IW2NTF | 2026-09-05 11:04:56 | 45.53051 | 8.67040 | 241° | 4km/h | 1421m | 5.2m/s | 21.9°C | 30.9% | 0hPa | 3V | 08:30:00 | 00:31:06 | 00:00:00 | |
| IW2NTF | 2026-09-05 11:04:56 | 45.53051 | 8.67040 | 72° | 2km/h | 1411m | 4.5m/s | 21.9°C | 30.8% | 0hPa | 3V | 08:30:00 | 00:31:04 | 00:00:00 | |
| IW2NTF | 2026-09-05 11:04:56 | 45.53051 | 8.67040 | 252° | 4km/h | 1403m | 3.8m/s | 22.1°C | 30.7% | 0hPa | 3V | 08:30:00 | 00:31:02 | 00:00:00 | |
| IW2NTF | 2026-09-05 11:04:56 | 45.53051 | 8.67045 | 269° | 7km/h | 1395m | 4.5m/s | 22.1°C | 30.7% | 0hPa | 3V | 08:30:00 | 00:31:00 | 00:00:00 | |
| IW2NTF | 2026-09-05 11:04:56 | 45.53050 | 8.67049 | 304° | 5km/h | 1384m | 5.2m/s | 22.1°C | 31.2% | 0hPa | 3V | 08:30:00 | 00:30:58 | 00:00:00 | |
| IW2NTF | 2026-09-05 11:04:56 | 45.53050 | 8.67049 | 145° | 5km/h | 1376m | 2.6m/s | 22.2°C | 31% | 0hPa | 3V | 08:30:00 | 00:30:56 | 00:00:00 | |
| IW2NTF | 2026-09-05 11:04:56 | 45.53056 | 8.67047 | 177° | 16km/h | 1370m | 3.8m/s | 22.3°C | 31.5% | 0hPa | 3V | 08:30:00 | 00:30:54 | 00:00:00 | |
| IW2NTF | 2026-09-05 11:04:56 | 45.53065 | 8.67048 | 196° | 22km/h | 1363m | 4m/s | 22.4°C | 31.2% | 0hPa | 3V | 08:30:00 | 00:30:52 | 00:00:00 | |
| IW2NTF | 2026-09-05 11:04:56 | 45.53075 | 8.67055 | 211° | 22km/h | 1353m | 5.2m/s | 22.4°C | 31.4% | 0hPa | 3V | 08:30:00 | 00:30:50 | 00:00:00 | |
| IW2NTF | 2026-09-05 11:04:56 | 45.53082 | 8.67065 | 221° | 20km/h | 1345m | 4.4m/s | 22.5°C | 31.4% | 0hPa | 3V | 08:30:00 | 00:30:48 | 00:00:00 | |
| IW2NTF | 2026-09-05 11:04:27 | 45.53090 | 8.67074 | 211° | 20km/h | 1337m | 3.7m/s | 22.6°C | 30.9% | 0hPa | 3V | 08:30:00 | 00:30:46 | 00:00:00 | |
| IW2NTF | 2026-09-05 11:04:27 | 45.53098 | 8.67078 | 178° | 15km/h | 1330m | 4.6m/s | 22.6°C | 31.4% | 0hPa | 3V | 08:30:00 | 00:30:44 | 00:00:00 | |
| IW2NTF | 2026-09-05 11:04:27 | 45.53104 | 8.67075 | 132° | 7km/h | 1319m | 5.5m/s | 22.7°C | 31.2% | 0hPa | 3V | 08:30:00 | 00:30:42 | 00:00:00 | |
| IW2NTF | 2026-09-05 11:04:21 | 45.53104 | 8.67072 | 40° | 4km/h | 1309m | 6.1m/s | 22.8°C | 31.2% | 0hPa | 3V | 08:30:00 | 00:30:40 | 00:00:00 | |
| IW2NTF | 2026-09-05 11:04:21 | 45.53102 | 8.67075 | 281° | 9km/h | 1299m | 4.7m/s | 22.9°C | 31% | 0hPa | 3V | 08:30:00 | 00:30:38 | 00:00:00 | |
| IW2NTF | 2026-09-05 11:04:21 | 45.53104 | 8.67083 | 232° | 15km/h | 1289m | 4.6m/s | 23°C | 30.9% | 0hPa | 3V | 08:30:00 | 00:30:36 | 00:00:00 | |
| IW2NTF | 2026-09-05 11:04:15 | 45.53110 | 8.67089 | 195° | 15km/h | 1279m | 4.7m/s | 23.1°C | 30.9% | 0hPa | 3V | 00:00:00 | 00:30:34 | 00:00:00 | |
| IW2NTF | 2026-09-05 11:04:15 | 45.53117 | 8.67088 | 151° | 15km/h | 1269m | 5.5m/s | 23.2°C | 30.9% | 0hPa | 3V | 00:00:00 | 00:30:32 | 00:00:00 | |
| IW2NTF | 2026-09-05 11:04:15 | 45.53122 | 8.67081 | 125° | 15km/h | 1258m | 6.2m/s | 23.3°C | 30.8% | 0hPa | 3V | 00:00:00 | 00:30:30 | 00:00:00 | |
| IW2NTF | 2026-09-05 11:04:09 | 45.53125 | 8.67074 | 105° | 9km/h | 1246m | 6m/s | 23.3°C | 31.1% | 0hPa | 3V | 00:00:00 | 00:30:28 | 00:00:00 | |
| IW2NTF | 2026-09-05 11:04:09 | 45.53124 | 8.67068 | 62° | 7km/h | 1236m | 4.3m/s | 23.4°C | 30.6% | 0hPa | 3V | 00:00:00 | 00:30:26 | 00:00:00 | |
| IW2NTF | 2026-09-05 11:04:09 | 45.53122 | 8.67065 | 7° | 7km/h | 1228m | 3.6m/s | 23.5°C | 30.8% | 0hPa | 3V | 00:00:00 | 00:30:24 | 00:00:00 | |
| IW2NTF | 2026-09-05 11:04:03 | 45.53119 | 8.67068 | 304° | 9km/h | 1221m | 2.8m/s | 23.6°C | 30.4% | 0hPa | 3V | 00:00:00 | 00:30:22 | 00:00:00 | |
| IW2NTF | 2026-09-05 11:04:03 | 45.53118 | 8.67075 | 257° | 13km/h | 1212m | 5.5m/s | 23.6°C | 31.1% | 0hPa | 3V | 00:00:00 | 00:30:20 | 00:00:00 | |
| IW2NTF | 2026-09-05 11:04:03 | 45.53121 | 8.67085 | 232° | 15km/h | 1202m | 4.3m/s | 23.7°C | 31.1% | 0hPa | 3V | 00:00:00 | 00:30:18 | 00:00:00 | |
| IW2NTF | 2026-09-05 11:03:57 | 45.53128 | 8.67090 | 192° | 16km/h | 1193m | 5.6m/s | 23.8°C | 31.4% | 0hPa | 3V | 00:00:00 | 00:30:16 | 00:00:00 | |
| IW2NTF | 2026-09-05 11:03:57 | 45.53135 | 8.67091 | 167° | 13km/h | 1184m | 3.8m/s | 23.8°C | 31.4% | 0hPa | 3V | 00:00:00 | 00:30:14 | 00:00:00 | |
| IW2NTF | 2026-09-05 11:03:57 | 45.53142 | 8.67086 | 154° | 15km/h | 1175m | 4.3m/s | 23.8°C | 32.2% | 0hPa | 3V | 00:00:00 | 00:30:12 | 00:00:00 | |
| IW2NTF | 2026-09-05 11:03:51 | 45.53148 | 8.67080 | 145° | 13km/h | 1168m | 3.3m/s | 23.8°C | 32.1% | 0hPa | 3V | 00:00:00 | 00:30:10 | 00:00:00 | |
| IW2NTF | 2026-09-05 11:03:51 | 45.53152 | 8.67075 | 138° | 13km/h | 1160m | 5.6m/s | 23.9°C | 32% | 0hPa | 3V | 00:00:00 | 00:30:08 | 00:00:00 | |
| IW2NTF | 2026-09-05 11:03:51 | 45.53157 | 8.67070 | 165° | 13km/h | 1149m | 4.6m/s | 24°C | 32% | 0hPa | 3V | 00:00:00 | 00:30:06 | 00:00:00 | |
| IW2NTF | 2026-09-05 11:03:45 | 45.53164 | 8.67072 | 214° | 13km/h | 1141m | 4m/s | 24.1°C | 0% | 0hPa | 3V | 00:00:00 | 00:30:04 | 00:00:00 | |
| IW2NTF | 2026-09-05 11:03:45 | 45.53168 | 8.67078 | 217° | 15km/h | 1131m | 5.1m/s | 24.1°C | 0% | 0hPa | 3V | 00:00:00 | 00:30:02 | 00:00:00 | |
| IW2NTF | 2026-09-05 11:03:45 | 45.53175 | 8.67083 | 197° | 15km/h | 1119m | 6.3m/s | 24.1°C | 0% | 0hPa | 3V | 00:00:00 | 00:30:00 | 00:00:00 | |
| IW2NTF | 2026-09-05 11:03:39 | 45.53182 | 8.67084 | 166° | 15km/h | 1109m | 4.6m/s | 24.2°C | 0% | 0hPa | 3V | 00:00:00 | 00:29:58 | 00:00:00 | |
| IW2NTF | 2026-09-05 11:03:39 | 45.53188 | 8.67080 | 137° | 9km/h | 1101m | 3.4m/s | 24.3°C | 0% | 0hPa | 3V | 00:00:00 | 00:29:56 | 00:00:00 | |
| IW2NTF | 2026-09-05 11:03:39 | 45.53189 | 8.67076 | 65° | 4km/h | 1093m | 4.9m/s | 24.4°C | 0% | 0hPa | 3V | 00:00:00 | 00:29:54 | 00:00:00 | |
| IW2NTF | 2026-09-05 11:03:33 | 45.53186 | 8.67075 | 8° | 7km/h | 1084m | 3.7m/s | 24.5°C | 0% | 0hPa | 3V | 00:00:00 | 00:29:52 | 00:00:00 | |
| IW2NTF | 2026-09-05 11:03:33 | 45.53181 | 8.67075 | 7° | 11km/h | 1076m | 4.4m/s | 0°C | 0% | 0hPa | 3V | 00:00:00 | 00:29:50 | 00:00:00 | |
| IW2NTF | 2026-09-05 11:03:33 | 45.53176 | 8.67071 | 49° | 11km/h | 1067m | 2.8m/s | 0°C | 0% | 0hPa | 3V | 00:00:00 | 00:29:48 | 00:00:00 | |
| IW2NTF | 2026-09-05 11:03:27 | 45.53174 | 8.67064 | 84° | 9km/h | 1059m | 4.6m/s | 0°C | 0% | 0hPa | 3V | 00:00:00 | 00:29:46 | 00:00:00 | |
| IW2NTF | 2026-09-05 11:03:27 | 45.53176 | 8.67061 | 172° | 7km/h | 1050m | 3.8m/s | 0°C | 0% | 0hPa | 3V | 00:00:00 | 00:29:44 | 00:00:00 | |
| IW2NTF | 2026-09-05 11:03:27 | 45.53181 | 8.67062 | 189° | 13km/h | 1041m | 6.1m/s | 0°C | 0% | 0hPa | 3V | 00:00:00 | 00:29:42 | 00:00:00 | |
| IW2NTF | 2026-09-05 11:03:21 | 45.53187 | 8.67062 | 162° | 13km/h | 1029m | 5.2m/s | 0°C | 0% | 0hPa | 3V | 00:00:00 | 00:29:40 | 00:00:00 | |
| IW2NTF | 2026-09-05 11:03:21 | 45.53191 | 8.67057 | 118° | 11km/h | 1021m | 4.6m/s | 0°C | 0% | 0hPa | 3V | 00:00:00 | 00:29:38 | 00:00:00 | |
| IW2NTF | 2026-09-05 11:03:21 | 45.53191 | 8.67051 | 54° | 9km/h | 1012m | 5.3m/s | 0°C | 0% | 0hPa | 3V | 00:00:00 | 00:29:36 | 00:00:00 | |
| IW2NTF | 2026-09-05 11:03:15 | 45.53187 | 8.67047 | 355° | 9km/h | 1003m | 3.8m/s | 0°C | 0% | 0hPa | 3V | 00:00:00 | 00:29:34 | 00:00:00 | |
| IW2NTF | 2026-09-05 11:03:15 | 45.53183 | 8.67050 | 316° | 9km/h | 995m | 4.1m/s | 0°C | 0% | 0hPa | 3V | 00:00:00 | 00:29:32 | 00:00:00 | |
| IW2NTF | 2026-09-05 11:03:15 | 45.53181 | 8.67058 | 271° | 11km/h | 986m | 3.5m/s | 0°C | 0% | 0hPa | 3V | 00:00:00 | 00:29:30 | 00:00:00 | |
| IW2NTF | 2026-09-05 11:03:09 | 45.53183 | 8.67066 | 245° | 13km/h | 979m | 3.5m/s | 0°C | 0% | 0hPa | 3V | 00:00:00 | 00:29:28 | 00:00:00 | |
| IW2NTF | 2026-09-05 11:03:09 | 45.53188 | 8.67071 | 193° | 13km/h | 971m | 4.3m/s | 0°C | 0% | 0hPa | 3V | 00:00:00 | 00:29:26 | 00:00:00 | |
| IW2NTF | 2026-09-05 11:03:09 | 45.53194 | 8.67071 | 162° | 13km/h | 963m | 3.5m/s | 0°C | 0% | 0hPa | 3V | 00:00:00 | 00:29:24 | 00:00:00 | |
| IW2NTF | 2026-09-05 11:03:04 | 45.53197 | 8.67067 | 106° | 7km/h | 956m | 4m/s | 0°C | 0% | 0hPa | 3V | 00:00:00 | 00:29:22 | 00:00:00 | |
| IW2NTF | 2026-09-05 11:03:04 | 45.53196 | 8.67064 | 6° | 5km/h | 948m | 3.9m/s | 0°C | 0% | 0hPa | 3V | 00:00:00 | 00:29:20 | 00:00:00 | |
| IW2NTF | 2026-09-05 11:03:04 | 45.53194 | 8.67068 | 299° | 9km/h | 941m | 3.3m/s | 0°C | 0% | 0hPa | 3V | 00:00:00 | 00:29:18 | 00:00:00 | |
| IW2NTF | 2026-09-05 11:02:56 | 45.53194 | 8.67073 | 213° | 7km/h | 934m | 3.9m/s | 0°C | 0% | 0hPa | 3V | 00:00:00 | 00:29:16 | 00:00:00 | |
| IW2NTF | 2026-09-05 11:02:56 | 45.53199 | 8.67072 | 147° | 11km/h | 924m | 5.1m/s | 0°C | 0% | 0hPa | 3V | 00:00:00 | 00:29:14 | 00:00:00 | |
| IW2NTF | 2026-09-05 11:02:56 | 45.53201 | 8.67064 | 83° | 16km/h | 915m | 4.2m/s | 0°C | 0% | 0hPa | 3V | 00:00:00 | 00:29:12 | 00:00:00 | |
| IW2NTF | 2026-09-05 11:02:50 | 45.53198 | 8.67054 | 42° | 13km/h | 907m | 3.7m/s | 0°C | 0% | 0hPa | 3V | 00:00:00 | 00:29:10 | 00:00:00 | |
| IW2NTF | 2026-09-05 11:02:50 | 45.53192 | 8.67051 | 15° | 11km/h | 901m | 4.1m/s | 0°C | 0% | 0hPa | 3V | 00:00:00 | 00:29:08 | 00:00:00 | |
| IW2NTF | 2026-09-05 11:02:50 | 45.53191 | 8.67054 | 184° | 7km/h | 887m | 3.9m/s | 0°C | 0% | 0hPa | 3V | 00:00:00 | 00:29:04 | 00:00:00 | |
| IW2NTF | 2026-09-05 11:02:45 | 45.53195 | 8.67054 | 173° | 9km/h | 878m | 3.6m/s | 0°C | 0% | 0hPa | 3V | 00:00:00 | 00:29:02 | 00:00:00 | |
| IW2NTF | 2026-09-05 11:02:45 | 45.53200 | 8.67049 | 123° | 15km/h | 872m | 4.1m/s | 0°C | 0% | 0hPa | 3V | 00:00:00 | 00:29:00 | 00:00:00 | |
| IW2NTF | 2026-09-05 11:02:45 | 45.53203 | 8.67038 | 101° | 18km/h | 864m | 4.4m/s | 0°C | 0% | 0hPa | 3V | 00:00:00 | 00:28:58 | 00:00:00 | |
| IW2NTF | 2026-09-05 11:02:36 | 45.53202 | 8.67024 | 64° | 18km/h | 857m | 3.3m/s | 0°C | 0% | 0hPa | 3V | 00:00:00 | 00:28:56 | 00:00:00 | |
| IW2NTF | 2026-09-05 11:02:36 | 45.53196 | 8.67014 | 40° | 16km/h | 850m | 4.3m/s | 0°C | 0% | 0hPa | 3V | 00:00:00 | 00:28:54 | 00:00:00 | |
| IW2NTF | 2026-09-05 11:02:36 | 45.53189 | 8.67008 | 17° | 16km/h | 842m | 3.7m/s | 0°C | 0% | 0hPa | 3V | 00:00:00 | 00:28:52 | 00:00:00 |